<?xml version='1.0' encoding='UTF-8'?><gpx version="1.1" creator="JPX - https://github.com/jenetics/jpx" xmlns="http://www.topografix.com/GPX/1/1"><trk><trkseg><trkpt lat="47.254980856017" lon="-0.1237569382608731"><ele>73.0</ele><time>2026-04-19T15:02:04.916Z</time></trkpt><trkpt lat="47.25494312447097" lon="-0.12408980191849671"><ele>73.0</ele><time>2026-04-19T15:03:02Z</time></trkpt><trkpt lat="47.25493814950204" lon="-0.12399623309718198"><ele>73.0</ele><time>2026-04-19T15:03:22.999Z</time></trkpt><trkpt lat="47.25487574478281" lon="-0.12397823360734143"><ele>73.0</ele><time>2026-04-19T15:03:49.998Z</time></trkpt><trkpt lat="47.254814634783365" lon="-0.12393163203817567"><ele>73.0</ele><time>2026-04-19T15:05:08Z</time></trkpt><trkpt lat="47.25476045807719" lon="-0.12400527933016142"><ele>72.83333333333333</ele><time>2026-04-19T15:05:10Z</time></trkpt><trkpt lat="47.25471173737691" lon="-0.12412140162152362"><ele>72.66666666666666</ele><time>2026-04-19T15:05:12Z</time></trkpt><trkpt lat="47.25460686201924" lon="-0.1241903596606621"><ele>72.5</ele><time>2026-04-19T15:05:14Z</time></trkpt><trkpt lat="47.254539816114985" lon="-0.1242283065828737"><ele>72.33333333333333</ele><time>2026-04-19T15:05:15Z</time></trkpt><trkpt lat="47.25447295381618" lon="-0.12427069208029962"><ele>72.16666666666667</ele><time>2026-04-19T15:05:16Z</time></trkpt><trkpt lat="47.25439233104501" lon="-0.12432053203492065"><ele>72.0</ele><time>2026-04-19T15:05:17Z</time></trkpt><trkpt lat="47.254306594365545" lon="-0.1243745622686223"><ele>72.0</ele><time>2026-04-19T15:05:18Z</time></trkpt><trkpt lat="47.254228661061454" lon="-0.12443051912002809"><ele>72.0</ele><time>2026-04-19T15:05:19Z</time></trkpt><trkpt lat="47.25415934789456" lon="-0.12451003214050849"><ele>72.0</ele><time>2026-04-19T15:05:20Z</time></trkpt><trkpt lat="47.25407999881786" lon="-0.12457445662071812"><ele>72.0</ele><time>2026-04-19T15:05:21Z</time></trkpt><trkpt lat="47.254001149096446" lon="-0.1246468825825964"><ele>72.0</ele><time>2026-04-19T15:05:22Z</time></trkpt><trkpt lat="47.25392838057827" lon="-0.12472285802687309"><ele>72.0</ele><time>2026-04-19T15:05:23Z</time></trkpt><trkpt lat="47.25385589885534" lon="-0.12480407938431211"><ele>72.0</ele><time>2026-04-19T15:05:23.999Z</time></trkpt><trkpt lat="47.253794575823996" lon="-0.12487364345236776"><ele>72.0</ele><time>2026-04-19T15:05:24.999Z</time></trkpt><trkpt lat="47.25373317621687" lon="-0.12494701585696717"><ele>72.0</ele><time>2026-04-19T15:05:25.999Z</time></trkpt><trkpt lat="47.25366602635307" lon="-0.1250312044954386"><ele>72.0</ele><time>2026-04-19T15:05:26.999Z</time></trkpt><trkpt lat="47.25359671867024" lon="-0.1251252826876799"><ele>72.0</ele><time>2026-04-19T15:05:27.999Z</time></trkpt><trkpt lat="47.253551341761664" lon="-0.12520175507658526"><ele>72.0</ele><time>2026-04-19T15:05:28.999Z</time></trkpt><trkpt lat="47.253499322423956" lon="-0.12529197499802439"><ele>72.0</ele><time>2026-04-19T15:05:29.999Z</time></trkpt><trkpt lat="47.253446252148734" lon="-0.12535767715014168"><ele>72.0</ele><time>2026-04-19T15:05:30.999Z</time></trkpt><trkpt lat="47.253393213377414" lon="-0.1254560106313305"><ele>72.0</ele><time>2026-04-19T15:05:31.999Z</time></trkpt><trkpt lat="47.25331974809082" lon="-0.12555185908720531"><ele>72.0</ele><time>2026-04-19T15:05:33.998Z</time></trkpt><trkpt lat="47.25328562301524" lon="-0.12563806479915277"><ele>72.0</ele><time>2026-04-19T15:05:36.998Z</time></trkpt><trkpt lat="47.253398654342675" lon="-0.12581978932175297"><ele>72.0</ele><time>2026-04-19T15:05:37.998Z</time></trkpt><trkpt lat="47.25345447470734" lon="-0.12587836472970973"><ele>72.0</ele><time>2026-04-19T15:05:38.998Z</time></trkpt><trkpt lat="47.25352999214443" lon="-0.12595129597750057"><ele>72.0</ele><time>2026-04-19T15:05:39.998Z</time></trkpt><trkpt lat="47.25361543790694" lon="-0.12604416352272158"><ele>72.0</ele><time>2026-04-19T15:05:40.998Z</time></trkpt><trkpt lat="47.253717413183566" lon="-0.12615452426924276"><ele>72.0</ele><time>2026-04-19T15:05:41.998Z</time></trkpt><trkpt lat="47.25381579135385" lon="-0.1262774899544369"><ele>72.0</ele><time>2026-04-19T15:05:42.998Z</time></trkpt><trkpt lat="47.25390630914093" lon="-0.12638154597015283"><ele>72.0</ele><time>2026-04-19T15:05:43.998Z</time></trkpt><trkpt lat="47.25398491497892" lon="-0.12647815880236918"><ele>72.0</ele><time>2026-04-19T15:05:44.998Z</time></trkpt><trkpt lat="47.254049193920665" lon="-0.12658259688277143"><ele>72.0</ele><time>2026-04-19T15:05:45.998Z</time></trkpt><trkpt lat="47.25410735284632" lon="-0.1266835481420192"><ele>72.0</ele><time>2026-04-19T15:05:46.998Z</time></trkpt><trkpt lat="47.25413740200349" lon="-0.12680186562868095"><ele>71.6</ele><time>2026-04-19T15:05:47.998Z</time></trkpt><trkpt lat="47.254150559086575" lon="-0.12690665790440864"><ele>71.2</ele><time>2026-04-19T15:05:48.998Z</time></trkpt><trkpt lat="47.254142365897096" lon="-0.12705975831091698"><ele>70.8</ele><time>2026-04-19T15:05:49.998Z</time></trkpt><trkpt lat="47.254137257809425" lon="-0.1272144469141508"><ele>70.4</ele><time>2026-04-19T15:05:50.998Z</time></trkpt><trkpt lat="47.25414192281246" lon="-0.12735012345967645"><ele>70.0</ele><time>2026-04-19T15:05:51.998Z</time></trkpt><trkpt lat="47.254153194078214" lon="-0.12746953520113977"><ele>70.0</ele><time>2026-04-19T15:05:52.998Z</time></trkpt><trkpt lat="47.25416419673178" lon="-0.12761102845088235"><ele>70.0</ele><time>2026-04-19T15:05:53.998Z</time></trkpt><trkpt lat="47.254189614073454" lon="-0.1277495131526357"><ele>70.0</ele><time>2026-04-19T15:05:54.998Z</time></trkpt><trkpt lat="47.254215985381144" lon="-0.12786971394619684"><ele>70.0</ele><time>2026-04-19T15:05:55.998Z</time></trkpt><trkpt lat="47.25423965391584" lon="-0.12796457128475247"><ele>70.0</ele><time>2026-04-19T15:05:56.998Z</time></trkpt><trkpt lat="47.254278108318005" lon="-0.12807818224536918"><ele>70.0</ele><time>2026-04-19T15:05:57.998Z</time></trkpt><trkpt lat="47.254350375263584" lon="-0.12820788297359978"><ele>71.0</ele><time>2026-04-19T15:05:58.998Z</time></trkpt><trkpt lat="47.254435879519825" lon="-0.12831823894797784"><ele>72.0</ele><time>2026-04-19T15:05:59.998Z</time></trkpt><trkpt lat="47.254512357786716" lon="-0.12841980669133807"><ele>73.0</ele><time>2026-04-19T15:06:00.998Z</time></trkpt><trkpt lat="47.254577767055856" lon="-0.128482405495553"><ele>74.0</ele><time>2026-04-19T15:06:01.998Z</time></trkpt><trkpt lat="47.25466918077895" lon="-0.12856360464946712"><ele>75.0</ele><time>2026-04-19T15:06:03.998Z</time></trkpt><trkpt lat="47.25472771448486" lon="-0.1286235759663938"><ele>75.0</ele><time>2026-04-19T15:06:05.998Z</time></trkpt><trkpt lat="47.254697302988106" lon="-0.12873194102567867"><ele>75.0</ele><time>2026-04-19T15:06:07.998Z</time></trkpt><trkpt lat="47.254603610052364" lon="-0.12887174114038022"><ele>75.0</ele><time>2026-04-19T15:06:09.998Z</time></trkpt><trkpt lat="47.25455596144688" lon="-0.1289408858290883"><ele>75.0</ele><time>2026-04-19T15:06:10.998Z</time></trkpt><trkpt lat="47.25444837310774" lon="-0.12892162960926037"><ele>75.0</ele><time>2026-04-19T15:06:12.998Z</time></trkpt><trkpt lat="47.25439352477839" lon="-0.12898194175241268"><ele>75.2</ele><time>2026-04-19T15:06:14.998Z</time></trkpt><trkpt lat="47.25440595030964" lon="-0.12916683430778148"><ele>75.4</ele><time>2026-04-19T15:06:16.998Z</time></trkpt><trkpt lat="47.25440266899133" lon="-0.12927173448495785"><ele>75.6</ele><time>2026-04-19T15:06:17.998Z</time></trkpt><trkpt lat="47.254355660837106" lon="-0.1293937313192231"><ele>75.8</ele><time>2026-04-19T15:06:19.998Z</time></trkpt><trkpt lat="47.25427956594503" lon="-0.1294597903251894"><ele>76.0</ele><time>2026-04-19T15:06:21.999Z</time></trkpt><trkpt lat="47.25422980059697" lon="-0.1295400209675106"><ele>76.0</ele><time>2026-04-19T15:06:22.999Z</time></trkpt><trkpt lat="47.25418863630075" lon="-0.12963050720779992"><ele>76.0</ele><time>2026-04-19T15:06:23.999Z</time></trkpt><trkpt lat="47.25414670595711" lon="-0.12975725791608395"><ele>76.0</ele><time>2026-04-19T15:06:24.999Z</time></trkpt><trkpt lat="47.254105877445284" lon="-0.1298649410849255"><ele>76.0</ele><time>2026-04-19T15:06:25.999Z</time></trkpt><trkpt lat="47.254046437443684" lon="-0.1299836446581114"><ele>76.0</ele><time>2026-04-19T15:06:26.999Z</time></trkpt><trkpt lat="47.253987725222885" lon="-0.13009488730165616"><ele>76.0</ele><time>2026-04-19T15:06:27.999Z</time></trkpt><trkpt lat="47.25394249526433" lon="-0.13018400740900024"><ele>76.33333333333333</ele><time>2026-04-19T15:06:28.999Z</time></trkpt><trkpt lat="47.25388639646917" lon="-0.13026420333704905"><ele>76.66666666666666</ele><time>2026-04-19T15:06:29.999Z</time></trkpt><trkpt lat="47.25383779103817" lon="-0.1303308164249763"><ele>77.0</ele><time>2026-04-19T15:06:30.999Z</time></trkpt><trkpt lat="47.25377500380312" lon="-0.1304847781248037"><ele>77.33333333333333</ele><time>2026-04-19T15:06:32.999Z</time></trkpt><trkpt lat="47.253756899632634" lon="-0.13060453435910385"><ele>77.66666666666667</ele><time>2026-04-19T15:06:34.999Z</time></trkpt><trkpt lat="47.253709790846095" lon="-0.1306708056254013"><ele>78.0</ele><time>2026-04-19T15:06:37.999Z</time></trkpt><trkpt lat="47.253668710106226" lon="-0.1307457761226631"><ele>78.0</ele><time>2026-04-19T15:06:40.999Z</time></trkpt><trkpt lat="47.253593087904456" lon="-0.13079047162683144"><ele>78.0</ele><time>2026-04-19T15:06:42.999Z</time></trkpt><trkpt lat="47.25353304365446" lon="-0.1308340602049787"><ele>78.0</ele><time>2026-04-19T15:06:44.999Z</time></trkpt><trkpt lat="47.253467111183944" lon="-0.13089653641586635"><ele>78.0</ele><time>2026-04-19T15:06:46.999Z</time></trkpt><trkpt lat="47.25338607949686" lon="-0.1309228735337479"><ele>78.0</ele><time>2026-04-19T15:06:49.999Z</time></trkpt><trkpt lat="47.25330726495096" lon="-0.1309495523740261"><ele>78.0</ele><time>2026-04-19T15:06:51.999Z</time></trkpt><trkpt lat="47.253226220703816" lon="-0.13092049258595367"><ele>78.0</ele><time>2026-04-19T15:06:53.999Z</time></trkpt><trkpt lat="47.25315015596525" lon="-0.1308586839276097"><ele>78.0</ele><time>2026-04-19T15:06:55.999Z</time></trkpt><trkpt lat="47.25305650266892" lon="-0.13075230606524396"><ele>78.0</ele><time>2026-04-19T15:06:57.999Z</time></trkpt><trkpt lat="47.252969874796385" lon="-0.13063160277373811"><ele>78.0</ele><time>2026-04-19T15:06:59.999Z</time></trkpt><trkpt lat="47.25291614151146" lon="-0.1305654070381078"><ele>78.0</ele><time>2026-04-19T15:07:00.999Z</time></trkpt><trkpt lat="47.252836813205654" lon="-0.13041202403890412"><ele>78.2</ele><time>2026-04-19T15:07:02.999Z</time></trkpt><trkpt lat="47.25278674128359" lon="-0.13026101003271642"><ele>78.4</ele><time>2026-04-19T15:07:04.999Z</time></trkpt><trkpt lat="47.25270342428122" lon="-0.1301410614805281"><ele>78.60000000000001</ele><time>2026-04-19T15:07:06.999Z</time></trkpt><trkpt lat="47.25265210097513" lon="-0.13005834464324315"><ele>78.8</ele><time>2026-04-19T15:07:07.999Z</time></trkpt><trkpt lat="47.25259371531476" lon="-0.12996941636709394"><ele>79.0</ele><time>2026-04-19T15:07:08.999Z</time></trkpt><trkpt lat="47.25253511524514" lon="-0.1298801591570173"><ele>79.2</ele><time>2026-04-19T15:07:10.999Z</time></trkpt><trkpt lat="47.25247062451829" lon="-0.12974357881119034"><ele>79.4</ele><time>2026-04-19T15:07:12.999Z</time></trkpt><trkpt lat="47.25242036423556" lon="-0.1296623048293228"><ele>79.6</ele><time>2026-04-19T15:07:14.999Z</time></trkpt><trkpt lat="47.25231842465621" lon="-0.12965564235766439"><ele>79.8</ele><time>2026-04-19T15:07:16.999Z</time></trkpt><trkpt lat="47.25224331334308" lon="-0.12967266776225214"><ele>80.0</ele><time>2026-04-19T15:07:17.999Z</time></trkpt><trkpt lat="47.25215592235081" lon="-0.12968134368885326"><ele>80.0</ele><time>2026-04-19T15:07:18.999Z</time></trkpt><trkpt lat="47.2520599679987" lon="-0.12968189258301027"><ele>80.0</ele><time>2026-04-19T15:07:19.999Z</time></trkpt><trkpt lat="47.251956790869805" lon="-0.129688239871762"><ele>80.0</ele><time>2026-04-19T15:07:20.999Z</time></trkpt><trkpt lat="47.25185031747955" lon="-0.12970380970984258"><ele>80.0</ele><time>2026-04-19T15:07:21.999Z</time></trkpt><trkpt lat="47.25174732143763" lon="-0.12970397426856636"><ele>80.0</ele><time>2026-04-19T15:07:22.999Z</time></trkpt><trkpt lat="47.25164607065472" lon="-0.12971893175179658"><ele>80.0</ele><time>2026-04-19T15:07:23.999Z</time></trkpt><trkpt lat="47.25155485816947" lon="-0.12973212807237258"><ele>80.0</ele><time>2026-04-19T15:07:24.999Z</time></trkpt><trkpt lat="47.251482047455006" lon="-0.12973259479145866"><ele>80.0</ele><time>2026-04-19T15:07:25.999Z</time></trkpt><trkpt lat="47.25139034842233" lon="-0.12973621884090675"><ele>80.0</ele><time>2026-04-19T15:07:26.999Z</time></trkpt><trkpt lat="47.25130537940567" lon="-0.12974627619011972"><ele>80.0</ele><time>2026-04-19T15:07:27.999Z</time></trkpt><trkpt lat="47.25120047636864" lon="-0.129755900057293"><ele>80.0</ele><time>2026-04-19T15:07:28.999Z</time></trkpt><trkpt lat="47.25111258272689" lon="-0.12976222010731384"><ele>79.83333333333334</ele><time>2026-04-19T15:07:29.999Z</time></trkpt><trkpt lat="47.25104433096483" lon="-0.12977335115165295"><ele>79.66666666666667</ele><time>2026-04-19T15:07:30.999Z</time></trkpt><trkpt lat="47.250950149834566" lon="-0.12977750233252355"><ele>79.5</ele><time>2026-04-19T15:07:31.999Z</time></trkpt><trkpt lat="47.25087241302779" lon="-0.12978397845480621"><ele>79.33333333333333</ele><time>2026-04-19T15:07:32.999Z</time></trkpt><trkpt lat="47.250777723130945" lon="-0.12978551793297588"><ele>79.16666666666666</ele><time>2026-04-19T15:07:33.999Z</time></trkpt><trkpt lat="47.250690345751885" lon="-0.1297933760492129"><ele>79.0</ele><time>2026-04-19T15:07:34.999Z</time></trkpt><trkpt lat="47.2506140005749" lon="-0.1297996232835421"><ele>78.66666666666666</ele><time>2026-04-19T15:07:35.999Z</time></trkpt><trkpt lat="47.25054159258168" lon="-0.12979587209996224"><ele>78.33333333333333</ele><time>2026-04-19T15:07:36.999Z</time></trkpt><trkpt lat="47.25045069475724" lon="-0.1298224690589337"><ele>78.0</ele><time>2026-04-19T15:07:38.999Z</time></trkpt><trkpt lat="47.25038389838644" lon="-0.12986438636235878"><ele>77.66666666666667</ele><time>2026-04-19T15:07:39.999Z</time></trkpt><trkpt lat="47.25032909999836" lon="-0.12991352934992326"><ele>77.33333333333334</ele><time>2026-04-19T15:07:40.999Z</time></trkpt><trkpt lat="47.25021762825451" lon="-0.12999443565385843"><ele>77.0</ele><time>2026-04-19T15:07:42.998Z</time></trkpt><trkpt lat="47.25015388447729" lon="-0.1300246564906141"><ele>76.57142857142857</ele><time>2026-04-19T15:07:43.998Z</time></trkpt><trkpt lat="47.25006828783462" lon="-0.13006196011477755"><ele>76.14285714285714</ele><time>2026-04-19T15:07:44.998Z</time></trkpt><trkpt lat="47.24999451603474" lon="-0.1300848136118328"><ele>75.71428571428572</ele><time>2026-04-19T15:07:45.998Z</time></trkpt><trkpt lat="47.249925539446245" lon="-0.1301067840178794"><ele>75.28571428571428</ele><time>2026-04-19T15:07:46.998Z</time></trkpt><trkpt lat="47.24985904952104" lon="-0.13012958424050594"><ele>74.85714285714286</ele><time>2026-04-19T15:07:47.998Z</time></trkpt><trkpt lat="47.24979356104355" lon="-0.1301737801947258"><ele>74.42857142857143</ele><time>2026-04-19T15:07:48.998Z</time></trkpt><trkpt lat="47.249733466071135" lon="-0.13021849257713747"><ele>74.0</ele><time>2026-04-19T15:07:49.998Z</time></trkpt><trkpt lat="47.2496580048592" lon="-0.13025419892867168"><ele>73.16666666666667</ele><time>2026-04-19T15:07:50.998Z</time></trkpt><trkpt lat="47.24953676207072" lon="-0.13027944559385102"><ele>72.33333333333334</ele><time>2026-04-19T15:07:52.998Z</time></trkpt><trkpt lat="47.24945975041943" lon="-0.13030774896427982"><ele>71.5</ele><time>2026-04-19T15:07:54.998Z</time></trkpt><trkpt lat="47.24939331860036" lon="-0.13031576822790666"><ele>70.66666666666667</ele><time>2026-04-19T15:07:57.998Z</time></trkpt><trkpt lat="47.24940531075382" lon="-0.13022172373257523"><ele>69.83333333333333</ele><time>2026-04-19T15:07:59.998Z</time></trkpt><trkpt lat="47.24949537986543" lon="-0.13024371711024402"><ele>69.0</ele><time>2026-04-19T15:08:01.998Z</time></trkpt><trkpt lat="47.24963157539348" lon="-0.13027346378656376"><ele>69.0</ele><time>2026-04-19T15:08:03.998Z</time></trkpt><trkpt lat="47.24971048387077" lon="-0.13025062230777573"><ele>69.0</ele><time>2026-04-19T15:08:04.998Z</time></trkpt><trkpt lat="47.24979050762986" lon="-0.13019062057444078"><ele>69.0</ele><time>2026-04-19T15:08:05.998Z</time></trkpt><trkpt lat="47.24988433958324" lon="-0.13013283978628878"><ele>69.0</ele><time>2026-04-19T15:08:06.998Z</time></trkpt><trkpt lat="47.249970096975254" lon="-0.1300799030797905"><ele>69.0</ele><time>2026-04-19T15:08:07.998Z</time></trkpt><trkpt lat="47.2500469112321" lon="-0.13006117986641533"><ele>69.0</ele><time>2026-04-19T15:08:08.998Z</time></trkpt><trkpt lat="47.24998208909047" lon="-0.13011032014801358"><ele>69.66666666666667</ele><time>2026-04-19T15:08:23.998Z</time></trkpt><trkpt lat="47.25001015712436" lon="-0.13022210302757303"><ele>70.33333333333333</ele><time>2026-04-19T15:08:31.999Z</time></trkpt><trkpt lat="47.25001769428981" lon="-0.13031706149629113"><ele>71.0</ele><time>2026-04-19T15:08:32.999Z</time></trkpt><trkpt lat="47.25003159000877" lon="-0.13042028522123603"><ele>71.66666666666666</ele><time>2026-04-19T15:08:33.999Z</time></trkpt><trkpt lat="47.250050789353025" lon="-0.13054330330903335"><ele>72.33333333333333</ele><time>2026-04-19T15:08:34.999Z</time></trkpt><trkpt lat="47.250067711384055" lon="-0.13065059876710394"><ele>73.0</ele><time>2026-04-19T15:08:35.999Z</time></trkpt><trkpt lat="47.25010363511111" lon="-0.13077898788380715"><ele>73.0</ele><time>2026-04-19T15:08:37.999Z</time></trkpt><trkpt lat="47.25018742161924" lon="-0.13090404464415484"><ele>73.0</ele><time>2026-04-19T15:08:39.999Z</time></trkpt><trkpt lat="47.25024827725071" lon="-0.13098983961825528"><ele>73.0</ele><time>2026-04-19T15:08:40.999Z</time></trkpt><trkpt lat="47.25032713664393" lon="-0.13107385513698833"><ele>73.0</ele><time>2026-04-19T15:08:41.999Z</time></trkpt><trkpt lat="47.25040952544431" lon="-0.13116885630287575"><ele>73.0</ele><time>2026-04-19T15:08:42.999Z</time></trkpt><trkpt lat="47.25046102552843" lon="-0.13124604986229632"><ele>73.0</ele><time>2026-04-19T15:08:43.999Z</time></trkpt><trkpt lat="47.250511085279236" lon="-0.13130595327827604"><ele>73.0</ele><time>2026-04-19T15:08:44.999Z</time></trkpt><trkpt lat="47.25055038930876" lon="-0.13138218984685196"><ele>73.0</ele><time>2026-04-19T15:08:45.999Z</time></trkpt><trkpt lat="47.25060162281179" lon="-0.13146152876530842"><ele>73.0</ele><time>2026-04-19T15:08:46.999Z</time></trkpt><trkpt lat="47.25064891658856" lon="-0.1315526096842593"><ele>73.0</ele><time>2026-04-19T15:08:47.999Z</time></trkpt><trkpt lat="47.250712761363005" lon="-0.13170949955189562"><ele>73.0</ele><time>2026-04-19T15:08:49.999Z</time></trkpt><trkpt lat="47.250822152520456" lon="-0.13181011899413703"><ele>73.16666666666666</ele><time>2026-04-19T15:08:51.999Z</time></trkpt><trkpt lat="47.25088975386674" lon="-0.13187500658122098"><ele>73.33333333333333</ele><time>2026-04-19T15:08:52.999Z</time></trkpt><trkpt lat="47.2509750483423" lon="-0.1319778360452073"><ele>73.5</ele><time>2026-04-19T15:08:54.999Z</time></trkpt><trkpt lat="47.251025428444144" lon="-0.13203476478882026"><ele>73.66666666666667</ele><time>2026-04-19T15:08:55.999Z</time></trkpt><trkpt lat="47.251089704564414" lon="-0.1321103321963907"><ele>73.83333333333334</ele><time>2026-04-19T15:08:56.999Z</time></trkpt><trkpt lat="47.251178441805365" lon="-0.1321864025385961"><ele>74.0</ele><time>2026-04-19T15:08:58.999Z</time></trkpt><trkpt lat="47.2512526414507" lon="-0.13223176231369743"><ele>74.0</ele><time>2026-04-19T15:09:00.999Z</time></trkpt><trkpt lat="47.25131964761089" lon="-0.13227771643552066"><ele>74.0</ele><time>2026-04-19T15:09:01.999Z</time></trkpt><trkpt lat="47.25140673354045" lon="-0.13233399328994558"><ele>74.0</ele><time>2026-04-19T15:09:02.999Z</time></trkpt><trkpt lat="47.2514923298641" lon="-0.1323652121264755"><ele>74.0</ele><time>2026-04-19T15:09:03.999Z</time></trkpt><trkpt lat="47.25157044073268" lon="-0.13238548224647273"><ele>74.0</ele><time>2026-04-19T15:09:04.999Z</time></trkpt><trkpt lat="47.25165015570758" lon="-0.13240638877699215"><ele>74.0</ele><time>2026-04-19T15:09:05.999Z</time></trkpt><trkpt lat="47.25173198085961" lon="-0.13243328080359756"><ele>74.2</ele><time>2026-04-19T15:09:06.999Z</time></trkpt><trkpt lat="47.25180917402313" lon="-0.13245767343102446"><ele>74.4</ele><time>2026-04-19T15:09:07.999Z</time></trkpt><trkpt lat="47.25187112554813" lon="-0.1324849354562374"><ele>74.6</ele><time>2026-04-19T15:09:08.999Z</time></trkpt><trkpt lat="47.251982828656985" lon="-0.13256602324227285"><ele>74.8</ele><time>2026-04-19T15:09:10.999Z</time></trkpt><trkpt lat="47.252057310834736" lon="-0.1326051966123931"><ele>75.0</ele><time>2026-04-19T15:09:11.999Z</time></trkpt><trkpt lat="47.25214706271071" lon="-0.13273086209864168"><ele>74.99999999999999</ele><time>2026-04-19T15:09:13.999Z</time></trkpt><trkpt lat="47.25218345525854" lon="-0.1328433968941701"><ele>75.0</ele><time>2026-04-19T15:09:14.999Z</time></trkpt><trkpt lat="47.25222599305192" lon="-0.1329467927850578"><ele>75.0</ele><time>2026-04-19T15:09:15.999Z</time></trkpt><trkpt lat="47.252258799158106" lon="-0.13303070517525045"><ele>75.0</ele><time>2026-04-19T15:09:16.999Z</time></trkpt><trkpt lat="47.25228873230357" lon="-0.1331183326557491"><ele>75.0</ele><time>2026-04-19T15:09:17.999Z</time></trkpt><trkpt lat="47.252327162706464" lon="-0.1332106921175104"><ele>74.99999999999999</ele><time>2026-04-19T15:09:18.999Z</time></trkpt><trkpt lat="47.25237666718444" lon="-0.1332874947760826"><ele>75.0</ele><time>2026-04-19T15:09:19.999Z</time></trkpt><trkpt lat="47.25242852368536" lon="-0.13346466460913944"><ele>75.16666666666667</ele><time>2026-04-19T15:09:21.999Z</time></trkpt><trkpt lat="47.25246303233977" lon="-0.13357952271370654"><ele>75.33333333333333</ele><time>2026-04-19T15:09:22.999Z</time></trkpt><trkpt lat="47.25254128495833" lon="-0.133724869588573"><ele>75.5</ele><time>2026-04-19T15:09:24.999Z</time></trkpt><trkpt lat="47.25259685797446" lon="-0.13380385778451745"><ele>75.66666666666666</ele><time>2026-04-19T15:09:25.999Z</time></trkpt><trkpt lat="47.25265422983515" lon="-0.13388178647726043"><ele>75.83333333333333</ele><time>2026-04-19T15:09:26.999Z</time></trkpt><trkpt lat="47.25271827308394" lon="-0.13395766716405022"><ele>76.0</ele><time>2026-04-19T15:09:27.999Z</time></trkpt><trkpt lat="47.25278617276557" lon="-0.1340350998644219"><ele>76.0</ele><time>2026-04-19T15:09:28.999Z</time></trkpt><trkpt lat="47.25290126177934" lon="-0.13408063918705707"><ele>76.0</ele><time>2026-04-19T15:09:30.999Z</time></trkpt><trkpt lat="47.252988726640034" lon="-0.13408793813957423"><ele>76.0</ele><time>2026-04-19T15:09:31.999Z</time></trkpt><trkpt lat="47.25308732482416" lon="-0.13408284012850247"><ele>76.0</ele><time>2026-04-19T15:09:32.999Z</time></trkpt><trkpt lat="47.25317589045931" lon="-0.13405934415517062"><ele>76.0</ele><time>2026-04-19T15:09:33.999Z</time></trkpt><trkpt lat="47.25326641735161" lon="-0.13403950306196646"><ele>76.5</ele><time>2026-04-19T15:09:34.999Z</time></trkpt><trkpt lat="47.25334500853224" lon="-0.13404210430651595"><ele>77.0</ele><time>2026-04-19T15:09:35.999Z</time></trkpt><trkpt lat="47.25341772697674" lon="-0.13407261411729712"><ele>77.5</ele><time>2026-04-19T15:09:36.999Z</time></trkpt><trkpt lat="47.25350183633542" lon="-0.13414001855966678"><ele>78.0</ele><time>2026-04-19T15:09:37.999Z</time></trkpt><trkpt lat="47.253577436189914" lon="-0.13421019916584356"><ele>78.5</ele><time>2026-04-19T15:09:38.999Z</time></trkpt><trkpt lat="47.25365032240321" lon="-0.13428130587843962"><ele>79.0</ele><time>2026-04-19T15:09:39.999Z</time></trkpt><trkpt lat="47.2537287080865" lon="-0.1343620179936473"><ele>79.0</ele><time>2026-04-19T15:09:40.999Z</time></trkpt><trkpt lat="47.25379955525995" lon="-0.13444916522070044"><ele>79.0</ele><time>2026-04-19T15:09:41.999Z</time></trkpt><trkpt lat="47.25385953693274" lon="-0.13450308505400324"><ele>79.0</ele><time>2026-04-19T15:09:42.999Z</time></trkpt><trkpt lat="47.25393720523455" lon="-0.13459996451551323"><ele>79.0</ele><time>2026-04-19T15:09:44.999Z</time></trkpt><trkpt lat="47.253974779891074" lon="-0.13470581787280697"><ele>79.0</ele><time>2026-04-19T15:09:46.999Z</time></trkpt><trkpt lat="47.2540395043908" lon="-0.13481942551399248"><ele>79.0</ele><time>2026-04-19T15:09:49.999Z</time></trkpt><trkpt lat="47.25409413375956" lon="-0.13488632674524098"><ele>79.0</ele><time>2026-04-19T15:09:50.999Z</time></trkpt><trkpt lat="47.254156515628495" lon="-0.13495316220764886"><ele>79.0</ele><time>2026-04-19T15:09:51.999Z</time></trkpt><trkpt lat="47.2542274771762" lon="-0.13501749436092036"><ele>79.0</ele><time>2026-04-19T15:09:52.999Z</time></trkpt><trkpt lat="47.25431678992953" lon="-0.13507917692145638"><ele>79.0</ele><time>2026-04-19T15:09:54.999Z</time></trkpt><trkpt lat="47.25438657374242" lon="-0.13505173661289815"><ele>79.0</ele><time>2026-04-19T15:09:59.999Z</time></trkpt><trkpt lat="47.25444042213545" lon="-0.1348491568820931"><ele>79.0</ele><time>2026-04-19T15:10:01.999Z</time></trkpt><trkpt lat="47.25446015247038" lon="-0.13472402047997167"><ele>79.0</ele><time>2026-04-19T15:10:02.999Z</time></trkpt><trkpt lat="47.254484694016135" lon="-0.13458556363360613"><ele>79.0</ele><time>2026-04-19T15:10:03.999Z</time></trkpt><trkpt lat="47.25451363247459" lon="-0.1344442428432757"><ele>79.0</ele><time>2026-04-19T15:10:04.999Z</time></trkpt><trkpt lat="47.25452458100551" lon="-0.1343174479361707"><ele>79.0</ele><time>2026-04-19T15:10:05.999Z</time></trkpt><trkpt lat="47.25454054516316" lon="-0.1341952762883575"><ele>79.0</ele><time>2026-04-19T15:10:06.999Z</time></trkpt><trkpt lat="47.25455154482712" lon="-0.13409130896976854"><ele>79.0</ele><time>2026-04-19T15:10:07.999Z</time></trkpt><trkpt lat="47.25455257268344" lon="-0.13398799562336522"><ele>79.0</ele><time>2026-04-19T15:10:08.999Z</time></trkpt><trkpt lat="47.25455400296265" lon="-0.13386462803951338"><ele>79.0</ele><time>2026-04-19T15:10:09.999Z</time></trkpt><trkpt lat="47.25456818085186" lon="-0.1336984013326063"><ele>79.0</ele><time>2026-04-19T15:10:10.999Z</time></trkpt><trkpt lat="47.25458635352208" lon="-0.13354680085953233"><ele>79.0</ele><time>2026-04-19T15:10:11.998Z</time></trkpt><trkpt lat="47.25459878395412" lon="-0.13339492683246823"><ele>79.0</ele><time>2026-04-19T15:10:12.998Z</time></trkpt><trkpt lat="47.25460712578477" lon="-0.13327851422701445"><ele>79.0</ele><time>2026-04-19T15:10:13.998Z</time></trkpt><trkpt lat="47.25461660314948" lon="-0.1331781172617485"><ele>79.0</ele><time>2026-04-19T15:10:14.998Z</time></trkpt><trkpt lat="47.25462931134405" lon="-0.13306700146434577"><ele>79.0</ele><time>2026-04-19T15:10:16.998Z</time></trkpt><trkpt lat="47.254653438477" lon="-0.1329440385559113"><ele>79.0</ele><time>2026-04-19T15:10:19.998Z</time></trkpt><trkpt lat="47.25467133886937" lon="-0.13279432396421698"><ele>79.0</ele><time>2026-04-19T15:10:21.998Z</time></trkpt><trkpt lat="47.254681670736694" lon="-0.13269181381297634"><ele>79.0</ele><time>2026-04-19T15:10:22.998Z</time></trkpt><trkpt lat="47.25470346035098" lon="-0.13256178908605837"><ele>79.0</ele><time>2026-04-19T15:10:23.998Z</time></trkpt><trkpt lat="47.254735901533444" lon="-0.1324091328862134"><ele>79.0</ele><time>2026-04-19T15:10:24.998Z</time></trkpt><trkpt lat="47.25474919917777" lon="-0.13229537440895406"><ele>79.0</ele><time>2026-04-19T15:10:25.998Z</time></trkpt><trkpt lat="47.254784578464175" lon="-0.13221787878287977"><ele>79.0</ele><time>2026-04-19T15:10:28.998Z</time></trkpt><trkpt lat="47.254847473902636" lon="-0.1321969225401366"><ele>79.0</ele><time>2026-04-19T15:10:30.998Z</time></trkpt><trkpt lat="47.25491613361553" lon="-0.1321950210772769"><ele>79.0</ele><time>2026-04-19T15:10:34Z</time></trkpt><trkpt lat="47.254825794079366" lon="-0.13219073658230376"><ele>79.0</ele><time>2026-04-19T15:11:18.999Z</time></trkpt><trkpt lat="47.25473475285868" lon="-0.13230820843186206"><ele>79.0</ele><time>2026-04-19T15:11:21.999Z</time></trkpt><trkpt lat="47.254703572127184" lon="-0.13246267140151483"><ele>79.0</ele><time>2026-04-19T15:11:23.999Z</time></trkpt><trkpt lat="47.254681338349904" lon="-0.132617871291366"><ele>79.0</ele><time>2026-04-19T15:11:25.999Z</time></trkpt><trkpt lat="47.254663305686904" lon="-0.1327118006085054"><ele>79.0</ele><time>2026-04-19T15:11:26.999Z</time></trkpt><trkpt lat="47.25463366376171" lon="-0.13286857435080826"><ele>79.0</ele><time>2026-04-19T15:11:28.999Z</time></trkpt><trkpt lat="47.25463007163939" lon="-0.13297067605078217"><ele>79.0</ele><time>2026-04-19T15:11:30.999Z</time></trkpt><trkpt lat="47.2546126727495" lon="-0.1331039844115546"><ele>79.0</ele><time>2026-04-19T15:11:33.999Z</time></trkpt><trkpt lat="47.25460094534752" lon="-0.13320755556691424"><ele>79.0</ele><time>2026-04-19T15:11:34.999Z</time></trkpt><trkpt lat="47.254592675105165" lon="-0.13333136564843256"><ele>79.0</ele><time>2026-04-19T15:11:35.999Z</time></trkpt><trkpt lat="47.25458526953549" lon="-0.13347196720982324"><ele>79.0</ele><time>2026-04-19T15:11:36.999Z</time></trkpt><trkpt lat="47.25457666841542" lon="-0.13361881888066085"><ele>79.0</ele><time>2026-04-19T15:11:37.999Z</time></trkpt><trkpt lat="47.25456782962526" lon="-0.13377489852280364"><ele>79.0</ele><time>2026-04-19T15:11:38.999Z</time></trkpt><trkpt lat="47.254553130827226" lon="-0.133901792403689"><ele>79.0</ele><time>2026-04-19T15:11:39.999Z</time></trkpt><trkpt lat="47.25454745863934" lon="-0.13402184661720024"><ele>79.0</ele><time>2026-04-19T15:11:40.999Z</time></trkpt><trkpt lat="47.2545422079674" lon="-0.13415450070449866"><ele>79.0</ele><time>2026-04-19T15:11:41.999Z</time></trkpt><trkpt lat="47.25453370714454" lon="-0.13430538184112617"><ele>79.0</ele><time>2026-04-19T15:11:42.999Z</time></trkpt><trkpt lat="47.254514584421145" lon="-0.13444367846877234"><ele>79.0</ele><time>2026-04-19T15:11:43.999Z</time></trkpt><trkpt lat="47.25449190092511" lon="-0.13455785691495895"><ele>79.0</ele><time>2026-04-19T15:11:44.999Z</time></trkpt><trkpt lat="47.2544713292884" lon="-0.13468379450259124"><ele>79.0</ele><time>2026-04-19T15:11:45.999Z</time></trkpt><trkpt lat="47.254443228368054" lon="-0.1348227004141432"><ele>79.0</ele><time>2026-04-19T15:11:46.999Z</time></trkpt><trkpt lat="47.25442207291328" lon="-0.1349441434072913"><ele>79.0</ele><time>2026-04-19T15:11:47.999Z</time></trkpt><trkpt lat="47.25438916709498" lon="-0.13504374791902551"><ele>79.0</ele><time>2026-04-19T15:11:48.999Z</time></trkpt><trkpt lat="47.25435354737376" lon="-0.13513387982311442"><ele>79.0</ele><time>2026-04-19T15:11:49.999Z</time></trkpt><trkpt lat="47.25432155569774" lon="-0.1352377920360115"><ele>79.0</ele><time>2026-04-19T15:11:50.999Z</time></trkpt><trkpt lat="47.254306537568766" lon="-0.13533053999865347"><ele>79.0</ele><time>2026-04-19T15:11:51.999Z</time></trkpt><trkpt lat="47.25431279422621" lon="-0.13547964469512752"><ele>79.0</ele><time>2026-04-19T15:11:53.999Z</time></trkpt><trkpt lat="47.25439531091267" lon="-0.13565939492734483"><ele>79.0</ele><time>2026-04-19T15:11:55.999Z</time></trkpt><trkpt lat="47.25440902953636" lon="-0.13577149480318612"><ele>79.0</ele><time>2026-04-19T15:11:56.999Z</time></trkpt><trkpt lat="47.25445806171804" lon="-0.13594960816136187"><ele>79.0</ele><time>2026-04-19T15:11:58.999Z</time></trkpt><trkpt lat="47.25454457312971" lon="-0.1360896945087882"><ele>79.0</ele><time>2026-04-19T15:12:00.999Z</time></trkpt><trkpt lat="47.25462808053599" lon="-0.1362050209152128"><ele>79.0</ele><time>2026-04-19T15:12:02.999Z</time></trkpt><trkpt lat="47.254730490401734" lon="-0.1363090199900369"><ele>79.0</ele><time>2026-04-19T15:12:04.999Z</time></trkpt><trkpt lat="47.25478456163511" lon="-0.13637411902252425"><ele>79.0</ele><time>2026-04-19T15:12:05.999Z</time></trkpt><trkpt lat="47.25487780249018" lon="-0.13649323131797564"><ele>79.0</ele><time>2026-04-19T15:12:07.999Z</time></trkpt><trkpt lat="47.254956609529614" lon="-0.13658995054242812"><ele>77.66666666666666</ele><time>2026-04-19T15:12:09.999Z</time></trkpt><trkpt lat="47.255048335385986" lon="-0.13666466890313006"><ele>76.33333333333333</ele><time>2026-04-19T15:12:11.999Z</time></trkpt><trkpt lat="47.255132068086496" lon="-0.1366628829755781"><ele>75.0</ele><time>2026-04-19T15:12:13.999Z</time></trkpt><trkpt lat="47.25517493355346" lon="-0.13653903978514384"><ele>73.66666666666667</ele><time>2026-04-19T15:12:15.999Z</time></trkpt><trkpt lat="47.25520584992091" lon="-0.1364389657830749"><ele>72.33333333333334</ele><time>2026-04-19T15:12:16.999Z</time></trkpt><trkpt lat="47.25523884567872" lon="-0.13633877648921347"><ele>71.0</ele><time>2026-04-19T15:12:17.999Z</time></trkpt><trkpt lat="47.255273022881084" lon="-0.13623788246494795"><ele>71.0</ele><time>2026-04-19T15:12:18.999Z</time></trkpt><trkpt lat="47.25530100629404" lon="-0.13614090213162336"><ele>71.0</ele><time>2026-04-19T15:12:19.999Z</time></trkpt><trkpt lat="47.25535254385237" lon="-0.13594932658832173"><ele>71.0</ele><time>2026-04-19T15:12:21.999Z</time></trkpt><trkpt lat="47.25537671420265" lon="-0.1358612587228995"><ele>71.0</ele><time>2026-04-19T15:12:22.999Z</time></trkpt><trkpt lat="47.25541320869985" lon="-0.13568353244694653"><ele>71.0</ele><time>2026-04-19T15:12:24.999Z</time></trkpt><trkpt lat="47.25543677665145" lon="-0.1354975005266942"><ele>71.6</ele><time>2026-04-19T15:12:26.999Z</time></trkpt><trkpt lat="47.25546486398006" lon="-0.1353586378481408"><ele>72.19999999999999</ele><time>2026-04-19T15:12:28.998Z</time></trkpt><trkpt lat="47.25548566097252" lon="-0.13520389370538963"><ele>72.80000000000001</ele><time>2026-04-19T15:12:30.998Z</time></trkpt><trkpt lat="47.255493123252336" lon="-0.135039726692407"><ele>73.4</ele><time>2026-04-19T15:12:32.998Z</time></trkpt><trkpt lat="47.2554878371697" lon="-0.1348994225690752"><ele>74.0</ele><time>2026-04-19T15:12:34.998Z</time></trkpt><trkpt lat="47.255507652486706" lon="-0.1347617384316654"><ele>74.16666666666667</ele><time>2026-04-19T15:12:36.998Z</time></trkpt><trkpt lat="47.25552510549553" lon="-0.13458943620215313"><ele>74.33333333333334</ele><time>2026-04-19T15:12:38.998Z</time></trkpt><trkpt lat="47.25555022872654" lon="-0.1344377191092596"><ele>74.5</ele><time>2026-04-19T15:12:41Z</time></trkpt><trkpt lat="47.255554661685586" lon="-0.13434313053618255"><ele>74.66666666666667</ele><time>2026-04-19T15:12:43Z</time></trkpt><trkpt lat="47.25557224226837" lon="-0.13422447069707039"><ele>74.83333333333333</ele><time>2026-04-19T15:12:47Z</time></trkpt><trkpt lat="47.255577722984206" lon="-0.1341260684690797"><ele>75.0</ele><time>2026-04-19T15:12:49Z</time></trkpt><trkpt lat="47.25560098984412" lon="-0.13399641100335816"><ele>75.16666666666667</ele><time>2026-04-19T15:12:52Z</time></trkpt><trkpt lat="47.255615377207896" lon="-0.13388338915340256"><ele>75.33333333333333</ele><time>2026-04-19T15:12:54Z</time></trkpt><trkpt lat="47.25563268476018" lon="-0.13375371396648514"><ele>75.5</ele><time>2026-04-19T15:12:57Z</time></trkpt><trkpt lat="47.25564825420477" lon="-0.13362996081905726"><ele>75.66666666666666</ele><time>2026-04-19T15:12:59Z</time></trkpt><trkpt lat="47.25565986479439" lon="-0.1335335845036928"><ele>75.83333333333333</ele><time>2026-04-19T15:13:01Z</time></trkpt><trkpt lat="47.25567145340439" lon="-0.13343474792094454"><ele>76.0</ele><time>2026-04-19T15:13:03Z</time></trkpt><trkpt lat="47.25568239739086" lon="-0.1333381584899485"><ele>74.16666666666666</ele><time>2026-04-19T15:13:05Z</time></trkpt><trkpt lat="47.25569669100503" lon="-0.13324366303089466"><ele>72.33333333333333</ele><time>2026-04-19T15:13:07Z</time></trkpt><trkpt lat="47.25571199677887" lon="-0.13313604128181114"><ele>70.5</ele><time>2026-04-19T15:13:10Z</time></trkpt><trkpt lat="47.25572747306465" lon="-0.1330437682680214"><ele>68.66666666666667</ele><time>2026-04-19T15:13:23.999Z</time></trkpt><trkpt lat="47.25574433337261" lon="-0.13290330765222338"><ele>66.83333333333334</ele><time>2026-04-19T15:13:25.999Z</time></trkpt><trkpt lat="47.25576980435457" lon="-0.13279392935829035"><ele>65.0</ele><time>2026-04-19T15:13:27.999Z</time></trkpt><trkpt lat="47.25577336147422" lon="-0.13264506118456942"><ele>65.0</ele><time>2026-04-19T15:13:30.999Z</time></trkpt><trkpt lat="47.25582151981474" lon="-0.13250570046139998"><ele>65.0</ele><time>2026-04-19T15:13:32.999Z</time></trkpt><trkpt lat="47.25584575359224" lon="-0.1324096026383235"><ele>65.0</ele><time>2026-04-19T15:13:34.999Z</time></trkpt><trkpt lat="47.25579543824986" lon="-0.13231032546815846"><ele>65.0</ele><time>2026-04-19T15:13:37.999Z</time></trkpt><trkpt lat="47.25571798463773" lon="-0.1323088017741195"><ele>65.0</ele><time>2026-04-19T15:13:39.999Z</time></trkpt><trkpt lat="47.25564001821453" lon="-0.1322750149068317"><ele>65.0</ele><time>2026-04-19T15:13:41.999Z</time></trkpt><trkpt lat="47.255549612165396" lon="-0.1322842307299355"><ele>66.5</ele><time>2026-04-19T15:13:43.999Z</time></trkpt><trkpt lat="47.255478802265856" lon="-0.13225421806544438"><ele>68.0</ele><time>2026-04-19T15:13:58.999Z</time></trkpt><trkpt lat="47.25539290807518" lon="-0.13227009015346727"><ele>69.5</ele><time>2026-04-19T15:14:06.999Z</time></trkpt><trkpt lat="47.25531466178284" lon="-0.13230329928025578"><ele>71.0</ele><time>2026-04-19T15:14:09.999Z</time></trkpt><trkpt lat="47.25525742382058" lon="-0.132255012281371"><ele>72.5</ele><time>2026-04-19T15:14:18.999Z</time></trkpt><trkpt lat="47.25519890770246" lon="-0.1322022275273438"><ele>74.0</ele><time>2026-04-19T15:14:22.999Z</time></trkpt><trkpt lat="47.25512029173284" lon="-0.1321908856741662"><ele>74.0</ele><time>2026-04-19T15:14:25.999Z</time></trkpt><trkpt lat="47.25505317279294" lon="-0.1321374317415472"><ele>74.0</ele><time>2026-04-19T15:14:28.999Z</time></trkpt><trkpt lat="47.25502372175259" lon="-0.13230501793000055"><ele>74.0</ele><time>2026-04-19T15:14:46Z</time></trkpt><trkpt lat="47.25502335346071" lon="-0.13240868858818466"><ele>74.0</ele><time>2026-04-19T15:14:49Z</time></trkpt><trkpt lat="47.25507374395248" lon="-0.1324844807413694"><ele>74.0</ele><time>2026-04-19T15:15:16Z</time></trkpt><trkpt lat="47.25511205155861" lon="-0.1325755044719583"><ele>74.0</ele><time>2026-04-19T15:15:22Z</time></trkpt><trkpt lat="47.25509520942499" lon="-0.13267300188507078"><ele>74.8</ele><time>2026-04-19T15:15:26Z</time></trkpt><trkpt lat="47.25509776202073" lon="-0.13279926098134595"><ele>75.60000000000001</ele><time>2026-04-19T15:15:27.999Z</time></trkpt><trkpt lat="47.25508227514644" lon="-0.13289836270502287"><ele>76.4</ele><time>2026-04-19T15:15:41.999Z</time></trkpt><trkpt lat="47.25515184935076" lon="-0.13290552256616922"><ele>77.2</ele><time>2026-04-19T15:15:53.999Z</time></trkpt><trkpt lat="47.25533555856825" lon="-0.1330270429049741"><ele>78.0</ele><time>2026-04-19T15:16:04.999Z</time></trkpt><trkpt lat="47.25540712984916" lon="-0.13308003595861487"><ele>78.0</ele><time>2026-04-19T15:16:06.999Z</time></trkpt><trkpt lat="47.25549725936816" lon="-0.13308506895252892"><ele>78.0</ele><time>2026-04-19T15:16:09.999Z</time></trkpt><trkpt lat="47.255561843647484" lon="-0.13308712592443828"><ele>78.0</ele><time>2026-04-19T15:16:11.999Z</time></trkpt><trkpt lat="47.25562753659807" lon="-0.13308822358421152"><ele>78.0</ele><time>2026-04-19T15:16:13.999Z</time></trkpt><trkpt lat="47.255692494460824" lon="-0.13313738019902158"><ele>78.0</ele><time>2026-04-19T15:16:20.999Z</time></trkpt><trkpt lat="47.25567535297552" lon="-0.133278716329454"><ele>78.0</ele><time>2026-04-19T15:16:23.999Z</time></trkpt><trkpt lat="47.2556574228884" lon="-0.1333678117221414"><ele>77.6</ele><time>2026-04-19T15:16:24.999Z</time></trkpt><trkpt lat="47.25564571131306" lon="-0.1335046719799868"><ele>77.19999999999999</ele><time>2026-04-19T15:16:26.999Z</time></trkpt><trkpt lat="47.25563452631507" lon="-0.13361462363352783"><ele>76.8</ele><time>2026-04-19T15:16:28.999Z</time></trkpt><trkpt lat="47.25562186486886" lon="-0.1337308087452669"><ele>76.39999999999999</ele><time>2026-04-19T15:16:30.999Z</time></trkpt><trkpt lat="47.25559716615183" lon="-0.13389414828798699"><ele>76.0</ele><time>2026-04-19T15:16:32.999Z</time></trkpt><trkpt lat="47.25577463129963" lon="-0.13408774735246642"><ele>75.75</ele><time>2026-04-19T15:16:34.999Z</time></trkpt><trkpt lat="47.255757992070606" lon="-0.13422357328996862"><ele>75.5</ele><time>2026-04-19T15:16:36.999Z</time></trkpt><trkpt lat="47.25554512867951" lon="-0.1343219119691027"><ele>75.25</ele><time>2026-04-19T15:16:38.999Z</time></trkpt><trkpt lat="47.25553498825667" lon="-0.1344214462084864"><ele>75.0</ele><time>2026-04-19T15:16:39.999Z</time></trkpt><trkpt lat="47.25552041350468" lon="-0.13457734734075957"><ele>75.0</ele><time>2026-04-19T15:16:41.999Z</time></trkpt><trkpt lat="47.25550018388331" lon="-0.13472230875013455"><ele>75.0</ele><time>2026-04-19T15:16:43.999Z</time></trkpt><trkpt lat="47.25548958236987" lon="-0.13486516716013128"><ele>75.0</ele><time>2026-04-19T15:16:45.999Z</time></trkpt><trkpt lat="47.255483343042236" lon="-0.13501332251084786"><ele>75.0</ele><time>2026-04-19T15:16:47.999Z</time></trkpt><trkpt lat="47.25549272475352" lon="-0.13512518978264818"><ele>75.0</ele><time>2026-04-19T15:16:49.999Z</time></trkpt><trkpt lat="47.25548145200325" lon="-0.1352553206293796"><ele>74.83333333333333</ele><time>2026-04-19T15:16:52Z</time></trkpt><trkpt lat="47.25546037110775" lon="-0.13537640327550798"><ele>74.66666666666667</ele><time>2026-04-19T15:16:54Z</time></trkpt><trkpt lat="47.25543917036237" lon="-0.13547327656290623"><ele>74.5</ele><time>2026-04-19T15:16:56Z</time></trkpt><trkpt lat="47.25542419681739" lon="-0.13558036222385964"><ele>74.33333333333334</ele><time>2026-04-19T15:16:58Z</time></trkpt><trkpt lat="47.255406743730845" lon="-0.13572133690914362"><ele>74.16666666666667</ele><time>2026-04-19T15:17:01Z</time></trkpt><trkpt lat="47.25538359972992" lon="-0.13584737343334044"><ele>74.0</ele><time>2026-04-19T15:17:03Z</time></trkpt><trkpt lat="47.255356636705656" lon="-0.1359407624613886"><ele>73.5</ele><time>2026-04-19T15:17:05Z</time></trkpt><trkpt lat="47.25532629427432" lon="-0.13608331883465197"><ele>73.0</ele><time>2026-04-19T15:17:08Z</time></trkpt><trkpt lat="47.25530037495212" lon="-0.13620907923420125"><ele>72.5</ele><time>2026-04-19T15:17:10Z</time></trkpt><trkpt lat="47.25526198573897" lon="-0.13631168072318348"><ele>72.0</ele><time>2026-04-19T15:17:12Z</time></trkpt><trkpt lat="47.255229450437604" lon="-0.13641155608426375"><ele>71.5</ele><time>2026-04-19T15:17:14Z</time></trkpt><trkpt lat="47.25518810703417" lon="-0.13651363617281437"><ele>71.0</ele><time>2026-04-19T15:17:16Z</time></trkpt><trkpt lat="47.25512271561579" lon="-0.13660055748961492"><ele>71.0</ele><time>2026-04-19T15:17:18Z</time></trkpt><trkpt lat="47.2550607983356" lon="-0.1366494568893679"><ele>71.0</ele><time>2026-04-19T15:17:20Z</time></trkpt><trkpt lat="47.25499639804771" lon="-0.13660879737096082"><ele>71.0</ele><time>2026-04-19T15:17:22Z</time></trkpt><trkpt lat="47.25488909981422" lon="-0.13648456317811455"><ele>71.0</ele><time>2026-04-19T15:17:24Z</time></trkpt><trkpt lat="47.25484116344635" lon="-0.13642236316340525"><ele>71.0</ele><time>2026-04-19T15:17:25Z</time></trkpt><trkpt lat="47.254778477806404" lon="-0.13633391124051694"><ele>71.0</ele><time>2026-04-19T15:17:26Z</time></trkpt><trkpt lat="47.25470028709618" lon="-0.13624823588462637"><ele>72.6</ele><time>2026-04-19T15:17:27Z</time></trkpt><trkpt lat="47.254632708783355" lon="-0.1361810613377052"><ele>74.19999999999999</ele><time>2026-04-19T15:17:28Z</time></trkpt><trkpt lat="47.25455892339426" lon="-0.13608897535698908"><ele>75.80000000000001</ele><time>2026-04-19T15:17:29Z</time></trkpt><trkpt lat="47.25449694078803" lon="-0.13598051483690743"><ele>77.4</ele><time>2026-04-19T15:17:30Z</time></trkpt><trkpt lat="47.254437859500136" lon="-0.1358555272710574"><ele>79.0</ele><time>2026-04-19T15:17:31Z</time></trkpt><trkpt lat="47.254405985292514" lon="-0.13575253184951475"><ele>79.0</ele><time>2026-04-19T15:17:32Z</time></trkpt><trkpt lat="47.25438282762234" lon="-0.13564110526355716"><ele>79.0</ele><time>2026-04-19T15:17:33Z</time></trkpt><trkpt lat="47.25436515279355" lon="-0.1355505449400292"><ele>79.0</ele><time>2026-04-19T15:17:34Z</time></trkpt><trkpt lat="47.25432947781443" lon="-0.13545839752854885"><ele>79.0</ele><time>2026-04-19T15:17:35Z</time></trkpt><trkpt lat="47.25429326172241" lon="-0.13533370023374483"><ele>79.0</ele><time>2026-04-19T15:17:37Z</time></trkpt><trkpt lat="47.254356970033065" lon="-0.1351521624102837"><ele>79.0</ele><time>2026-04-19T15:17:39Z</time></trkpt><trkpt lat="47.25434305728135" lon="-0.13505005236691123"><ele>79.0</ele><time>2026-04-19T15:17:40.999Z</time></trkpt><trkpt lat="47.25422924162775" lon="-0.13501703434641738"><ele>79.0</ele><time>2026-04-19T15:17:42.999Z</time></trkpt><trkpt lat="47.25417277731676" lon="-0.13497543467773793"><ele>79.0</ele><time>2026-04-19T15:17:43.999Z</time></trkpt><trkpt lat="47.25409747847309" lon="-0.13489540359114333"><ele>79.0</ele><time>2026-04-19T15:17:44.999Z</time></trkpt><trkpt lat="47.2540408013571" lon="-0.13481593464923505"><ele>79.0</ele><time>2026-04-19T15:17:45.999Z</time></trkpt><trkpt lat="47.2539654416461" lon="-0.13469357891807712"><ele>79.0</ele><time>2026-04-19T15:17:47.999Z</time></trkpt><trkpt lat="47.25391859079852" lon="-0.13456633759191391"><ele>79.0</ele><time>2026-04-19T15:17:49.999Z</time></trkpt><trkpt lat="47.25385968777821" lon="-0.1344791200484809"><ele>79.0</ele><time>2026-04-19T15:17:50.999Z</time></trkpt><trkpt lat="47.253783372889714" lon="-0.1344139602946066"><ele>79.0</ele><time>2026-04-19T15:17:51.999Z</time></trkpt><trkpt lat="47.25370125430861" lon="-0.13434127710975852"><ele>79.0</ele><time>2026-04-19T15:17:52.999Z</time></trkpt><trkpt lat="47.25363641075565" lon="-0.13427230671154342"><ele>79.0</ele><time>2026-04-19T15:17:53.999Z</time></trkpt><trkpt lat="47.25355905257755" lon="-0.1341865111633404"><ele>79.0</ele><time>2026-04-19T15:17:54.999Z</time></trkpt><trkpt lat="47.25348571390349" lon="-0.13412778264351666"><ele>79.0</ele><time>2026-04-19T15:17:55.999Z</time></trkpt><trkpt lat="47.25340767195423" lon="-0.13408615087223727"><ele>79.0</ele><time>2026-04-19T15:17:56.999Z</time></trkpt><trkpt lat="47.2533295746576" lon="-0.13404843151888382"><ele>79.0</ele><time>2026-04-19T15:17:57.999Z</time></trkpt><trkpt lat="47.25325319802592" lon="-0.13403988091059843"><ele>79.0</ele><time>2026-04-19T15:17:58.999Z</time></trkpt><trkpt lat="47.25316121966343" lon="-0.13406037171475146"><ele>79.0</ele><time>2026-04-19T15:17:59.999Z</time></trkpt><trkpt lat="47.25307475948053" lon="-0.13408567891633852"><ele>78.4</ele><time>2026-04-19T15:18:00.999Z</time></trkpt><trkpt lat="47.252982005980805" lon="-0.13409342457982315"><ele>77.80000000000001</ele><time>2026-04-19T15:18:01.999Z</time></trkpt><trkpt lat="47.25291267399816" lon="-0.1340802367144964"><ele>77.19999999999999</ele><time>2026-04-19T15:18:02.999Z</time></trkpt><trkpt lat="47.25283282309156" lon="-0.13405204981148444"><ele>76.6</ele><time>2026-04-19T15:18:03.999Z</time></trkpt><trkpt lat="47.252769616211204" lon="-0.13402379152621072"><ele>76.0</ele><time>2026-04-19T15:18:04.999Z</time></trkpt><trkpt lat="47.25266328653893" lon="-0.1338736878096706"><ele>76.0</ele><time>2026-04-19T15:18:06.999Z</time></trkpt><trkpt lat="47.252592978729695" lon="-0.1337725369917807"><ele>76.0</ele><time>2026-04-19T15:18:07.999Z</time></trkpt><trkpt lat="47.25254532897553" lon="-0.13370454912940324"><ele>76.0</ele><time>2026-04-19T15:18:08.999Z</time></trkpt><trkpt lat="47.2524989868252" lon="-0.1336299390588674"><ele>76.0</ele><time>2026-04-19T15:18:09.999Z</time></trkpt><trkpt lat="47.25245825779067" lon="-0.13353006478129556"><ele>76.0</ele><time>2026-04-19T15:18:10.999Z</time></trkpt><trkpt lat="47.25242227244332" lon="-0.13341871955783538"><ele>76.0</ele><time>2026-04-19T15:18:11.999Z</time></trkpt><trkpt lat="47.252404389117004" lon="-0.13331236305089583"><ele>76.0</ele><time>2026-04-19T15:18:12.999Z</time></trkpt><trkpt lat="47.25236551487584" lon="-0.1332051435349526"><ele>76.0</ele><time>2026-04-19T15:18:13.999Z</time></trkpt><trkpt lat="47.252319685829065" lon="-0.13312862163158612"><ele>76.0</ele><time>2026-04-19T15:18:14.999Z</time></trkpt><trkpt lat="47.25227776254465" lon="-0.13305118904323696"><ele>76.0</ele><time>2026-04-19T15:18:15.999Z</time></trkpt><trkpt lat="47.25224383648317" lon="-0.1329504049864194"><ele>76.0</ele><time>2026-04-19T15:18:16.999Z</time></trkpt><trkpt lat="47.25220910341252" lon="-0.13284822065471855"><ele>76.0</ele><time>2026-04-19T15:18:17.999Z</time></trkpt><trkpt lat="47.25216712719213" lon="-0.13275056764572735"><ele>75.8</ele><time>2026-04-19T15:18:18.999Z</time></trkpt><trkpt lat="47.25208297240081" lon="-0.1326182768018669"><ele>75.6</ele><time>2026-04-19T15:18:20.999Z</time></trkpt><trkpt lat="47.25198344724987" lon="-0.13256234393847482"><ele>75.4</ele><time>2026-04-19T15:18:22.999Z</time></trkpt><trkpt lat="47.251911655967554" lon="-0.13251037417870662"><ele>75.2</ele><time>2026-04-19T15:18:23.999Z</time></trkpt><trkpt lat="47.2518185519742" lon="-0.13245245718608967"><ele>75.0</ele><time>2026-04-19T15:18:24.999Z</time></trkpt><trkpt lat="47.2517080595363" lon="-0.13241076725009798"><ele>75.0</ele><time>2026-04-19T15:18:25.999Z</time></trkpt><trkpt lat="47.25162312937223" lon="-0.13240333105296792"><ele>75.0</ele><time>2026-04-19T15:18:26.999Z</time></trkpt><trkpt lat="47.2515444407064" lon="-0.1323708083052608"><ele>75.0</ele><time>2026-04-19T15:18:27.999Z</time></trkpt><trkpt lat="47.25145112019526" lon="-0.13233641408811161"><ele>75.0</ele><time>2026-04-19T15:18:28.999Z</time></trkpt><trkpt lat="47.251379163517" lon="-0.1322923396154651"><ele>75.0</ele><time>2026-04-19T15:18:29.999Z</time></trkpt><trkpt lat="47.2513015209095" lon="-0.13225672283427556"><ele>75.0</ele><time>2026-04-19T15:18:30.999Z</time></trkpt><trkpt lat="47.251241583947674" lon="-0.13222379452048197"><ele>74.8</ele><time>2026-04-19T15:18:31.999Z</time></trkpt><trkpt lat="47.251155337389726" lon="-0.1321588946202351"><ele>74.6</ele><time>2026-04-19T15:18:33.999Z</time></trkpt><trkpt lat="47.251061607383065" lon="-0.1320788799484167"><ele>74.4</ele><time>2026-04-19T15:18:35.999Z</time></trkpt><trkpt lat="47.250988162204656" lon="-0.1319897454270646"><ele>74.2</ele><time>2026-04-19T15:18:36.999Z</time></trkpt><trkpt lat="47.25093446485229" lon="-0.131912368455732"><ele>74.0</ele><time>2026-04-19T15:18:37.999Z</time></trkpt><trkpt lat="47.25086487561279" lon="-0.13185059600365404"><ele>74.0</ele><time>2026-04-19T15:18:39.999Z</time></trkpt><trkpt lat="47.25080884669662" lon="-0.13179411821978212"><ele>74.0</ele><time>2026-04-19T15:18:40.999Z</time></trkpt><trkpt lat="47.2507337371375" lon="-0.13170255859076638"><ele>74.0</ele><time>2026-04-19T15:18:41.999Z</time></trkpt><trkpt lat="47.25067398171675" lon="-0.13162145309446643"><ele>74.0</ele><time>2026-04-19T15:18:42.999Z</time></trkpt><trkpt lat="47.25062689984471" lon="-0.13152846561053885"><ele>74.0</ele><time>2026-04-19T15:18:43.999Z</time></trkpt><trkpt lat="47.250598501580704" lon="-0.13142831347891282"><ele>74.0</ele><time>2026-04-19T15:18:44.999Z</time></trkpt><trkpt lat="47.25054277981538" lon="-0.13132982533874102"><ele>73.83333333333334</ele><time>2026-04-19T15:18:45.999Z</time></trkpt><trkpt lat="47.25047715050259" lon="-0.13125316332818246"><ele>73.66666666666667</ele><time>2026-04-19T15:18:46.999Z</time></trkpt><trkpt lat="47.25040434867916" lon="-0.1311589715539699"><ele>73.5</ele><time>2026-04-19T15:18:47.999Z</time></trkpt><trkpt lat="47.250333391206034" lon="-0.13105775905642558"><ele>73.33333333333333</ele><time>2026-04-19T15:18:48.999Z</time></trkpt><trkpt lat="47.25026679755137" lon="-0.13098461978268375"><ele>73.16666666666666</ele><time>2026-04-19T15:18:49.999Z</time></trkpt><trkpt lat="47.25020603814583" lon="-0.13091980677011392"><ele>73.0</ele><time>2026-04-19T15:18:50.999Z</time></trkpt><trkpt lat="47.250158388616526" lon="-0.13085711861217877"><ele>73.0</ele><time>2026-04-19T15:18:51.999Z</time></trkpt><trkpt lat="47.25012342477561" lon="-0.1307792556573652"><ele>73.0</ele><time>2026-04-19T15:18:52.999Z</time></trkpt><trkpt lat="47.250071513767246" lon="-0.13063849394248045"><ele>73.0</ele><time>2026-04-19T15:18:54.999Z</time></trkpt><trkpt lat="47.25005209579895" lon="-0.13054827954312131"><ele>73.0</ele><time>2026-04-19T15:18:55.999Z</time></trkpt><trkpt lat="47.250029685206584" lon="-0.1304601656744958"><ele>73.0</ele><time>2026-04-19T15:18:57Z</time></trkpt><trkpt lat="47.250006852405654" lon="-0.13023180573552715"><ele>73.2</ele><time>2026-04-19T15:18:59Z</time></trkpt><trkpt lat="47.249975460992005" lon="-0.13011399944853502"><ele>73.4</ele><time>2026-04-19T15:19:01Z</time></trkpt><trkpt lat="47.24990963054049" lon="-0.13012047520321438"><ele>73.60000000000001</ele><time>2026-04-19T15:19:03Z</time></trkpt><trkpt lat="47.249777972221" lon="-0.13020775443587543"><ele>73.8</ele><time>2026-04-19T15:19:05Z</time></trkpt><trkpt lat="47.249687736454796" lon="-0.1302653302533554"><ele>74.0</ele><time>2026-04-19T15:19:06Z</time></trkpt><trkpt lat="47.2496109569584" lon="-0.13029885522223583"><ele>73.0</ele><time>2026-04-19T15:19:07Z</time></trkpt><trkpt lat="47.249539419823726" lon="-0.13028722087369493"><ele>72.0</ele><time>2026-04-19T15:19:08Z</time></trkpt><trkpt lat="47.24946752637131" lon="-0.13029766681518062"><ele>71.0</ele><time>2026-04-19T15:19:09Z</time></trkpt><trkpt lat="47.249380134084646" lon="-0.13024275490058884"><ele>70.0</ele><time>2026-04-19T15:19:11Z</time></trkpt><trkpt lat="47.24932141396613" lon="-0.13007469106135608"><ele>69.0</ele><time>2026-04-19T15:19:13Z</time></trkpt><trkpt lat="47.24929109060645" lon="-0.12995516284310418"><ele>69.60000000000001</ele><time>2026-04-19T15:19:14Z</time></trkpt><trkpt lat="47.24924874091811" lon="-0.1298299250975839"><ele>70.2</ele><time>2026-04-19T15:19:15Z</time></trkpt><trkpt lat="47.24920253935614" lon="-0.1297167537715421"><ele>70.80000000000001</ele><time>2026-04-19T15:19:16Z</time></trkpt><trkpt lat="47.24915444496535" lon="-0.12958817297509895"><ele>71.4</ele><time>2026-04-19T15:19:17Z</time></trkpt><trkpt lat="47.24908691292703" lon="-0.12946435547496915"><ele>72.0</ele><time>2026-04-19T15:19:18Z</time></trkpt><trkpt lat="47.24903801946704" lon="-0.12933056556681585"><ele>72.0</ele><time>2026-04-19T15:19:19Z</time></trkpt><trkpt lat="47.24899649688069" lon="-0.12919373966473657"><ele>72.0</ele><time>2026-04-19T15:19:20Z</time></trkpt><trkpt lat="47.248937564536845" lon="-0.1290819284432591"><ele>72.0</ele><time>2026-04-19T15:19:21Z</time></trkpt><trkpt lat="47.24886759711919" lon="-0.1289838874350097"><ele>72.0</ele><time>2026-04-19T15:19:22Z</time></trkpt><trkpt lat="47.248803038195824" lon="-0.1288451614355981"><ele>72.0</ele><time>2026-04-19T15:19:23Z</time></trkpt><trkpt lat="47.24873275426341" lon="-0.12869409618038816"><ele>72.0</ele><time>2026-04-19T15:19:24Z</time></trkpt><trkpt lat="47.24866879175407" lon="-0.12857362287173119"><ele>72.0</ele><time>2026-04-19T15:19:25Z</time></trkpt><trkpt lat="47.24860646203517" lon="-0.12846736088253577"><ele>72.0</ele><time>2026-04-19T15:19:26Z</time></trkpt><trkpt lat="47.248550830915704" lon="-0.12837670311350335"><ele>72.0</ele><time>2026-04-19T15:19:27Z</time></trkpt><trkpt lat="47.248495618867416" lon="-0.12828803896473226"><ele>72.0</ele><time>2026-04-19T15:19:28Z</time></trkpt><trkpt lat="47.248470664653" lon="-0.12819488983560556"><ele>72.0</ele><time>2026-04-19T15:19:29Z</time></trkpt><trkpt lat="47.24845673106657" lon="-0.12806054703146152"><ele>72.0</ele><time>2026-04-19T15:19:30Z</time></trkpt><trkpt lat="47.248431612467286" lon="-0.12793309336383157"><ele>72.0</ele><time>2026-04-19T15:19:31Z</time></trkpt><trkpt lat="47.24838582551661" lon="-0.1277913638282884"><ele>72.0</ele><time>2026-04-19T15:19:32Z</time></trkpt><trkpt lat="47.24834099159783" lon="-0.12765184538185056"><ele>72.0</ele><time>2026-04-19T15:19:33Z</time></trkpt><trkpt lat="47.24832833445266" lon="-0.12753965793051394"><ele>72.0</ele><time>2026-04-19T15:19:34Z</time></trkpt><trkpt lat="47.24832905609728" lon="-0.12742346934475776"><ele>72.0</ele><time>2026-04-19T15:19:35Z</time></trkpt><trkpt lat="47.24833394563967" lon="-0.12729918567032641"><ele>72.0</ele><time>2026-04-19T15:19:36Z</time></trkpt><trkpt lat="47.248344231664646" lon="-0.1271691059408227"><ele>72.0</ele><time>2026-04-19T15:19:37Z</time></trkpt><trkpt lat="47.24833806794885" lon="-0.1270567375600176"><ele>72.0</ele><time>2026-04-19T15:19:38Z</time></trkpt><trkpt lat="47.24831427064766" lon="-0.1269498015195944"><ele>72.0</ele><time>2026-04-19T15:19:39Z</time></trkpt><trkpt lat="47.24826896650527" lon="-0.1268145678408317"><ele>72.0</ele><time>2026-04-19T15:19:40Z</time></trkpt><trkpt lat="47.24821848553784" lon="-0.12672229782121536"><ele>72.0</ele><time>2026-04-19T15:19:41Z</time></trkpt><trkpt lat="47.24815027093087" lon="-0.1265521311263223"><ele>72.0</ele><time>2026-04-19T15:19:43Z</time></trkpt><trkpt lat="47.248094847367135" lon="-0.12645692988725574"><ele>72.0</ele><time>2026-04-19T15:19:43.999Z</time></trkpt><trkpt lat="47.24803678462323" lon="-0.1263720596218841"><ele>72.0</ele><time>2026-04-19T15:19:44.999Z</time></trkpt><trkpt lat="47.24800173635606" lon="-0.1262895197695543"><ele>72.0</ele><time>2026-04-19T15:19:45.999Z</time></trkpt><trkpt lat="47.24799181150188" lon="-0.12618287842997944"><ele>72.0</ele><time>2026-04-19T15:19:46.999Z</time></trkpt><trkpt lat="47.247984518622204" lon="-0.12608781727474555"><ele>71.16666666666667</ele><time>2026-04-19T15:19:47.999Z</time></trkpt><trkpt lat="47.24794093170305" lon="-0.12601859841152377"><ele>70.33333333333333</ele><time>2026-04-19T15:19:48.999Z</time></trkpt><trkpt lat="47.247881269090406" lon="-0.1259212299902846"><ele>69.5</ele><time>2026-04-19T15:19:49.999Z</time></trkpt><trkpt lat="47.24781308407529" lon="-0.12582274624669953"><ele>68.66666666666666</ele><time>2026-04-19T15:19:50.999Z</time></trkpt><trkpt lat="47.247755320308876" lon="-0.1257375441935211"><ele>67.83333333333333</ele><time>2026-04-19T15:19:51.999Z</time></trkpt><trkpt lat="47.24769930756057" lon="-0.1256138094284656"><ele>67.0</ele><time>2026-04-19T15:19:52.999Z</time></trkpt><trkpt lat="47.24764564673492" lon="-0.12549758104151085"><ele>66.8</ele><time>2026-04-19T15:19:53.999Z</time></trkpt><trkpt lat="47.24759070673752" lon="-0.12540672961915525"><ele>66.6</ele><time>2026-04-19T15:19:54.999Z</time></trkpt><trkpt lat="47.24752238935683" lon="-0.12534110945450588"><ele>66.39999999999999</ele><time>2026-04-19T15:19:55.999Z</time></trkpt><trkpt lat="47.24744945665245" lon="-0.12530265371580313"><ele>66.2</ele><time>2026-04-19T15:19:56.999Z</time></trkpt><trkpt lat="47.24735228102621" lon="-0.12527218219581301"><ele>66.0</ele><time>2026-04-19T15:19:58.999Z</time></trkpt><trkpt lat="47.24727245494677" lon="-0.1253882281352939"><ele>65.6</ele><time>2026-04-19T15:20:00.999Z</time></trkpt><trkpt lat="47.24720388038575" lon="-0.12549928139857303"><ele>65.19999999999999</ele><time>2026-04-19T15:20:02.999Z</time></trkpt><trkpt lat="47.24709779207395" lon="-0.1256092818531409"><ele>64.80000000000001</ele><time>2026-04-19T15:20:04.999Z</time></trkpt><trkpt lat="47.24700853860929" lon="-0.12572711351194168"><ele>64.4</ele><time>2026-04-19T15:20:06.999Z</time></trkpt><trkpt lat="47.24695667966795" lon="-0.12580180227344048"><ele>64.0</ele><time>2026-04-19T15:20:07.999Z</time></trkpt><trkpt lat="47.246881180561964" lon="-0.12590033421414157"><ele>63.33333333333333</ele><time>2026-04-19T15:20:08.999Z</time></trkpt><trkpt lat="47.246824694632835" lon="-0.12596843211575365"><ele>62.666666666666664</ele><time>2026-04-19T15:20:09.999Z</time></trkpt><trkpt lat="47.24672097341893" lon="-0.12606323539572703"><ele>62.0</ele><time>2026-04-19T15:20:11.999Z</time></trkpt><trkpt lat="47.24664440523621" lon="-0.12613315399284658"><ele>61.33333333333333</ele><time>2026-04-19T15:20:12.999Z</time></trkpt><trkpt lat="47.24657204523141" lon="-0.12619017013535397"><ele>60.666666666666664</ele><time>2026-04-19T15:20:13.999Z</time></trkpt><trkpt lat="47.24650288416205" lon="-0.1262523252463695"><ele>60.0</ele><time>2026-04-19T15:20:14.999Z</time></trkpt><trkpt lat="47.246447158518336" lon="-0.1263295079843608"><ele>60.0</ele><time>2026-04-19T15:20:15.999Z</time></trkpt><trkpt lat="47.24639512926574" lon="-0.1263934701248157"><ele>60.0</ele><time>2026-04-19T15:20:16.999Z</time></trkpt><trkpt lat="47.24630217465513" lon="-0.12649151637256598"><ele>60.0</ele><time>2026-04-19T15:20:18.999Z</time></trkpt><trkpt lat="47.24623764685632" lon="-0.12657424167420192"><ele>60.0</ele><time>2026-04-19T15:20:20.999Z</time></trkpt><trkpt lat="47.246166037291985" lon="-0.12658717674441877"><ele>60.0</ele><time>2026-04-19T15:20:22.999Z</time></trkpt><trkpt lat="47.24606782368651" lon="-0.12649567596997915"><ele>60.0</ele><time>2026-04-19T15:20:24.999Z</time></trkpt><trkpt lat="47.246013726802275" lon="-0.12640671528518982"><ele>60.0</ele><time>2026-04-19T15:20:25.999Z</time></trkpt><trkpt lat="47.24594942107184" lon="-0.12629095585191938"><ele>60.0</ele><time>2026-04-19T15:20:26.999Z</time></trkpt><trkpt lat="47.24588312331994" lon="-0.1261812757856847"><ele>60.0</ele><time>2026-04-19T15:20:27.999Z</time></trkpt><trkpt lat="47.245795262799334" lon="-0.1260687057582649"><ele>60.0</ele><time>2026-04-19T15:20:28.999Z</time></trkpt><trkpt lat="47.24570912517259" lon="-0.12597138122755483"><ele>60.0</ele><time>2026-04-19T15:20:29.999Z</time></trkpt><trkpt lat="47.24562071764123" lon="-0.1258938814495442"><ele>60.0</ele><time>2026-04-19T15:20:30.999Z</time></trkpt><trkpt lat="47.24556080580743" lon="-0.12583180592034"><ele>60.0</ele><time>2026-04-19T15:20:31.999Z</time></trkpt><trkpt lat="47.2455142588817" lon="-0.1257496972599835"><ele>60.0</ele><time>2026-04-19T15:20:32.999Z</time></trkpt><trkpt lat="47.24545626709883" lon="-0.12558082790973712"><ele>60.0</ele><time>2026-04-19T15:20:34.999Z</time></trkpt><trkpt lat="47.245359159779554" lon="-0.1255293625389771"><ele>60.0</ele><time>2026-04-19T15:20:36.999Z</time></trkpt><trkpt lat="47.24529629869207" lon="-0.1256052621536704"><ele>60.0</ele><time>2026-04-19T15:20:37.999Z</time></trkpt><trkpt lat="47.24521753046742" lon="-0.1257022975636661"><ele>60.0</ele><time>2026-04-19T15:20:38.999Z</time></trkpt><trkpt lat="47.24515895394955" lon="-0.1257629017518368"><ele>60.0</ele><time>2026-04-19T15:20:39.999Z</time></trkpt><trkpt lat="47.24508302065903" lon="-0.12578377637613986"><ele>60.0</ele><time>2026-04-19T15:20:40.999Z</time></trkpt><trkpt lat="47.24500081436711" lon="-0.12579902890949388"><ele>60.0</ele><time>2026-04-19T15:20:41.999Z</time></trkpt><trkpt lat="47.24492149282267" lon="-0.12582123673489276"><ele>60.0</ele><time>2026-04-19T15:20:42.999Z</time></trkpt><trkpt lat="47.24485643391722" lon="-0.12583948950018692"><ele>60.0</ele><time>2026-04-19T15:20:43.999Z</time></trkpt><trkpt lat="47.24472043909938" lon="-0.12580752238376597"><ele>60.0</ele><time>2026-04-19T15:20:45.999Z</time></trkpt><trkpt lat="47.244627454105334" lon="-0.12574033017591982"><ele>60.0</ele><time>2026-04-19T15:20:46.999Z</time></trkpt><trkpt lat="47.24454074698694" lon="-0.12566687649765873"><ele>60.0</ele><time>2026-04-19T15:20:47.999Z</time></trkpt><trkpt lat="47.24446639852584" lon="-0.12561456305669"><ele>60.6</ele><time>2026-04-19T15:20:48.999Z</time></trkpt><trkpt lat="47.24441453810177" lon="-0.12555487536262275"><ele>61.2</ele><time>2026-04-19T15:20:49.999Z</time></trkpt><trkpt lat="47.24435061782152" lon="-0.12548989998028431"><ele>61.8</ele><time>2026-04-19T15:20:50.999Z</time></trkpt><trkpt lat="47.24428444161516" lon="-0.12544002067061522"><ele>62.4</ele><time>2026-04-19T15:20:51.999Z</time></trkpt><trkpt lat="47.24418622913606" lon="-0.12528215606832066"><ele>63.0</ele><time>2026-04-19T15:20:53.999Z</time></trkpt><trkpt lat="47.244116232685336" lon="-0.1251973345419572"><ele>63.0</ele><time>2026-04-19T15:20:54.999Z</time></trkpt><trkpt lat="47.24402952769492" lon="-0.12511196500811483"><ele>63.0</ele><time>2026-04-19T15:20:55.999Z</time></trkpt><trkpt lat="47.24394985392074" lon="-0.12505088562483813"><ele>63.0</ele><time>2026-04-19T15:20:56.999Z</time></trkpt><trkpt lat="47.24388779850352" lon="-0.12496218417974893"><ele>63.0</ele><time>2026-04-19T15:20:57.999Z</time></trkpt><trkpt lat="47.243838768136506" lon="-0.12490019432373213"><ele>63.0</ele><time>2026-04-19T15:20:58.999Z</time></trkpt><trkpt lat="47.24379547753042" lon="-0.12481453011765932"><ele>63.0</ele><time>2026-04-19T15:20:59.999Z</time></trkpt><trkpt lat="47.243738721418325" lon="-0.12463917250371813"><ele>62.333333333333336</ele><time>2026-04-19T15:21:01.999Z</time></trkpt><trkpt lat="47.243707409736345" lon="-0.12454063503285165"><ele>61.66666666666667</ele><time>2026-04-19T15:21:03Z</time></trkpt><trkpt lat="47.24369216565067" lon="-0.12445054026352742"><ele>61.0</ele><time>2026-04-19T15:21:04Z</time></trkpt><trkpt lat="47.24370037475264" lon="-0.12426151127521125"><ele>60.333333333333336</ele><time>2026-04-19T15:21:06Z</time></trkpt><trkpt lat="47.24371561121268" lon="-0.12413932300640916"><ele>59.66666666666667</ele><time>2026-04-19T15:21:07Z</time></trkpt><trkpt lat="47.24373508470134" lon="-0.12401335369067744"><ele>59.0</ele><time>2026-04-19T15:21:08Z</time></trkpt><trkpt lat="47.24375774024948" lon="-0.12391655489285934"><ele>58.66666666666667</ele><time>2026-04-19T15:21:09Z</time></trkpt><trkpt lat="47.243791128302114" lon="-0.12380864867684799"><ele>58.333333333333336</ele><time>2026-04-19T15:21:10Z</time></trkpt><trkpt lat="47.24382296224507" lon="-0.12371251763854114"><ele>58.0</ele><time>2026-04-19T15:21:11Z</time></trkpt><trkpt lat="47.243876936355925" lon="-0.12364480993629315"><ele>57.66666666666667</ele><time>2026-04-19T15:21:12Z</time></trkpt><trkpt lat="47.24393663050651" lon="-0.12357413751785161"><ele>57.333333333333336</ele><time>2026-04-19T15:21:13Z</time></trkpt><trkpt lat="47.24400601240292" lon="-0.12351064714659704"><ele>57.0</ele><time>2026-04-19T15:21:14Z</time></trkpt><trkpt lat="47.24412720156973" lon="-0.12348309164737181"><ele>58.400000000000006</ele><time>2026-04-19T15:21:16Z</time></trkpt><trkpt lat="47.244252641753036" lon="-0.1235446091474208"><ele>59.800000000000004</ele><time>2026-04-19T15:21:18Z</time></trkpt><trkpt lat="47.244312636321766" lon="-0.12358877368568173"><ele>61.2</ele><time>2026-04-19T15:21:19Z</time></trkpt><trkpt lat="47.24440334692851" lon="-0.12359464099953482"><ele>62.6</ele><time>2026-04-19T15:21:21Z</time></trkpt><trkpt lat="47.244452281681596" lon="-0.1235161003087487"><ele>64.0</ele><time>2026-04-19T15:21:22Z</time></trkpt><trkpt lat="47.244506762298485" lon="-0.1234039325870402"><ele>63.99999999999999</ele><time>2026-04-19T15:21:23Z</time></trkpt><trkpt lat="47.24457524547756" lon="-0.1232897275155563"><ele>64.0</ele><time>2026-04-19T15:21:24Z</time></trkpt><trkpt lat="47.24461711994832" lon="-0.12321408041120128"><ele>64.0</ele><time>2026-04-19T15:21:25Z</time></trkpt><trkpt lat="47.24469647813617" lon="-0.12309825542113795"><ele>64.0</ele><time>2026-04-19T15:21:27Z</time></trkpt><trkpt lat="47.24474818747274" lon="-0.12303751380501546"><ele>63.99999999999999</ele><time>2026-04-19T15:21:28Z</time></trkpt><trkpt lat="47.24477296523833" lon="-0.12294162590610887"><ele>64.0</ele><time>2026-04-19T15:21:29Z</time></trkpt><trkpt lat="47.24477061759608" lon="-0.12283030916112203"><ele>62.99999999999999</ele><time>2026-04-19T15:21:30Z</time></trkpt><trkpt lat="47.24474529554191" lon="-0.12274149351204906"><ele>62.0</ele><time>2026-04-19T15:21:31Z</time></trkpt><trkpt lat="47.24469084487123" lon="-0.12266020878723219"><ele>61.0</ele><time>2026-04-19T15:21:32Z</time></trkpt><trkpt lat="47.24462663538731" lon="-0.12258592486315985"><ele>60.0</ele><time>2026-04-19T15:21:33Z</time></trkpt><trkpt lat="47.244565890706234" lon="-0.12251539189742168"><ele>58.99999999999999</ele><time>2026-04-19T15:21:34Z</time></trkpt><trkpt lat="47.244507604114744" lon="-0.12245957515390457"><ele>58.0</ele><time>2026-04-19T15:21:35Z</time></trkpt><trkpt lat="47.244441237963436" lon="-0.1223906673698188"><ele>57.83333333333333</ele><time>2026-04-19T15:21:36Z</time></trkpt><trkpt lat="47.244376727694764" lon="-0.12232732175563552"><ele>57.666666666666664</ele><time>2026-04-19T15:21:37Z</time></trkpt><trkpt lat="47.24429604103878" lon="-0.12224310868461902"><ele>57.5</ele><time>2026-04-19T15:21:38Z</time></trkpt><trkpt lat="47.24423431860613" lon="-0.12214583001780191"><ele>57.33333333333333</ele><time>2026-04-19T15:21:39Z</time></trkpt><trkpt lat="47.24418064648429" lon="-0.12205247427668418"><ele>57.166666666666664</ele><time>2026-04-19T15:21:40Z</time></trkpt><trkpt lat="47.244144736487264" lon="-0.1219589869375048"><ele>57.0</ele><time>2026-04-19T15:21:41Z</time></trkpt><trkpt lat="47.24415177897723" lon="-0.12177408312619288"><ele>57.0</ele><time>2026-04-19T15:21:43Z</time></trkpt><trkpt lat="47.24415754906496" lon="-0.12162473166658336"><ele>57.0</ele><time>2026-04-19T15:21:44Z</time></trkpt><trkpt lat="47.24412715851512" lon="-0.12152209541958243"><ele>57.0</ele><time>2026-04-19T15:21:45Z</time></trkpt><trkpt lat="47.24407151585793" lon="-0.12142373702814917"><ele>57.0</ele><time>2026-04-19T15:21:46Z</time></trkpt><trkpt lat="47.24397316847938" lon="-0.12130999134709462"><ele>57.0</ele><time>2026-04-19T15:21:47Z</time></trkpt><trkpt lat="47.243878021056" lon="-0.12117846648755302"><ele>57.25</ele><time>2026-04-19T15:21:48Z</time></trkpt><trkpt lat="47.24378083121541" lon="-0.12102770494732264"><ele>57.5</ele><time>2026-04-19T15:21:49Z</time></trkpt><trkpt lat="47.2436908305354" lon="-0.1208980937158382"><ele>57.75</ele><time>2026-04-19T15:21:50Z</time></trkpt><trkpt lat="47.24360259797661" lon="-0.12078746122826046"><ele>58.0</ele><time>2026-04-19T15:21:51Z</time></trkpt><trkpt lat="47.24352678826087" lon="-0.12069880044261459"><ele>57.99999999999999</ele><time>2026-04-19T15:21:52Z</time></trkpt><trkpt lat="47.243461876807366" lon="-0.12061537650326722"><ele>58.0</ele><time>2026-04-19T15:21:53Z</time></trkpt><trkpt lat="47.2434046988579" lon="-0.12051460199937661"><ele>58.0</ele><time>2026-04-19T15:21:54Z</time></trkpt><trkpt lat="47.243357147169" lon="-0.12039716390798269"><ele>58.0</ele><time>2026-04-19T15:21:54.999Z</time></trkpt><trkpt lat="47.243310792484145" lon="-0.12028052037941676"><ele>57.99999999999999</ele><time>2026-04-19T15:21:55.999Z</time></trkpt><trkpt lat="47.243265015719" lon="-0.12018059035173702"><ele>58.0</ele><time>2026-04-19T15:21:56.999Z</time></trkpt><trkpt lat="47.24322707735316" lon="-0.12010081276988929"><ele>58.0</ele><time>2026-04-19T15:21:57.999Z</time></trkpt><trkpt lat="47.24316916570336" lon="-0.12004474196661309"><ele>58.0</ele><time>2026-04-19T15:21:58.999Z</time></trkpt><trkpt lat="47.24306202607134" lon="-0.11998450038937385"><ele>58.0</ele><time>2026-04-19T15:22:00.999Z</time></trkpt><trkpt lat="47.24303306478383" lon="-0.11983926049505499"><ele>58.0</ele><time>2026-04-19T15:22:02.999Z</time></trkpt><trkpt lat="47.24304689346228" lon="-0.11972103831692917"><ele>58.0</ele><time>2026-04-19T15:22:03.999Z</time></trkpt><trkpt lat="47.24307381234136" lon="-0.11958996998426696"><ele>58.166666666666664</ele><time>2026-04-19T15:22:04.999Z</time></trkpt><trkpt lat="47.24310455487434" lon="-0.11947517179279057"><ele>58.33333333333333</ele><time>2026-04-19T15:22:05.999Z</time></trkpt><trkpt lat="47.24313813766138" lon="-0.11938047495391384"><ele>58.5</ele><time>2026-04-19T15:22:06.999Z</time></trkpt><trkpt lat="47.24320847915718" lon="-0.11928923323066262"><ele>58.66666666666667</ele><time>2026-04-19T15:22:08.999Z</time></trkpt><trkpt lat="47.24330416284673" lon="-0.1192517927460224"><ele>58.833333333333336</ele><time>2026-04-19T15:22:10.999Z</time></trkpt><trkpt lat="47.24337614887306" lon="-0.11925026772919893"><ele>59.0</ele><time>2026-04-19T15:22:11.999Z</time></trkpt><trkpt lat="47.2434785761241" lon="-0.11926925860329082"><ele>59.0</ele><time>2026-04-19T15:22:12.999Z</time></trkpt><trkpt lat="47.243582355998974" lon="-0.11929549995792724"><ele>59.00000000000001</ele><time>2026-04-19T15:22:13.999Z</time></trkpt><trkpt lat="47.24369792779378" lon="-0.11933357575337003"><ele>59.00000000000001</ele><time>2026-04-19T15:22:14.999Z</time></trkpt><trkpt lat="47.243804952090684" lon="-0.11935027413131982"><ele>59.0</ele><time>2026-04-19T15:22:15.999Z</time></trkpt><trkpt lat="47.24390059729866" lon="-0.11934612432441569"><ele>59.0</ele><time>2026-04-19T15:22:16.999Z</time></trkpt><trkpt lat="47.244005848546166" lon="-0.11936538795695614"><ele>59.333333333333336</ele><time>2026-04-19T15:22:17.999Z</time></trkpt><trkpt lat="47.24412024420945" lon="-0.1193897247902121"><ele>59.66666666666667</ele><time>2026-04-19T15:22:18.999Z</time></trkpt><trkpt lat="47.24421778508848" lon="-0.11940675888923787"><ele>60.0</ele><time>2026-04-19T15:22:19.999Z</time></trkpt><trkpt lat="47.24428327222308" lon="-0.11942117733553766"><ele>60.33333333333333</ele><time>2026-04-19T15:22:20.999Z</time></trkpt><trkpt lat="47.24434836334379" lon="-0.11943915071281808"><ele>60.666666666666664</ele><time>2026-04-19T15:22:21.999Z</time></trkpt><trkpt lat="47.2444346395206" lon="-0.11942856769681655"><ele>61.0</ele><time>2026-04-19T15:22:23.999Z</time></trkpt><trkpt lat="47.244511207367545" lon="-0.11942210358762757"><ele>61.0</ele><time>2026-04-19T15:22:38.999Z</time></trkpt><trkpt lat="47.24459666236495" lon="-0.11942550853850158"><ele>60.99999999999999</ele><time>2026-04-19T15:22:47.999Z</time></trkpt><trkpt lat="47.24472963477532" lon="-0.1194211151889501"><ele>60.99999999999999</ele><time>2026-04-19T15:22:49.999Z</time></trkpt><trkpt lat="47.24480193749891" lon="-0.11942290445397033"><ele>61.0</ele><time>2026-04-19T15:22:50.999Z</time></trkpt><trkpt lat="47.24488509951915" lon="-0.11944065676152327"><ele>61.0</ele><time>2026-04-19T15:22:51.999Z</time></trkpt><trkpt lat="47.24499822386547" lon="-0.11947408038191748"><ele>60.599999999999994</ele><time>2026-04-19T15:22:52.999Z</time></trkpt><trkpt lat="47.24511247755742" lon="-0.11946939948748314"><ele>60.199999999999996</ele><time>2026-04-19T15:22:53.999Z</time></trkpt><trkpt lat="47.24521374449654" lon="-0.11945822307104562"><ele>59.800000000000004</ele><time>2026-04-19T15:22:54.999Z</time></trkpt><trkpt lat="47.24529857913529" lon="-0.11945384498063673"><ele>59.400000000000006</ele><time>2026-04-19T15:22:55.999Z</time></trkpt><trkpt lat="47.24537720571043" lon="-0.1194826963812166"><ele>59.0</ele><time>2026-04-19T15:22:56.999Z</time></trkpt><trkpt lat="47.24546648530353" lon="-0.11951949765832094"><ele>59.0</ele><time>2026-04-19T15:22:57.999Z</time></trkpt><trkpt lat="47.2455822003565" lon="-0.11954766485868198"><ele>59.00000000000001</ele><time>2026-04-19T15:22:58.999Z</time></trkpt><trkpt lat="47.245693398337735" lon="-0.11954346448468216"><ele>59.00000000000001</ele><time>2026-04-19T15:22:59.999Z</time></trkpt><trkpt lat="47.24577760172413" lon="-0.11953200321888065"><ele>59.0</ele><time>2026-04-19T15:23:00.999Z</time></trkpt><trkpt lat="47.24586886398053" lon="-0.11952201614050009"><ele>59.0</ele><time>2026-04-19T15:23:01.999Z</time></trkpt><trkpt lat="47.24597386102083" lon="-0.11952464268308492"><ele>59.50000000000001</ele><time>2026-04-19T15:23:02.999Z</time></trkpt><trkpt lat="47.24606557808158" lon="-0.11955684964778533"><ele>60.0</ele><time>2026-04-19T15:23:03.999Z</time></trkpt><trkpt lat="47.246140907822856" lon="-0.11957698605130208"><ele>60.5</ele><time>2026-04-19T15:23:04.999Z</time></trkpt><trkpt lat="47.24623988133108" lon="-0.11957744005238155"><ele>61.0</ele><time>2026-04-19T15:23:06.999Z</time></trkpt><trkpt lat="47.24632262456439" lon="-0.11957193095579041"><ele>61.50000000000001</ele><time>2026-04-19T15:23:09Z</time></trkpt><trkpt lat="47.24641187815995" lon="-0.11955142968018037"><ele>62.0</ele><time>2026-04-19T15:23:12Z</time></trkpt><trkpt lat="47.24649979242901" lon="-0.11954595294458255"><ele>62.16666666666667</ele><time>2026-04-19T15:23:14Z</time></trkpt><trkpt lat="47.24656279114181" lon="-0.11954393471203956"><ele>62.333333333333336</ele><time>2026-04-19T15:23:16Z</time></trkpt><trkpt lat="47.246587413812776" lon="-0.11945483527368733"><ele>62.5</ele><time>2026-04-19T15:23:18Z</time></trkpt><trkpt lat="47.24659370356057" lon="-0.11933210104951193"><ele>62.66666666666667</ele><time>2026-04-19T15:23:20Z</time></trkpt><trkpt lat="47.246629368959475" lon="-0.1192206817492113"><ele>62.833333333333336</ele><time>2026-04-19T15:23:22Z</time></trkpt><trkpt lat="47.24666219279409" lon="-0.11907619264378592"><ele>63.0</ele><time>2026-04-19T15:23:24Z</time></trkpt><trkpt lat="47.246681608944826" lon="-0.11893498784603511"><ele>63.0</ele><time>2026-04-19T15:23:26Z</time></trkpt><trkpt lat="47.246696015208265" lon="-0.11882348563095853"><ele>63.0</ele><time>2026-04-19T15:23:28Z</time></trkpt><trkpt lat="47.246715523659745" lon="-0.11871158226640499"><ele>63.0</ele><time>2026-04-19T15:23:30Z</time></trkpt><trkpt lat="47.24673090563439" lon="-0.1186026989995217"><ele>63.0</ele><time>2026-04-19T15:23:32Z</time></trkpt><trkpt lat="47.24674689511293" lon="-0.118512950497086"><ele>63.0</ele><time>2026-04-19T15:23:33Z</time></trkpt><trkpt lat="47.24676535150654" lon="-0.11842370133460002"><ele>63.0</ele><time>2026-04-19T15:23:34Z</time></trkpt><trkpt lat="47.24679949381527" lon="-0.1183209441172375"><ele>63.0</ele><time>2026-04-19T15:23:36Z</time></trkpt><trkpt lat="47.246829437476066" lon="-0.11819920796412259"><ele>63.166666666666664</ele><time>2026-04-19T15:23:38Z</time></trkpt><trkpt lat="47.246913484441414" lon="-0.11812956885933738"><ele>63.33333333333333</ele><time>2026-04-19T15:23:40Z</time></trkpt><trkpt lat="47.24700554158081" lon="-0.11812076278697455"><ele>63.5</ele><time>2026-04-19T15:23:42Z</time></trkpt><trkpt lat="47.247084923291574" lon="-0.11808023928063009"><ele>63.666666666666664</ele><time>2026-04-19T15:23:44Z</time></trkpt><trkpt lat="47.247158266863295" lon="-0.11800551855777262"><ele>63.83333333333333</ele><time>2026-04-19T15:23:47Z</time></trkpt><trkpt lat="47.247161215052145" lon="-0.11790562598018563"><ele>64.0</ele><time>2026-04-19T15:23:48Z</time></trkpt><trkpt lat="47.24715156470723" lon="-0.11778279837399931"><ele>63.99999999999999</ele><time>2026-04-19T15:23:49Z</time></trkpt><trkpt lat="47.24716561514516" lon="-0.11762449264275918"><ele>64.0</ele><time>2026-04-19T15:23:51Z</time></trkpt><trkpt lat="47.247157378217246" lon="-0.11751908047774326"><ele>64.0</ele><time>2026-04-19T15:23:52Z</time></trkpt><trkpt lat="47.24713727707331" lon="-0.11739687038456802"><ele>64.0</ele><time>2026-04-19T15:23:53Z</time></trkpt><trkpt lat="47.247113439331514" lon="-0.11724991011840939"><ele>63.99999999999999</ele><time>2026-04-19T15:23:54Z</time></trkpt><trkpt lat="47.24708955168165" lon="-0.11713862046653659"><ele>64.0</ele><time>2026-04-19T15:23:55Z</time></trkpt><trkpt lat="47.247090700050734" lon="-0.11702770139784407"><ele>63.83333333333333</ele><time>2026-04-19T15:23:56Z</time></trkpt><trkpt lat="47.247102236595026" lon="-0.11692620241775942"><ele>63.666666666666664</ele><time>2026-04-19T15:23:57Z</time></trkpt><trkpt lat="47.24709903148832" lon="-0.11680271762294035"><ele>63.5</ele><time>2026-04-19T15:23:58Z</time></trkpt><trkpt lat="47.247101238416" lon="-0.1166663174238812"><ele>63.33333333333333</ele><time>2026-04-19T15:23:59Z</time></trkpt><trkpt lat="47.247107224542916" lon="-0.11653717705182788"><ele>63.166666666666664</ele><time>2026-04-19T15:24:00Z</time></trkpt><trkpt lat="47.24709531880021" lon="-0.11640354509736127"><ele>63.0</ele><time>2026-04-19T15:24:01.999Z</time></trkpt><trkpt lat="47.247029569655396" lon="-0.11640463868160052"><ele>62.599999999999994</ele><time>2026-04-19T15:24:03.999Z</time></trkpt><trkpt lat="47.24689675238709" lon="-0.11640012143326717"><ele>62.199999999999996</ele><time>2026-04-19T15:24:05.999Z</time></trkpt><trkpt lat="47.24679515558193" lon="-0.11639424601199266"><ele>61.8</ele><time>2026-04-19T15:24:06.999Z</time></trkpt><trkpt lat="47.24670122347436" lon="-0.11638552789002773"><ele>61.4</ele><time>2026-04-19T15:24:07.999Z</time></trkpt><trkpt lat="47.24659063112506" lon="-0.11637759579186469"><ele>61.0</ele><time>2026-04-19T15:24:08.999Z</time></trkpt><trkpt lat="47.24648168009439" lon="-0.11639543283041999"><ele>60.199999999999996</ele><time>2026-04-19T15:24:09.999Z</time></trkpt><trkpt lat="47.246386086472036" lon="-0.11641287223336434"><ele>59.39999999999999</ele><time>2026-04-19T15:24:10.999Z</time></trkpt><trkpt lat="47.246292339534556" lon="-0.11643066466293256"><ele>58.6</ele><time>2026-04-19T15:24:11.999Z</time></trkpt><trkpt lat="47.24618796211266" lon="-0.11645014096276743"><ele>57.8</ele><time>2026-04-19T15:24:12.999Z</time></trkpt><trkpt lat="47.24608675308037" lon="-0.11646107454112478"><ele>57.0</ele><time>2026-04-19T15:24:13.999Z</time></trkpt><trkpt lat="47.24599211475808" lon="-0.11647095985103126"><ele>57.0</ele><time>2026-04-19T15:24:14.999Z</time></trkpt><trkpt lat="47.24590306694226" lon="-0.11647918454353512"><ele>57.0</ele><time>2026-04-19T15:24:15.999Z</time></trkpt><trkpt lat="47.245816983445174" lon="-0.11651951517655051"><ele>57.0</ele><time>2026-04-19T15:24:16.999Z</time></trkpt><trkpt lat="47.24572060657596" lon="-0.11653200893291549"><ele>57.0</ele><time>2026-04-19T15:24:17.999Z</time></trkpt><trkpt lat="47.24560728701839" lon="-0.11652990351264748"><ele>57.0</ele><time>2026-04-19T15:24:18.999Z</time></trkpt><trkpt lat="47.24548618230069" lon="-0.11655182941326542"><ele>56.6</ele><time>2026-04-19T15:24:19.999Z</time></trkpt><trkpt lat="47.24536296716752" lon="-0.11655717740814071"><ele>56.2</ele><time>2026-04-19T15:24:20.999Z</time></trkpt><trkpt lat="47.24525199277581" lon="-0.1165698983984498"><ele>55.8</ele><time>2026-04-19T15:24:21.999Z</time></trkpt><trkpt lat="47.24515140912694" lon="-0.11659818496337027"><ele>55.4</ele><time>2026-04-19T15:24:22.999Z</time></trkpt><trkpt lat="47.24505097521776" lon="-0.11660881681642964"><ele>55.0</ele><time>2026-04-19T15:24:23.999Z</time></trkpt><trkpt lat="47.244956260711746" lon="-0.11659518755884016"><ele>54.6</ele><time>2026-04-19T15:24:24.999Z</time></trkpt><trkpt lat="47.24485159499362" lon="-0.11660866399605785"><ele>54.2</ele><time>2026-04-19T15:24:25.999Z</time></trkpt><trkpt lat="47.24474818422491" lon="-0.1166215608258747"><ele>53.8</ele><time>2026-04-19T15:24:26.999Z</time></trkpt><trkpt lat="47.24464389821163" lon="-0.11662739147069433"><ele>53.4</ele><time>2026-04-19T15:24:27.999Z</time></trkpt><trkpt lat="47.244539523542265" lon="-0.11665383377496975"><ele>53.0</ele><time>2026-04-19T15:24:28.999Z</time></trkpt><trkpt lat="47.24442742687186" lon="-0.11664326257087704"><ele>53.0</ele><time>2026-04-19T15:24:29.999Z</time></trkpt><trkpt lat="47.24431476010639" lon="-0.11667040772542926"><ele>53.0</ele><time>2026-04-19T15:24:30.999Z</time></trkpt><trkpt lat="47.24420725214713" lon="-0.11666254821045317"><ele>53.0</ele><time>2026-04-19T15:24:31.999Z</time></trkpt><trkpt lat="47.244097529662454" lon="-0.11665270779983707"><ele>53.0</ele><time>2026-04-19T15:24:32.999Z</time></trkpt><trkpt lat="47.243983861428575" lon="-0.116653534974892"><ele>53.0</ele><time>2026-04-19T15:24:33.999Z</time></trkpt><trkpt lat="47.24387051879388" lon="-0.11665099578354417"><ele>52.833333333333336</ele><time>2026-04-19T15:24:34.999Z</time></trkpt><trkpt lat="47.24376522103076" lon="-0.11664706298190573"><ele>52.66666666666667</ele><time>2026-04-19T15:24:35.999Z</time></trkpt><trkpt lat="47.24367946278899" lon="-0.11663648081949468"><ele>52.5</ele><time>2026-04-19T15:24:36.999Z</time></trkpt><trkpt lat="47.243592115101414" lon="-0.11663031528539014"><ele>52.33333333333333</ele><time>2026-04-19T15:24:37.999Z</time></trkpt><trkpt lat="47.24351122807666" lon="-0.11662376700490418"><ele>52.166666666666664</ele><time>2026-04-19T15:24:38.999Z</time></trkpt><trkpt lat="47.24343681707926" lon="-0.11662070466569363"><ele>52.0</ele><time>2026-04-19T15:24:39.999Z</time></trkpt><trkpt lat="47.243354552499625" lon="-0.11660936456550333"><ele>51.99999999999999</ele><time>2026-04-19T15:24:40.999Z</time></trkpt><trkpt lat="47.24327552939181" lon="-0.11662461206259594"><ele>52.0</ele><time>2026-04-19T15:24:41.999Z</time></trkpt><trkpt lat="47.243205874461395" lon="-0.11659661289968284"><ele>52.0</ele><time>2026-04-19T15:24:42.999Z</time></trkpt><trkpt lat="47.24313623585729" lon="-0.11661099831497058"><ele>52.0</ele><time>2026-04-19T15:24:43.999Z</time></trkpt><trkpt lat="47.24302111397628" lon="-0.11659974695543339"><ele>51.99999999999999</ele><time>2026-04-19T15:24:45.999Z</time></trkpt><trkpt lat="47.2429549717091" lon="-0.11657941771031415"><ele>52.0</ele><time>2026-04-19T15:24:47.999Z</time></trkpt><trkpt lat="47.24292093154362" lon="-0.11623349435079194"><ele>51.99999999999999</ele><time>2026-04-19T15:24:49.999Z</time></trkpt><trkpt lat="47.242939749110704" lon="-0.11613320494320106"><ele>52.0</ele><time>2026-04-19T15:24:50.999Z</time></trkpt><trkpt lat="47.24295986761677" lon="-0.11602598209320152"><ele>52.0</ele><time>2026-04-19T15:24:51.999Z</time></trkpt><trkpt lat="47.242995862694265" lon="-0.11591162938771113"><ele>52.0</ele><time>2026-04-19T15:24:52.999Z</time></trkpt><trkpt lat="47.24300757395661" lon="-0.11577974851623204"><ele>51.99999999999999</ele><time>2026-04-19T15:24:53.999Z</time></trkpt><trkpt lat="47.243030519555646" lon="-0.11563225955566597"><ele>52.0</ele><time>2026-04-19T15:24:54.999Z</time></trkpt><trkpt lat="47.24305938485976" lon="-0.11547146042106601"><ele>52.400000000000006</ele><time>2026-04-19T15:24:55.999Z</time></trkpt><trkpt lat="47.243091562571784" lon="-0.11530545296001288"><ele>52.800000000000004</ele><time>2026-04-19T15:24:56.999Z</time></trkpt><trkpt lat="47.24311664012331" lon="-0.11517312436182182"><ele>53.2</ele><time>2026-04-19T15:24:57.999Z</time></trkpt><trkpt lat="47.24313526073396" lon="-0.11504048359352216"><ele>53.6</ele><time>2026-04-19T15:24:58.999Z</time></trkpt><trkpt lat="47.24312865494168" lon="-0.11490585171029855"><ele>54.0</ele><time>2026-04-19T15:24:59.999Z</time></trkpt><trkpt lat="47.24309811108166" lon="-0.11476334589890136"><ele>54.400000000000006</ele><time>2026-04-19T15:25:00.999Z</time></trkpt><trkpt lat="47.24305647213451" lon="-0.11463052315366543"><ele>54.800000000000004</ele><time>2026-04-19T15:25:01.999Z</time></trkpt><trkpt lat="47.242992245837115" lon="-0.11449575521309102"><ele>55.199999999999996</ele><time>2026-04-19T15:25:02.999Z</time></trkpt><trkpt lat="47.24295200210797" lon="-0.11434384791905529"><ele>55.599999999999994</ele><time>2026-04-19T15:25:03.999Z</time></trkpt><trkpt lat="47.24292546644365" lon="-0.11417457904049877"><ele>56.0</ele><time>2026-04-19T15:25:04.999Z</time></trkpt><trkpt lat="47.24287965639409" lon="-0.11399837106750038"><ele>56.599999999999994</ele><time>2026-04-19T15:25:05.999Z</time></trkpt><trkpt lat="47.24284011209623" lon="-0.11385043490467145"><ele>57.199999999999996</ele><time>2026-04-19T15:25:06.999Z</time></trkpt><trkpt lat="47.24280748878989" lon="-0.11373026903048815"><ele>57.800000000000004</ele><time>2026-04-19T15:25:07.999Z</time></trkpt><trkpt lat="47.242759610714735" lon="-0.11363603978493464"><ele>58.400000000000006</ele><time>2026-04-19T15:25:08.999Z</time></trkpt><trkpt lat="47.24271775383512" lon="-0.11352181979175993"><ele>59.0</ele><time>2026-04-19T15:25:09.999Z</time></trkpt><trkpt lat="47.24263029773706" lon="-0.11347422761536631"><ele>59.0</ele><time>2026-04-19T15:25:10.999Z</time></trkpt><trkpt lat="47.242622727706134" lon="-0.11326639111266756"><ele>59.0</ele><time>2026-04-19T15:25:11.999Z</time></trkpt><trkpt lat="47.242526636262376" lon="-0.11316632040235947"><ele>59.0</ele><time>2026-04-19T15:25:12.999Z</time></trkpt><trkpt lat="47.24240632581351" lon="-0.11306153201290788"><ele>59.0</ele><time>2026-04-19T15:25:13.999Z</time></trkpt><trkpt lat="47.24227280666276" lon="-0.11294426749659117"><ele>58.5</ele><time>2026-04-19T15:25:15Z</time></trkpt><trkpt lat="47.24214773023362" lon="-0.11285817617562481"><ele>58.0</ele><time>2026-04-19T15:25:16Z</time></trkpt><trkpt lat="47.24201584245856" lon="-0.11278484663084717"><ele>57.5</ele><time>2026-04-19T15:25:17Z</time></trkpt><trkpt lat="47.24187122728139" lon="-0.11273278101582146"><ele>57.0</ele><time>2026-04-19T15:25:18Z</time></trkpt><trkpt lat="47.2417224410926" lon="-0.1126776331380187"><ele>57.0</ele><time>2026-04-19T15:25:19Z</time></trkpt><trkpt lat="47.241585608204836" lon="-0.11261045182860294"><ele>57.0</ele><time>2026-04-19T15:25:20Z</time></trkpt><trkpt lat="47.24145120255637" lon="-0.11254181920480032"><ele>57.0</ele><time>2026-04-19T15:25:21Z</time></trkpt><trkpt lat="47.241299331789925" lon="-0.1124649413066867"><ele>57.0</ele><time>2026-04-19T15:25:22Z</time></trkpt><trkpt lat="47.24112268713688" lon="-0.11238162570812811"><ele>56.0</ele><time>2026-04-19T15:25:23Z</time></trkpt><trkpt lat="47.24094551167612" lon="-0.11229354355426843"><ele>55.0</ele><time>2026-04-19T15:25:24Z</time></trkpt><trkpt lat="47.240799571599325" lon="-0.1122018316344883"><ele>54.0</ele><time>2026-04-19T15:25:25Z</time></trkpt><trkpt lat="47.24067283799923" lon="-0.1120827125334064"><ele>53.5</ele><time>2026-04-19T15:25:26Z</time></trkpt><trkpt lat="47.24055500610188" lon="-0.1119533308593803"><ele>53.0</ele><time>2026-04-19T15:25:27Z</time></trkpt><trkpt lat="47.24044711054637" lon="-0.11182624346377781"><ele>52.5</ele><time>2026-04-19T15:25:28Z</time></trkpt><trkpt lat="47.24034872915046" lon="-0.11172293062835875"><ele>52.0</ele><time>2026-04-19T15:25:29Z</time></trkpt><trkpt lat="47.24026828366177" lon="-0.11164898894460179"><ele>52.0</ele><time>2026-04-19T15:25:30Z</time></trkpt><trkpt lat="47.24019529342354" lon="-0.1115867541104673"><ele>52.0</ele><time>2026-04-19T15:25:31Z</time></trkpt><trkpt lat="47.24011661183668" lon="-0.11157270161066411"><ele>52.0</ele><time>2026-04-19T15:25:32Z</time></trkpt><trkpt lat="47.24002907595027" lon="-0.11160223354563675"><ele>52.0</ele><time>2026-04-19T15:25:33Z</time></trkpt><trkpt lat="47.23990360318231" lon="-0.11155963501612272"><ele>52.0</ele><time>2026-04-19T15:25:34Z</time></trkpt><trkpt lat="47.23977112018996" lon="-0.11160991340718561"><ele>52.0</ele><time>2026-04-19T15:25:35Z</time></trkpt><trkpt lat="47.23961351478473" lon="-0.11166761411944744"><ele>52.0</ele><time>2026-04-19T15:25:36Z</time></trkpt><trkpt lat="47.239443668965436" lon="-0.11172477651272866"><ele>52.0</ele><time>2026-04-19T15:25:37Z</time></trkpt><trkpt lat="47.2392738544901" lon="-0.11177674258841722"><ele>52.0</ele><time>2026-04-19T15:25:38Z</time></trkpt><trkpt lat="47.239105535692424" lon="-0.11182763691973821"><ele>52.0</ele><time>2026-04-19T15:25:39Z</time></trkpt><trkpt lat="47.23895308878783" lon="-0.11187287193171963"><ele>52.0</ele><time>2026-04-19T15:25:40Z</time></trkpt><trkpt lat="47.238799073313274" lon="-0.11191685798973551"><ele>51.666666666666664</ele><time>2026-04-19T15:25:41Z</time></trkpt><trkpt lat="47.238641563632136" lon="-0.11196025137015805"><ele>51.33333333333333</ele><time>2026-04-19T15:25:42Z</time></trkpt><trkpt lat="47.23848143555163" lon="-0.11200351782507495"><ele>51.0</ele><time>2026-04-19T15:25:43Z</time></trkpt><trkpt lat="47.2383223602026" lon="-0.1120462448472553"><ele>51.0</ele><time>2026-04-19T15:25:44Z</time></trkpt><trkpt lat="47.238161240573945" lon="-0.11207875188510387"><ele>51.0</ele><time>2026-04-19T15:25:45Z</time></trkpt><trkpt lat="47.23801020599344" lon="-0.11210929573333613"><ele>51.0</ele><time>2026-04-19T15:25:46Z</time></trkpt><trkpt lat="47.237858702488076" lon="-0.11213759280230012"><ele>50.25</ele><time>2026-04-19T15:25:47Z</time></trkpt><trkpt lat="47.23771112619274" lon="-0.11216419460481626"><ele>49.5</ele><time>2026-04-19T15:25:48Z</time></trkpt><trkpt lat="47.23756830304666" lon="-0.11218612401859791"><ele>48.75</ele><time>2026-04-19T15:25:49Z</time></trkpt><trkpt lat="47.237424378043514" lon="-0.11220428445258188"><ele>48.0</ele><time>2026-04-19T15:25:50Z</time></trkpt><trkpt lat="47.23727480882573" lon="-0.1122211172080798"><ele>47.0</ele><time>2026-04-19T15:25:51Z</time></trkpt><trkpt lat="47.23712689104885" lon="-0.11223598368615237"><ele>46.0</ele><time>2026-04-19T15:25:52Z</time></trkpt><trkpt lat="47.236966039605086" lon="-0.11224856275781053"><ele>45.0</ele><time>2026-04-19T15:25:53Z</time></trkpt><trkpt lat="47.236796727015026" lon="-0.1122604385750692"><ele>45.0</ele><time>2026-04-19T15:25:54Z</time></trkpt><trkpt lat="47.23660873366014" lon="-0.1122731319915825"><ele>45.0</ele><time>2026-04-19T15:25:55Z</time></trkpt><trkpt lat="47.2364105002901" lon="-0.11228097510746506"><ele>45.0</ele><time>2026-04-19T15:25:56Z</time></trkpt><trkpt lat="47.23621768773284" lon="-0.11228441378048218"><ele>44.333333333333336</ele><time>2026-04-19T15:25:57Z</time></trkpt><trkpt lat="47.2360630771453" lon="-0.11248891329570647"><ele>43.66666666666667</ele><time>2026-04-19T15:25:58Z</time></trkpt><trkpt lat="47.235926995117026" lon="-0.11250664131530624"><ele>43.0</ele><time>2026-04-19T15:25:59Z</time></trkpt><trkpt lat="47.23582098629534" lon="-0.11252863993312437"><ele>43.0</ele><time>2026-04-19T15:26:00Z</time></trkpt><trkpt lat="47.2357273115768" lon="-0.1125536990311193"><ele>43.0</ele><time>2026-04-19T15:26:01Z</time></trkpt><trkpt lat="47.23562072538431" lon="-0.1124786859593022"><ele>43.0</ele><time>2026-04-19T15:26:02Z</time></trkpt><trkpt lat="47.23554718681134" lon="-0.11252282029070855"><ele>43.0</ele><time>2026-04-19T15:26:03Z</time></trkpt><trkpt lat="47.2355336160437" lon="-0.11272758406511704"><ele>43.0</ele><time>2026-04-19T15:26:04Z</time></trkpt><trkpt lat="47.235478339696385" lon="-0.11277804294836959"><ele>43.0</ele><time>2026-04-19T15:26:05Z</time></trkpt><trkpt lat="47.23539736081839" lon="-0.11289599168408604"><ele>43.0</ele><time>2026-04-19T15:26:07Z</time></trkpt><trkpt lat="47.23525545537209" lon="-0.1127625660879361"><ele>43.0</ele><time>2026-04-19T15:26:08Z</time></trkpt><trkpt lat="47.23525410740873" lon="-0.11292425387719475"><ele>43.0</ele><time>2026-04-19T15:26:12.999Z</time></trkpt><trkpt lat="47.235259406208584" lon="-0.1128087636118915"><ele>43.0</ele><time>2026-04-19T15:26:15.999Z</time></trkpt><trkpt lat="47.235328459852084" lon="-0.1127534103158951"><ele>43.0</ele><time>2026-04-19T15:26:17.999Z</time></trkpt><trkpt lat="47.23533545374353" lon="-0.11262772332838622"><ele>43.0</ele><time>2026-04-19T15:26:28.999Z</time></trkpt><trkpt lat="47.23527681306154" lon="-0.1125026382519517"><ele>43.0</ele><time>2026-04-19T15:26:31.999Z</time></trkpt><trkpt lat="47.23521506123311" lon="-0.11247074423966472"><ele>43.0</ele><time>2026-04-19T15:26:33.999Z</time></trkpt><trkpt lat="47.23515538310409" lon="-0.11241314890406871"><ele>43.0</ele><time>2026-04-19T15:26:42.999Z</time></trkpt><trkpt lat="47.23511030180721" lon="-0.1123305103166214"><ele>43.16666666666667</ele><time>2026-04-19T15:26:47.999Z</time></trkpt><trkpt lat="47.235069711381215" lon="-0.11215518325003669"><ele>43.333333333333336</ele><time>2026-04-19T15:26:49.999Z</time></trkpt><trkpt lat="47.235051085215304" lon="-0.11205312688343914"><ele>43.5</ele><time>2026-04-19T15:26:50.999Z</time></trkpt><trkpt lat="47.23505156731136" lon="-0.1119518006747732"><ele>43.666666666666664</ele><time>2026-04-19T15:26:51.999Z</time></trkpt><trkpt lat="47.235074245095916" lon="-0.11184064222350251"><ele>43.83333333333333</ele><time>2026-04-19T15:26:52.999Z</time></trkpt><trkpt lat="47.23511115933933" lon="-0.11170842651951517"><ele>44.0</ele><time>2026-04-19T15:26:53.999Z</time></trkpt><trkpt lat="47.23515823304649" lon="-0.11161859771165321"><ele>44.6</ele><time>2026-04-19T15:26:54.999Z</time></trkpt><trkpt lat="47.23505732532657" lon="-0.11144724264718778"><ele>45.2</ele><time>2026-04-19T15:26:56.999Z</time></trkpt><trkpt lat="47.23509258542026" lon="-0.11136069585781726"><ele>45.800000000000004</ele><time>2026-04-19T15:26:58.999Z</time></trkpt><trkpt lat="47.235174888517236" lon="-0.11139874369498291"><ele>46.400000000000006</ele><time>2026-04-19T15:27:00.999Z</time></trkpt><trkpt lat="47.235229500863916" lon="-0.1114654760659348"><ele>47.0</ele><time>2026-04-19T15:27:01.999Z</time></trkpt><trkpt lat="47.23532154069533" lon="-0.1114565030636245"><ele>47.0</ele><time>2026-04-19T15:27:03.999Z</time></trkpt><trkpt lat="47.235364822293796" lon="-0.11130188916745698"><ele>47.0</ele><time>2026-04-19T15:27:05.999Z</time></trkpt><trkpt lat="47.23534468574355" lon="-0.11119780158841687"><ele>47.0</ele><time>2026-04-19T15:27:06.999Z</time></trkpt><trkpt lat="47.23532903258179" lon="-0.11107828458302525"><ele>47.0</ele><time>2026-04-19T15:27:07.999Z</time></trkpt><trkpt lat="47.23532763020054" lon="-0.11093619294597812"><ele>47.0</ele><time>2026-04-19T15:27:08.999Z</time></trkpt><trkpt lat="47.23531755610921" lon="-0.11074252678889866"><ele>48.33333333333333</ele><time>2026-04-19T15:27:09.999Z</time></trkpt><trkpt lat="47.23532145349886" lon="-0.11052098078973989"><ele>49.666666666666664</ele><time>2026-04-19T15:27:10.999Z</time></trkpt><trkpt lat="47.23531799229656" lon="-0.11031078680365099"><ele>51.0</ele><time>2026-04-19T15:27:11.999Z</time></trkpt><trkpt lat="47.23530130869659" lon="-0.11007928431337066"><ele>52.5</ele><time>2026-04-19T15:27:12.999Z</time></trkpt><trkpt lat="47.23529582371385" lon="-0.10982549565387602"><ele>54.0</ele><time>2026-04-19T15:27:13.999Z</time></trkpt><trkpt lat="47.235290218049514" lon="-0.10960543666756985"><ele>55.5</ele><time>2026-04-19T15:27:14.999Z</time></trkpt><trkpt lat="47.2352751334816" lon="-0.10944531748666218"><ele>57.0</ele><time>2026-04-19T15:27:15.999Z</time></trkpt><trkpt lat="47.23525238651023" lon="-0.1093250362668385"><ele>57.0</ele><time>2026-04-19T15:27:16.999Z</time></trkpt><trkpt lat="47.235201058640854" lon="-0.10923037833745626"><ele>57.0</ele><time>2026-04-19T15:27:17.999Z</time></trkpt><trkpt lat="47.235136424625985" lon="-0.1091367153894173"><ele>57.0</ele><time>2026-04-19T15:27:18.999Z</time></trkpt><trkpt lat="47.235052550723076" lon="-0.10900701151833937"><ele>57.0</ele><time>2026-04-19T15:27:19.999Z</time></trkpt><trkpt lat="47.23493907844199" lon="-0.10886591460707168"><ele>57.0</ele><time>2026-04-19T15:27:21Z</time></trkpt><trkpt lat="47.23481880354356" lon="-0.1087211341826578"><ele>58.25</ele><time>2026-04-19T15:27:22Z</time></trkpt><trkpt lat="47.23469247830091" lon="-0.10859641057368911"><ele>59.5</ele><time>2026-04-19T15:27:23Z</time></trkpt><trkpt lat="47.23458497919301" lon="-0.10846373489311067"><ele>60.75</ele><time>2026-04-19T15:27:24Z</time></trkpt><trkpt lat="47.23447865028373" lon="-0.10832938546188903"><ele>62.0</ele><time>2026-04-19T15:27:25Z</time></trkpt><trkpt lat="47.23436392728788" lon="-0.10820748477821555"><ele>62.5</ele><time>2026-04-19T15:27:26Z</time></trkpt><trkpt lat="47.2342697310821" lon="-0.10806507510054274"><ele>63.0</ele><time>2026-04-19T15:27:27Z</time></trkpt><trkpt lat="47.23416171862566" lon="-0.1079617658840708"><ele>63.5</ele><time>2026-04-19T15:27:28Z</time></trkpt><trkpt lat="47.2340742069816" lon="-0.1078416227930009"><ele>64.0</ele><time>2026-04-19T15:27:29Z</time></trkpt><trkpt lat="47.23399282037872" lon="-0.10771071123053055"><ele>64.5</ele><time>2026-04-19T15:27:30Z</time></trkpt><trkpt lat="47.23390898706583" lon="-0.10759161137540783"><ele>65.0</ele><time>2026-04-19T15:27:31Z</time></trkpt><trkpt lat="47.233839669032726" lon="-0.10748436954487223"><ele>65.5</ele><time>2026-04-19T15:27:32Z</time></trkpt><trkpt lat="47.23378510688945" lon="-0.10738978186715524"><ele>66.0</ele><time>2026-04-19T15:27:33Z</time></trkpt><trkpt lat="47.233754107779376" lon="-0.10728845421213885"><ele>66.5</ele><time>2026-04-19T15:27:34Z</time></trkpt><trkpt lat="47.233701710027425" lon="-0.1072231570844507"><ele>67.0</ele><time>2026-04-19T15:27:35Z</time></trkpt><trkpt lat="47.23365847375754" lon="-0.10712710161001292"><ele>67.0</ele><time>2026-04-19T15:27:36Z</time></trkpt><trkpt lat="47.233601965975105" lon="-0.10701627921473218"><ele>67.0</ele><time>2026-04-19T15:27:37Z</time></trkpt><trkpt lat="47.23353971560109" lon="-0.10686495618033197"><ele>67.0</ele><time>2026-04-19T15:27:38Z</time></trkpt><trkpt lat="47.23347289418443" lon="-0.10669382740766567"><ele>67.0</ele><time>2026-04-19T15:27:39Z</time></trkpt><trkpt lat="47.23343451731776" lon="-0.10656129252602572"><ele>67.0</ele><time>2026-04-19T15:27:40Z</time></trkpt><trkpt lat="47.233409793491745" lon="-0.1064314458942256"><ele>67.33333333333333</ele><time>2026-04-19T15:27:41Z</time></trkpt><trkpt lat="47.23339319398203" lon="-0.10628821051963314"><ele>67.66666666666666</ele><time>2026-04-19T15:27:42Z</time></trkpt><trkpt lat="47.233370217687934" lon="-0.10616007745017991"><ele>68.0</ele><time>2026-04-19T15:27:43Z</time></trkpt><trkpt lat="47.23334549311122" lon="-0.10604828855674549"><ele>68.33333333333333</ele><time>2026-04-19T15:27:44Z</time></trkpt><trkpt lat="47.23331603366867" lon="-0.10595646572755242"><ele>68.66666666666667</ele><time>2026-04-19T15:27:45Z</time></trkpt><trkpt lat="47.233283302677236" lon="-0.10581219213905604"><ele>69.0</ele><time>2026-04-19T15:27:47Z</time></trkpt><trkpt lat="47.233264400620556" lon="-0.10571983866509146"><ele>69.4</ele><time>2026-04-19T15:27:57Z</time></trkpt><trkpt lat="47.233211455867085" lon="-0.10553438685089858"><ele>69.80000000000001</ele><time>2026-04-19T15:27:59Z</time></trkpt><trkpt lat="47.23315899728413" lon="-0.1054272098768424"><ele>70.19999999999999</ele><time>2026-04-19T15:28:00Z</time></trkpt><trkpt lat="47.23310033744534" lon="-0.10533281523292666"><ele>70.6</ele><time>2026-04-19T15:28:01Z</time></trkpt><trkpt lat="47.23303273629992" lon="-0.10522955760938726"><ele>71.0</ele><time>2026-04-19T15:28:02Z</time></trkpt><trkpt lat="47.23299038141172" lon="-0.10507159819530955"><ele>71.0</ele><time>2026-04-19T15:28:03Z</time></trkpt><trkpt lat="47.23292234155923" lon="-0.10492422136342985"><ele>71.0</ele><time>2026-04-19T15:28:04Z</time></trkpt><trkpt lat="47.23285154221301" lon="-0.10475662386544206"><ele>71.0</ele><time>2026-04-19T15:28:05Z</time></trkpt><trkpt lat="47.23277467980708" lon="-0.10459406495637202"><ele>71.0</ele><time>2026-04-19T15:28:06Z</time></trkpt><trkpt lat="47.23270591480385" lon="-0.1044143590104312"><ele>71.75</ele><time>2026-04-19T15:28:07Z</time></trkpt><trkpt lat="47.232636195222426" lon="-0.10423356513161972"><ele>72.5</ele><time>2026-04-19T15:28:08Z</time></trkpt><trkpt lat="47.23257645724058" lon="-0.10407992512236725"><ele>73.25</ele><time>2026-04-19T15:28:09Z</time></trkpt><trkpt lat="47.232512160441864" lon="-0.10391631272645215"><ele>74.0</ele><time>2026-04-19T15:28:10Z</time></trkpt><trkpt lat="47.23246057536703" lon="-0.10375053286628817"><ele>74.25</ele><time>2026-04-19T15:28:11Z</time></trkpt><trkpt lat="47.232382097356826" lon="-0.10358534868299442"><ele>74.5</ele><time>2026-04-19T15:28:12Z</time></trkpt><trkpt lat="47.23233085293142" lon="-0.10342140603797652"><ele>74.75</ele><time>2026-04-19T15:28:13Z</time></trkpt><trkpt lat="47.23225700615645" lon="-0.10327803966387639"><ele>75.0</ele><time>2026-04-19T15:28:14Z</time></trkpt><trkpt lat="47.23219601776258" lon="-0.10313389549998575"><ele>75.0</ele><time>2026-04-19T15:28:15Z</time></trkpt><trkpt lat="47.23213423558854" lon="-0.10299324536485274"><ele>75.0</ele><time>2026-04-19T15:28:15.999Z</time></trkpt><trkpt lat="47.23208641256662" lon="-0.10284601520778425"><ele>75.0</ele><time>2026-04-19T15:28:16.999Z</time></trkpt><trkpt lat="47.2320149908862" lon="-0.10273944302031178"><ele>75.0</ele><time>2026-04-19T15:28:17.999Z</time></trkpt><trkpt lat="47.23196077389757" lon="-0.10264138476092682"><ele>75.0</ele><time>2026-04-19T15:28:18.999Z</time></trkpt><trkpt lat="47.231923465488684" lon="-0.10254775024848468"><ele>75.0</ele><time>2026-04-19T15:28:19.999Z</time></trkpt><trkpt lat="47.23183558192258" lon="-0.1024647739110276"><ele>75.0</ele><time>2026-04-19T15:28:21.999Z</time></trkpt><trkpt lat="47.23179631339232" lon="-0.10237690486785933"><ele>75.0</ele><time>2026-04-19T15:28:23.999Z</time></trkpt><trkpt lat="47.231688639597074" lon="-0.1025376182518761"><ele>75.0</ele><time>2026-04-19T15:28:24.999Z</time></trkpt><trkpt lat="47.23161755781139" lon="-0.10257948796510585"><ele>75.0</ele><time>2026-04-19T15:28:25.999Z</time></trkpt><trkpt lat="47.23153672721567" lon="-0.1026334061758904"><ele>75.0</ele><time>2026-04-19T15:28:26.999Z</time></trkpt><trkpt lat="47.23144161710145" lon="-0.1026835167096216"><ele>75.0</ele><time>2026-04-19T15:28:27.999Z</time></trkpt><trkpt lat="47.23134254930509" lon="-0.10275606760586796"><ele>75.0</ele><time>2026-04-19T15:28:28.999Z</time></trkpt><trkpt lat="47.23123736539279" lon="-0.10281069484668644"><ele>75.0</ele><time>2026-04-19T15:28:29.999Z</time></trkpt><trkpt lat="47.23111911404131" lon="-0.10284550349491207"><ele>75.0</ele><time>2026-04-19T15:28:30.999Z</time></trkpt><trkpt lat="47.23099269480609" lon="-0.10286511879319818"><ele>75.0</ele><time>2026-04-19T15:28:31.999Z</time></trkpt><trkpt lat="47.23087407253983" lon="-0.1029106611706877"><ele>75.0</ele><time>2026-04-19T15:28:32.999Z</time></trkpt><trkpt lat="47.23076702630616" lon="-0.10293785324504859"><ele>75.0</ele><time>2026-04-19T15:28:33.999Z</time></trkpt><trkpt lat="47.23067013931439" lon="-0.10296324261585033"><ele>75.0</ele><time>2026-04-19T15:28:34.999Z</time></trkpt><trkpt lat="47.23057212925385" lon="-0.10298892631783285"><ele>75.0</ele><time>2026-04-19T15:28:35.999Z</time></trkpt><trkpt lat="47.23047750653927" lon="-0.10301372230708225"><ele>75.0</ele><time>2026-04-19T15:28:36.999Z</time></trkpt><trkpt lat="47.23038751605906" lon="-0.10303730441964819"><ele>75.0</ele><time>2026-04-19T15:28:37.999Z</time></trkpt><trkpt lat="47.23028554406473" lon="-0.10305101806178052"><ele>75.0</ele><time>2026-04-19T15:28:38.999Z</time></trkpt><trkpt lat="47.23017668277598" lon="-0.10310457656651686"><ele>75.0</ele><time>2026-04-19T15:28:39.999Z</time></trkpt><trkpt lat="47.230068324791176" lon="-0.10315797246911403"><ele>75.0</ele><time>2026-04-19T15:28:40.999Z</time></trkpt><trkpt lat="47.22997799541065" lon="-0.10321432273794112"><ele>75.0</ele><time>2026-04-19T15:28:41.999Z</time></trkpt><trkpt lat="47.229895345511196" lon="-0.10328069379378263"><ele>75.0</ele><time>2026-04-19T15:28:42.999Z</time></trkpt><trkpt lat="47.229815742331354" lon="-0.10335478163173197"><ele>75.0</ele><time>2026-04-19T15:28:43.999Z</time></trkpt><trkpt lat="47.22972609383241" lon="-0.10340770902316825"><ele>75.0</ele><time>2026-04-19T15:28:44.999Z</time></trkpt><trkpt lat="47.229637546073974" lon="-0.10349507840561575"><ele>75.0</ele><time>2026-04-19T15:28:45.999Z</time></trkpt><trkpt lat="47.229535284393286" lon="-0.1035898168512293"><ele>73.5</ele><time>2026-04-19T15:28:46.999Z</time></trkpt><trkpt lat="47.229438691962685" lon="-0.10369661537026337"><ele>72.0</ele><time>2026-04-19T15:28:47.999Z</time></trkpt><trkpt lat="47.229347230171655" lon="-0.10379984615125906"><ele>70.5</ele><time>2026-04-19T15:28:48.999Z</time></trkpt><trkpt lat="47.22925489994204" lon="-0.1039021239389904"><ele>69.0</ele><time>2026-04-19T15:28:49.999Z</time></trkpt><trkpt lat="47.22915701215401" lon="-0.10400571966185779"><ele>68.25</ele><time>2026-04-19T15:28:50.999Z</time></trkpt><trkpt lat="47.22904499496841" lon="-0.10410781319451215"><ele>67.5</ele><time>2026-04-19T15:28:51.999Z</time></trkpt><trkpt lat="47.228919093929015" lon="-0.10422782657007862"><ele>66.75</ele><time>2026-04-19T15:28:52.999Z</time></trkpt><trkpt lat="47.22879434389186" lon="-0.10434828291144552"><ele>66.0</ele><time>2026-04-19T15:28:53.999Z</time></trkpt><trkpt lat="47.22868050290401" lon="-0.10446528444985442"><ele>64.75</ele><time>2026-04-19T15:28:54.999Z</time></trkpt><trkpt lat="47.228574474452145" lon="-0.10457874513591046"><ele>63.5</ele><time>2026-04-19T15:28:55.999Z</time></trkpt><trkpt lat="47.22847246355999" lon="-0.10469149978734915"><ele>62.25</ele><time>2026-04-19T15:28:56.999Z</time></trkpt><trkpt lat="47.22837571039968" lon="-0.10479480057332434"><ele>61.0</ele><time>2026-04-19T15:28:57.999Z</time></trkpt><trkpt lat="47.22827828944462" lon="-0.10489793014421249"><ele>60.599999999999994</ele><time>2026-04-19T15:28:58.999Z</time></trkpt><trkpt lat="47.22818128933045" lon="-0.10498593532360817"><ele>60.199999999999996</ele><time>2026-04-19T15:28:59.999Z</time></trkpt><trkpt lat="47.22808826313567" lon="-0.10507932773219347"><ele>59.800000000000004</ele><time>2026-04-19T15:29:00.999Z</time></trkpt><trkpt lat="47.22799908961348" lon="-0.10516280671445911"><ele>59.400000000000006</ele><time>2026-04-19T15:29:01.999Z</time></trkpt><trkpt lat="47.22790711003116" lon="-0.10523171679962828"><ele>59.0</ele><time>2026-04-19T15:29:02.999Z</time></trkpt><trkpt lat="47.2278296168081" lon="-0.10531373106530953"><ele>58.0</ele><time>2026-04-19T15:29:03.999Z</time></trkpt><trkpt lat="47.227752869504" lon="-0.10538349837760931"><ele>57.00000000000001</ele><time>2026-04-19T15:29:04.999Z</time></trkpt><trkpt lat="47.227677082464666" lon="-0.1054724019004812"><ele>56.00000000000001</ele><time>2026-04-19T15:29:06.999Z</time></trkpt><trkpt lat="47.22759343649543" lon="-0.10536883462966927"><ele>55.0</ele><time>2026-04-19T15:29:08.999Z</time></trkpt><trkpt lat="47.227563262725674" lon="-0.10527403399392082"><ele>54.0</ele><time>2026-04-19T15:29:09.999Z</time></trkpt><trkpt lat="47.227527958369116" lon="-0.10513921341461842"><ele>54.0</ele><time>2026-04-19T15:29:10.999Z</time></trkpt><trkpt lat="47.227472341280155" lon="-0.10498932935405547"><ele>54.0</ele><time>2026-04-19T15:29:11.999Z</time></trkpt><trkpt lat="47.227395982545694" lon="-0.10484769489844217"><ele>54.0</ele><time>2026-04-19T15:29:12.999Z</time></trkpt><trkpt lat="47.227330313269135" lon="-0.10467918515497143"><ele>54.0</ele><time>2026-04-19T15:29:13.999Z</time></trkpt><trkpt lat="47.22725711242212" lon="-0.10450713422981116"><ele>53.33333333333333</ele><time>2026-04-19T15:29:14.999Z</time></trkpt><trkpt lat="47.22717809051213" lon="-0.10435153146178953"><ele>52.666666666666664</ele><time>2026-04-19T15:29:15.999Z</time></trkpt><trkpt lat="47.2270724781002" lon="-0.10418391990713376"><ele>52.0</ele><time>2026-04-19T15:29:16.999Z</time></trkpt><trkpt lat="47.2269640260723" lon="-0.1039944631372924"><ele>52.0</ele><time>2026-04-19T15:29:17.999Z</time></trkpt><trkpt lat="47.22684939266869" lon="-0.1037832796966866"><ele>52.0</ele><time>2026-04-19T15:29:18.999Z</time></trkpt><trkpt lat="47.22672010614675" lon="-0.10354965698344919"><ele>52.0</ele><time>2026-04-19T15:29:19.999Z</time></trkpt><trkpt lat="47.2266027284624" lon="-0.10333896006146058"><ele>51.0</ele><time>2026-04-19T15:29:20.999Z</time></trkpt><trkpt lat="47.22649720644579" lon="-0.10315318402886181"><ele>50.0</ele><time>2026-04-19T15:29:21.999Z</time></trkpt><trkpt lat="47.22639337462346" lon="-0.10298235725327905"><ele>49.0</ele><time>2026-04-19T15:29:22.999Z</time></trkpt><trkpt lat="47.22629760998399" lon="-0.10283680804061943"><ele>49.0</ele><time>2026-04-19T15:29:23.999Z</time></trkpt><trkpt lat="47.22620823371276" lon="-0.10273016772708064"><ele>49.0</ele><time>2026-04-19T15:29:24.999Z</time></trkpt><trkpt lat="47.22612485801419" lon="-0.10262846222414736"><ele>49.0</ele><time>2026-04-19T15:29:26Z</time></trkpt><trkpt lat="47.2260615292723" lon="-0.10250779135093861"><ele>49.0</ele><time>2026-04-19T15:29:27Z</time></trkpt><trkpt lat="47.225990493415416" lon="-0.10241297118041605"><ele>49.0</ele><time>2026-04-19T15:29:28Z</time></trkpt><trkpt lat="47.22592800073964" lon="-0.10225914364262399"><ele>48.33333333333333</ele><time>2026-04-19T15:29:29Z</time></trkpt><trkpt lat="47.22588359078238" lon="-0.10211767341818836"><ele>47.666666666666664</ele><time>2026-04-19T15:29:30Z</time></trkpt><trkpt lat="47.22585070598352" lon="-0.10198580109983904"><ele>47.0</ele><time>2026-04-19T15:29:31Z</time></trkpt><trkpt lat="47.22581750002713" lon="-0.10187680247276658"><ele>46.33333333333333</ele><time>2026-04-19T15:29:32Z</time></trkpt><trkpt lat="47.22576983891321" lon="-0.10181115472963803"><ele>45.666666666666664</ele><time>2026-04-19T15:29:33Z</time></trkpt><trkpt lat="47.225693299971624" lon="-0.10176982541851895"><ele>45.0</ele><time>2026-04-19T15:29:34Z</time></trkpt><trkpt lat="47.22558710855999" lon="-0.10180951222509535"><ele>45.0</ele><time>2026-04-19T15:29:35Z</time></trkpt><trkpt lat="47.225478655499735" lon="-0.10178554871690013"><ele>45.0</ele><time>2026-04-19T15:29:36Z</time></trkpt><trkpt lat="47.22536296469353" lon="-0.10173785699579146"><ele>45.0</ele><time>2026-04-19T15:29:37Z</time></trkpt><trkpt lat="47.22524554842178" lon="-0.101733168703715"><ele>45.0</ele><time>2026-04-19T15:29:38Z</time></trkpt><trkpt lat="47.2251339161144" lon="-0.10170808458469016"><ele>45.0</ele><time>2026-04-19T15:29:39Z</time></trkpt><trkpt lat="47.22501831502966" lon="-0.10165717898812715"><ele>45.0</ele><time>2026-04-19T15:29:40Z</time></trkpt><trkpt lat="47.224907865439704" lon="-0.10163093934544476"><ele>45.0</ele><time>2026-04-19T15:29:41Z</time></trkpt><trkpt lat="47.2248073330342" lon="-0.10161060829023447"><ele>45.0</ele><time>2026-04-19T15:29:42Z</time></trkpt><trkpt lat="47.224707256359714" lon="-0.1015880067254438"><ele>45.0</ele><time>2026-04-19T15:29:43Z</time></trkpt><trkpt lat="47.22460815976414" lon="-0.1015673140116155"><ele>44.0</ele><time>2026-04-19T15:29:44Z</time></trkpt><trkpt lat="47.224503137277416" lon="-0.10154753791358528"><ele>43.0</ele><time>2026-04-19T15:29:45Z</time></trkpt><trkpt lat="47.22440457958492" lon="-0.10152790420077437"><ele>42.0</ele><time>2026-04-19T15:29:46Z</time></trkpt><trkpt lat="47.22431756421827" lon="-0.10151208680478391"><ele>41.0</ele><time>2026-04-19T15:29:47Z</time></trkpt><trkpt lat="47.22423744458379" lon="-0.10148982221362145"><ele>40.0</ele><time>2026-04-19T15:29:48Z</time></trkpt><trkpt lat="47.22416203868559" lon="-0.10147179417795706"><ele>40.0</ele><time>2026-04-19T15:29:49Z</time></trkpt><trkpt lat="47.22408945262256" lon="-0.10145397325920942"><ele>40.0</ele><time>2026-04-19T15:29:50Z</time></trkpt><trkpt lat="47.22402555945712" lon="-0.10143621140526285"><ele>40.0</ele><time>2026-04-19T15:29:51Z</time></trkpt><trkpt lat="47.22392646301422" lon="-0.10141750405989045"><ele>40.0</ele><time>2026-04-19T15:29:53Z</time></trkpt><trkpt lat="47.22389457543352" lon="-0.10127038279060833"><ele>40.0</ele><time>2026-04-19T15:29:57Z</time></trkpt><trkpt lat="47.2239106125829" lon="-0.10117566543086998"><ele>40.0</ele><time>2026-04-19T15:29:58Z</time></trkpt><trkpt lat="47.22393445774503" lon="-0.10106911181306102"><ele>39.0</ele><time>2026-04-19T15:29:59Z</time></trkpt><trkpt lat="47.22395218705134" lon="-0.10093592527830937"><ele>38.0</ele><time>2026-04-19T15:30:00Z</time></trkpt><trkpt lat="47.22396452773104" lon="-0.1007961709806889"><ele>37.0</ele><time>2026-04-19T15:30:01Z</time></trkpt><trkpt lat="47.22396581122976" lon="-0.10065397091136288"><ele>36.0</ele><time>2026-04-19T15:30:02Z</time></trkpt><trkpt lat="47.22396130699908" lon="-0.10049298988306186"><ele>35.0</ele><time>2026-04-19T15:30:03Z</time></trkpt><trkpt lat="47.22394784892287" lon="-0.10033284290863093"><ele>35.0</ele><time>2026-04-19T15:30:04Z</time></trkpt><trkpt lat="47.22393476963832" lon="-0.10016336472699498"><ele>35.0</ele><time>2026-04-19T15:30:05Z</time></trkpt><trkpt lat="47.22393020694791" lon="-0.09998533779939686"><ele>35.0</ele><time>2026-04-19T15:30:06Z</time></trkpt><trkpt lat="47.2239396269917" lon="-0.09981483338351807"><ele>35.0</ele><time>2026-04-19T15:30:07Z</time></trkpt><trkpt lat="47.22396531243635" lon="-0.09964440360948586"><ele>36.75</ele><time>2026-04-19T15:30:08Z</time></trkpt><trkpt lat="47.224005072525834" lon="-0.09947686275483489"><ele>38.5</ele><time>2026-04-19T15:30:09Z</time></trkpt><trkpt lat="47.224052384185924" lon="-0.0993103819334604"><ele>40.25</ele><time>2026-04-19T15:30:10Z</time></trkpt><trkpt lat="47.22409764826898" lon="-0.09915450045518902"><ele>42.0</ele><time>2026-04-19T15:30:11Z</time></trkpt><trkpt lat="47.2241385225528" lon="-0.0990101085825582"><ele>42.0</ele><time>2026-04-19T15:30:12Z</time></trkpt><trkpt lat="47.2241705515998" lon="-0.09886930877486906"><ele>42.0</ele><time>2026-04-19T15:30:13Z</time></trkpt><trkpt lat="47.22418917366499" lon="-0.0987330619676"><ele>42.0</ele><time>2026-04-19T15:30:14Z</time></trkpt><trkpt lat="47.22419855611043" lon="-0.09859359029338309"><ele>42.0</ele><time>2026-04-19T15:30:15Z</time></trkpt><trkpt lat="47.22419942487437" lon="-0.09845105886863707"><ele>42.0</ele><time>2026-04-19T15:30:16Z</time></trkpt><trkpt lat="47.22419801458816" lon="-0.09830065041620262"><ele>41.75</ele><time>2026-04-19T15:30:17Z</time></trkpt><trkpt lat="47.224187888333574" lon="-0.09812539058221971"><ele>41.5</ele><time>2026-04-19T15:30:18Z</time></trkpt><trkpt lat="47.224179510743674" lon="-0.09794587286066933"><ele>41.25</ele><time>2026-04-19T15:30:19Z</time></trkpt><trkpt lat="47.22417332763446" lon="-0.0977663428684198"><ele>41.0</ele><time>2026-04-19T15:30:20Z</time></trkpt><trkpt lat="47.22417053733924" lon="-0.0976113347841858"><ele>41.0</ele><time>2026-04-19T15:30:21Z</time></trkpt><trkpt lat="47.22416815063523" lon="-0.09746515230136188"><ele>41.0</ele><time>2026-04-19T15:30:22Z</time></trkpt><trkpt lat="47.22416062435513" lon="-0.09732659463424757"><ele>41.0</ele><time>2026-04-19T15:30:23Z</time></trkpt><trkpt lat="47.224153254766236" lon="-0.09719604539294488"><ele>41.0</ele><time>2026-04-19T15:30:24Z</time></trkpt><trkpt lat="47.22415762795792" lon="-0.09706700519082966"><ele>41.0</ele><time>2026-04-19T15:30:24.999Z</time></trkpt><trkpt lat="47.22418508552159" lon="-0.09693531422887686"><ele>40.599999999999994</ele><time>2026-04-19T15:30:25.999Z</time></trkpt><trkpt lat="47.2242286249462" lon="-0.09680167093572592"><ele>40.199999999999996</ele><time>2026-04-19T15:30:26.999Z</time></trkpt><trkpt lat="47.22428363835264" lon="-0.09667668399420909"><ele>39.8</ele><time>2026-04-19T15:30:27.999Z</time></trkpt><trkpt lat="47.22433149681846" lon="-0.09655533708732415"><ele>39.4</ele><time>2026-04-19T15:30:28.999Z</time></trkpt><trkpt lat="47.22437856506917" lon="-0.09642940206111578"><ele>39.0</ele><time>2026-04-19T15:30:29.999Z</time></trkpt><trkpt lat="47.22444517226782" lon="-0.09628442179284717"><ele>38.4</ele><time>2026-04-19T15:30:30.999Z</time></trkpt><trkpt lat="47.22449510452344" lon="-0.09613291261931624"><ele>37.8</ele><time>2026-04-19T15:30:31.999Z</time></trkpt><trkpt lat="47.22454443095097" lon="-0.0959936233432427"><ele>37.2</ele><time>2026-04-19T15:30:32.999Z</time></trkpt><trkpt lat="47.224590603456576" lon="-0.0958747422572977"><ele>36.6</ele><time>2026-04-19T15:30:33.999Z</time></trkpt><trkpt lat="47.2246375749302" lon="-0.09576726448904577"><ele>36.0</ele><time>2026-04-19T15:30:34.999Z</time></trkpt><trkpt lat="47.22467942956607" lon="-0.09566297556097161"><ele>35.666666666666664</ele><time>2026-04-19T15:30:35.999Z</time></trkpt><trkpt lat="47.22471654510285" lon="-0.0955694033819294"><ele>35.333333333333336</ele><time>2026-04-19T15:30:36.999Z</time></trkpt><trkpt lat="47.224751270719025" lon="-0.0954321008537162"><ele>35.0</ele><time>2026-04-19T15:30:38.999Z</time></trkpt><trkpt lat="47.224734430281366" lon="-0.09531394481647858"><ele>34.66666666666667</ele><time>2026-04-19T15:30:41.999Z</time></trkpt><trkpt lat="47.22467294240042" lon="-0.09526703058237797"><ele>34.333333333333336</ele><time>2026-04-19T15:30:42.999Z</time></trkpt><trkpt lat="47.22459595770986" lon="-0.09520145261044062"><ele>34.0</ele><time>2026-04-19T15:30:43.999Z</time></trkpt><trkpt lat="47.22451815275699" lon="-0.09513738459148859"><ele>34.0</ele><time>2026-04-19T15:30:44.999Z</time></trkpt><trkpt lat="47.22443401696031" lon="-0.09507129197554277"><ele>34.0</ele><time>2026-04-19T15:30:45.999Z</time></trkpt><trkpt lat="47.22433590929434" lon="-0.09498256125960318"><ele>34.0</ele><time>2026-04-19T15:30:46.999Z</time></trkpt><trkpt lat="47.224251107477386" lon="-0.09488076318469232"><ele>34.0</ele><time>2026-04-19T15:30:47.999Z</time></trkpt><trkpt lat="47.224160329189814" lon="-0.09477951822266815"><ele>34.0</ele><time>2026-04-19T15:30:48.999Z</time></trkpt><trkpt lat="47.22407091755046" lon="-0.09468116425529777"><ele>33.6</ele><time>2026-04-19T15:30:49.999Z</time></trkpt><trkpt lat="47.22398851461789" lon="-0.09459173981273532"><ele>33.2</ele><time>2026-04-19T15:30:50.999Z</time></trkpt><trkpt lat="47.22390263514267" lon="-0.09450835285841448"><ele>32.800000000000004</ele><time>2026-04-19T15:30:51.999Z</time></trkpt><trkpt lat="47.223812466195874" lon="-0.09442637676689875"><ele>32.4</ele><time>2026-04-19T15:30:52.999Z</time></trkpt><trkpt lat="47.22372642402349" lon="-0.09434761999064939"><ele>32.0</ele><time>2026-04-19T15:30:53.999Z</time></trkpt><trkpt lat="47.22364755761336" lon="-0.09427270700672281"><ele>31.6</ele><time>2026-04-19T15:30:54.999Z</time></trkpt><trkpt lat="47.223577739963225" lon="-0.09420457620172007"><ele>31.200000000000003</ele><time>2026-04-19T15:30:55.999Z</time></trkpt><trkpt lat="47.22350847242298" lon="-0.09413425620043477"><ele>30.8</ele><time>2026-04-19T15:30:56.999Z</time></trkpt><trkpt lat="47.223436166915214" lon="-0.09406004553433686"><ele>30.4</ele><time>2026-04-19T15:30:57.999Z</time></trkpt><trkpt lat="47.2233680974119" lon="-0.09396061965829475"><ele>30.0</ele><time>2026-04-19T15:30:58.999Z</time></trkpt><trkpt lat="47.22328784926718" lon="-0.09387408698251645"><ele>30.0</ele><time>2026-04-19T15:30:59.999Z</time></trkpt><trkpt lat="47.223205064531655" lon="-0.09378027471874083"><ele>30.0</ele><time>2026-04-19T15:31:00.999Z</time></trkpt><trkpt lat="47.22312131937133" lon="-0.09367086620043355"><ele>30.0</ele><time>2026-04-19T15:31:01.999Z</time></trkpt><trkpt lat="47.223043678976744" lon="-0.09356328925805181"><ele>30.0</ele><time>2026-04-19T15:31:02.999Z</time></trkpt><trkpt lat="47.22296322382101" lon="-0.09345863381396066"><ele>30.0</ele><time>2026-04-19T15:31:03.999Z</time></trkpt><trkpt lat="47.22288886469479" lon="-0.09335732992340338"><ele>30.0</ele><time>2026-04-19T15:31:04.999Z</time></trkpt><trkpt lat="47.22281235536889" lon="-0.09326600059464035"><ele>30.0</ele><time>2026-04-19T15:31:05.999Z</time></trkpt><trkpt lat="47.22274192728491" lon="-0.0931688560243156"><ele>30.0</ele><time>2026-04-19T15:31:06.999Z</time></trkpt><trkpt lat="47.2226721751694" lon="-0.09308803466598929"><ele>30.0</ele><time>2026-04-19T15:31:07.999Z</time></trkpt><trkpt lat="47.22259362806805" lon="-0.09301012782390367"><ele>30.0</ele><time>2026-04-19T15:31:09.999Z</time></trkpt><trkpt lat="47.222671732066864" lon="-0.09268904380156226"><ele>29.5</ele><time>2026-04-19T15:31:12.999Z</time></trkpt><trkpt lat="47.22273347923371" lon="-0.09256634429318551"><ele>29.0</ele><time>2026-04-19T15:31:13.999Z</time></trkpt><trkpt lat="47.22280613986475" lon="-0.09244263782225492"><ele>28.5</ele><time>2026-04-19T15:31:14.999Z</time></trkpt><trkpt lat="47.22291258063039" lon="-0.09234151258317408"><ele>28.0</ele><time>2026-04-19T15:31:15.999Z</time></trkpt><trkpt lat="47.223009591846186" lon="-0.09223452124722477"><ele>27.5</ele><time>2026-04-19T15:31:16.999Z</time></trkpt><trkpt lat="47.22308096132258" lon="-0.09212504941632409"><ele>27.0</ele><time>2026-04-19T15:31:17.999Z</time></trkpt><trkpt lat="47.22313958798672" lon="-0.09198726206270039"><ele>26.5</ele><time>2026-04-19T15:31:18.999Z</time></trkpt><trkpt lat="47.22318847742344" lon="-0.09180697458475805"><ele>26.0</ele><time>2026-04-19T15:31:19.999Z</time></trkpt><trkpt lat="47.223229236039465" lon="-0.09161364560639963"><ele>26.5</ele><time>2026-04-19T15:31:20.999Z</time></trkpt><trkpt lat="47.22327277825718" lon="-0.09140708156697501"><ele>27.0</ele><time>2026-04-19T15:31:21.999Z</time></trkpt><trkpt lat="47.223312801797604" lon="-0.09123481840978011"><ele>27.5</ele><time>2026-04-19T15:31:22.999Z</time></trkpt><trkpt lat="47.22334186381336" lon="-0.09106744756744001"><ele>28.0</ele><time>2026-04-19T15:31:23.999Z</time></trkpt><trkpt lat="47.22336730658187" lon="-0.0909038155283414"><ele>28.2</ele><time>2026-04-19T15:31:24.999Z</time></trkpt><trkpt lat="47.223384279993724" lon="-0.09075497594729276"><ele>28.4</ele><time>2026-04-19T15:31:25.999Z</time></trkpt><trkpt lat="47.223385298107814" lon="-0.09059308334127088"><ele>28.599999999999998</ele><time>2026-04-19T15:31:26.999Z</time></trkpt><trkpt lat="47.22338417140456" lon="-0.09043274503270843"><ele>28.799999999999997</ele><time>2026-04-19T15:31:27.999Z</time></trkpt><trkpt lat="47.223395887193746" lon="-0.09028053068068755"><ele>29.0</ele><time>2026-04-19T15:31:28.999Z</time></trkpt><trkpt lat="47.223407481025326" lon="-0.09009667350931831"><ele>29.0</ele><time>2026-04-19T15:31:29.999Z</time></trkpt><trkpt lat="47.223416770151886" lon="-0.08992625779118961"><ele>29.0</ele><time>2026-04-19T15:31:30.999Z</time></trkpt><trkpt lat="47.223429440850666" lon="-0.08972765938508209"><ele>29.0</ele><time>2026-04-19T15:31:32Z</time></trkpt><trkpt lat="47.22344830380756" lon="-0.08955036736452138"><ele>29.0</ele><time>2026-04-19T15:31:33Z</time></trkpt><trkpt lat="47.22345550108422" lon="-0.08939558971532637"><ele>28.999999999999996</ele><time>2026-04-19T15:31:34Z</time></trkpt><trkpt lat="47.22346955211924" lon="-0.08925734990023305"><ele>29.0</ele><time>2026-04-19T15:31:35Z</time></trkpt><trkpt lat="47.22348127503673" lon="-0.08913558767333091"><ele>29.0</ele><time>2026-04-19T15:31:36Z</time></trkpt><trkpt lat="47.22346269767662" lon="-0.08901478707907905"><ele>29.0</ele><time>2026-04-19T15:31:38Z</time></trkpt><trkpt lat="47.223388165888274" lon="-0.08895693624039439"><ele>28.999999999999996</ele><time>2026-04-19T15:31:40Z</time></trkpt><trkpt lat="47.22331456373451" lon="-0.08896589775639513"><ele>29.0</ele><time>2026-04-19T15:31:41Z</time></trkpt><trkpt lat="47.22321752972736" lon="-0.08898339210939159"><ele>28.4</ele><time>2026-04-19T15:31:42Z</time></trkpt><trkpt lat="47.223112242153405" lon="-0.08898728876653325"><ele>27.799999999999997</ele><time>2026-04-19T15:31:43Z</time></trkpt><trkpt lat="47.2230087610275" lon="-0.08898718601656995"><ele>27.200000000000003</ele><time>2026-04-19T15:31:44Z</time></trkpt><trkpt lat="47.22289027107021" lon="-0.08897988575955985"><ele>26.6</ele><time>2026-04-19T15:31:45Z</time></trkpt><trkpt lat="47.222778635180426" lon="-0.08897807559670444"><ele>26.0</ele><time>2026-04-19T15:31:46Z</time></trkpt><trkpt lat="47.22267339394185" lon="-0.08896650894941502"><ele>26.0</ele><time>2026-04-19T15:31:47Z</time></trkpt><trkpt lat="47.22257107722514" lon="-0.08895925825092313"><ele>26.0</ele><time>2026-04-19T15:31:48Z</time></trkpt><trkpt lat="47.22247514110678" lon="-0.08896023379060088"><ele>26.0</ele><time>2026-04-19T15:31:49Z</time></trkpt><trkpt lat="47.222380142806756" lon="-0.08895787771749857"><ele>26.0</ele><time>2026-04-19T15:31:50Z</time></trkpt><trkpt lat="47.22229250741881" lon="-0.088956467457243"><ele>26.0</ele><time>2026-04-19T15:31:51Z</time></trkpt><trkpt lat="47.22219933003426" lon="-0.08894115370672058"><ele>25.6</ele><time>2026-04-19T15:31:52Z</time></trkpt><trkpt lat="47.222095432985704" lon="-0.08891745016303305"><ele>25.200000000000003</ele><time>2026-04-19T15:31:53Z</time></trkpt><trkpt lat="47.221994204806116" lon="-0.08890714385346203"><ele>24.799999999999997</ele><time>2026-04-19T15:31:54Z</time></trkpt><trkpt lat="47.22189702920613" lon="-0.0888902579252951"><ele>24.4</ele><time>2026-04-19T15:31:55Z</time></trkpt><trkpt lat="47.221799499138655" lon="-0.0888881051695595"><ele>24.0</ele><time>2026-04-19T15:31:56Z</time></trkpt><trkpt lat="47.22170829522582" lon="-0.08888244569312358"><ele>24.0</ele><time>2026-04-19T15:31:57Z</time></trkpt><trkpt lat="47.22163016918081" lon="-0.08888454076435709"><ele>24.0</ele><time>2026-04-19T15:31:58Z</time></trkpt><trkpt lat="47.2215458099854" lon="-0.0888870429140457"><ele>24.0</ele><time>2026-04-19T15:31:59Z</time></trkpt><trkpt lat="47.22144768682981" lon="-0.08891136119413806"><ele>24.0</ele><time>2026-04-19T15:32:00Z</time></trkpt><trkpt lat="47.221346419862485" lon="-0.08890340466842397"><ele>24.0</ele><time>2026-04-19T15:32:01Z</time></trkpt><trkpt lat="47.22126160214329" lon="-0.08889217942858571"><ele>24.0</ele><time>2026-04-19T15:32:02Z</time></trkpt><trkpt lat="47.221155294004035" lon="-0.08888198473450469"><ele>24.6</ele><time>2026-04-19T15:32:04Z</time></trkpt><trkpt lat="47.2210698515394" lon="-0.0888696834572672"><ele>25.2</ele><time>2026-04-19T15:32:06Z</time></trkpt><trkpt lat="47.22099609068649" lon="-0.08886602296525"><ele>25.800000000000004</ele><time>2026-04-19T15:32:07Z</time></trkpt><trkpt lat="47.220880752101316" lon="-0.08885837804791773"><ele>26.400000000000002</ele><time>2026-04-19T15:32:08Z</time></trkpt><trkpt lat="47.2207731881901" lon="-0.08885344137233347"><ele>27.0</ele><time>2026-04-19T15:32:09Z</time></trkpt><trkpt lat="47.22069039010537" lon="-0.08886165210905854"><ele>26.857142857142858</ele><time>2026-04-19T15:32:10Z</time></trkpt><trkpt lat="47.220620183032366" lon="-0.08885293400205486"><ele>26.714285714285715</ele><time>2026-04-19T15:32:11Z</time></trkpt><trkpt lat="47.22056115586116" lon="-0.08881153411255928"><ele>26.57142857142857</ele><time>2026-04-19T15:32:13Z</time></trkpt><trkpt lat="47.22055709430253" lon="-0.08866509810113707"><ele>26.42857142857143</ele><time>2026-04-19T15:32:15Z</time></trkpt><trkpt lat="47.22056457613923" lon="-0.08857060152720093"><ele>26.28571428571429</ele><time>2026-04-19T15:32:16Z</time></trkpt><trkpt lat="47.22057773938957" lon="-0.08847496064441376"><ele>26.142857142857142</ele><time>2026-04-19T15:32:17Z</time></trkpt><trkpt lat="47.220592463842436" lon="-0.08836348850388248"><ele>26.0</ele><time>2026-04-19T15:32:18Z</time></trkpt><trkpt lat="47.22061477178531" lon="-0.08818723156854455"><ele>25.999999999999996</ele><time>2026-04-19T15:32:20Z</time></trkpt><trkpt lat="47.220628715268056" lon="-0.08805753191422841"><ele>26.0</ele><time>2026-04-19T15:32:21Z</time></trkpt><trkpt lat="47.22064012633041" lon="-0.08793674568523167"><ele>26.0</ele><time>2026-04-19T15:32:22Z</time></trkpt><trkpt lat="47.22066571332433" lon="-0.08781288890983746"><ele>26.0</ele><time>2026-04-19T15:32:23Z</time></trkpt><trkpt lat="47.22067408645263" lon="-0.08769522220116754"><ele>25.999999999999996</ele><time>2026-04-19T15:32:24Z</time></trkpt><trkpt lat="47.22069175106135" lon="-0.08757672252173652"><ele>26.0</ele><time>2026-04-19T15:32:25Z</time></trkpt><trkpt lat="47.22071098330113" lon="-0.08743957348412015"><ele>26.166666666666664</ele><time>2026-04-19T15:32:26Z</time></trkpt><trkpt lat="47.220722074535495" lon="-0.08732630260612226"><ele>26.333333333333332</ele><time>2026-04-19T15:32:27Z</time></trkpt><trkpt lat="47.220726210342804" lon="-0.08722896311220457"><ele>26.5</ele><time>2026-04-19T15:32:28Z</time></trkpt><trkpt lat="47.220734687132094" lon="-0.0871179311764258"><ele>26.666666666666664</ele><time>2026-04-19T15:32:29Z</time></trkpt><trkpt lat="47.22074841559924" lon="-0.08701247017273567"><ele>26.833333333333332</ele><time>2026-04-19T15:32:30Z</time></trkpt><trkpt lat="47.22075246066936" lon="-0.08689375441777587"><ele>27.0</ele><time>2026-04-19T15:32:31Z</time></trkpt><trkpt lat="47.22075760891855" lon="-0.08675249457481783"><ele>27.0</ele><time>2026-04-19T15:32:32Z</time></trkpt><trkpt lat="47.22077728217257" lon="-0.08661785038579016"><ele>27.0</ele><time>2026-04-19T15:32:33Z</time></trkpt><trkpt lat="47.22079927817795" lon="-0.08649842601698735"><ele>27.0</ele><time>2026-04-19T15:32:34Z</time></trkpt><trkpt lat="47.22081676590382" lon="-0.08634968030238571"><ele>27.0</ele><time>2026-04-19T15:32:34.999Z</time></trkpt><trkpt lat="47.22083488437988" lon="-0.08622996163789962"><ele>27.0</ele><time>2026-04-19T15:32:35.999Z</time></trkpt><trkpt lat="47.22084273562418" lon="-0.08613399805301578"><ele>27.0</ele><time>2026-04-19T15:32:36.999Z</time></trkpt><trkpt lat="47.22085739702534" lon="-0.08602342899026859"><ele>27.0</ele><time>2026-04-19T15:32:37.999Z</time></trkpt><trkpt lat="47.22088859157837" lon="-0.08586254341028822"><ele>27.000000000000004</ele><time>2026-04-19T15:32:39.999Z</time></trkpt><trkpt lat="47.22085244141422" lon="-0.08573407583583555"><ele>27.000000000000004</ele><time>2026-04-19T15:32:41.999Z</time></trkpt><trkpt lat="47.22078847735596" lon="-0.08568286770140553"><ele>27.0</ele><time>2026-04-19T15:32:42.999Z</time></trkpt><trkpt lat="47.220700241539404" lon="-0.08562202583383176"><ele>27.0</ele><time>2026-04-19T15:32:43.999Z</time></trkpt><trkpt lat="47.220621513756974" lon="-0.08553406699280058"><ele>26.5</ele><time>2026-04-19T15:32:44.999Z</time></trkpt><trkpt lat="47.22055650994342" lon="-0.08543832480366996"><ele>26.0</ele><time>2026-04-19T15:32:45.999Z</time></trkpt><trkpt lat="47.22050294695797" lon="-0.08535876749574814"><ele>25.5</ele><time>2026-04-19T15:32:46.999Z</time></trkpt><trkpt lat="47.220443565829825" lon="-0.08529818222746235"><ele>25.0</ele><time>2026-04-19T15:32:47.999Z</time></trkpt><trkpt lat="47.22036732597473" lon="-0.08522308187872193"><ele>24.5</ele><time>2026-04-19T15:32:48.999Z</time></trkpt><trkpt lat="47.2202841327604" lon="-0.08511527842412302"><ele>24.0</ele><time>2026-04-19T15:32:49.999Z</time></trkpt><trkpt lat="47.220204030589876" lon="-0.08500240340613187"><ele>24.4</ele><time>2026-04-19T15:32:50.999Z</time></trkpt><trkpt lat="47.220124595065634" lon="-0.08488045711520838"><ele>24.799999999999997</ele><time>2026-04-19T15:32:51.999Z</time></trkpt><trkpt lat="47.22004990031591" lon="-0.08478879587349429"><ele>25.200000000000003</ele><time>2026-04-19T15:32:52.999Z</time></trkpt><trkpt lat="47.2199815779036" lon="-0.08471567776785482"><ele>25.6</ele><time>2026-04-19T15:32:53.999Z</time></trkpt><trkpt lat="47.21990478283544" lon="-0.08464033945968763"><ele>26.0</ele><time>2026-04-19T15:32:54.999Z</time></trkpt><trkpt lat="47.219826061991135" lon="-0.08458199754118538"><ele>26.0</ele><time>2026-04-19T15:32:55.999Z</time></trkpt><trkpt lat="47.21972927308374" lon="-0.08454470835923843"><ele>26.0</ele><time>2026-04-19T15:32:56.999Z</time></trkpt><trkpt lat="47.21962500813822" lon="-0.08452723136581122"><ele>26.0</ele><time>2026-04-19T15:32:57.999Z</time></trkpt><trkpt lat="47.219529653939304" lon="-0.08448394886555222"><ele>26.0</ele><time>2026-04-19T15:32:58.999Z</time></trkpt><trkpt lat="47.21943000087438" lon="-0.08442315700351476"><ele>26.0</ele><time>2026-04-19T15:32:59.999Z</time></trkpt><trkpt lat="47.21933036397672" lon="-0.08434434382777485"><ele>26.0</ele><time>2026-04-19T15:33:00.999Z</time></trkpt><trkpt lat="47.219219451919514" lon="-0.08425836617105198"><ele>26.0</ele><time>2026-04-19T15:33:01.999Z</time></trkpt><trkpt lat="47.219111044453705" lon="-0.08417497682413116"><ele>26.0</ele><time>2026-04-19T15:33:02.999Z</time></trkpt><trkpt lat="47.2190274621606" lon="-0.0840997334098082"><ele>26.0</ele><time>2026-04-19T15:33:03.999Z</time></trkpt><trkpt lat="47.21894321102754" lon="-0.08404453714303492"><ele>26.0</ele><time>2026-04-19T15:33:04.999Z</time></trkpt><trkpt lat="47.218848087514665" lon="-0.08398803283753578"><ele>26.0</ele><time>2026-04-19T15:33:05.999Z</time></trkpt><trkpt lat="47.218756227849376" lon="-0.08394622069878192"><ele>26.0</ele><time>2026-04-19T15:33:06.999Z</time></trkpt><trkpt lat="47.21866182640808" lon="-0.08390314910410436"><ele>26.0</ele><time>2026-04-19T15:33:07.999Z</time></trkpt><trkpt lat="47.21857330065663" lon="-0.08385882796941774"><ele>26.0</ele><time>2026-04-19T15:33:08.999Z</time></trkpt><trkpt lat="47.21847455178506" lon="-0.08381908350571737"><ele>26.0</ele><time>2026-04-19T15:33:09.999Z</time></trkpt><trkpt lat="47.21837244122816" lon="-0.08377715661037205"><ele>26.0</ele><time>2026-04-19T15:33:10.999Z</time></trkpt><trkpt lat="47.21828362517634" lon="-0.08372062364841044"><ele>26.0</ele><time>2026-04-19T15:33:11.999Z</time></trkpt><trkpt lat="47.21819906285034" lon="-0.0836606986077714"><ele>26.0</ele><time>2026-04-19T15:33:12.999Z</time></trkpt><trkpt lat="47.218106037593444" lon="-0.08359406299555845"><ele>26.0</ele><time>2026-04-19T15:33:13.999Z</time></trkpt><trkpt lat="47.217999376925405" lon="-0.08353102787840398"><ele>26.0</ele><time>2026-04-19T15:33:14.999Z</time></trkpt><trkpt lat="47.217900584060644" lon="-0.08347353879458937"><ele>26.200000000000003</ele><time>2026-04-19T15:33:15.999Z</time></trkpt><trkpt lat="47.217803551693684" lon="-0.0834256531710418"><ele>26.400000000000002</ele><time>2026-04-19T15:33:16.999Z</time></trkpt><trkpt lat="47.217707795301905" lon="-0.08337306707985771"><ele>26.6</ele><time>2026-04-19T15:33:17.999Z</time></trkpt><trkpt lat="47.21760944319765" lon="-0.08332746530240316"><ele>26.8</ele><time>2026-04-19T15:33:18.999Z</time></trkpt><trkpt lat="47.21750201115839" lon="-0.08328393379988819"><ele>27.0</ele><time>2026-04-19T15:33:19.999Z</time></trkpt><trkpt lat="47.21739491309477" lon="-0.08323946230189794"><ele>27.0</ele><time>2026-04-19T15:33:20.999Z</time></trkpt><trkpt lat="47.21728817306898" lon="-0.08318482335516494"><ele>27.0</ele><time>2026-04-19T15:33:21.999Z</time></trkpt><trkpt lat="47.21718134663283" lon="-0.08311385866009816"><ele>27.0</ele><time>2026-04-19T15:33:22.999Z</time></trkpt><trkpt lat="47.21707470082605" lon="-0.08304170448340698"><ele>27.0</ele><time>2026-04-19T15:33:23.999Z</time></trkpt><trkpt lat="47.21697445988739" lon="-0.08299042876417463"><ele>27.0</ele><time>2026-04-19T15:33:24.999Z</time></trkpt><trkpt lat="47.216874897754586" lon="-0.08294455932135356"><ele>27.000000000000004</ele><time>2026-04-19T15:33:25.999Z</time></trkpt><trkpt lat="47.216771000069194" lon="-0.08290096994598126"><ele>27.000000000000004</ele><time>2026-04-19T15:33:26.999Z</time></trkpt><trkpt lat="47.216662290152236" lon="-0.08286286906980889"><ele>27.0</ele><time>2026-04-19T15:33:27.999Z</time></trkpt><trkpt lat="47.21654584499738" lon="-0.08282940433522104"><ele>27.0</ele><time>2026-04-19T15:33:28.999Z</time></trkpt><trkpt lat="47.21644485735093" lon="-0.08280819304120837"><ele>27.200000000000003</ele><time>2026-04-19T15:33:29.999Z</time></trkpt><trkpt lat="47.216346561796676" lon="-0.08278919777289469"><ele>27.400000000000002</ele><time>2026-04-19T15:33:30.999Z</time></trkpt><trkpt lat="47.21623979551614" lon="-0.08276172579949759"><ele>27.599999999999998</ele><time>2026-04-19T15:33:31.999Z</time></trkpt><trkpt lat="47.21614395407278" lon="-0.08271497012653035"><ele>27.799999999999997</ele><time>2026-04-19T15:33:32.999Z</time></trkpt><trkpt lat="47.2160619890786" lon="-0.0826576297385848"><ele>28.0</ele><time>2026-04-19T15:33:33.999Z</time></trkpt><trkpt lat="47.21598187277414" lon="-0.08260409242107186"><ele>28.000000000000004</ele><time>2026-04-19T15:33:34.999Z</time></trkpt><trkpt lat="47.21590821856444" lon="-0.08255979962483931"><ele>28.0</ele><time>2026-04-19T15:33:35.999Z</time></trkpt><trkpt lat="47.21584744270674" lon="-0.08253245748053857"><ele>28.0</ele><time>2026-04-19T15:33:36.999Z</time></trkpt><trkpt lat="47.215780761769246" lon="-0.08251111256113954"><ele>28.0</ele><time>2026-04-19T15:33:38Z</time></trkpt><trkpt lat="47.21566689923715" lon="-0.08249398054148378"><ele>28.000000000000004</ele><time>2026-04-19T15:33:40Z</time></trkpt><trkpt lat="47.215589631189886" lon="-0.0825200603639575"><ele>28.0</ele><time>2026-04-19T15:33:42Z</time></trkpt><trkpt lat="47.215564194538544" lon="-0.08265664167697731"><ele>27.599999999999998</ele><time>2026-04-19T15:33:44Z</time></trkpt><trkpt lat="47.215565050159455" lon="-0.08276726081579781"><ele>27.199999999999996</ele><time>2026-04-19T15:33:45Z</time></trkpt><trkpt lat="47.21556633542188" lon="-0.08289853154741371"><ele>26.8</ele><time>2026-04-19T15:33:46Z</time></trkpt><trkpt lat="47.21556226387902" lon="-0.08305838929934276"><ele>26.4</ele><time>2026-04-19T15:33:47Z</time></trkpt><trkpt lat="47.21557548449806" lon="-0.08321779149579202"><ele>26.0</ele><time>2026-04-19T15:33:48Z</time></trkpt><trkpt lat="47.215570402499495" lon="-0.08337173747694608"><ele>26.0</ele><time>2026-04-19T15:33:49Z</time></trkpt><trkpt lat="47.21556471802984" lon="-0.08354393366177063"><ele>26.0</ele><time>2026-04-19T15:33:50Z</time></trkpt><trkpt lat="47.21555886294374" lon="-0.08372129837792461"><ele>26.0</ele><time>2026-04-19T15:33:51Z</time></trkpt><trkpt lat="47.2155531150446" lon="-0.0838954163667271"><ele>26.0</ele><time>2026-04-19T15:33:52Z</time></trkpt><trkpt lat="47.215547143939936" lon="-0.08407629589050969"><ele>26.0</ele><time>2026-04-19T15:33:53Z</time></trkpt><trkpt lat="47.2155410461312" lon="-0.08426101274489893"><ele>26.0</ele><time>2026-04-19T15:33:54Z</time></trkpt><trkpt lat="47.21553484883822" lon="-0.08444874373024089"><ele>26.0</ele><time>2026-04-19T15:33:55Z</time></trkpt><trkpt lat="47.21552876809862" lon="-0.08463294384845044"><ele>26.0</ele><time>2026-04-19T15:33:56Z</time></trkpt><trkpt lat="47.21552327918455" lon="-0.08479921622344637"><ele>26.166666666666664</ele><time>2026-04-19T15:33:57Z</time></trkpt><trkpt lat="47.215518385834" lon="-0.08494744822480282"><ele>26.333333333333332</ele><time>2026-04-19T15:33:58Z</time></trkpt><trkpt lat="47.21551388629372" lon="-0.08508375005620787"><ele>26.5</ele><time>2026-04-19T15:33:59Z</time></trkpt><trkpt lat="47.215509494518656" lon="-0.08521678779987396"><ele>26.666666666666664</ele><time>2026-04-19T15:34:00Z</time></trkpt><trkpt lat="47.215505460063014" lon="-0.08533900107109597"><ele>26.833333333333332</ele><time>2026-04-19T15:34:01Z</time></trkpt><trkpt lat="47.21550221085156" lon="-0.08543742721601906"><ele>27.0</ele><time>2026-04-19T15:34:02Z</time></trkpt><trkpt lat="47.21549833691212" lon="-0.08555477827305848"><ele>27.0</ele><time>2026-04-19T15:34:04Z</time></trkpt><trkpt lat="47.21533535095105" lon="-0.08556312443545756"><ele>27.000000000000004</ele><time>2026-04-19T15:34:06Z</time></trkpt><trkpt lat="47.21526714087543" lon="-0.0855494784204929"><ele>27.000000000000004</ele><time>2026-04-19T15:34:07Z</time></trkpt><trkpt lat="47.21518053053817" lon="-0.08553298445019097"><ele>27.0</ele><time>2026-04-19T15:34:08Z</time></trkpt><trkpt lat="47.215075064732495" lon="-0.08552765902549375"><ele>27.0</ele><time>2026-04-19T15:34:09Z</time></trkpt><trkpt lat="47.21496402909646" lon="-0.08551815272054308"><ele>27.0</ele><time>2026-04-19T15:34:10Z</time></trkpt><trkpt lat="47.214852492221205" lon="-0.0855122386713268"><ele>27.0</ele><time>2026-04-19T15:34:11Z</time></trkpt><trkpt lat="47.214740062600946" lon="-0.08550238053090033"><ele>27.0</ele><time>2026-04-19T15:34:12Z</time></trkpt><trkpt lat="47.21461535548498" lon="-0.08549155361223984"><ele>27.0</ele><time>2026-04-19T15:34:13Z</time></trkpt><trkpt lat="47.21447791886251" lon="-0.08548604473017257"><ele>27.0</ele><time>2026-04-19T15:34:14Z</time></trkpt><trkpt lat="47.21433457699853" lon="-0.08547653663588722"><ele>27.0</ele><time>2026-04-19T15:34:15Z</time></trkpt><trkpt lat="47.214192486819776" lon="-0.0854731095440446"><ele>27.0</ele><time>2026-04-19T15:34:16Z</time></trkpt><trkpt lat="47.21407096493801" lon="-0.08547015540562944"><ele>27.0</ele><time>2026-04-19T15:34:17Z</time></trkpt><trkpt lat="47.21394685906006" lon="-0.08546051313947976"><ele>27.0</ele><time>2026-04-19T15:34:18Z</time></trkpt><trkpt lat="47.21381660252406" lon="-0.08545138887297568"><ele>27.0</ele><time>2026-04-19T15:34:19Z</time></trkpt><trkpt lat="47.213686237981186" lon="-0.08545090741696643"><ele>27.0</ele><time>2026-04-19T15:34:20Z</time></trkpt><trkpt lat="47.213552460994" lon="-0.08544814450207223"><ele>27.0</ele><time>2026-04-19T15:34:21Z</time></trkpt><trkpt lat="47.213424478117545" lon="-0.08544029267342798"><ele>27.0</ele><time>2026-04-19T15:34:22Z</time></trkpt><trkpt lat="47.21329565857132" lon="-0.0854331351322865"><ele>27.0</ele><time>2026-04-19T15:34:23Z</time></trkpt><trkpt lat="47.213163175031774" lon="-0.08542666211785596"><ele>27.0</ele><time>2026-04-19T15:34:24Z</time></trkpt><trkpt lat="47.21301904343912" lon="-0.08542401776460737"><ele>27.0</ele><time>2026-04-19T15:34:25Z</time></trkpt><trkpt lat="47.21286960892795" lon="-0.08541767991274887"><ele>26.5</ele><time>2026-04-19T15:34:26Z</time></trkpt><trkpt lat="47.21272893077748" lon="-0.0854115349864751"><ele>26.0</ele><time>2026-04-19T15:34:27Z</time></trkpt><trkpt lat="47.21260546111166" lon="-0.08540357957010457"><ele>25.5</ele><time>2026-04-19T15:34:28Z</time></trkpt><trkpt lat="47.21247409281077" lon="-0.08539460502036206"><ele>25.0</ele><time>2026-04-19T15:34:29Z</time></trkpt><trkpt lat="47.21234092855768" lon="-0.08538780705831411"><ele>25.25</ele><time>2026-04-19T15:34:30Z</time></trkpt><trkpt lat="47.21220242570009" lon="-0.08538180771434706"><ele>25.5</ele><time>2026-04-19T15:34:31Z</time></trkpt><trkpt lat="47.212076701111656" lon="-0.08536994409184882"><ele>25.75</ele><time>2026-04-19T15:34:32Z</time></trkpt><trkpt lat="47.21195225334771" lon="-0.08536203964443775"><ele>26.0</ele><time>2026-04-19T15:34:33Z</time></trkpt><trkpt lat="47.21184201452391" lon="-0.08535934327475705"><ele>26.0</ele><time>2026-04-19T15:34:34Z</time></trkpt><trkpt lat="47.211725951066065" lon="-0.085359156052997"><ele>26.0</ele><time>2026-04-19T15:34:35Z</time></trkpt><trkpt lat="47.211612022167095" lon="-0.0853542618809834"><ele>26.0</ele><time>2026-04-19T15:34:36Z</time></trkpt><trkpt lat="47.211507184428314" lon="-0.0853500165491991"><ele>26.0</ele><time>2026-04-19T15:34:37Z</time></trkpt><trkpt lat="47.21140097736975" lon="-0.08534596938702957"><ele>26.0</ele><time>2026-04-19T15:34:38Z</time></trkpt><trkpt lat="47.211279962889954" lon="-0.0853454575913908"><ele>26.0</ele><time>2026-04-19T15:34:39Z</time></trkpt><trkpt lat="47.21115017364239" lon="-0.0853402117809386"><ele>26.0</ele><time>2026-04-19T15:34:40Z</time></trkpt><trkpt lat="47.21104662093317" lon="-0.08533351746362636"><ele>26.0</ele><time>2026-04-19T15:34:41Z</time></trkpt><trkpt lat="47.210952956813074" lon="-0.08531353723590715"><ele>26.0</ele><time>2026-04-19T15:34:42Z</time></trkpt><trkpt lat="47.21086349392354" lon="-0.08530525243641011"><ele>26.0</ele><time>2026-04-19T15:34:43Z</time></trkpt><trkpt lat="47.21077821770309" lon="-0.08531194144639828"><ele>25.999999999999996</ele><time>2026-04-19T15:34:43.999Z</time></trkpt><trkpt lat="47.21069659662389" lon="-0.08533680953947469"><ele>26.0</ele><time>2026-04-19T15:34:44.999Z</time></trkpt><trkpt lat="47.21062307838984" lon="-0.08537746757850016"><ele>26.0</ele><time>2026-04-19T15:34:45.999Z</time></trkpt><trkpt lat="47.210532873790704" lon="-0.08540512184582805"><ele>26.0</ele><time>2026-04-19T15:34:46.999Z</time></trkpt><trkpt lat="47.21046501061052" lon="-0.08542945482761037"><ele>25.999999999999996</ele><time>2026-04-19T15:34:47.999Z</time></trkpt><trkpt lat="47.21040066061984" lon="-0.08544752853024389"><ele>26.0</ele><time>2026-04-19T15:34:48.999Z</time></trkpt><trkpt lat="47.21029515507106" lon="-0.08551394962612285"><ele>26.166666666666664</ele><time>2026-04-19T15:34:50.999Z</time></trkpt><trkpt lat="47.21022250977151" lon="-0.08562200347350711"><ele>26.333333333333332</ele><time>2026-04-19T15:34:52.999Z</time></trkpt><trkpt lat="47.21015159624245" lon="-0.08567706441587354"><ele>26.5</ele><time>2026-04-19T15:34:54.999Z</time></trkpt><trkpt lat="47.210082713170664" lon="-0.08565611419800225"><ele>26.666666666666664</ele><time>2026-04-19T15:35:04.999Z</time></trkpt><trkpt lat="47.21000780519337" lon="-0.08564209623481742"><ele>26.833333333333332</ele><time>2026-04-19T15:35:08.999Z</time></trkpt><trkpt lat="47.209920884708474" lon="-0.08561627688723325"><ele>27.0</ele><time>2026-04-19T15:35:10.999Z</time></trkpt><trkpt lat="47.20979859191049" lon="-0.08563552298786914"><ele>26.666666666666668</ele><time>2026-04-19T15:35:12.999Z</time></trkpt><trkpt lat="47.20972850815796" lon="-0.0856478924949094"><ele>26.333333333333336</ele><time>2026-04-19T15:35:13.999Z</time></trkpt><trkpt lat="47.20965458281412" lon="-0.08566356379512297"><ele>26.0</ele><time>2026-04-19T15:35:14.999Z</time></trkpt><trkpt lat="47.2095732558887" lon="-0.08567356622574948"><ele>25.666666666666668</ele><time>2026-04-19T15:35:15.999Z</time></trkpt><trkpt lat="47.20949310149029" lon="-0.08569166721539037"><ele>25.333333333333336</ele><time>2026-04-19T15:35:16.999Z</time></trkpt><trkpt lat="47.209404461365374" lon="-0.08571280500695658"><ele>25.0</ele><time>2026-04-19T15:35:17.999Z</time></trkpt><trkpt lat="47.209317970655825" lon="-0.085727475684402"><ele>25.000000000000004</ele><time>2026-04-19T15:35:18.999Z</time></trkpt><trkpt lat="47.209237950290024" lon="-0.08573257242256448"><ele>25.0</ele><time>2026-04-19T15:35:19.999Z</time></trkpt><trkpt lat="47.209155302430425" lon="-0.08573501550294003"><ele>25.0</ele><time>2026-04-19T15:35:20.999Z</time></trkpt><trkpt lat="47.209069379014814" lon="-0.08574453617635928"><ele>25.0</ele><time>2026-04-19T15:35:21.999Z</time></trkpt><trkpt lat="47.208988327537114" lon="-0.08575348206156179"><ele>25.000000000000004</ele><time>2026-04-19T15:35:22.999Z</time></trkpt><trkpt lat="47.20889056512353" lon="-0.08575890646464447"><ele>25.0</ele><time>2026-04-19T15:35:23.999Z</time></trkpt><trkpt lat="47.208783273594314" lon="-0.08576130028548626"><ele>24.833333333333336</ele><time>2026-04-19T15:35:24.999Z</time></trkpt><trkpt lat="47.20867866270936" lon="-0.0857568838645586"><ele>24.666666666666668</ele><time>2026-04-19T15:35:25.999Z</time></trkpt><trkpt lat="47.20858245070812" lon="-0.08575540370573964"><ele>24.5</ele><time>2026-04-19T15:35:26.999Z</time></trkpt><trkpt lat="47.20850364754471" lon="-0.08575951657039987"><ele>24.333333333333336</ele><time>2026-04-19T15:35:27.999Z</time></trkpt><trkpt lat="47.20843573544584" lon="-0.08576385866021878"><ele>24.166666666666668</ele><time>2026-04-19T15:35:28.999Z</time></trkpt><trkpt lat="47.20834860047461" lon="-0.08576478505548633"><ele>24.0</ele><time>2026-04-19T15:35:29.999Z</time></trkpt><trkpt lat="47.20825745840896" lon="-0.08576798679986394"><ele>24.833333333333332</ele><time>2026-04-19T15:35:30.999Z</time></trkpt><trkpt lat="47.208173922207806" lon="-0.08578848753383816"><ele>25.666666666666664</ele><time>2026-04-19T15:35:31.999Z</time></trkpt><trkpt lat="47.20809121348767" lon="-0.08579131037796481"><ele>26.5</ele><time>2026-04-19T15:35:32.999Z</time></trkpt><trkpt lat="47.20801500730851" lon="-0.08581015675550789"><ele>27.333333333333332</ele><time>2026-04-19T15:35:33.999Z</time></trkpt><trkpt lat="47.20793880311951" lon="-0.08583350550662128"><ele>28.166666666666664</ele><time>2026-04-19T15:35:34.999Z</time></trkpt><trkpt lat="47.20785218392258" lon="-0.08585931451908665"><ele>29.0</ele><time>2026-04-19T15:35:35.999Z</time></trkpt><trkpt lat="47.2077591866125" lon="-0.08587723616588976"><ele>29.0</ele><time>2026-04-19T15:35:36.999Z</time></trkpt><trkpt lat="47.207663071714244" lon="-0.08590035127643436"><ele>29.0</ele><time>2026-04-19T15:35:37.999Z</time></trkpt><trkpt lat="47.207553330533784" lon="-0.08590684716697501"><ele>29.0</ele><time>2026-04-19T15:35:38.999Z</time></trkpt><trkpt lat="47.20745095553733" lon="-0.08592015915741648"><ele>29.0</ele><time>2026-04-19T15:35:39.999Z</time></trkpt><trkpt lat="47.20735267107287" lon="-0.08592943722606897"><ele>29.0</ele><time>2026-04-19T15:35:40.999Z</time></trkpt><trkpt lat="47.20727304391952" lon="-0.08593947337302997"><ele>28.571428571428577</ele><time>2026-04-19T15:35:41.999Z</time></trkpt><trkpt lat="47.20718945366324" lon="-0.08596477745539555"><ele>28.142857142857146</ele><time>2026-04-19T15:35:43Z</time></trkpt><trkpt lat="47.207113213820406" lon="-0.08600718734048321"><ele>27.714285714285715</ele><time>2026-04-19T15:35:44Z</time></trkpt><trkpt lat="47.20704304422039" lon="-0.0860532576790294"><ele>27.28571428571429</ele><time>2026-04-19T15:35:45Z</time></trkpt><trkpt lat="47.20698176616344" lon="-0.08609122876337374"><ele>26.85714285714286</ele><time>2026-04-19T15:35:46Z</time></trkpt><trkpt lat="47.2069165435494" lon="-0.08612309691429157"><ele>26.428571428571427</ele><time>2026-04-19T15:35:47Z</time></trkpt><trkpt lat="47.20684982726473" lon="-0.086155248307032"><ele>26.0</ele><time>2026-04-19T15:35:48Z</time></trkpt><trkpt lat="47.20677539712464" lon="-0.08619372404645877"><ele>25.999999999999996</ele><time>2026-04-19T15:35:49Z</time></trkpt><trkpt lat="47.20670004679928" lon="-0.08622487709194158"><ele>26.0</ele><time>2026-04-19T15:35:50Z</time></trkpt><trkpt lat="47.206624564637956" lon="-0.08624419012089116"><ele>26.0</ele><time>2026-04-19T15:35:51Z</time></trkpt><trkpt lat="47.20654109911163" lon="-0.08626458200555534"><ele>26.0</ele><time>2026-04-19T15:35:52Z</time></trkpt><trkpt lat="47.20647110076267" lon="-0.08629101540524425"><ele>25.999999999999996</ele><time>2026-04-19T15:35:53Z</time></trkpt><trkpt lat="47.20639863672182" lon="-0.08630860620784739"><ele>26.0</ele><time>2026-04-19T15:35:54Z</time></trkpt><trkpt lat="47.206301501522546" lon="-0.08636433163969721"><ele>26.0</ele><time>2026-04-19T15:35:56Z</time></trkpt><trkpt lat="47.20625040116127" lon="-0.0865376383853791"><ele>26.0</ele><time>2026-04-19T15:35:58Z</time></trkpt><trkpt lat="47.20623373012609" lon="-0.08667221457135339"><ele>26.0</ele><time>2026-04-19T15:35:59Z</time></trkpt><trkpt lat="47.2062234867142" lon="-0.08681086300164895"><ele>26.0</ele><time>2026-04-19T15:36:00Z</time></trkpt><trkpt lat="47.20620892397896" lon="-0.08694270927512095"><ele>26.0</ele><time>2026-04-19T15:36:01Z</time></trkpt><trkpt lat="47.2061855135096" lon="-0.08705235154671156"><ele>26.0</ele><time>2026-04-19T15:36:02Z</time></trkpt><trkpt lat="47.20614602836742" lon="-0.08714907658168643"><ele>26.0</ele><time>2026-04-19T15:36:03Z</time></trkpt><trkpt lat="47.2060877481701" lon="-0.08721357027144112"><ele>26.0</ele><time>2026-04-19T15:36:04Z</time></trkpt><trkpt lat="47.206010453389624" lon="-0.08724769127614622"><ele>26.0</ele><time>2026-04-19T15:36:05Z</time></trkpt><trkpt lat="47.205905563324855" lon="-0.08727190237779496"><ele>26.0</ele><time>2026-04-19T15:36:06Z</time></trkpt><trkpt lat="47.20578621912393" lon="-0.08731472398780286"><ele>25.999999999999996</ele><time>2026-04-19T15:36:07Z</time></trkpt><trkpt lat="47.20569156797437" lon="-0.08734425884418565"><ele>26.0</ele><time>2026-04-19T15:36:08Z</time></trkpt><trkpt lat="47.205616389562756" lon="-0.08737371565587057"><ele>26.0</ele><time>2026-04-19T15:36:09Z</time></trkpt><trkpt lat="47.205547707215636" lon="-0.08741659639184851"><ele>26.0</ele><time>2026-04-19T15:36:10Z</time></trkpt><trkpt lat="47.20549800831184" lon="-0.08748806663975192"><ele>25.999999999999996</ele><time>2026-04-19T15:36:11Z</time></trkpt><trkpt lat="47.20547917171741" lon="-0.08758773922936265"><ele>26.0</ele><time>2026-04-19T15:36:12Z</time></trkpt><trkpt lat="47.20548337693723" lon="-0.08770997069834216"><ele>26.0</ele><time>2026-04-19T15:36:13Z</time></trkpt><trkpt lat="47.20549834171663" lon="-0.08783213557780399"><ele>26.0</ele><time>2026-04-19T15:36:14Z</time></trkpt><trkpt lat="47.20551013860452" lon="-0.08798173756573013"><ele>26.0</ele><time>2026-04-19T15:36:15Z</time></trkpt><trkpt lat="47.20551037496619" lon="-0.08814708373942318"><ele>26.0</ele><time>2026-04-19T15:36:16Z</time></trkpt><trkpt lat="47.20551557573991" lon="-0.08828466481752623"><ele>26.0</ele><time>2026-04-19T15:36:17Z</time></trkpt><trkpt lat="47.20552094147154" lon="-0.08840124528025163"><ele>26.0</ele><time>2026-04-19T15:36:18Z</time></trkpt><trkpt lat="47.205534742461175" lon="-0.08858054437829989"><ele>26.0</ele><time>2026-04-19T15:36:20Z</time></trkpt><trkpt lat="47.20551599306992" lon="-0.08868762492853242"><ele>26.0</ele><time>2026-04-19T15:36:22Z</time></trkpt><trkpt lat="47.20541173524634" lon="-0.08872544417760195"><ele>26.0</ele><time>2026-04-19T15:36:24Z</time></trkpt><trkpt lat="47.20534023038283" lon="-0.08873426681318627"><ele>26.0</ele><time>2026-04-19T15:36:25Z</time></trkpt><trkpt lat="47.20525319981623" lon="-0.08875184567726024"><ele>26.0</ele><time>2026-04-19T15:36:26Z</time></trkpt><trkpt lat="47.20515083165406" lon="-0.08878298931043303"><ele>26.0</ele><time>2026-04-19T15:36:27Z</time></trkpt><trkpt lat="47.205041477965324" lon="-0.08880565169678956"><ele>26.0</ele><time>2026-04-19T15:36:28Z</time></trkpt><trkpt lat="47.204936432912724" lon="-0.08882677550421726"><ele>26.0</ele><time>2026-04-19T15:36:29Z</time></trkpt><trkpt lat="47.20482835843026" lon="-0.08884043753230028"><ele>26.0</ele><time>2026-04-19T15:36:30Z</time></trkpt><trkpt lat="47.2047133494348" lon="-0.08886559774579746"><ele>26.0</ele><time>2026-04-19T15:36:31Z</time></trkpt><trkpt lat="47.204592284315595" lon="-0.08888965514457153"><ele>26.0</ele><time>2026-04-19T15:36:32Z</time></trkpt><trkpt lat="47.20446915788376" lon="-0.08891944866941778"><ele>26.0</ele><time>2026-04-19T15:36:33Z</time></trkpt><trkpt lat="47.20435261738408" lon="-0.08894932741342529"><ele>26.0</ele><time>2026-04-19T15:36:34Z</time></trkpt><trkpt lat="47.20424225951993" lon="-0.08897275480738678"><ele>26.0</ele><time>2026-04-19T15:36:35Z</time></trkpt><trkpt lat="47.204141897051684" lon="-0.08899747931148083"><ele>26.0</ele><time>2026-04-19T15:36:36Z</time></trkpt><trkpt lat="47.20404436071047" lon="-0.0890242202307189"><ele>26.0</ele><time>2026-04-19T15:36:37Z</time></trkpt><trkpt lat="47.203947597269334" lon="-0.08904777789652378"><ele>26.0</ele><time>2026-04-19T15:36:38Z</time></trkpt><trkpt lat="47.203847316695985" lon="-0.08908151904600005"><ele>26.0</ele><time>2026-04-19T15:36:39Z</time></trkpt><trkpt lat="47.203746590902554" lon="-0.08911944013032205"><ele>25.999999999999996</ele><time>2026-04-19T15:36:40Z</time></trkpt><trkpt lat="47.20365897374264" lon="-0.08915742059772976"><ele>26.0</ele><time>2026-04-19T15:36:41Z</time></trkpt><trkpt lat="47.20358453680555" lon="-0.08919190988387439"><ele>26.0</ele><time>2026-04-19T15:36:42Z</time></trkpt><trkpt lat="47.20351439223423" lon="-0.08922557851433473"><ele>26.0</ele><time>2026-04-19T15:36:43Z</time></trkpt><trkpt lat="47.20344347041091" lon="-0.08926535249298596"><ele>25.999999999999996</ele><time>2026-04-19T15:36:44Z</time></trkpt><trkpt lat="47.2033641230929" lon="-0.08931102186072418"><ele>26.0</ele><time>2026-04-19T15:36:45Z</time></trkpt><trkpt lat="47.20328388405967" lon="-0.08935725316115417"><ele>26.0</ele><time>2026-04-19T15:36:46Z</time></trkpt><trkpt lat="47.20320494874445" lon="-0.08940155869418123"><ele>26.0</ele><time>2026-04-19T15:36:47Z</time></trkpt><trkpt lat="47.203135667996" lon="-0.0894384318758287"><ele>26.0</ele><time>2026-04-19T15:36:48Z</time></trkpt><trkpt lat="47.203029846725954" lon="-0.08951899281227765"><ele>26.0</ele><time>2026-04-19T15:36:50Z</time></trkpt><trkpt lat="47.20293647555306" lon="-0.08958084102248606"><ele>26.0</ele><time>2026-04-19T15:36:52Z</time></trkpt><trkpt lat="47.20285404756718" lon="-0.08950839457212914"><ele>25.999999999999996</ele><time>2026-04-19T15:36:54Z</time></trkpt><trkpt lat="47.20282850484417" lon="-0.0894203967719336"><ele>26.0</ele><time>2026-04-19T15:36:54.999Z</time></trkpt><trkpt lat="47.20280821257751" lon="-0.0893089782398858"><ele>26.0</ele><time>2026-04-19T15:36:55.999Z</time></trkpt><trkpt lat="47.20276750979978" lon="-0.08919039831872654"><ele>26.0</ele><time>2026-04-19T15:36:56.999Z</time></trkpt><trkpt lat="47.202735261061285" lon="-0.08906720919334005"><ele>25.999999999999996</ele><time>2026-04-19T15:36:57.999Z</time></trkpt><trkpt lat="47.20272118273636" lon="-0.08894570516431731"><ele>26.0</ele><time>2026-04-19T15:36:58.999Z</time></trkpt><trkpt lat="47.20269404136064" lon="-0.08885345617753465"><ele>26.0</ele><time>2026-04-19T15:36:59.999Z</time></trkpt><trkpt lat="47.202660502103775" lon="-0.08876710602144972"><ele>26.0</ele><time>2026-04-19T15:37:00.999Z</time></trkpt><trkpt lat="47.20264254280106" lon="-0.08863001258402302"><ele>26.0</ele><time>2026-04-19T15:37:02.999Z</time></trkpt><trkpt lat="47.20262356066581" lon="-0.08851668800443514"><ele>26.0</ele><time>2026-04-19T15:37:04.999Z</time></trkpt><trkpt lat="47.20259495508109" lon="-0.0883387316440853"><ele>26.0</ele><time>2026-04-19T15:37:06.999Z</time></trkpt><trkpt lat="47.202560832691205" lon="-0.08820907724046165"><ele>26.25</ele><time>2026-04-19T15:37:07.999Z</time></trkpt><trkpt lat="47.20255498056813" lon="-0.08804004801798783"><ele>26.5</ele><time>2026-04-19T15:37:08.999Z</time></trkpt><trkpt lat="47.202523149231595" lon="-0.08787979060472649"><ele>26.75</ele><time>2026-04-19T15:37:09.999Z</time></trkpt><trkpt lat="47.2025507988934" lon="-0.08768748960748368"><ele>27.0</ele><time>2026-04-19T15:37:10.999Z</time></trkpt><trkpt lat="47.202535974526654" lon="-0.08750891583946598"><ele>27.0</ele><time>2026-04-19T15:37:11.999Z</time></trkpt><trkpt lat="47.20251087932808" lon="-0.08731566139461043"><ele>27.000000000000004</ele><time>2026-04-19T15:37:12.999Z</time></trkpt><trkpt lat="47.20249009983418" lon="-0.0871342269099366"><ele>27.000000000000004</ele><time>2026-04-19T15:37:13.999Z</time></trkpt><trkpt lat="47.20247891933607" lon="-0.08698595727098661"><ele>27.0</ele><time>2026-04-19T15:37:14.999Z</time></trkpt><trkpt lat="47.20246584533981" lon="-0.08687642181544737"><ele>27.0</ele><time>2026-04-19T15:37:15.999Z</time></trkpt><trkpt lat="47.20238620631247" lon="-0.08676477380465197"><ele>26.6</ele><time>2026-04-19T15:37:17.999Z</time></trkpt><trkpt lat="47.20232141883409" lon="-0.08675452441228335"><ele>26.200000000000003</ele><time>2026-04-19T15:37:18.999Z</time></trkpt><trkpt lat="47.20224181400894" lon="-0.08676630173610769"><ele>25.8</ele><time>2026-04-19T15:37:19.999Z</time></trkpt><trkpt lat="47.20215012665408" lon="-0.08679743838175932"><ele>25.4</ele><time>2026-04-19T15:37:20.999Z</time></trkpt><trkpt lat="47.20203126679004" lon="-0.08683427396858204"><ele>25.0</ele><time>2026-04-19T15:37:21.999Z</time></trkpt><trkpt lat="47.20189551096861" lon="-0.08685847044179264"><ele>25.0</ele><time>2026-04-19T15:37:22.999Z</time></trkpt><trkpt lat="47.20174781170354" lon="-0.08687711779195745"><ele>25.0</ele><time>2026-04-19T15:37:23.999Z</time></trkpt><trkpt lat="47.201603796699025" lon="-0.08690295927864819"><ele>25.0</ele><time>2026-04-19T15:37:24.999Z</time></trkpt><trkpt lat="47.20145276750902" lon="-0.08692783566738524"><ele>25.0</ele><time>2026-04-19T15:37:25.999Z</time></trkpt><trkpt lat="47.201302982097694" lon="-0.0869545639356544"><ele>24.75</ele><time>2026-04-19T15:37:26.999Z</time></trkpt><trkpt lat="47.201152963461716" lon="-0.08697252717426533"><ele>24.5</ele><time>2026-04-19T15:37:27.999Z</time></trkpt><trkpt lat="47.20100373898987" lon="-0.08698915599604638"><ele>24.25</ele><time>2026-04-19T15:37:28.999Z</time></trkpt><trkpt lat="47.20085804279895" lon="-0.0870106487929461"><ele>24.0</ele><time>2026-04-19T15:37:29.999Z</time></trkpt><trkpt lat="47.20071835807821" lon="-0.08703237413853399"><ele>23.75</ele><time>2026-04-19T15:37:30.999Z</time></trkpt><trkpt lat="47.20057124670666" lon="-0.0870516792336032"><ele>23.5</ele><time>2026-04-19T15:37:31.999Z</time></trkpt><trkpt lat="47.20042720954722" lon="-0.08706676618054857"><ele>23.25</ele><time>2026-04-19T15:37:32.999Z</time></trkpt><trkpt lat="47.200286633934965" lon="-0.08709076417493766"><ele>23.0</ele><time>2026-04-19T15:37:33.999Z</time></trkpt><trkpt lat="47.20014024809163" lon="-0.08711185368500533"><ele>23.0</ele><time>2026-04-19T15:37:34.999Z</time></trkpt><trkpt lat="47.19999333796505" lon="-0.08712688213364128"><ele>23.0</ele><time>2026-04-19T15:37:35.999Z</time></trkpt><trkpt lat="47.199857699438304" lon="-0.08714533932354433"><ele>23.0</ele><time>2026-04-19T15:37:36.999Z</time></trkpt><trkpt lat="47.199735286820996" lon="-0.08715767460488262"><ele>23.0</ele><time>2026-04-19T15:37:37.999Z</time></trkpt><trkpt lat="47.199614363475526" lon="-0.08717287579446847"><ele>23.5</ele><time>2026-04-19T15:37:38.999Z</time></trkpt><trkpt lat="47.199494175033955" lon="-0.08719394001428844"><ele>24.0</ele><time>2026-04-19T15:37:39.999Z</time></trkpt><trkpt lat="47.19936716081462" lon="-0.08722131217574393"><ele>24.5</ele><time>2026-04-19T15:37:40.999Z</time></trkpt><trkpt lat="47.199243605038234" lon="-0.08724859873939025"><ele>25.0</ele><time>2026-04-19T15:37:41.999Z</time></trkpt><trkpt lat="47.19910089390791" lon="-0.08726640875804367"><ele>25.25</ele><time>2026-04-19T15:37:42.999Z</time></trkpt><trkpt lat="47.198967288711536" lon="-0.08728733785668634"><ele>25.5</ele><time>2026-04-19T15:37:43.999Z</time></trkpt><trkpt lat="47.198840720442725" lon="-0.08730494669978543"><ele>25.75</ele><time>2026-04-19T15:37:44.999Z</time></trkpt><trkpt lat="47.198710631648616" lon="-0.08732676932354227"><ele>26.0</ele><time>2026-04-19T15:37:45.999Z</time></trkpt><trkpt lat="47.19857602829847" lon="-0.08735043686090767"><ele>26.0</ele><time>2026-04-19T15:37:46.999Z</time></trkpt><trkpt lat="47.1984385937067" lon="-0.08737491861233576"><ele>26.0</ele><time>2026-04-19T15:37:47.999Z</time></trkpt><trkpt lat="47.198289110118" lon="-0.08739809935328066"><ele>26.0</ele><time>2026-04-19T15:37:49Z</time></trkpt><trkpt lat="47.19813581431632" lon="-0.0874203840071869"><ele>26.0</ele><time>2026-04-19T15:37:50Z</time></trkpt><trkpt lat="47.197998099313196" lon="-0.0874369482375719"><ele>25.25</ele><time>2026-04-19T15:37:51Z</time></trkpt><trkpt lat="47.197873038307364" lon="-0.08745834720630101"><ele>24.5</ele><time>2026-04-19T15:37:52Z</time></trkpt><trkpt lat="47.19774918403164" lon="-0.08747513098846176"><ele>23.75</ele><time>2026-04-19T15:37:53Z</time></trkpt><trkpt lat="47.19761615894269" lon="-0.0874920818113128"><ele>23.0</ele><time>2026-04-19T15:37:54Z</time></trkpt><trkpt lat="47.197481078592496" lon="-0.08750562213120901"><ele>23.0</ele><time>2026-04-19T15:37:55Z</time></trkpt><trkpt lat="47.19734188415155" lon="-0.0875245113463143"><ele>23.0</ele><time>2026-04-19T15:37:56Z</time></trkpt><trkpt lat="47.1971959673543" lon="-0.08754878524034351"><ele>23.0</ele><time>2026-04-19T15:37:57Z</time></trkpt><trkpt lat="47.19704640880043" lon="-0.0875748170048163"><ele>23.0</ele><time>2026-04-19T15:37:58Z</time></trkpt><trkpt lat="47.196892665134726" lon="-0.08760083537058039"><ele>23.5</ele><time>2026-04-19T15:37:59Z</time></trkpt><trkpt lat="47.196745396245355" lon="-0.08762534071126259"><ele>24.0</ele><time>2026-04-19T15:38:00Z</time></trkpt><trkpt lat="47.19660357723414" lon="-0.08764506313836105"><ele>24.5</ele><time>2026-04-19T15:38:01Z</time></trkpt><trkpt lat="47.19647057017228" lon="-0.08766340632471833"><ele>25.0</ele><time>2026-04-19T15:38:02Z</time></trkpt><trkpt lat="47.19632932620153" lon="-0.08768494607855151"><ele>25.0</ele><time>2026-04-19T15:38:03Z</time></trkpt><trkpt lat="47.196192715474055" lon="-0.08770849147293724"><ele>25.0</ele><time>2026-04-19T15:38:04Z</time></trkpt><trkpt lat="47.1960570031038" lon="-0.08772760501007905"><ele>25.0</ele><time>2026-04-19T15:38:05Z</time></trkpt><trkpt lat="47.19593918309336" lon="-0.08774660008897063"><ele>25.0</ele><time>2026-04-19T15:38:06Z</time></trkpt><trkpt lat="47.19582899025536" lon="-0.08776573534584484"><ele>25.0</ele><time>2026-04-19T15:38:07Z</time></trkpt><trkpt lat="47.195739675136146" lon="-0.08777644805605966"><ele>25.0</ele><time>2026-04-19T15:38:08Z</time></trkpt><trkpt lat="47.19567006572936" lon="-0.08778803605918685"><ele>25.0</ele><time>2026-04-19T15:38:09Z</time></trkpt><trkpt lat="47.195567875427" lon="-0.08780234993759872"><ele>25.0</ele><time>2026-04-19T15:38:11Z</time></trkpt><trkpt lat="47.195523261896774" lon="-0.08770720114690009"><ele>25.0</ele><time>2026-04-19T15:38:13Z</time></trkpt><trkpt lat="47.195516170154626" lon="-0.08751516804001028"><ele>25.25</ele><time>2026-04-19T15:38:15Z</time></trkpt><trkpt lat="47.19551259152401" lon="-0.08737307089957275"><ele>25.5</ele><time>2026-04-19T15:38:16Z</time></trkpt><trkpt lat="47.195495981085315" lon="-0.08719734883619921"><ele>25.75</ele><time>2026-04-19T15:38:17Z</time></trkpt><trkpt lat="47.195475691539656" lon="-0.08700789317889655"><ele>26.0</ele><time>2026-04-19T15:38:18Z</time></trkpt><trkpt lat="47.1954565582239" lon="-0.08679906825312067"><ele>25.75</ele><time>2026-04-19T15:38:19Z</time></trkpt><trkpt lat="47.19543037891596" lon="-0.08658489979579669"><ele>25.5</ele><time>2026-04-19T15:38:20Z</time></trkpt><trkpt lat="47.1954123326596" lon="-0.08637423928521247"><ele>25.25</ele><time>2026-04-19T15:38:21Z</time></trkpt><trkpt lat="47.1953931226343" lon="-0.08616552724415356"><ele>25.0</ele><time>2026-04-19T15:38:22Z</time></trkpt><trkpt lat="47.19537284496973" lon="-0.08594775693967836"><ele>25.25</ele><time>2026-04-19T15:38:23Z</time></trkpt><trkpt lat="47.19535322054962" lon="-0.0857380375636086"><ele>25.5</ele><time>2026-04-19T15:38:24Z</time></trkpt><trkpt lat="47.19533166309596" lon="-0.08552986489813315"><ele>25.75</ele><time>2026-04-19T15:38:25Z</time></trkpt><trkpt lat="47.19530993119855" lon="-0.08533647911534378"><ele>26.0</ele><time>2026-04-19T15:38:26Z</time></trkpt><trkpt lat="47.195296861145174" lon="-0.08517299614735112"><ele>26.0</ele><time>2026-04-19T15:38:27Z</time></trkpt><trkpt lat="47.19528904944474" lon="-0.08501381224228415"><ele>26.0</ele><time>2026-04-19T15:38:28Z</time></trkpt><trkpt lat="47.19527250758982" lon="-0.08486939071167134"><ele>26.0</ele><time>2026-04-19T15:38:29Z</time></trkpt><trkpt lat="47.19525745124197" lon="-0.08470879467618933"><ele>26.0</ele><time>2026-04-19T15:38:30Z</time></trkpt><trkpt lat="47.195242100145094" lon="-0.08454036394513266"><ele>26.0</ele><time>2026-04-19T15:38:31Z</time></trkpt><trkpt lat="47.19522475973002" lon="-0.08436518858175268"><ele>26.333333333333332</ele><time>2026-04-19T15:38:32Z</time></trkpt><trkpt lat="47.19520969303993" lon="-0.08420637982408982"><ele>26.666666666666664</ele><time>2026-04-19T15:38:33Z</time></trkpt><trkpt lat="47.19519754701767" lon="-0.08407183498944074"><ele>27.0</ele><time>2026-04-19T15:38:34Z</time></trkpt><trkpt lat="47.19518678291627" lon="-0.08394199949204273"><ele>27.333333333333336</ele><time>2026-04-19T15:38:35Z</time></trkpt><trkpt lat="47.19517888876905" lon="-0.08382982985773388"><ele>27.666666666666668</ele><time>2026-04-19T15:38:36Z</time></trkpt><trkpt lat="47.195173163596" lon="-0.08372306050459412"><ele>28.0</ele><time>2026-04-19T15:38:37Z</time></trkpt><trkpt lat="47.195166208059646" lon="-0.08362165530578411"><ele>28.0</ele><time>2026-04-19T15:38:38Z</time></trkpt><trkpt lat="47.195148695751605" lon="-0.08346005764068434"><ele>28.0</ele><time>2026-04-19T15:38:40Z</time></trkpt><trkpt lat="47.195098276863895" lon="-0.0833840826729888"><ele>28.0</ele><time>2026-04-19T15:38:42Z</time></trkpt><trkpt lat="47.19516995785969" lon="-0.08343899382048715"><ele>28.0</ele><time>2026-04-19T15:39:11.999Z</time></trkpt><trkpt lat="47.19511160439071" lon="-0.08304069939295262"><ele>27.5</ele><time>2026-04-19T15:39:12.999Z</time></trkpt><trkpt lat="47.19511298800626" lon="-0.08292692340600193"><ele>27.0</ele><time>2026-04-19T15:39:13.999Z</time></trkpt><trkpt lat="47.19510835332281" lon="-0.08276625757107241"><ele>26.5</ele><time>2026-04-19T15:39:14.999Z</time></trkpt><trkpt lat="47.19503643943025" lon="-0.08265281720641278"><ele>26.0</ele><time>2026-04-19T15:39:15.999Z</time></trkpt><trkpt lat="47.19543514094971" lon="-0.08219448860376632"><ele>25.5</ele><time>2026-04-19T15:39:16.999Z</time></trkpt><trkpt lat="47.19577941864572" lon="-0.0824273326325671"><ele>25.0</ele><time>2026-04-19T15:39:17.999Z</time></trkpt><trkpt lat="47.19586744001211" lon="-0.08233995680964176"><ele>25.000000000000004</ele><time>2026-04-19T15:39:18.999Z</time></trkpt><trkpt lat="47.19595556802928" lon="-0.0822685862173832"><ele>25.0</ele><time>2026-04-19T15:39:19.999Z</time></trkpt><trkpt lat="47.19602652952894" lon="-0.08220768094335767"><ele>25.0</ele><time>2026-04-19T15:39:20.999Z</time></trkpt><trkpt lat="47.19609215429377" lon="-0.08215322142143841"><ele>25.0</ele><time>2026-04-19T15:39:21.999Z</time></trkpt><trkpt lat="47.1961499713655" lon="-0.08208491642696732"><ele>25.000000000000004</ele><time>2026-04-19T15:39:22.999Z</time></trkpt><trkpt lat="47.196202247918734" lon="-0.08202047634676064"><ele>25.0</ele><time>2026-04-19T15:39:23.999Z</time></trkpt><trkpt lat="47.19626874031695" lon="-0.08192655741447667"><ele>25.0</ele><time>2026-04-19T15:39:24.999Z</time></trkpt><trkpt lat="47.196335416586166" lon="-0.08181368450491953"><ele>25.0</ele><time>2026-04-19T15:39:25.999Z</time></trkpt><trkpt lat="47.196398134062164" lon="-0.08168365676958038"><ele>25.0</ele><time>2026-04-19T15:39:26.999Z</time></trkpt><trkpt lat="47.19646520477175" lon="-0.08155482905070968"><ele>25.0</ele><time>2026-04-19T15:39:27.999Z</time></trkpt><trkpt lat="47.19652648682956" lon="-0.08145337089435702"><ele>25.0</ele><time>2026-04-19T15:39:28.999Z</time></trkpt><trkpt lat="47.19658923186242" lon="-0.08138209953858809"><ele>25.833333333333336</ele><time>2026-04-19T15:39:29.999Z</time></trkpt><trkpt lat="47.196650494705274" lon="-0.08132599960288368"><ele>26.666666666666668</ele><time>2026-04-19T15:39:30.999Z</time></trkpt><trkpt lat="47.19672879644442" lon="-0.08125822861715419"><ele>27.5</ele><time>2026-04-19T15:39:31.999Z</time></trkpt><trkpt lat="47.19680915104074" lon="-0.08118889153553845"><ele>28.333333333333336</ele><time>2026-04-19T15:39:32.999Z</time></trkpt><trkpt lat="47.19688024322029" lon="-0.08112414009333199"><ele>29.166666666666668</ele><time>2026-04-19T15:39:33.999Z</time></trkpt><trkpt lat="47.19693642388776" lon="-0.08106302087353646"><ele>30.0</ele><time>2026-04-19T15:39:34.999Z</time></trkpt><trkpt lat="47.196994556759726" lon="-0.08101340668668541"><ele>30.0</ele><time>2026-04-19T15:39:35.999Z</time></trkpt><trkpt lat="47.19710759067899" lon="-0.08099012910562059"><ele>30.0</ele><time>2026-04-19T15:39:37.999Z</time></trkpt><trkpt lat="47.197197934506434" lon="-0.08103014378048383"><ele>30.0</ele><time>2026-04-19T15:39:39.999Z</time></trkpt><trkpt lat="47.19727816448245" lon="-0.08104689900695038"><ele>30.0</ele><time>2026-04-19T15:39:41.999Z</time></trkpt><trkpt lat="47.19731919420496" lon="-0.08095209956369956"><ele>30.0</ele><time>2026-04-19T15:39:50.999Z</time></trkpt><trkpt lat="47.19735333635829" lon="-0.08087182021221712"><ele>30.0</ele><time>2026-04-19T15:39:52.999Z</time></trkpt><trkpt lat="47.19739157533122" lon="-0.08078801001184747"><ele>30.833333333333332</ele><time>2026-04-19T15:39:55Z</time></trkpt><trkpt lat="47.197473613653656" lon="-0.08075559804122756"><ele>31.666666666666664</ele><time>2026-04-19T15:39:58Z</time></trkpt><trkpt lat="47.1975419365138" lon="-0.08082832536916222"><ele>32.5</ele><time>2026-04-19T15:40:01Z</time></trkpt><trkpt lat="47.19760306460416" lon="-0.08087890207296267"><ele>33.33333333333333</ele><time>2026-04-19T15:40:03Z</time></trkpt><trkpt lat="47.197664859194525" lon="-0.08092817724588734"><ele>34.166666666666664</ele><time>2026-04-19T15:40:05Z</time></trkpt><trkpt lat="47.19760555485386" lon="-0.08086074017212563"><ele>35.0</ele><time>2026-04-19T15:40:27Z</time></trkpt><trkpt lat="47.197534503842554" lon="-0.08079919158938537"><ele>35.0</ele><time>2026-04-19T15:40:28Z</time></trkpt><trkpt lat="47.197457014924076" lon="-0.08074385511390592"><ele>35.0</ele><time>2026-04-19T15:40:29Z</time></trkpt><trkpt lat="47.197394738515236" lon="-0.0807657928609783"><ele>35.0</ele><time>2026-04-19T15:40:31Z</time></trkpt><trkpt lat="47.19734653126829" lon="-0.08088106857017696"><ele>35.0</ele><time>2026-04-19T15:40:33Z</time></trkpt><trkpt lat="47.19730361189936" lon="-0.08099602598985546"><ele>35.0</ele><time>2026-04-19T15:40:36Z</time></trkpt><trkpt lat="47.19723222496932" lon="-0.08103747496637216"><ele>35.0</ele><time>2026-04-19T15:40:38Z</time></trkpt><trkpt lat="47.19714691942749" lon="-0.08102419733834462"><ele>34.0</ele><time>2026-04-19T15:40:39Z</time></trkpt><trkpt lat="47.19705080903813" lon="-0.0810173531373269"><ele>33.0</ele><time>2026-04-19T15:40:40Z</time></trkpt><trkpt lat="47.19696561318748" lon="-0.08104121957142676"><ele>32.0</ele><time>2026-04-19T15:40:41Z</time></trkpt><trkpt lat="47.196879908524245" lon="-0.08109511637569453"><ele>31.0</ele><time>2026-04-19T15:40:42Z</time></trkpt><trkpt lat="47.196798212813924" lon="-0.08117803890430005"><ele>30.0</ele><time>2026-04-19T15:40:43Z</time></trkpt><trkpt lat="47.196711942817466" lon="-0.08127737939537731"><ele>30.0</ele><time>2026-04-19T15:40:44Z</time></trkpt><trkpt lat="47.19661172864058" lon="-0.08137869223317398"><ele>30.0</ele><time>2026-04-19T15:40:45Z</time></trkpt><trkpt lat="47.19651189838004" lon="-0.08148029380824887"><ele>30.0</ele><time>2026-04-19T15:40:46Z</time></trkpt><trkpt lat="47.19641964133798" lon="-0.08159245696971619"><ele>30.0</ele><time>2026-04-19T15:40:47Z</time></trkpt><trkpt lat="47.19633770598275" lon="-0.08173991063473986"><ele>28.75</ele><time>2026-04-19T15:40:48Z</time></trkpt><trkpt lat="47.196274358937764" lon="-0.08188990709309615"><ele>27.5</ele><time>2026-04-19T15:40:49Z</time></trkpt><trkpt lat="47.19620412747863" lon="-0.08202495849406967"><ele>26.25</ele><time>2026-04-19T15:40:50Z</time></trkpt><trkpt lat="47.196122505047654" lon="-0.08212431872859718"><ele>25.0</ele><time>2026-04-19T15:40:51Z</time></trkpt><trkpt lat="47.19601414316644" lon="-0.08222011744417988"><ele>25.0</ele><time>2026-04-19T15:40:52Z</time></trkpt><trkpt lat="47.19590700264846" lon="-0.08231502134141466"><ele>25.0</ele><time>2026-04-19T15:40:53Z</time></trkpt><trkpt lat="47.19579785380098" lon="-0.08240797972592201"><ele>25.0</ele><time>2026-04-19T15:40:54Z</time></trkpt><trkpt lat="47.19569068910507" lon="-0.08253182369586674"><ele>25.0</ele><time>2026-04-19T15:40:55Z</time></trkpt><trkpt lat="47.19558373433871" lon="-0.0826638896831685"><ele>25.0</ele><time>2026-04-19T15:40:56Z</time></trkpt><trkpt lat="47.19549819534775" lon="-0.08277950621958323"><ele>25.0</ele><time>2026-04-19T15:40:57Z</time></trkpt><trkpt lat="47.19541163299155" lon="-0.08288979190094704"><ele>25.0</ele><time>2026-04-19T15:40:58Z</time></trkpt><trkpt lat="47.195313245644115" lon="-0.08301454676416448"><ele>25.0</ele><time>2026-04-19T15:40:59Z</time></trkpt><trkpt lat="47.19521651453131" lon="-0.08314588009723714"><ele>25.75</ele><time>2026-04-19T15:41:00Z</time></trkpt><trkpt lat="47.195120108849075" lon="-0.08329092762637656"><ele>26.5</ele><time>2026-04-19T15:41:01Z</time></trkpt><trkpt lat="47.19503095589182" lon="-0.08344407598574194"><ele>27.25</ele><time>2026-04-19T15:41:02Z</time></trkpt><trkpt lat="47.194944486264156" lon="-0.08360907954424562"><ele>28.0</ele><time>2026-04-19T15:41:03Z</time></trkpt><trkpt lat="47.194848407089644" lon="-0.08373207836025447"><ele>27.75</ele><time>2026-04-19T15:41:04Z</time></trkpt><trkpt lat="47.1947771974571" lon="-0.08385265289600072"><ele>27.5</ele><time>2026-04-19T15:41:05Z</time></trkpt><trkpt lat="47.194690834677196" lon="-0.08394722949754851"><ele>27.25</ele><time>2026-04-19T15:41:06Z</time></trkpt><trkpt lat="47.19460556111015" lon="-0.08406087794796972"><ele>27.0</ele><time>2026-04-19T15:41:07Z</time></trkpt><trkpt lat="47.19450976615602" lon="-0.08417932127707374"><ele>27.0</ele><time>2026-04-19T15:41:08Z</time></trkpt><trkpt lat="47.19441852549814" lon="-0.08427092246082712"><ele>27.000000000000004</ele><time>2026-04-19T15:41:09Z</time></trkpt><trkpt lat="47.19432525361737" lon="-0.08434397017506248"><ele>27.000000000000004</ele><time>2026-04-19T15:41:10Z</time></trkpt><trkpt lat="47.194230522590544" lon="-0.0843918068099733"><ele>27.0</ele><time>2026-04-19T15:41:11Z</time></trkpt><trkpt lat="47.194139455251204" lon="-0.08441366218385311"><ele>27.0</ele><time>2026-04-19T15:41:12Z</time></trkpt><trkpt lat="47.19403886912701" lon="-0.08441739190757849"><ele>26.833333333333332</ele><time>2026-04-19T15:41:12.999Z</time></trkpt><trkpt lat="47.193942335113924" lon="-0.08439654851035158"><ele>26.666666666666664</ele><time>2026-04-19T15:41:13.999Z</time></trkpt><trkpt lat="47.19386316221722" lon="-0.08438682525545024"><ele>26.5</ele><time>2026-04-19T15:41:14.999Z</time></trkpt><trkpt lat="47.193794176059015" lon="-0.08434924901557035"><ele>26.333333333333332</ele><time>2026-04-19T15:41:15.999Z</time></trkpt><trkpt lat="47.1937207044894" lon="-0.08432199549354366"><ele>26.166666666666664</ele><time>2026-04-19T15:41:17.999Z</time></trkpt><trkpt lat="47.193633558776476" lon="-0.08427440614966791"><ele>26.0</ele><time>2026-04-19T15:41:20.999Z</time></trkpt><trkpt lat="47.193458594222335" lon="-0.0846160136658313"><ele>26.0</ele><time>2026-04-19T15:41:22.999Z</time></trkpt><trkpt lat="47.1933746314025" lon="-0.08469884105042282"><ele>26.0</ele><time>2026-04-19T15:41:23.999Z</time></trkpt><trkpt lat="47.19327529790969" lon="-0.08480553747536691"><ele>26.0</ele><time>2026-04-19T15:41:24.999Z</time></trkpt><trkpt lat="47.19316192842068" lon="-0.08491969989683289"><ele>26.0</ele><time>2026-04-19T15:41:25.999Z</time></trkpt><trkpt lat="47.19303133381931" lon="-0.08506069838386104"><ele>26.333333333333332</ele><time>2026-04-19T15:41:26.999Z</time></trkpt><trkpt lat="47.192903831894604" lon="-0.08521135936706527"><ele>26.666666666666664</ele><time>2026-04-19T15:41:27.999Z</time></trkpt><trkpt lat="47.19273917138616" lon="-0.0853473776485717"><ele>27.0</ele><time>2026-04-19T15:41:28.999Z</time></trkpt><trkpt lat="47.192531500144035" lon="-0.08548607557342533"><ele>27.0</ele><time>2026-04-19T15:41:29.999Z</time></trkpt><trkpt lat="47.19231422980088" lon="-0.08560546613503357"><ele>27.0</ele><time>2026-04-19T15:41:30.999Z</time></trkpt><trkpt lat="47.19229011598985" lon="-0.0858263701527598"><ele>27.0</ele><time>2026-04-19T15:41:31.999Z</time></trkpt><trkpt lat="47.192147275395016" lon="-0.0859758545646532"><ele>27.333333333333336</ele><time>2026-04-19T15:41:32.999Z</time></trkpt><trkpt lat="47.192009290249516" lon="-0.08612103268355618"><ele>27.666666666666668</ele><time>2026-04-19T15:41:33.999Z</time></trkpt><trkpt lat="47.19187024791709" lon="-0.08627425427977024"><ele>28.0</ele><time>2026-04-19T15:41:34.999Z</time></trkpt><trkpt lat="47.191728153999186" lon="-0.08642351861434122"><ele>28.0</ele><time>2026-04-19T15:41:35.999Z</time></trkpt><trkpt lat="47.19159376812806" lon="-0.08656155308095424"><ele>28.0</ele><time>2026-04-19T15:41:36.999Z</time></trkpt><trkpt lat="47.19147155771778" lon="-0.08668965672015304"><ele>28.0</ele><time>2026-04-19T15:41:37.999Z</time></trkpt><trkpt lat="47.1913548784192" lon="-0.08680402631197334"><ele>28.333333333333336</ele><time>2026-04-19T15:41:38.999Z</time></trkpt><trkpt lat="47.191235507336394" lon="-0.08691264149204773"><ele>28.666666666666664</ele><time>2026-04-19T15:41:39.999Z</time></trkpt><trkpt lat="47.191100252464764" lon="-0.08704272818421571"><ele>29.0</ele><time>2026-04-19T15:41:40.999Z</time></trkpt><trkpt lat="47.1909621522529" lon="-0.08718209132825103"><ele>29.0</ele><time>2026-04-19T15:41:41.999Z</time></trkpt><trkpt lat="47.190840605007736" lon="-0.08731121616731431"><ele>29.0</ele><time>2026-04-19T15:41:42.999Z</time></trkpt><trkpt lat="47.190723713237084" lon="-0.08744321609313843"><ele>29.0</ele><time>2026-04-19T15:41:43.999Z</time></trkpt><trkpt lat="47.190607777124356" lon="-0.08758457898130109"><ele>29.0</ele><time>2026-04-19T15:41:44.999Z</time></trkpt><trkpt lat="47.19050702450521" lon="-0.08771822787386828"><ele>28.5</ele><time>2026-04-19T15:41:45.999Z</time></trkpt><trkpt lat="47.19040956290856" lon="-0.08787046588724443"><ele>28.0</ele><time>2026-04-19T15:41:46.999Z</time></trkpt><trkpt lat="47.19030393199298" lon="-0.08800607369320385"><ele>27.5</ele><time>2026-04-19T15:41:47.999Z</time></trkpt><trkpt lat="47.190208780513075" lon="-0.08813345413261307"><ele>27.0</ele><time>2026-04-19T15:41:48.999Z</time></trkpt><trkpt lat="47.19010316382606" lon="-0.08827382890667891"><ele>26.666666666666664</ele><time>2026-04-19T15:41:49.999Z</time></trkpt><trkpt lat="47.18999575960528" lon="-0.08841761540851378"><ele>26.333333333333332</ele><time>2026-04-19T15:41:50.999Z</time></trkpt><trkpt lat="47.18987842325523" lon="-0.08858061690351783"><ele>26.0</ele><time>2026-04-19T15:41:51.999Z</time></trkpt><trkpt lat="47.189753125278706" lon="-0.0887513545362932"><ele>26.25</ele><time>2026-04-19T15:41:52.999Z</time></trkpt><trkpt lat="47.189638962314156" lon="-0.0889132530969418"><ele>26.5</ele><time>2026-04-19T15:41:53.999Z</time></trkpt><trkpt lat="47.189533655870534" lon="-0.08904990924692381"><ele>26.75</ele><time>2026-04-19T15:41:54.999Z</time></trkpt><trkpt lat="47.18942773298733" lon="-0.08918637358651821"><ele>27.0</ele><time>2026-04-19T15:41:55.999Z</time></trkpt><trkpt lat="47.189347146009496" lon="-0.08931686129778645"><ele>27.0</ele><time>2026-04-19T15:41:56.999Z</time></trkpt><trkpt lat="47.18925565352729" lon="-0.08944357894887789"><ele>27.0</ele><time>2026-04-19T15:41:57.999Z</time></trkpt><trkpt lat="47.189157776334376" lon="-0.08957019942149937"><ele>27.0</ele><time>2026-04-19T15:41:58.999Z</time></trkpt><trkpt lat="47.1890679143712" lon="-0.08968970103343468"><ele>27.0</ele><time>2026-04-19T15:41:59.999Z</time></trkpt><trkpt lat="47.1889792992677" lon="-0.08980102150899243"><ele>27.0</ele><time>2026-04-19T15:42:01Z</time></trkpt><trkpt lat="47.18890219057639" lon="-0.0899107126001216"><ele>27.000000000000004</ele><time>2026-04-19T15:42:02Z</time></trkpt><trkpt lat="47.18883233489347" lon="-0.09001451430968291"><ele>27.000000000000004</ele><time>2026-04-19T15:42:03Z</time></trkpt><trkpt lat="47.18876184074553" lon="-0.09010130416610958"><ele>27.0</ele><time>2026-04-19T15:42:04Z</time></trkpt><trkpt lat="47.18870091961965" lon="-0.09018888488367233"><ele>27.0</ele><time>2026-04-19T15:42:05Z</time></trkpt><trkpt lat="47.188648618750875" lon="-0.09027149732555792"><ele>27.0</ele><time>2026-04-19T15:42:06Z</time></trkpt><trkpt lat="47.188602389171756" lon="-0.09034674242178031"><ele>27.0</ele><time>2026-04-19T15:42:07Z</time></trkpt><trkpt lat="47.18851960171261" lon="-0.09040236673110814"><ele>27.0</ele><time>2026-04-19T15:42:09Z</time></trkpt><trkpt lat="47.18844866161124" lon="-0.09037609317040328"><ele>27.0</ele><time>2026-04-19T15:42:11Z</time></trkpt><trkpt lat="47.18834010979357" lon="-0.09032888639551416"><ele>27.0</ele><time>2026-04-19T15:42:13Z</time></trkpt><trkpt lat="47.18827611784231" lon="-0.0902853004326833"><ele>27.0</ele><time>2026-04-19T15:42:14Z</time></trkpt><trkpt lat="47.18819642691107" lon="-0.09023040502941311"><ele>27.25</ele><time>2026-04-19T15:42:15Z</time></trkpt><trkpt lat="47.188096772130635" lon="-0.09017296126019664"><ele>27.5</ele><time>2026-04-19T15:42:16Z</time></trkpt><trkpt lat="47.18798979025403" lon="-0.09012820616024372"><ele>27.75</ele><time>2026-04-19T15:42:17Z</time></trkpt><trkpt lat="47.18786576814319" lon="-0.09008485235455063"><ele>28.0</ele><time>2026-04-19T15:42:18Z</time></trkpt><trkpt lat="47.18773310272697" lon="-0.09003678670406631"><ele>28.0</ele><time>2026-04-19T15:42:19Z</time></trkpt><trkpt lat="47.18759341501658" lon="-0.09000282677771353"><ele>28.0</ele><time>2026-04-19T15:42:20Z</time></trkpt><trkpt lat="47.18743065926297" lon="-0.08995774569976273"><ele>28.0</ele><time>2026-04-19T15:42:21Z</time></trkpt><trkpt lat="47.18727078718503" lon="-0.08991883404914724"><ele>28.5</ele><time>2026-04-19T15:42:22Z</time></trkpt><trkpt lat="47.187132588319635" lon="-0.08987886183261283"><ele>29.0</ele><time>2026-04-19T15:42:23Z</time></trkpt><trkpt lat="47.187005758923725" lon="-0.08984748704020368"><ele>29.5</ele><time>2026-04-19T15:42:24Z</time></trkpt><trkpt lat="47.18689010815006" lon="-0.0898126572832731"><ele>30.0</ele><time>2026-04-19T15:42:25Z</time></trkpt><trkpt lat="47.18679276797991" lon="-0.08979303893990692"><ele>30.0</ele><time>2026-04-19T15:42:26Z</time></trkpt><trkpt lat="47.18672165052729" lon="-0.08977274976992987"><ele>30.0</ele><time>2026-04-19T15:42:27Z</time></trkpt><trkpt lat="47.18662656450539" lon="-0.08975133280534753"><ele>30.0</ele><time>2026-04-19T15:42:29Z</time></trkpt><trkpt lat="47.18657711286809" lon="-0.08983518539358101"><ele>30.0</ele><time>2026-04-19T15:42:32Z</time></trkpt><trkpt lat="47.186624279066145" lon="-0.08993904421161562"><ele>30.0</ele><time>2026-04-19T15:42:34Z</time></trkpt><trkpt lat="47.18663379407145" lon="-0.09009079187384626"><ele>30.0</ele><time>2026-04-19T15:42:36Z</time></trkpt><trkpt lat="47.18664022936047" lon="-0.09019895765628118"><ele>29.6</ele><time>2026-04-19T15:42:37Z</time></trkpt><trkpt lat="47.186646103228036" lon="-0.09032799398915127"><ele>29.2</ele><time>2026-04-19T15:42:38Z</time></trkpt><trkpt lat="47.18665021003427" lon="-0.09047835552037102"><ele>28.799999999999997</ele><time>2026-04-19T15:42:39Z</time></trkpt><trkpt lat="47.18665226182409" lon="-0.09064857812440273"><ele>28.4</ele><time>2026-04-19T15:42:40Z</time></trkpt><trkpt lat="47.18665224161657" lon="-0.09083730820754936"><ele>28.0</ele><time>2026-04-19T15:42:41Z</time></trkpt><trkpt lat="47.186646672530664" lon="-0.09102588099258722"><ele>28.0</ele><time>2026-04-19T15:42:42Z</time></trkpt><trkpt lat="47.18664057331627" lon="-0.09123258074016445"><ele>28.0</ele><time>2026-04-19T15:42:43Z</time></trkpt><trkpt lat="47.18663480641277" lon="-0.09143415396679219"><ele>28.0</ele><time>2026-04-19T15:42:44Z</time></trkpt><trkpt lat="47.18660853660601" lon="-0.09160759307191628"><ele>28.0</ele><time>2026-04-19T15:42:45Z</time></trkpt><trkpt lat="47.186587351223245" lon="-0.09177241865461959"><ele>27.75</ele><time>2026-04-19T15:42:46Z</time></trkpt><trkpt lat="47.18655483117445" lon="-0.09192393895376168"><ele>27.5</ele><time>2026-04-19T15:42:47Z</time></trkpt><trkpt lat="47.186502946485696" lon="-0.09207077956368803"><ele>27.25</ele><time>2026-04-19T15:42:48Z</time></trkpt><trkpt lat="47.186428813292736" lon="-0.09222158319817743"><ele>27.0</ele><time>2026-04-19T15:42:49Z</time></trkpt><trkpt lat="47.18634551978985" lon="-0.0923703933699482"><ele>27.0</ele><time>2026-04-19T15:42:50Z</time></trkpt><trkpt lat="47.1862576188898" lon="-0.09252510642682543"><ele>27.0</ele><time>2026-04-19T15:42:51Z</time></trkpt><trkpt lat="47.18616989406114" lon="-0.09266953754208652"><ele>27.0</ele><time>2026-04-19T15:42:52Z</time></trkpt><trkpt lat="47.186092602484884" lon="-0.09279413598768518"><ele>27.0</ele><time>2026-04-19T15:42:53Z</time></trkpt><trkpt lat="47.186027774644565" lon="-0.09293507857894574"><ele>27.0</ele><time>2026-04-19T15:42:54Z</time></trkpt><trkpt lat="47.18596623502188" lon="-0.09306275649021586"><ele>27.000000000000004</ele><time>2026-04-19T15:42:55Z</time></trkpt><trkpt lat="47.185889206347895" lon="-0.09316383113164431"><ele>27.000000000000004</ele><time>2026-04-19T15:42:56Z</time></trkpt><trkpt lat="47.185797451274" lon="-0.09325591646362065"><ele>27.0</ele><time>2026-04-19T15:42:57Z</time></trkpt><trkpt lat="47.18570234434651" lon="-0.09336032004585314"><ele>27.0</ele><time>2026-04-19T15:42:58Z</time></trkpt><trkpt lat="47.18562681832928" lon="-0.09346311539386874"><ele>27.0</ele><time>2026-04-19T15:42:59Z</time></trkpt><trkpt lat="47.18557151051059" lon="-0.09358194477651965"><ele>27.0</ele><time>2026-04-19T15:43:00Z</time></trkpt><trkpt lat="47.18553473414897" lon="-0.09373042925430307"><ele>27.0</ele><time>2026-04-19T15:43:01Z</time></trkpt><trkpt lat="47.18550313030276" lon="-0.09389879144661512"><ele>27.0</ele><time>2026-04-19T15:43:02Z</time></trkpt><trkpt lat="47.18546438338054" lon="-0.094093801076543"><ele>27.6</ele><time>2026-04-19T15:43:03Z</time></trkpt><trkpt lat="47.18542221882713" lon="-0.09426424250375239"><ele>28.200000000000003</ele><time>2026-04-19T15:43:04Z</time></trkpt><trkpt lat="47.18539569974638" lon="-0.09440790955020893"><ele>28.8</ele><time>2026-04-19T15:43:05Z</time></trkpt><trkpt lat="47.18537775917578" lon="-0.09454450197761292"><ele>29.4</ele><time>2026-04-19T15:43:06Z</time></trkpt><trkpt lat="47.1853740849839" lon="-0.09468028921936282"><ele>30.0</ele><time>2026-04-19T15:43:07Z</time></trkpt><trkpt lat="47.18537719705029" lon="-0.09478173890526155"><ele>30.0</ele><time>2026-04-19T15:43:08Z</time></trkpt><trkpt lat="47.18538922218405" lon="-0.09487477810841227"><ele>30.0</ele><time>2026-04-19T15:44:13Z</time></trkpt><trkpt lat="47.18545888452946" lon="-0.09498466275177411"><ele>30.0</ele><time>2026-04-19T15:44:15Z</time></trkpt><trkpt lat="47.18552005412149" lon="-0.0950293969323289"><ele>30.0</ele><time>2026-04-19T15:44:16Z</time></trkpt><trkpt lat="47.185601774207576" lon="-0.09506286629114907"><ele>30.0</ele><time>2026-04-19T15:44:17Z</time></trkpt><trkpt lat="47.18567543845809" lon="-0.0951083971910946"><ele>30.0</ele><time>2026-04-19T15:44:18Z</time></trkpt><trkpt lat="47.185740246146146" lon="-0.09514271635643268"><ele>29.6</ele><time>2026-04-19T15:44:19Z</time></trkpt><trkpt lat="47.185826724212326" lon="-0.09525839923217543"><ele>29.2</ele><time>2026-04-19T15:44:21Z</time></trkpt><trkpt lat="47.1858391146468" lon="-0.09541965674308053"><ele>28.799999999999997</ele><time>2026-04-19T15:44:23Z</time></trkpt><trkpt lat="47.185826733517864" lon="-0.0955326532186551"><ele>28.4</ele><time>2026-04-19T15:44:24Z</time></trkpt><trkpt lat="47.185797051861186" lon="-0.09566069339275629"><ele>28.0</ele><time>2026-04-19T15:44:25Z</time></trkpt><trkpt lat="47.185760219874986" lon="-0.09579239653341749"><ele>28.0</ele><time>2026-04-19T15:44:26Z</time></trkpt><trkpt lat="47.185725259785116" lon="-0.09595101370771214"><ele>28.0</ele><time>2026-04-19T15:44:27Z</time></trkpt><trkpt lat="47.185692078525584" lon="-0.09613418457526887"><ele>28.0</ele><time>2026-04-19T15:44:28Z</time></trkpt><trkpt lat="47.18566141418537" lon="-0.0963020417473678"><ele>28.0</ele><time>2026-04-19T15:44:29Z</time></trkpt><trkpt lat="47.18563053510475" lon="-0.0964542535721347"><ele>28.000000000000004</ele><time>2026-04-19T15:44:30Z</time></trkpt><trkpt lat="47.18559081057421" lon="-0.09658067450044382"><ele>28.0</ele><time>2026-04-19T15:44:31Z</time></trkpt><trkpt lat="47.18554189694952" lon="-0.09668731092885052"><ele>28.0</ele><time>2026-04-19T15:44:32Z</time></trkpt><trkpt lat="47.18548574024058" lon="-0.09678014787552576"><ele>28.0</ele><time>2026-04-19T15:44:33Z</time></trkpt><trkpt lat="47.185428125136966" lon="-0.09686964868747162"><ele>28.000000000000004</ele><time>2026-04-19T15:44:34Z</time></trkpt><trkpt lat="47.18537189015166" lon="-0.09697323739417954"><ele>28.0</ele><time>2026-04-19T15:44:35Z</time></trkpt><trkpt lat="47.185318846077685" lon="-0.09708710554231664"><ele>28.25</ele><time>2026-04-19T15:44:36Z</time></trkpt><trkpt lat="47.185263084370334" lon="-0.09721002703510721"><ele>28.5</ele><time>2026-04-19T15:44:37Z</time></trkpt><trkpt lat="47.18520505337104" lon="-0.09734749676373074"><ele>28.75</ele><time>2026-04-19T15:44:38Z</time></trkpt><trkpt lat="47.18513809794805" lon="-0.09749918145676806"><ele>29.0</ele><time>2026-04-19T15:44:39Z</time></trkpt><trkpt lat="47.18505198510455" lon="-0.09765152641671632"><ele>29.25</ele><time>2026-04-19T15:44:40Z</time></trkpt><trkpt lat="47.18495982582786" lon="-0.09779220200415079"><ele>29.5</ele><time>2026-04-19T15:44:41Z</time></trkpt><trkpt lat="47.18486944590225" lon="-0.09794739548076559"><ele>29.75</ele><time>2026-04-19T15:44:42Z</time></trkpt><trkpt lat="47.184790682594276" lon="-0.09809771076663175"><ele>30.0</ele><time>2026-04-19T15:44:43Z</time></trkpt><trkpt lat="47.1847246570941" lon="-0.09825964640053507"><ele>29.25</ele><time>2026-04-19T15:44:44Z</time></trkpt><trkpt lat="47.18466746563196" lon="-0.09843126149704888"><ele>28.5</ele><time>2026-04-19T15:44:45Z</time></trkpt><trkpt lat="47.184612191990276" lon="-0.0985961681113861"><ele>27.75</ele><time>2026-04-19T15:44:46Z</time></trkpt><trkpt lat="47.18455350258454" lon="-0.09875885338543822"><ele>27.0</ele><time>2026-04-19T15:44:47Z</time></trkpt><trkpt lat="47.184485563395576" lon="-0.0989140232983417"><ele>27.0</ele><time>2026-04-19T15:44:48Z</time></trkpt><trkpt lat="47.18441050312926" lon="-0.09905308868346606"><ele>27.0</ele><time>2026-04-19T15:44:49Z</time></trkpt><trkpt lat="47.18433536180169" lon="-0.09918625578980467"><ele>27.0</ele><time>2026-04-19T15:44:50Z</time></trkpt><trkpt lat="47.18426673539639" lon="-0.09930107604020673"><ele>27.0</ele><time>2026-04-19T15:44:51Z</time></trkpt><trkpt lat="47.18419228888475" lon="-0.09942061027432275"><ele>27.25</ele><time>2026-04-19T15:44:52Z</time></trkpt><trkpt lat="47.18412037909041" lon="-0.09955236824563089"><ele>27.5</ele><time>2026-04-19T15:44:53Z</time></trkpt><trkpt lat="47.18405389233089" lon="-0.09971134402538585"><ele>27.75</ele><time>2026-04-19T15:44:54Z</time></trkpt><trkpt lat="47.18399674812633" lon="-0.09990492217566631"><ele>28.0</ele><time>2026-04-19T15:44:55Z</time></trkpt><trkpt lat="47.18394302826167" lon="-0.10010714564393365"><ele>27.75</ele><time>2026-04-19T15:44:56Z</time></trkpt><trkpt lat="47.18388261423054" lon="-0.10028979216411335"><ele>27.5</ele><time>2026-04-19T15:44:57Z</time></trkpt><trkpt lat="47.18382249678658" lon="-0.10044740272815354"><ele>27.25</ele><time>2026-04-19T15:44:58Z</time></trkpt><trkpt lat="47.183754582411886" lon="-0.10059610096800696"><ele>27.0</ele><time>2026-04-19T15:44:59Z</time></trkpt><trkpt lat="47.18368686954081" lon="-0.10075691104815213"><ele>27.0</ele><time>2026-04-19T15:45:00Z</time></trkpt><trkpt lat="47.18362254239515" lon="-0.10089679915629929"><ele>27.000000000000004</ele><time>2026-04-19T15:45:01Z</time></trkpt><trkpt lat="47.18357398296887" lon="-0.10103428295778503"><ele>27.000000000000004</ele><time>2026-04-19T15:45:02Z</time></trkpt><trkpt lat="47.1835439404472" lon="-0.10116688847013601"><ele>27.0</ele><time>2026-04-19T15:45:03Z</time></trkpt><trkpt lat="47.183515198764425" lon="-0.10129175795881813"><ele>27.0</ele><time>2026-04-19T15:45:04Z</time></trkpt><trkpt lat="47.18347367491357" lon="-0.10141457961436767"><ele>27.0</ele><time>2026-04-19T15:45:05Z</time></trkpt><trkpt lat="47.18341801146388" lon="-0.10154511569414529"><ele>27.000000000000004</ele><time>2026-04-19T15:45:06Z</time></trkpt><trkpt lat="47.18336427929672" lon="-0.10165708274096476"><ele>27.000000000000004</ele><time>2026-04-19T15:45:07Z</time></trkpt><trkpt lat="47.18329535404763" lon="-0.1017582283918705"><ele>27.0</ele><time>2026-04-19T15:45:08Z</time></trkpt><trkpt lat="47.18321319754693" lon="-0.10185975854516317"><ele>27.0</ele><time>2026-04-19T15:45:09Z</time></trkpt><trkpt lat="47.183142005238935" lon="-0.10195509356889944"><ele>27.166666666666668</ele><time>2026-04-19T15:45:10Z</time></trkpt><trkpt lat="47.1830947463122" lon="-0.10202195003037559"><ele>27.333333333333336</ele><time>2026-04-19T15:45:11Z</time></trkpt><trkpt lat="47.18304509704614" lon="-0.10209836150270593"><ele>27.5</ele><time>2026-04-19T15:45:13Z</time></trkpt><trkpt lat="47.18294925038047" lon="-0.10220932086627404"><ele>27.666666666666668</ele><time>2026-04-19T15:45:44.999Z</time></trkpt><trkpt lat="47.1828918736526" lon="-0.10229635668801022"><ele>27.833333333333336</ele><time>2026-04-19T15:45:45.999Z</time></trkpt><trkpt lat="47.1828211824398" lon="-0.10239405078865849"><ele>28.0</ele><time>2026-04-19T15:45:46.999Z</time></trkpt><trkpt lat="47.18274642164817" lon="-0.10249956805965312"><ele>28.5</ele><time>2026-04-19T15:45:47.999Z</time></trkpt><trkpt lat="47.18265319771295" lon="-0.10261750884064305"><ele>29.0</ele><time>2026-04-19T15:45:48.999Z</time></trkpt><trkpt lat="47.182558378016545" lon="-0.10272987774092013"><ele>29.5</ele><time>2026-04-19T15:45:49.999Z</time></trkpt><trkpt lat="47.18244997688832" lon="-0.10285645474806905"><ele>30.0</ele><time>2026-04-19T15:45:50.999Z</time></trkpt><trkpt lat="47.18233755068891" lon="-0.10297981712728137"><ele>30.25</ele><time>2026-04-19T15:45:51.999Z</time></trkpt><trkpt lat="47.182228281588664" lon="-0.10309891694053346"><ele>30.5</ele><time>2026-04-19T15:45:52.999Z</time></trkpt><trkpt lat="47.18214752137834" lon="-0.10320258249025142"><ele>30.75</ele><time>2026-04-19T15:45:53.999Z</time></trkpt><trkpt lat="47.18208768970351" lon="-0.10332694768789921"><ele>31.0</ele><time>2026-04-19T15:45:54.999Z</time></trkpt><trkpt lat="47.18204350376387" lon="-0.10348095948946963"><ele>30.5</ele><time>2026-04-19T15:45:55.999Z</time></trkpt><trkpt lat="47.18201664972485" lon="-0.10366635857876996"><ele>30.0</ele><time>2026-04-19T15:45:56.999Z</time></trkpt><trkpt lat="47.1819960524591" lon="-0.1038693379377012"><ele>29.5</ele><time>2026-04-19T15:45:57.999Z</time></trkpt><trkpt lat="47.181965752262485" lon="-0.10407571716311761"><ele>29.0</ele><time>2026-04-19T15:45:58.999Z</time></trkpt><trkpt lat="47.18193076236206" lon="-0.10427063263679597"><ele>29.0</ele><time>2026-04-19T15:45:59.999Z</time></trkpt><trkpt lat="47.18189009402733" lon="-0.10446668941941976"><ele>29.0</ele><time>2026-04-19T15:46:00.999Z</time></trkpt><trkpt lat="47.18185584693423" lon="-0.10466120607422227"><ele>29.0</ele><time>2026-04-19T15:46:01.999Z</time></trkpt><trkpt lat="47.18182073182198" lon="-0.10483181353709224"><ele>29.0</ele><time>2026-04-19T15:46:02.999Z</time></trkpt><trkpt lat="47.181790864449724" lon="-0.10499755057291452"><ele>29.25</ele><time>2026-04-19T15:46:03.999Z</time></trkpt><trkpt lat="47.18175912221711" lon="-0.10516644424572977"><ele>29.5</ele><time>2026-04-19T15:46:04.999Z</time></trkpt><trkpt lat="47.18171509481773" lon="-0.10534125313592131"><ele>29.75</ele><time>2026-04-19T15:46:05.999Z</time></trkpt><trkpt lat="47.181654640893754" lon="-0.10550603305536335"><ele>30.0</ele><time>2026-04-19T15:46:06.999Z</time></trkpt><trkpt lat="47.18158792332316" lon="-0.1056698614052866"><ele>29.5</ele><time>2026-04-19T15:46:07.999Z</time></trkpt><trkpt lat="47.18153259247507" lon="-0.10582385974646095"><ele>29.0</ele><time>2026-04-19T15:46:08.999Z</time></trkpt><trkpt lat="47.18148316367276" lon="-0.10599401830611087"><ele>28.5</ele><time>2026-04-19T15:46:09.999Z</time></trkpt><trkpt lat="47.18143462708741" lon="-0.10615416883408434"><ele>28.0</ele><time>2026-04-19T15:46:10.999Z</time></trkpt><trkpt lat="47.18137368509086" lon="-0.10630767161769676"><ele>27.599999999999998</ele><time>2026-04-19T15:46:11.999Z</time></trkpt><trkpt lat="47.181301443753775" lon="-0.1064448826411991"><ele>27.199999999999996</ele><time>2026-04-19T15:46:13Z</time></trkpt><trkpt lat="47.181223225487734" lon="-0.10657720310517976"><ele>26.8</ele><time>2026-04-19T15:46:14Z</time></trkpt><trkpt lat="47.18115002531682" lon="-0.10669473507430738"><ele>26.4</ele><time>2026-04-19T15:46:15Z</time></trkpt><trkpt lat="47.181087045046795" lon="-0.10680646304559653"><ele>26.0</ele><time>2026-04-19T15:46:16Z</time></trkpt><trkpt lat="47.18101902759241" lon="-0.10691833382815871"><ele>26.0</ele><time>2026-04-19T15:46:17Z</time></trkpt><trkpt lat="47.18093020534063" lon="-0.1070170477919515"><ele>26.0</ele><time>2026-04-19T15:46:18Z</time></trkpt><trkpt lat="47.18082696891737" lon="-0.10711559968293981"><ele>26.0</ele><time>2026-04-19T15:46:19Z</time></trkpt><trkpt lat="47.1807345318269" lon="-0.10721544831028171"><ele>26.0</ele><time>2026-04-19T15:46:20Z</time></trkpt><trkpt lat="47.180651299348376" lon="-0.10730549144200505"><ele>26.0</ele><time>2026-04-19T15:46:21Z</time></trkpt><trkpt lat="47.18058856308148" lon="-0.10737281621900417"><ele>26.0</ele><time>2026-04-19T15:46:22Z</time></trkpt><trkpt lat="47.180448830697316" lon="-0.10741884619870744"><ele>26.0</ele><time>2026-04-19T15:46:24Z</time></trkpt><trkpt lat="47.18033211561599" lon="-0.10741908336738806"><ele>26.0</ele><time>2026-04-19T15:46:25Z</time></trkpt><trkpt lat="47.18019597231076" lon="-0.10741773311250839"><ele>26.0</ele><time>2026-04-19T15:46:26Z</time></trkpt><trkpt lat="47.180084224668185" lon="-0.10742734515491491"><ele>26.0</ele><time>2026-04-19T15:46:27Z</time></trkpt><trkpt lat="47.17997684410134" lon="-0.1074445096813546"><ele>26.0</ele><time>2026-04-19T15:46:28Z</time></trkpt><trkpt lat="47.17987665388647" lon="-0.1074646162458058"><ele>26.0</ele><time>2026-04-19T15:46:29Z</time></trkpt><trkpt lat="47.17977348594998" lon="-0.10748672134485121"><ele>26.0</ele><time>2026-04-19T15:46:30Z</time></trkpt><trkpt lat="47.179677398826676" lon="-0.10750512368504239"><ele>26.0</ele><time>2026-04-19T15:46:31Z</time></trkpt><trkpt lat="47.17959003772528" lon="-0.10751085473279716"><ele>26.0</ele><time>2026-04-19T15:46:32Z</time></trkpt><trkpt lat="47.17950432055193" lon="-0.10750097007333857"><ele>26.0</ele><time>2026-04-19T15:46:33Z</time></trkpt><trkpt lat="47.179410969170625" lon="-0.10750635777406374"><ele>26.0</ele><time>2026-04-19T15:46:34Z</time></trkpt><trkpt lat="47.1792989156152" lon="-0.10752349119995398"><ele>26.0</ele><time>2026-04-19T15:46:35Z</time></trkpt><trkpt lat="47.17917287422037" lon="-0.1075515767220243"><ele>26.0</ele><time>2026-04-19T15:46:36Z</time></trkpt><trkpt lat="47.17904348490534" lon="-0.1075662874454012"><ele>26.0</ele><time>2026-04-19T15:46:37Z</time></trkpt><trkpt lat="47.178912731089355" lon="-0.10758940681234126"><ele>26.0</ele><time>2026-04-19T15:46:38Z</time></trkpt><trkpt lat="47.17877840341573" lon="-0.10760776052779493"><ele>26.0</ele><time>2026-04-19T15:46:39Z</time></trkpt><trkpt lat="47.178657770474494" lon="-0.10762541458358091"><ele>25.75</ele><time>2026-04-19T15:46:40Z</time></trkpt><trkpt lat="47.17854364910374" lon="-0.10764360629543056"><ele>25.5</ele><time>2026-04-19T15:46:41Z</time></trkpt><trkpt lat="47.17843691763697" lon="-0.10766590490569286"><ele>25.25</ele><time>2026-04-19T15:46:42Z</time></trkpt><trkpt lat="47.17832465149842" lon="-0.10769089875730715"><ele>25.0</ele><time>2026-04-19T15:46:43Z</time></trkpt><trkpt lat="47.17820645567634" lon="-0.10770214609510785"><ele>25.75</ele><time>2026-04-19T15:46:44Z</time></trkpt><trkpt lat="47.17808432192918" lon="-0.10772037239084176"><ele>26.5</ele><time>2026-04-19T15:46:45Z</time></trkpt><trkpt lat="47.177960464329004" lon="-0.1077372313231167"><ele>27.25</ele><time>2026-04-19T15:46:46Z</time></trkpt><trkpt lat="47.17785503366289" lon="-0.10774727596554473"><ele>28.0</ele><time>2026-04-19T15:46:47Z</time></trkpt><trkpt lat="47.177750381839395" lon="-0.10777230597118587"><ele>28.0</ele><time>2026-04-19T15:46:48Z</time></trkpt><trkpt lat="47.177642052892615" lon="-0.10779606266880278"><ele>28.0</ele><time>2026-04-19T15:46:49Z</time></trkpt><trkpt lat="47.17751422269081" lon="-0.10781606436257857"><ele>28.0</ele><time>2026-04-19T15:46:50Z</time></trkpt><trkpt lat="47.17738347828677" lon="-0.10783327545980297"><ele>28.0</ele><time>2026-04-19T15:46:51Z</time></trkpt><trkpt lat="47.17725320717457" lon="-0.10785323955033105"><ele>28.5</ele><time>2026-04-19T15:46:52Z</time></trkpt><trkpt lat="47.17712603415944" lon="-0.10786711336043872"><ele>29.0</ele><time>2026-04-19T15:46:53Z</time></trkpt><trkpt lat="47.17698744848438" lon="-0.10789508307564172"><ele>29.5</ele><time>2026-04-19T15:46:54Z</time></trkpt><trkpt lat="47.17685117840803" lon="-0.1079230379903926"><ele>30.0</ele><time>2026-04-19T15:46:55Z</time></trkpt><trkpt lat="47.176720414833376" lon="-0.10793699798450289"><ele>30.0</ele><time>2026-04-19T15:46:56Z</time></trkpt><trkpt lat="47.17659484173672" lon="-0.10795228383516442"><ele>30.0</ele><time>2026-04-19T15:46:57Z</time></trkpt><trkpt lat="47.176465984123006" lon="-0.10797305064982012"><ele>30.0</ele><time>2026-04-19T15:46:58Z</time></trkpt><trkpt lat="47.176327104424864" lon="-0.10800136254096825"><ele>30.0</ele><time>2026-04-19T15:46:59Z</time></trkpt><trkpt lat="47.17618569955341" lon="-0.10803093636225446"><ele>29.6</ele><time>2026-04-19T15:47:00Z</time></trkpt><trkpt lat="47.17605588920755" lon="-0.10805985109529417"><ele>29.2</ele><time>2026-04-19T15:47:01Z</time></trkpt><trkpt lat="47.17594701135023" lon="-0.1080772489216884"><ele>28.799999999999997</ele><time>2026-04-19T15:47:02Z</time></trkpt><trkpt lat="47.17584133874409" lon="-0.10809307990489726"><ele>28.4</ele><time>2026-04-19T15:47:03Z</time></trkpt><trkpt lat="47.17574757993176" lon="-0.10810979267373434"><ele>28.0</ele><time>2026-04-19T15:47:04Z</time></trkpt><trkpt lat="47.17568167558691" lon="-0.10811528909095185"><ele>28.000000000000004</ele><time>2026-04-19T15:47:05Z</time></trkpt><trkpt lat="47.17560828363607" lon="-0.10814372332301214"><ele>28.0</ele><time>2026-04-19T15:47:07Z</time></trkpt><trkpt lat="47.17552869674974" lon="-0.10820601896729043"><ele>28.0</ele><time>2026-04-19T15:47:10Z</time></trkpt><trkpt lat="47.175471908304544" lon="-0.10824993693924592"><ele>28.0</ele><time>2026-04-19T15:47:11Z</time></trkpt><trkpt lat="47.175402550701364" lon="-0.10829124605096477"><ele>28.000000000000004</ele><time>2026-04-19T15:47:12Z</time></trkpt><trkpt lat="47.175318225197756" lon="-0.10833430848247566"><ele>28.0</ele><time>2026-04-19T15:47:13Z</time></trkpt><trkpt lat="47.175210514674184" lon="-0.10839275266884574"><ele>27.75</ele><time>2026-04-19T15:47:14Z</time></trkpt><trkpt lat="47.17509322387084" lon="-0.10845077344880383"><ele>27.5</ele><time>2026-04-19T15:47:15Z</time></trkpt><trkpt lat="47.17497448035737" lon="-0.108510124626683"><ele>27.25</ele><time>2026-04-19T15:47:16Z</time></trkpt><trkpt lat="47.174849613559516" lon="-0.10857875244913594"><ele>27.0</ele><time>2026-04-19T15:47:17Z</time></trkpt><trkpt lat="47.17472454957358" lon="-0.108652803143276"><ele>27.0</ele><time>2026-04-19T15:47:18Z</time></trkpt><trkpt lat="47.174587542963124" lon="-0.10873005447908635"><ele>27.0</ele><time>2026-04-19T15:47:19Z</time></trkpt><trkpt lat="47.17445909214842" lon="-0.10879817744082133"><ele>27.0</ele><time>2026-04-19T15:47:20Z</time></trkpt><trkpt lat="47.17433295944537" lon="-0.10887040086611209"><ele>27.0</ele><time>2026-04-19T15:47:21Z</time></trkpt><trkpt lat="47.17421172755965" lon="-0.1089405633225533"><ele>27.0</ele><time>2026-04-19T15:47:22Z</time></trkpt><trkpt lat="47.174099026670056" lon="-0.10900196542631159"><ele>27.0</ele><time>2026-04-19T15:47:23Z</time></trkpt><trkpt lat="47.173989660885255" lon="-0.10906701917862198"><ele>27.0</ele><time>2026-04-19T15:47:24Z</time></trkpt><trkpt lat="47.17388703658629" lon="-0.10912606905254867"><ele>27.0</ele><time>2026-04-19T15:47:25Z</time></trkpt><trkpt lat="47.17377983695646" lon="-0.10918953105034102"><ele>27.25</ele><time>2026-04-19T15:47:26Z</time></trkpt><trkpt lat="47.17366610847861" lon="-0.10924156045655013"><ele>27.5</ele><time>2026-04-19T15:47:27Z</time></trkpt><trkpt lat="47.17355387101364" lon="-0.10929865221935618"><ele>27.75</ele><time>2026-04-19T15:47:28Z</time></trkpt><trkpt lat="47.17343836947351" lon="-0.1093553974627462"><ele>28.0</ele><time>2026-04-19T15:47:29Z</time></trkpt><trkpt lat="47.173322287819026" lon="-0.10942749027430516"><ele>28.0</ele><time>2026-04-19T15:47:30Z</time></trkpt><trkpt lat="47.17321675487447" lon="-0.10949345096990983"><ele>27.999999999999996</ele><time>2026-04-19T15:47:31Z</time></trkpt><trkpt lat="47.173120477048506" lon="-0.10955181435949564"><ele>27.999999999999996</ele><time>2026-04-19T15:47:32Z</time></trkpt><trkpt lat="47.17302886279088" lon="-0.10960102168094193"><ele>28.0</ele><time>2026-04-19T15:47:32.999Z</time></trkpt><trkpt lat="47.17293145027831" lon="-0.10965516775347528"><ele>28.0</ele><time>2026-04-19T15:47:33.999Z</time></trkpt><trkpt lat="47.172836294850136" lon="-0.10970635498003566"><ele>27.799999999999997</ele><time>2026-04-19T15:47:34.999Z</time></trkpt><trkpt lat="47.172741937365544" lon="-0.10975595522914063"><ele>27.599999999999998</ele><time>2026-04-19T15:47:35.999Z</time></trkpt><trkpt lat="47.17265700308564" lon="-0.10980152086274508"><ele>27.400000000000002</ele><time>2026-04-19T15:47:36.999Z</time></trkpt><trkpt lat="47.17252980507677" lon="-0.10987878216025573"><ele>27.200000000000003</ele><time>2026-04-19T15:47:38.999Z</time></trkpt><trkpt lat="47.17246720084947" lon="-0.10993155166145449"><ele>27.0</ele><time>2026-04-19T15:47:39.999Z</time></trkpt><trkpt lat="47.17240252766236" lon="-0.10997777054592074"><ele>27.200000000000003</ele><time>2026-04-19T15:47:40.999Z</time></trkpt><trkpt lat="47.17232744063508" lon="-0.11002065516946874"><ele>27.400000000000002</ele><time>2026-04-19T15:47:41.999Z</time></trkpt><trkpt lat="47.172246165745904" lon="-0.11008386917210573"><ele>27.599999999999998</ele><time>2026-04-19T15:47:42.999Z</time></trkpt><trkpt lat="47.172165229809295" lon="-0.11017816315850197"><ele>27.799999999999997</ele><time>2026-04-19T15:47:43.999Z</time></trkpt><trkpt lat="47.17206634465683" lon="-0.11026413109632313"><ele>28.0</ele><time>2026-04-19T15:47:44.999Z</time></trkpt><trkpt lat="47.171977895564694" lon="-0.11033647545636799"><ele>28.000000000000004</ele><time>2026-04-19T15:47:45.999Z</time></trkpt><trkpt lat="47.171901769641366" lon="-0.11040098275699228"><ele>28.0</ele><time>2026-04-19T15:47:46.999Z</time></trkpt><trkpt lat="47.17183591860761" lon="-0.110456048345758"><ele>28.0</ele><time>2026-04-19T15:47:47.999Z</time></trkpt><trkpt lat="47.1717745071269" lon="-0.11049758235872523"><ele>28.0</ele><time>2026-04-19T15:47:48.999Z</time></trkpt><trkpt lat="47.17169882361035" lon="-0.11057512936602279"><ele>28.000000000000004</ele><time>2026-04-19T15:47:50.999Z</time></trkpt><trkpt lat="47.17166790918748" lon="-0.11066643180904258"><ele>28.0</ele><time>2026-04-19T15:47:52.999Z</time></trkpt><trkpt lat="47.17164784742242" lon="-0.1105754393218064"><ele>28.000000000000004</ele><time>2026-04-19T15:47:57.999Z</time></trkpt><trkpt lat="47.17172018675025" lon="-0.11052416959598367"><ele>28.0</ele><time>2026-04-19T15:47:59.999Z</time></trkpt><trkpt lat="47.171816062924464" lon="-0.11044526384280567"><ele>28.0</ele><time>2026-04-19T15:48:01.999Z</time></trkpt><trkpt lat="47.171876928386624" lon="-0.11038830543495062"><ele>28.0</ele><time>2026-04-19T15:48:02.999Z</time></trkpt><trkpt lat="47.17195580722549" lon="-0.11033173560582676"><ele>28.000000000000004</ele><time>2026-04-19T15:48:03.999Z</time></trkpt><trkpt lat="47.172036564874574" lon="-0.11026662846316534"><ele>28.0</ele><time>2026-04-19T15:48:04.999Z</time></trkpt><trkpt lat="47.17212283691635" lon="-0.11018802548603322"><ele>28.0</ele><time>2026-04-19T15:48:05.999Z</time></trkpt><trkpt lat="47.17221340678592" lon="-0.11011139613082027"><ele>27.999999999999996</ele><time>2026-04-19T15:48:06.999Z</time></trkpt><trkpt lat="47.1722992057366" lon="-0.11003368235856138"><ele>27.999999999999996</ele><time>2026-04-19T15:48:07.999Z</time></trkpt><trkpt lat="47.172373885600244" lon="-0.10996773400988587"><ele>28.0</ele><time>2026-04-19T15:48:08.999Z</time></trkpt><trkpt lat="47.17243230723932" lon="-0.10992166088513199"><ele>28.0</ele><time>2026-04-19T15:48:09.999Z</time></trkpt><trkpt lat="47.17252060054788" lon="-0.10987219632213907"><ele>27.799999999999997</ele><time>2026-04-19T15:48:10.999Z</time></trkpt><trkpt lat="47.17258960373526" lon="-0.10983333235876853"><ele>27.599999999999998</ele><time>2026-04-19T15:48:11.999Z</time></trkpt><trkpt lat="47.17269926088783" lon="-0.10974694401228755"><ele>27.400000000000002</ele><time>2026-04-19T15:48:13.999Z</time></trkpt><trkpt lat="47.17278907041594" lon="-0.10970761854272602"><ele>27.200000000000003</ele><time>2026-04-19T15:48:14.999Z</time></trkpt><trkpt lat="47.17288209627177" lon="-0.10966227503569158"><ele>27.0</ele><time>2026-04-19T15:48:15.999Z</time></trkpt><trkpt lat="47.172978699932926" lon="-0.10960819377037086"><ele>27.0</ele><time>2026-04-19T15:48:16.999Z</time></trkpt><trkpt lat="47.17308815738787" lon="-0.10954798191493202"><ele>27.0</ele><time>2026-04-19T15:48:18Z</time></trkpt><trkpt lat="47.173197615528686" lon="-0.1094887881844292"><ele>27.0</ele><time>2026-04-19T15:48:19Z</time></trkpt><trkpt lat="47.17331191998261" lon="-0.10942695089782364"><ele>27.0</ele><time>2026-04-19T15:48:20Z</time></trkpt><trkpt lat="47.173423397265964" lon="-0.10935458579635796"><ele>27.25</ele><time>2026-04-19T15:48:21Z</time></trkpt><trkpt lat="47.17353597264729" lon="-0.10929593139115897"><ele>27.5</ele><time>2026-04-19T15:48:22Z</time></trkpt><trkpt lat="47.17364453116755" lon="-0.10924433077786139"><ele>27.75</ele><time>2026-04-19T15:48:23Z</time></trkpt><trkpt lat="47.17375915432159" lon="-0.10918345381283927"><ele>28.0</ele><time>2026-04-19T15:48:24Z</time></trkpt><trkpt lat="47.173874184380736" lon="-0.10911632378660528"><ele>28.0</ele><time>2026-04-19T15:48:25Z</time></trkpt><trkpt lat="47.1740015253696" lon="-0.1090465528798108"><ele>28.0</ele><time>2026-04-19T15:48:26Z</time></trkpt><trkpt lat="47.17412457878863" lon="-0.10897961145376929"><ele>28.0</ele><time>2026-04-19T15:48:27Z</time></trkpt><trkpt lat="47.1742505072495" lon="-0.10890970983748058"><ele>28.0</ele><time>2026-04-19T15:48:28Z</time></trkpt><trkpt lat="47.17435775462441" lon="-0.10884935238939164"><ele>27.75</ele><time>2026-04-19T15:48:29Z</time></trkpt><trkpt lat="47.174471945663036" lon="-0.10879197145909218"><ele>27.5</ele><time>2026-04-19T15:48:30Z</time></trkpt><trkpt lat="47.174573128266914" lon="-0.10873732198620442"><ele>27.25</ele><time>2026-04-19T15:48:31Z</time></trkpt><trkpt lat="47.17468013030563" lon="-0.10867421058260032"><ele>27.0</ele><time>2026-04-19T15:48:32Z</time></trkpt><trkpt lat="47.17479819052145" lon="-0.1086124516190228"><ele>27.0</ele><time>2026-04-19T15:48:33Z</time></trkpt><trkpt lat="47.17491228774506" lon="-0.10855425226852758"><ele>27.000000000000004</ele><time>2026-04-19T15:48:34Z</time></trkpt><trkpt lat="47.17501115982234" lon="-0.10850203518880931"><ele>27.000000000000004</ele><time>2026-04-19T15:48:35Z</time></trkpt><trkpt lat="47.17510365411908" lon="-0.10844987747223393"><ele>27.0</ele><time>2026-04-19T15:48:36Z</time></trkpt><trkpt lat="47.17519113385952" lon="-0.10840516319957971"><ele>27.0</ele><time>2026-04-19T15:48:37Z</time></trkpt><trkpt lat="47.17527170866587" lon="-0.10836052710942318"><ele>27.0</ele><time>2026-04-19T15:48:38Z</time></trkpt><trkpt lat="47.17534575726399" lon="-0.10832528073428391"><ele>27.0</ele><time>2026-04-19T15:48:39Z</time></trkpt><trkpt lat="47.175416086410536" lon="-0.10829299928889582"><ele>27.0</ele><time>2026-04-19T15:48:40Z</time></trkpt><trkpt lat="47.17547692797417" lon="-0.10826153673899692"><ele>27.0</ele><time>2026-04-19T15:48:41Z</time></trkpt><trkpt lat="47.17555552641487" lon="-0.10818120796462871"><ele>27.0</ele><time>2026-04-19T15:48:43Z</time></trkpt><trkpt lat="47.17553088980185" lon="-0.10805689654193103"><ele>27.0</ele><time>2026-04-19T15:48:45Z</time></trkpt><trkpt lat="47.17548730471495" lon="-0.10796983141207188"><ele>27.0</ele><time>2026-04-19T15:48:46Z</time></trkpt><trkpt lat="47.17542168579059" lon="-0.10786211782480366"><ele>27.000000000000004</ele><time>2026-04-19T15:48:47Z</time></trkpt><trkpt lat="47.17535850586586" lon="-0.10773392609727232"><ele>27.000000000000004</ele><time>2026-04-19T15:48:48Z</time></trkpt><trkpt lat="47.175292924141175" lon="-0.10759632106971848"><ele>27.0</ele><time>2026-04-19T15:48:49Z</time></trkpt><trkpt lat="47.17523393250539" lon="-0.10747354658473715"><ele>27.0</ele><time>2026-04-19T15:48:50Z</time></trkpt><trkpt lat="47.175168670119945" lon="-0.10734053148795217"><ele>27.0</ele><time>2026-04-19T15:48:51Z</time></trkpt><trkpt lat="47.175097192215624" lon="-0.10718763145367621"><ele>27.0</ele><time>2026-04-19T15:48:52Z</time></trkpt><trkpt lat="47.17502665780491" lon="-0.10703213009734817"><ele>27.0</ele><time>2026-04-19T15:48:53Z</time></trkpt><trkpt lat="47.174965997283934" lon="-0.10688712674417197"><ele>27.0</ele><time>2026-04-19T15:48:54Z</time></trkpt><trkpt lat="47.17490482037599" lon="-0.10676965160541227"><ele>27.0</ele><time>2026-04-19T15:48:55Z</time></trkpt><trkpt lat="47.17484746904444" lon="-0.10664489916010227"><ele>27.000000000000004</ele><time>2026-04-19T15:48:56Z</time></trkpt><trkpt lat="47.17477669504058" lon="-0.10651867092343666"><ele>27.000000000000004</ele><time>2026-04-19T15:48:57Z</time></trkpt><trkpt lat="47.17470433898618" lon="-0.10637737685246633"><ele>27.0</ele><time>2026-04-19T15:48:58Z</time></trkpt><trkpt lat="47.174633836453715" lon="-0.10626066654415232"><ele>27.0</ele><time>2026-04-19T15:48:59Z</time></trkpt><trkpt lat="47.17457320605647" lon="-0.10612489805362381"><ele>27.200000000000003</ele><time>2026-04-19T15:49:00Z</time></trkpt><trkpt lat="47.174506581880756" lon="-0.10600839261086084"><ele>27.400000000000002</ele><time>2026-04-19T15:49:01Z</time></trkpt><trkpt lat="47.17445762577676" lon="-0.10588505194046076"><ele>27.599999999999998</ele><time>2026-04-19T15:49:02Z</time></trkpt><trkpt lat="47.17439837525091" lon="-0.10574723088381245"><ele>27.799999999999997</ele><time>2026-04-19T15:49:03Z</time></trkpt><trkpt lat="47.17432630539438" lon="-0.10560403949987487"><ele>28.0</ele><time>2026-04-19T15:49:04Z</time></trkpt><trkpt lat="47.17427462355077" lon="-0.10543208192235508"><ele>28.0</ele><time>2026-04-19T15:49:05Z</time></trkpt><trkpt lat="47.17421709669782" lon="-0.10529361499532455"><ele>27.999999999999996</ele><time>2026-04-19T15:49:06Z</time></trkpt><trkpt lat="47.17417154289019" lon="-0.1051675361240093"><ele>27.999999999999996</ele><time>2026-04-19T15:49:07Z</time></trkpt><trkpt lat="47.174116755228475" lon="-0.10504400532528414"><ele>28.0</ele><time>2026-04-19T15:49:08Z</time></trkpt><trkpt lat="47.17406572745136" lon="-0.1049140953857225"><ele>28.0</ele><time>2026-04-19T15:49:09Z</time></trkpt><trkpt lat="47.17400504747453" lon="-0.10477168156996973"><ele>27.833333333333336</ele><time>2026-04-19T15:49:10Z</time></trkpt><trkpt lat="47.17393754760212" lon="-0.1046440775964582"><ele>27.666666666666668</ele><time>2026-04-19T15:49:11Z</time></trkpt><trkpt lat="47.173889772389224" lon="-0.10453178191926528"><ele>27.5</ele><time>2026-04-19T15:49:12Z</time></trkpt><trkpt lat="47.17384610524111" lon="-0.10442914224279047"><ele>27.333333333333336</ele><time>2026-04-19T15:49:13Z</time></trkpt><trkpt lat="47.17381753728799" lon="-0.1043194787076465"><ele>27.166666666666668</ele><time>2026-04-19T15:49:14Z</time></trkpt><trkpt lat="47.173770632937796" lon="-0.10425377868750586"><ele>27.0</ele><time>2026-04-19T15:49:15Z</time></trkpt><trkpt lat="47.173744108974276" lon="-0.10416341840953063"><ele>27.6</ele><time>2026-04-19T15:49:16Z</time></trkpt><trkpt lat="47.17367240788725" lon="-0.10403256155616673"><ele>28.200000000000003</ele><time>2026-04-19T15:49:18Z</time></trkpt><trkpt lat="47.173636398089414" lon="-0.1039520618780928"><ele>28.8</ele><time>2026-04-19T15:49:20Z</time></trkpt><trkpt lat="47.173729680349666" lon="-0.1038462073392621"><ele>29.4</ele><time>2026-04-19T15:49:22Z</time></trkpt><trkpt lat="47.17377765203045" lon="-0.10377264179251884"><ele>30.0</ele><time>2026-04-19T15:49:23Z</time></trkpt><trkpt lat="47.17384134694554" lon="-0.10368153505573247"><ele>30.0</ele><time>2026-04-19T15:49:24Z</time></trkpt><trkpt lat="47.17391361397421" lon="-0.10357816712346467"><ele>30.0</ele><time>2026-04-19T15:49:25Z</time></trkpt><trkpt lat="47.17400997169939" lon="-0.10347214648859059"><ele>30.0</ele><time>2026-04-19T15:49:26Z</time></trkpt><trkpt lat="47.174089167371385" lon="-0.10332338595081375"><ele>30.0</ele><time>2026-04-19T15:49:27Z</time></trkpt><trkpt lat="47.17419329123254" lon="-0.10319553222518449"><ele>29.25</ele><time>2026-04-19T15:49:28Z</time></trkpt><trkpt lat="47.17428235730728" lon="-0.10302839872466375"><ele>28.5</ele><time>2026-04-19T15:49:29Z</time></trkpt><trkpt lat="47.17438900904631" lon="-0.10287256569748433"><ele>27.75</ele><time>2026-04-19T15:49:30Z</time></trkpt><trkpt lat="47.17449578935388" lon="-0.10272638488407171"><ele>27.0</ele><time>2026-04-19T15:49:31Z</time></trkpt><trkpt lat="47.17461515713442" lon="-0.1026008113625963"><ele>27.0</ele><time>2026-04-19T15:49:32Z</time></trkpt><trkpt lat="47.17470654939999" lon="-0.10244771326163851"><ele>27.0</ele><time>2026-04-19T15:49:33Z</time></trkpt><trkpt lat="47.17480564975116" lon="-0.10231698114474323"><ele>27.0</ele><time>2026-04-19T15:49:34Z</time></trkpt><trkpt lat="47.17490147404838" lon="-0.10219102868061815"><ele>27.0</ele><time>2026-04-19T15:49:35Z</time></trkpt><trkpt lat="47.174997749450625" lon="-0.10206398938045488"><ele>27.0</ele><time>2026-04-19T15:49:36Z</time></trkpt><trkpt lat="47.17508961589898" lon="-0.10194138743318949"><ele>27.0</ele><time>2026-04-19T15:49:37Z</time></trkpt><trkpt lat="47.17518335201266" lon="-0.10181629026676285"><ele>27.0</ele><time>2026-04-19T15:49:38Z</time></trkpt><trkpt lat="47.175275335939894" lon="-0.10169353151004727"><ele>27.0</ele><time>2026-04-19T15:49:39Z</time></trkpt><trkpt lat="47.17536914945377" lon="-0.10156833105247513"><ele>27.25</ele><time>2026-04-19T15:49:40Z</time></trkpt><trkpt lat="47.17546479018332" lon="-0.10144286962932215"><ele>27.5</ele><time>2026-04-19T15:49:41Z</time></trkpt><trkpt lat="47.175567643461804" lon="-0.10134005621690148"><ele>27.75</ele><time>2026-04-19T15:49:42Z</time></trkpt><trkpt lat="47.175658565797924" lon="-0.10121846415464412"><ele>28.0</ele><time>2026-04-19T15:49:43Z</time></trkpt><trkpt lat="47.17574759123835" lon="-0.10109878599385128"><ele>28.0</ele><time>2026-04-19T15:49:44Z</time></trkpt><trkpt lat="47.17583331546547" lon="-0.10097572789271797"><ele>28.0</ele><time>2026-04-19T15:49:45Z</time></trkpt><trkpt lat="47.17591904672112" lon="-0.10085115775924147"><ele>28.0</ele><time>2026-04-19T15:49:45.999Z</time></trkpt><trkpt lat="47.17600549845022" lon="-0.10072330666917202"><ele>28.0</ele><time>2026-04-19T15:49:46.999Z</time></trkpt><trkpt lat="47.17607652220558" lon="-0.10057697220971494"><ele>28.0</ele><time>2026-04-19T15:49:47.999Z</time></trkpt><trkpt lat="47.176154676262335" lon="-0.10043886609855136"><ele>28.0</ele><time>2026-04-19T15:49:48.999Z</time></trkpt><trkpt lat="47.176246639380615" lon="-0.10030735314827602"><ele>28.0</ele><time>2026-04-19T15:49:49.999Z</time></trkpt><trkpt lat="47.17632662560119" lon="-0.10016456657073984"><ele>28.0</ele><time>2026-04-19T15:49:50.999Z</time></trkpt><trkpt lat="47.17640631480806" lon="-0.10002216587016403"><ele>28.0</ele><time>2026-04-19T15:49:51.999Z</time></trkpt><trkpt lat="47.176490608387994" lon="-0.09987713109294026"><ele>28.0</ele><time>2026-04-19T15:49:52.999Z</time></trkpt><trkpt lat="47.176574700936456" lon="-0.09973130365282865"><ele>28.0</ele><time>2026-04-19T15:49:53.999Z</time></trkpt><trkpt lat="47.176637822352816" lon="-0.09958446764289165"><ele>28.0</ele><time>2026-04-19T15:49:54.999Z</time></trkpt><trkpt lat="47.1767197875404" lon="-0.09947984558928309"><ele>28.000000000000004</ele><time>2026-04-19T15:49:55.999Z</time></trkpt><trkpt lat="47.1767853479015" lon="-0.09937017662031608"><ele>28.0</ele><time>2026-04-19T15:49:56.999Z</time></trkpt><trkpt lat="47.17684432743985" lon="-0.09927329562914479"><ele>28.0</ele><time>2026-04-19T15:49:57.999Z</time></trkpt><trkpt lat="47.176882697934005" lon="-0.09918815548583723"><ele>28.0</ele><time>2026-04-19T15:49:58.999Z</time></trkpt><trkpt lat="47.17693057996779" lon="-0.09912577250297545"><ele>28.000000000000004</ele><time>2026-04-19T15:49:59.999Z</time></trkpt><trkpt lat="47.176987345659896" lon="-0.09896166362415884"><ele>28.0</ele><time>2026-04-19T15:50:01.999Z</time></trkpt><trkpt lat="47.17697438818504" lon="-0.09884715338996711"><ele>28.0</ele><time>2026-04-19T15:50:02.999Z</time></trkpt><trkpt lat="47.17694991183939" lon="-0.0987183769632912"><ele>27.999999999999996</ele><time>2026-04-19T15:50:03.999Z</time></trkpt><trkpt lat="47.17691138875493" lon="-0.09858653435739861"><ele>27.999999999999996</ele><time>2026-04-19T15:50:04.999Z</time></trkpt><trkpt lat="47.17686491508129" lon="-0.09842446662937065"><ele>28.0</ele><time>2026-04-19T15:50:05.999Z</time></trkpt><trkpt lat="47.17681479842671" lon="-0.09823067137686653"><ele>28.0</ele><time>2026-04-19T15:50:06.999Z</time></trkpt><trkpt lat="47.17675736658916" lon="-0.09802175026750609"><ele>28.0</ele><time>2026-04-19T15:50:07.999Z</time></trkpt><trkpt lat="47.176711104114794" lon="-0.09780122978878192"><ele>28.0</ele><time>2026-04-19T15:50:08.999Z</time></trkpt><trkpt lat="47.176657460196544" lon="-0.09756527356928872"><ele>28.0</ele><time>2026-04-19T15:50:09.999Z</time></trkpt><trkpt lat="47.1766037838897" lon="-0.09733359088999195"><ele>28.25</ele><time>2026-04-19T15:50:10.999Z</time></trkpt><trkpt lat="47.17654986566494" lon="-0.09712615954405047"><ele>28.5</ele><time>2026-04-19T15:50:11.999Z</time></trkpt><trkpt lat="47.17650883909711" lon="-0.09693796912749005"><ele>28.75</ele><time>2026-04-19T15:50:12.999Z</time></trkpt><trkpt lat="47.17647001547476" lon="-0.09675989186064307"><ele>29.0</ele><time>2026-04-19T15:50:13.999Z</time></trkpt><trkpt lat="47.17643342211835" lon="-0.0966019309163544"><ele>29.4</ele><time>2026-04-19T15:50:14.999Z</time></trkpt><trkpt lat="47.17639381687356" lon="-0.096442989157496"><ele>29.799999999999997</ele><time>2026-04-19T15:50:15.999Z</time></trkpt><trkpt lat="47.17635810400374" lon="-0.09629082891348238"><ele>30.200000000000003</ele><time>2026-04-19T15:50:16.999Z</time></trkpt><trkpt lat="47.17632561555168" lon="-0.09614268148048577"><ele>30.6</ele><time>2026-04-19T15:50:17.999Z</time></trkpt><trkpt lat="47.176289467092964" lon="-0.09599411459801735"><ele>31.0</ele><time>2026-04-19T15:50:18.999Z</time></trkpt><trkpt lat="47.176249231527194" lon="-0.09584235290916066"><ele>30.833333333333336</ele><time>2026-04-19T15:50:19.999Z</time></trkpt><trkpt lat="47.17621579736107" lon="-0.09570610491626626"><ele>30.666666666666668</ele><time>2026-04-19T15:50:20.999Z</time></trkpt><trkpt lat="47.17618783224649" lon="-0.09558570906575846"><ele>30.5</ele><time>2026-04-19T15:50:21.999Z</time></trkpt><trkpt lat="47.17615966753767" lon="-0.09547444437619265"><ele>30.333333333333336</ele><time>2026-04-19T15:50:22.999Z</time></trkpt><trkpt lat="47.176119993903576" lon="-0.09534127610716102"><ele>30.166666666666668</ele><time>2026-04-19T15:50:25.001Z</time></trkpt><trkpt lat="47.17607385860752" lon="-0.09524967157579661"><ele>30.0</ele><time>2026-04-19T15:50:43Z</time></trkpt><trkpt lat="47.17613686795733" lon="-0.09509350376543514"><ele>30.0</ele><time>2026-04-19T15:50:45Z</time></trkpt><trkpt lat="47.17619526665966" lon="-0.09500463962286099"><ele>30.0</ele><time>2026-04-19T15:50:46Z</time></trkpt><trkpt lat="47.17628264714632" lon="-0.09491272952875834"><ele>30.0</ele><time>2026-04-19T15:50:47Z</time></trkpt><trkpt lat="47.176370690049566" lon="-0.09480491389381186"><ele>30.0</ele><time>2026-04-19T15:50:48Z</time></trkpt><trkpt lat="47.17646860314011" lon="-0.09469347868552559"><ele>30.0</ele><time>2026-04-19T15:50:49Z</time></trkpt><trkpt lat="47.176546591610766" lon="-0.09456633557620801"><ele>29.833333333333332</ele><time>2026-04-19T15:50:51Z</time></trkpt><trkpt lat="47.17661188254193" lon="-0.09449679221687951"><ele>29.666666666666664</ele><time>2026-04-19T15:50:52Z</time></trkpt><trkpt lat="47.176673885544226" lon="-0.09444061725843063"><ele>29.5</ele><time>2026-04-19T15:50:53Z</time></trkpt><trkpt lat="47.17671759290951" lon="-0.09437223156853271"><ele>29.333333333333332</ele><time>2026-04-19T15:50:54Z</time></trkpt><trkpt lat="47.17680328566587" lon="-0.09426791548327054"><ele>29.166666666666664</ele><time>2026-04-19T15:50:56Z</time></trkpt><trkpt lat="47.17685931017129" lon="-0.09421453065608373"><ele>29.0</ele><time>2026-04-19T15:50:57Z</time></trkpt><trkpt lat="47.176928614747645" lon="-0.09415380369586361"><ele>29.0</ele><time>2026-04-19T15:50:58Z</time></trkpt><trkpt lat="47.177009326983296" lon="-0.09408880140776117"><ele>29.0</ele><time>2026-04-19T15:50:59Z</time></trkpt><trkpt lat="47.177372516501336" lon="-0.09454380353154158"><ele>28.75</ele><time>2026-04-19T15:51:00Z</time></trkpt><trkpt lat="47.17751534143408" lon="-0.09456636076317952"><ele>28.5</ele><time>2026-04-19T15:51:01Z</time></trkpt><trkpt lat="47.1776449158584" lon="-0.09458540473530841"><ele>28.25</ele><time>2026-04-19T15:51:02Z</time></trkpt><trkpt lat="47.177766750049976" lon="-0.0945872645477769"><ele>28.0</ele><time>2026-04-19T15:51:03Z</time></trkpt><trkpt lat="47.17789004231921" lon="-0.09455617553481717"><ele>28.0</ele><time>2026-04-19T15:51:04Z</time></trkpt><trkpt lat="47.17801445336771" lon="-0.09450678897892349"><ele>28.0</ele><time>2026-04-19T15:51:05Z</time></trkpt><trkpt lat="47.17814376822559" lon="-0.09445371407380995"><ele>28.0</ele><time>2026-04-19T15:51:06Z</time></trkpt><trkpt lat="47.17827217004545" lon="-0.09438600753423669"><ele>28.0</ele><time>2026-04-19T15:51:07Z</time></trkpt><trkpt lat="47.17841443917002" lon="-0.09431402454338537"><ele>28.0</ele><time>2026-04-19T15:51:08Z</time></trkpt><trkpt lat="47.17855213822246" lon="-0.09424743120534614"><ele>28.0</ele><time>2026-04-19T15:51:09Z</time></trkpt><trkpt lat="47.178692488483556" lon="-0.09417620490411706"><ele>28.0</ele><time>2026-04-19T15:51:10Z</time></trkpt><trkpt lat="47.178819556772204" lon="-0.09411855494505547"><ele>28.0</ele><time>2026-04-19T15:51:11Z</time></trkpt><trkpt lat="47.17893569459073" lon="-0.09406805867296647"><ele>28.25</ele><time>2026-04-19T15:51:12Z</time></trkpt><trkpt lat="47.17905196432439" lon="-0.09401202184429978"><ele>28.5</ele><time>2026-04-19T15:51:13Z</time></trkpt><trkpt lat="47.17917351226136" lon="-0.09395530147591692"><ele>28.75</ele><time>2026-04-19T15:51:14Z</time></trkpt><trkpt lat="47.17930278716127" lon="-0.093904343723472"><ele>29.0</ele><time>2026-04-19T15:51:15Z</time></trkpt><trkpt lat="47.17943673743215" lon="-0.09386640085357954"><ele>29.0</ele><time>2026-04-19T15:51:16Z</time></trkpt><trkpt lat="47.17956912816171" lon="-0.09383196195487399"><ele>29.0</ele><time>2026-04-19T15:51:17Z</time></trkpt><trkpt lat="47.17969233690695" lon="-0.09379828678902237"><ele>29.0</ele><time>2026-04-19T15:51:18Z</time></trkpt><trkpt lat="47.17981484754022" lon="-0.09376472795133922"><ele>29.0</ele><time>2026-04-19T15:51:19Z</time></trkpt><trkpt lat="47.17995281459567" lon="-0.09372859337604571"><ele>28.0</ele><time>2026-04-19T15:51:20Z</time></trkpt><trkpt lat="47.18009473154111" lon="-0.09368680067930549"><ele>27.0</ele><time>2026-04-19T15:51:21Z</time></trkpt><trkpt lat="47.180242016302316" lon="-0.09364438577744551"><ele>26.0</ele><time>2026-04-19T15:51:22Z</time></trkpt><trkpt lat="47.180397611433236" lon="-0.09360292924368717"><ele>26.0</ele><time>2026-04-19T15:51:23Z</time></trkpt><trkpt lat="47.18054387447223" lon="-0.09357487676920889"><ele>26.0</ele><time>2026-04-19T15:51:24Z</time></trkpt><trkpt lat="47.1806687651833" lon="-0.09356229437106389"><ele>26.0</ele><time>2026-04-19T15:51:24.999Z</time></trkpt><trkpt lat="47.18078878858853" lon="-0.09354783058549167"><ele>26.0</ele><time>2026-04-19T15:51:25.999Z</time></trkpt><trkpt lat="47.1808937303341" lon="-0.0935314998504734"><ele>26.200000000000003</ele><time>2026-04-19T15:51:26.999Z</time></trkpt><trkpt lat="47.18099623759581" lon="-0.09351664731082884"><ele>26.400000000000002</ele><time>2026-04-19T15:51:27.999Z</time></trkpt><trkpt lat="47.18109106862516" lon="-0.09349880040488943"><ele>26.6</ele><time>2026-04-19T15:51:28.999Z</time></trkpt><trkpt lat="47.181186220505936" lon="-0.09348500509628505"><ele>26.8</ele><time>2026-04-19T15:51:29.999Z</time></trkpt><trkpt lat="47.1812824664176" lon="-0.09346487911644584"><ele>27.0</ele><time>2026-04-19T15:51:30.999Z</time></trkpt><trkpt lat="47.1813829280749" lon="-0.09343862735753847"><ele>27.0</ele><time>2026-04-19T15:51:31.999Z</time></trkpt><trkpt lat="47.18149848534798" lon="-0.09339942863722903"><ele>27.0</ele><time>2026-04-19T15:51:32.999Z</time></trkpt><trkpt lat="47.181621102536596" lon="-0.0933562071695324"><ele>27.0</ele><time>2026-04-19T15:51:33.999Z</time></trkpt><trkpt lat="47.18176040705176" lon="-0.09331447727310144"><ele>27.0</ele><time>2026-04-19T15:51:34.999Z</time></trkpt><trkpt lat="47.18190439185091" lon="-0.09327312291879734"><ele>26.666666666666664</ele><time>2026-04-19T15:51:35.999Z</time></trkpt><trkpt lat="47.1820593416896" lon="-0.09323000304630805"><ele>26.333333333333332</ele><time>2026-04-19T15:51:36.999Z</time></trkpt><trkpt lat="47.18221276124362" lon="-0.093175290186836"><ele>26.0</ele><time>2026-04-19T15:51:37.999Z</time></trkpt><trkpt lat="47.18235927173797" lon="-0.09312919191994225"><ele>26.0</ele><time>2026-04-19T15:51:38.999Z</time></trkpt><trkpt lat="47.18250757885815" lon="-0.09308080494130418"><ele>26.0</ele><time>2026-04-19T15:51:39.999Z</time></trkpt><trkpt lat="47.18263335869815" lon="-0.09303293705576657"><ele>26.0</ele><time>2026-04-19T15:51:40.999Z</time></trkpt><trkpt lat="47.1827616623847" lon="-0.09298879883842157"><ele>26.0</ele><time>2026-04-19T15:51:41.999Z</time></trkpt><trkpt lat="47.18289757730985" lon="-0.09294526327107061"><ele>26.0</ele><time>2026-04-19T15:51:42.999Z</time></trkpt><trkpt lat="47.183043531188055" lon="-0.0929041862144724"><ele>26.0</ele><time>2026-04-19T15:51:43.999Z</time></trkpt><trkpt lat="47.18319024870211" lon="-0.09286304355649476"><ele>26.0</ele><time>2026-04-19T15:51:44.999Z</time></trkpt><trkpt lat="47.18331559891522" lon="-0.09282310332943756"><ele>26.0</ele><time>2026-04-19T15:51:45.999Z</time></trkpt><trkpt lat="47.183442740863406" lon="-0.09278590977785017"><ele>26.25</ele><time>2026-04-19T15:51:46.999Z</time></trkpt><trkpt lat="47.18356923890407" lon="-0.09274737291765851"><ele>26.5</ele><time>2026-04-19T15:51:47.999Z</time></trkpt><trkpt lat="47.1837050268738" lon="-0.09271639381414451"><ele>26.75</ele><time>2026-04-19T15:51:48.999Z</time></trkpt><trkpt lat="47.183844913369605" lon="-0.09268930371376728"><ele>27.0</ele><time>2026-04-19T15:51:49.999Z</time></trkpt><trkpt lat="47.18396446664844" lon="-0.09266456203002214"><ele>26.5</ele><time>2026-04-19T15:51:50.999Z</time></trkpt><trkpt lat="47.18408516926799" lon="-0.0926449627434417"><ele>26.0</ele><time>2026-04-19T15:51:51.999Z</time></trkpt><trkpt lat="47.18421031947568" lon="-0.09262239707865004"><ele>25.5</ele><time>2026-04-19T15:51:52.999Z</time></trkpt><trkpt lat="47.18434024636723" lon="-0.09259500411043188"><ele>25.0</ele><time>2026-04-19T15:51:53.999Z</time></trkpt><trkpt lat="47.18447361492333" lon="-0.09256476926848414"><ele>25.0</ele><time>2026-04-19T15:51:54.998Z</time></trkpt><trkpt lat="47.18460928045338" lon="-0.09253775730135311"><ele>25.0</ele><time>2026-04-19T15:51:55.998Z</time></trkpt><trkpt lat="47.184747033242616" lon="-0.09250998926785163"><ele>25.0</ele><time>2026-04-19T15:51:56.998Z</time></trkpt><trkpt lat="47.184870320869784" lon="-0.092485370896571"><ele>25.0</ele><time>2026-04-19T15:51:57.998Z</time></trkpt><trkpt lat="47.184987173514244" lon="-0.09246546804949257"><ele>25.5</ele><time>2026-04-19T15:51:58.998Z</time></trkpt><trkpt lat="47.18511559812692" lon="-0.09245263394574285"><ele>26.0</ele><time>2026-04-19T15:51:59.998Z</time></trkpt><trkpt lat="47.18525379122771" lon="-0.09244220154770523"><ele>26.5</ele><time>2026-04-19T15:52:00.998Z</time></trkpt><trkpt lat="47.1853838984754" lon="-0.09244231139442276"><ele>27.0</ele><time>2026-04-19T15:52:01.998Z</time></trkpt><trkpt lat="47.18551051357157" lon="-0.0924458785593252"><ele>27.0</ele><time>2026-04-19T15:52:02.998Z</time></trkpt><trkpt lat="47.185641102836065" lon="-0.0924473151411504"><ele>27.0</ele><time>2026-04-19T15:52:03.998Z</time></trkpt><trkpt lat="47.18577339882834" lon="-0.09245014544889307"><ele>27.0</ele><time>2026-04-19T15:52:04.998Z</time></trkpt><trkpt lat="47.18587796183526" lon="-0.09244408431921858"><ele>27.0</ele><time>2026-04-19T15:52:05.998Z</time></trkpt><trkpt lat="47.18598596052198" lon="-0.09244609773324705"><ele>27.0</ele><time>2026-04-19T15:52:06.998Z</time></trkpt><trkpt lat="47.18606264253184" lon="-0.09243678384997508"><ele>27.000000000000004</ele><time>2026-04-19T15:52:07.998Z</time></trkpt><trkpt lat="47.1861701869731" lon="-0.09246445479403644"><ele>27.000000000000004</ele><time>2026-04-19T15:52:09.998Z</time></trkpt><trkpt lat="47.1862380304103" lon="-0.09248588103714142"><ele>27.0</ele><time>2026-04-19T15:52:11.998Z</time></trkpt><trkpt lat="47.18632995987069" lon="-0.09237082365030223"><ele>27.0</ele><time>2026-04-19T15:52:13.998Z</time></trkpt><trkpt lat="47.18637432621399" lon="-0.09227829994212208"><ele>27.0</ele><time>2026-04-19T15:52:14.998Z</time></trkpt><trkpt lat="47.1864284604635" lon="-0.09217271050281524"><ele>27.000000000000004</ele><time>2026-04-19T15:52:15.998Z</time></trkpt><trkpt lat="47.186483073317426" lon="-0.09206538826598923"><ele>27.000000000000004</ele><time>2026-04-19T15:52:16.998Z</time></trkpt><trkpt lat="47.18653096223964" lon="-0.0919475415012771"><ele>27.0</ele><time>2026-04-19T15:52:17.998Z</time></trkpt><trkpt lat="47.186571127715865" lon="-0.09182000199557654"><ele>27.0</ele><time>2026-04-19T15:52:18.998Z</time></trkpt><trkpt lat="47.18657658456177" lon="-0.09167364597732207"><ele>27.200000000000003</ele><time>2026-04-19T15:52:19.998Z</time></trkpt><trkpt lat="47.186601428535845" lon="-0.0915171626500375"><ele>27.400000000000002</ele><time>2026-04-19T15:52:20.998Z</time></trkpt><trkpt lat="47.1866042555419" lon="-0.09135162380500843"><ele>27.599999999999998</ele><time>2026-04-19T15:52:21.998Z</time></trkpt><trkpt lat="47.18660840582179" lon="-0.09118255091278614"><ele>27.799999999999997</ele><time>2026-04-19T15:52:22.998Z</time></trkpt><trkpt lat="47.18661609879255" lon="-0.09102556368994859"><ele>28.0</ele><time>2026-04-19T15:52:23.998Z</time></trkpt><trkpt lat="47.18662106055444" lon="-0.09087780578602832"><ele>27.799999999999997</ele><time>2026-04-19T15:52:24.998Z</time></trkpt><trkpt lat="47.186621415030544" lon="-0.09072206309126402"><ele>27.599999999999998</ele><time>2026-04-19T15:52:25.998Z</time></trkpt><trkpt lat="47.186621089791906" lon="-0.09056872544576443"><ele>27.400000000000002</ele><time>2026-04-19T15:52:26.998Z</time></trkpt><trkpt lat="47.18662178997787" lon="-0.09043940251778125"><ele>27.200000000000003</ele><time>2026-04-19T15:52:27.998Z</time></trkpt><trkpt lat="47.18661113579726" lon="-0.09029777801337009"><ele>27.0</ele><time>2026-04-19T15:52:28.998Z</time></trkpt><trkpt lat="47.1866009616191" lon="-0.09017081819431928"><ele>27.0</ele><time>2026-04-19T15:52:30Z</time></trkpt><trkpt lat="47.186592262760996" lon="-0.09004280731187618"><ele>27.000000000000004</ele><time>2026-04-19T15:52:31Z</time></trkpt><trkpt lat="47.18658631558506" lon="-0.08993754212031634"><ele>27.000000000000004</ele><time>2026-04-19T15:52:32Z</time></trkpt><trkpt lat="47.18656915246094" lon="-0.08979718513445056"><ele>27.0</ele><time>2026-04-19T15:52:34Z</time></trkpt><trkpt lat="47.18673431171366" lon="-0.08972185841554368"><ele>27.0</ele><time>2026-04-19T15:52:39Z</time></trkpt><trkpt lat="47.18681459776964" lon="-0.08975725837093888"><ele>27.0</ele><time>2026-04-19T15:52:40Z</time></trkpt><trkpt lat="47.18691780946913" lon="-0.08977262191862509"><ele>27.000000000000004</ele><time>2026-04-19T15:52:41Z</time></trkpt><trkpt lat="47.187011743994546" lon="-0.0898239198644078"><ele>27.000000000000004</ele><time>2026-04-19T15:52:42Z</time></trkpt><trkpt lat="47.18712020792045" lon="-0.08983257696897796"><ele>27.0</ele><time>2026-04-19T15:52:43Z</time></trkpt><trkpt lat="47.187238189068324" lon="-0.08989008582999425"><ele>27.0</ele><time>2026-04-19T15:52:44Z</time></trkpt><trkpt lat="47.18735846429494" lon="-0.08992226073382643"><ele>27.25</ele><time>2026-04-19T15:52:45Z</time></trkpt><trkpt lat="47.18748148797928" lon="-0.08995632459834506"><ele>27.5</ele><time>2026-04-19T15:52:46Z</time></trkpt><trkpt lat="47.18761268132265" lon="-0.08998978619995464"><ele>27.75</ele><time>2026-04-19T15:52:46.999Z</time></trkpt><trkpt lat="47.18773386874202" lon="-0.09001941081858618"><ele>28.0</ele><time>2026-04-19T15:52:47.999Z</time></trkpt><trkpt lat="47.18784277619499" lon="-0.0900473964345873"><ele>28.0</ele><time>2026-04-19T15:52:48.999Z</time></trkpt><trkpt lat="47.18795139776495" lon="-0.0900820725993901"><ele>27.999999999999996</ele><time>2026-04-19T15:52:49.999Z</time></trkpt><trkpt lat="47.18805294485615" lon="-0.09011937726668064"><ele>27.999999999999996</ele><time>2026-04-19T15:52:50.999Z</time></trkpt><trkpt lat="47.18815334565734" lon="-0.09016276437442267"><ele>28.0</ele><time>2026-04-19T15:52:51.999Z</time></trkpt><trkpt lat="47.18825207718127" lon="-0.09021415888112616"><ele>28.0</ele><time>2026-04-19T15:52:52.999Z</time></trkpt><trkpt lat="47.188343579979815" lon="-0.09026681872136351"><ele>27.799999999999997</ele><time>2026-04-19T15:52:53.999Z</time></trkpt><trkpt lat="47.18842023728909" lon="-0.0903282121148337"><ele>27.599999999999998</ele><time>2026-04-19T15:52:54.999Z</time></trkpt><trkpt lat="47.18848193753404" lon="-0.09037995053512982"><ele>27.400000000000002</ele><time>2026-04-19T15:52:55.999Z</time></trkpt><trkpt lat="47.188575465865846" lon="-0.09037555156140815"><ele>27.200000000000003</ele><time>2026-04-19T15:52:57.999Z</time></trkpt><trkpt lat="47.18866954948334" lon="-0.09021184700251968"><ele>27.0</ele><time>2026-04-19T15:52:59.999Z</time></trkpt><trkpt lat="47.18874881720091" lon="-0.09010028664746444"><ele>27.0</ele><time>2026-04-19T15:53:00.999Z</time></trkpt><trkpt lat="47.18883609738399" lon="-0.08997163899908507"><ele>27.0</ele><time>2026-04-19T15:53:01.999Z</time></trkpt><trkpt lat="47.18893691091822" lon="-0.08984338612787121"><ele>27.0</ele><time>2026-04-19T15:53:02.999Z</time></trkpt><trkpt lat="47.189035905816276" lon="-0.08971492093832237"><ele>27.0</ele><time>2026-04-19T15:53:03.999Z</time></trkpt><trkpt lat="47.18913868943042" lon="-0.08958555978145159"><ele>27.0</ele><time>2026-04-19T15:53:04.999Z</time></trkpt><trkpt lat="47.18924994929105" lon="-0.08944522522335185"><ele>27.0</ele><time>2026-04-19T15:53:05.999Z</time></trkpt><trkpt lat="47.189361014934896" lon="-0.08929780251800455"><ele>27.0</ele><time>2026-04-19T15:53:06.999Z</time></trkpt><trkpt lat="47.18947020239148" lon="-0.08914367528255075"><ele>27.0</ele><time>2026-04-19T15:53:07.999Z</time></trkpt><trkpt lat="47.18958195467304" lon="-0.08898832566480187"><ele>27.25</ele><time>2026-04-19T15:53:08.999Z</time></trkpt><trkpt lat="47.189691016582465" lon="-0.08883649490492233"><ele>27.5</ele><time>2026-04-19T15:53:09.999Z</time></trkpt><trkpt lat="47.189796214925025" lon="-0.08869498341274192"><ele>27.75</ele><time>2026-04-19T15:53:10.999Z</time></trkpt><trkpt lat="47.189897169341734" lon="-0.08855919247812037"><ele>28.0</ele><time>2026-04-19T15:53:11.999Z</time></trkpt><trkpt lat="47.19000387692443" lon="-0.0884222826747347"><ele>27.75</ele><time>2026-04-19T15:53:12.999Z</time></trkpt><trkpt lat="47.190106099276946" lon="-0.08828284920671552"><ele>27.5</ele><time>2026-04-19T15:53:13.999Z</time></trkpt><trkpt lat="47.19021339137102" lon="-0.0881381388656171"><ele>27.25</ele><time>2026-04-19T15:53:14.999Z</time></trkpt><trkpt lat="47.190319889200524" lon="-0.08799313242423541"><ele>27.0</ele><time>2026-04-19T15:53:15.999Z</time></trkpt><trkpt lat="47.1904263595657" lon="-0.08784975762309397"><ele>27.0</ele><time>2026-04-19T15:53:16.999Z</time></trkpt><trkpt lat="47.19053392202255" lon="-0.08770976281676411"><ele>27.0</ele><time>2026-04-19T15:53:17.999Z</time></trkpt><trkpt lat="47.19063268554084" lon="-0.0875772367020096"><ele>27.0</ele><time>2026-04-19T15:53:18.999Z</time></trkpt><trkpt lat="47.19072877347026" lon="-0.08745457952850412"><ele>27.0</ele><time>2026-04-19T15:53:19.999Z</time></trkpt><trkpt lat="47.19083487251737" lon="-0.08732381235461946"><ele>27.5</ele><time>2026-04-19T15:53:20.999Z</time></trkpt><trkpt lat="47.19094926333681" lon="-0.08720566087596418"><ele>28.0</ele><time>2026-04-19T15:53:21.999Z</time></trkpt><trkpt lat="47.19107104469537" lon="-0.08708053067356436"><ele>28.5</ele><time>2026-04-19T15:53:22.999Z</time></trkpt><trkpt lat="47.19119588345399" lon="-0.08695382515860567"><ele>29.0</ele><time>2026-04-19T15:53:23.999Z</time></trkpt><trkpt lat="47.1913210785358" lon="-0.08683105602006295"><ele>29.0</ele><time>2026-04-19T15:53:24.999Z</time></trkpt><trkpt lat="47.19143359872782" lon="-0.08671806014266972"><ele>29.0</ele><time>2026-04-19T15:53:25.999Z</time></trkpt><trkpt lat="47.1915456907848" lon="-0.08659948812898628"><ele>29.0</ele><time>2026-04-19T15:53:26.999Z</time></trkpt><trkpt lat="47.19165743141275" lon="-0.08648628605799312"><ele>29.0</ele><time>2026-04-19T15:53:27.999Z</time></trkpt><trkpt lat="47.1917786410878" lon="-0.08636163258634946"><ele>28.75</ele><time>2026-04-19T15:53:28.999Z</time></trkpt><trkpt lat="47.19189837969535" lon="-0.08624107542024954"><ele>28.5</ele><time>2026-04-19T15:53:29.999Z</time></trkpt><trkpt lat="47.19201647563184" lon="-0.08611631962209237"><ele>28.25</ele><time>2026-04-19T15:53:30.999Z</time></trkpt><trkpt lat="47.192136408231036" lon="-0.08598407227177789"><ele>28.0</ele><time>2026-04-19T15:53:31.999Z</time></trkpt><trkpt lat="47.19223885947567" lon="-0.08587408970119045"><ele>27.75</ele><time>2026-04-19T15:53:32.999Z</time></trkpt><trkpt lat="47.19234465318825" lon="-0.08576248967304796"><ele>27.5</ele><time>2026-04-19T15:53:33.999Z</time></trkpt><trkpt lat="47.192455072752665" lon="-0.08564928941657529"><ele>27.25</ele><time>2026-04-19T15:53:34.999Z</time></trkpt><trkpt lat="47.19257047653744" lon="-0.08553185325389885"><ele>27.0</ele><time>2026-04-19T15:53:35.999Z</time></trkpt><trkpt lat="47.1926770363723" lon="-0.08542334752906025"><ele>27.0</ele><time>2026-04-19T15:53:36.999Z</time></trkpt><trkpt lat="47.19276999295396" lon="-0.08532303075927918"><ele>27.000000000000004</ele><time>2026-04-19T15:53:37.999Z</time></trkpt><trkpt lat="47.19285737185382" lon="-0.08523776725378937"><ele>27.000000000000004</ele><time>2026-04-19T15:53:38.999Z</time></trkpt><trkpt lat="47.19293822869786" lon="-0.0851482448539089"><ele>27.0</ele><time>2026-04-19T15:53:39.999Z</time></trkpt><trkpt lat="47.19302361229175" lon="-0.08504416525031623"><ele>27.0</ele><time>2026-04-19T15:53:40.999Z</time></trkpt><trkpt lat="47.19311073428573" lon="-0.08495054000633595"><ele>26.8</ele><time>2026-04-19T15:53:41.999Z</time></trkpt><trkpt lat="47.193200296899185" lon="-0.08485797205051622"><ele>26.6</ele><time>2026-04-19T15:53:42.999Z</time></trkpt><trkpt lat="47.19329767446744" lon="-0.08476802727039298"><ele>26.400000000000002</ele><time>2026-04-19T15:53:43.999Z</time></trkpt><trkpt lat="47.193392770523985" lon="-0.08467085857424168"><ele>26.200000000000003</ele><time>2026-04-19T15:53:44.999Z</time></trkpt><trkpt lat="47.19348215888566" lon="-0.08457823070929421"><ele>26.0</ele><time>2026-04-19T15:53:45.999Z</time></trkpt><trkpt lat="47.19356130153134" lon="-0.08449220773425135"><ele>25.999999999999996</ele><time>2026-04-19T15:53:46.999Z</time></trkpt><trkpt lat="47.193631200995355" lon="-0.08441705440649715"><ele>26.0</ele><time>2026-04-19T15:53:47.999Z</time></trkpt><trkpt lat="47.19369522051896" lon="-0.08435732040714476"><ele>26.0</ele><time>2026-04-19T15:53:48.999Z</time></trkpt><trkpt lat="47.19379171782406" lon="-0.0843054495880131"><ele>26.0</ele><time>2026-04-19T15:53:50.999Z</time></trkpt><trkpt lat="47.193854317732935" lon="-0.08432228146978293"><ele>25.999999999999996</ele><time>2026-04-19T15:53:51.999Z</time></trkpt><trkpt lat="47.19393541660309" lon="-0.08435549984516216"><ele>26.0</ele><time>2026-04-19T15:53:52.999Z</time></trkpt><trkpt lat="47.19403503682851" lon="-0.08439972281297722"><ele>26.200000000000003</ele><time>2026-04-19T15:53:53.999Z</time></trkpt><trkpt lat="47.19414417109707" lon="-0.08440100776979849"><ele>26.400000000000002</ele><time>2026-04-19T15:53:54.999Z</time></trkpt><trkpt lat="47.19425530689791" lon="-0.08436828832706719"><ele>26.6</ele><time>2026-04-19T15:53:55.999Z</time></trkpt><trkpt lat="47.194357933117395" lon="-0.08431740128021234"><ele>26.8</ele><time>2026-04-19T15:53:56.999Z</time></trkpt><trkpt lat="47.19443698582132" lon="-0.08421813129586105"><ele>27.0</ele><time>2026-04-19T15:53:57.999Z</time></trkpt><trkpt lat="47.19452489042595" lon="-0.08411958479103945"><ele>26.8</ele><time>2026-04-19T15:53:58.999Z</time></trkpt><trkpt lat="47.19460917360121" lon="-0.08401022767784132"><ele>26.6</ele><time>2026-04-19T15:53:59.999Z</time></trkpt><trkpt lat="47.194687293578504" lon="-0.08390671166965022"><ele>26.400000000000002</ele><time>2026-04-19T15:54:00.999Z</time></trkpt><trkpt lat="47.19475410340323" lon="-0.08381742286449473"><ele>26.200000000000003</ele><time>2026-04-19T15:54:01.999Z</time></trkpt><trkpt lat="47.19482287130673" lon="-0.08372185618044788"><ele>26.0</ele><time>2026-04-19T15:54:02.999Z</time></trkpt><trkpt lat="47.1948891174855" lon="-0.08365172645009471"><ele>26.4</ele><time>2026-04-19T15:54:03.999Z</time></trkpt><trkpt lat="47.194934464457845" lon="-0.08354814268486475"><ele>26.8</ele><time>2026-04-19T15:54:04.998Z</time></trkpt><trkpt lat="47.194987377650094" lon="-0.08348301970376995"><ele>27.199999999999996</ele><time>2026-04-19T15:54:05.998Z</time></trkpt><trkpt lat="47.19506781390159" lon="-0.08339443122179559"><ele>27.599999999999998</ele><time>2026-04-19T15:54:07.998Z</time></trkpt><trkpt lat="47.1951720050852" lon="-0.08338807117855461"><ele>28.0</ele><time>2026-04-19T15:54:09.998Z</time></trkpt><trkpt lat="47.19518579957848" lon="-0.08360171055556997"><ele>28.0</ele><time>2026-04-19T15:54:11.998Z</time></trkpt><trkpt lat="47.195178316990514" lon="-0.08371372993117844"><ele>27.999999999999996</ele><time>2026-04-19T15:54:12.998Z</time></trkpt><trkpt lat="47.19520239946225" lon="-0.08385546664641814"><ele>27.999999999999996</ele><time>2026-04-19T15:54:13.998Z</time></trkpt><trkpt lat="47.19521560776475" lon="-0.08401561569315137"><ele>28.0</ele><time>2026-04-19T15:54:14.998Z</time></trkpt><trkpt lat="47.19521980766701" lon="-0.08418334252276015"><ele>28.0</ele><time>2026-04-19T15:54:15.998Z</time></trkpt><trkpt lat="47.19523615200565" lon="-0.08436212714964676"><ele>28.0</ele><time>2026-04-19T15:54:16.998Z</time></trkpt><trkpt lat="47.19526556633682" lon="-0.08455712893438681"><ele>28.0</ele><time>2026-04-19T15:54:17.998Z</time></trkpt><trkpt lat="47.19527599214435" lon="-0.08475113529102046"><ele>28.0</ele><time>2026-04-19T15:54:18.998Z</time></trkpt><trkpt lat="47.195289402240014" lon="-0.08496561219203358"><ele>28.0</ele><time>2026-04-19T15:54:19.998Z</time></trkpt><trkpt lat="47.195322166396686" lon="-0.08518490264134325"><ele>27.333333333333336</ele><time>2026-04-19T15:54:20.998Z</time></trkpt><trkpt lat="47.19532707727382" lon="-0.08540485520406159"><ele>26.666666666666664</ele><time>2026-04-19T15:54:21.998Z</time></trkpt><trkpt lat="47.195349846438184" lon="-0.08563862836223055"><ele>26.0</ele><time>2026-04-19T15:54:22.998Z</time></trkpt><trkpt lat="47.19538656501019" lon="-0.08585579930041358"><ele>26.0</ele><time>2026-04-19T15:54:23.998Z</time></trkpt><trkpt lat="47.19540691110078" lon="-0.08606975504979356"><ele>26.0</ele><time>2026-04-19T15:54:24.998Z</time></trkpt><trkpt lat="47.19542361861467" lon="-0.08624862803601495"><ele>26.0</ele><time>2026-04-19T15:54:25.998Z</time></trkpt><trkpt lat="47.19544062975286" lon="-0.08642943192463254"><ele>26.0</ele><time>2026-04-19T15:54:26.998Z</time></trkpt><trkpt lat="47.19544636011088" lon="-0.08661997372744697"><ele>26.0</ele><time>2026-04-19T15:54:27.998Z</time></trkpt><trkpt lat="47.195476821447755" lon="-0.08680762556695223"><ele>26.0</ele><time>2026-04-19T15:54:28.998Z</time></trkpt><trkpt lat="47.19549526547123" lon="-0.08700036073076362"><ele>26.0</ele><time>2026-04-19T15:54:29.998Z</time></trkpt><trkpt lat="47.19549784321261" lon="-0.0871760236455238"><ele>26.0</ele><time>2026-04-19T15:54:30.998Z</time></trkpt><trkpt lat="47.195514830416116" lon="-0.08733595468437562"><ele>26.200000000000003</ele><time>2026-04-19T15:54:31.998Z</time></trkpt><trkpt lat="47.19554317723813" lon="-0.0874773744320606"><ele>26.400000000000002</ele><time>2026-04-19T15:54:32.998Z</time></trkpt><trkpt lat="47.195556714685914" lon="-0.08760886591250007"><ele>26.6</ele><time>2026-04-19T15:54:33.998Z</time></trkpt><trkpt lat="47.19556625278612" lon="-0.087701511066925"><ele>26.8</ele><time>2026-04-19T15:54:34.998Z</time></trkpt><trkpt lat="47.195574835034755" lon="-0.08781507426413958"><ele>27.0</ele><time>2026-04-19T15:54:37Z</time></trkpt><trkpt lat="47.19574276323618" lon="-0.08778748351122427"><ele>26.5</ele><time>2026-04-19T15:54:40Z</time></trkpt><trkpt lat="47.19585369961071" lon="-0.08775486975944222"><ele>26.0</ele><time>2026-04-19T15:54:41Z</time></trkpt><trkpt lat="47.19596869239891" lon="-0.08773647942851678"><ele>25.5</ele><time>2026-04-19T15:54:42Z</time></trkpt><trkpt lat="47.196090043602865" lon="-0.08771108930467636"><ele>25.0</ele><time>2026-04-19T15:54:43Z</time></trkpt><trkpt lat="47.196224562153624" lon="-0.08769199059128042"><ele>25.0</ele><time>2026-04-19T15:54:44Z</time></trkpt><trkpt lat="47.1963627398676" lon="-0.08767417119096148"><ele>25.0</ele><time>2026-04-19T15:54:45Z</time></trkpt><trkpt lat="47.19651018712027" lon="-0.0876514270699983"><ele>25.0</ele><time>2026-04-19T15:54:46Z</time></trkpt><trkpt lat="47.19665380938574" lon="-0.08762613847350288"><ele>25.0</ele><time>2026-04-19T15:54:47Z</time></trkpt><trkpt lat="47.196784080110085" lon="-0.08758022916813778"><ele>25.0</ele><time>2026-04-19T15:54:48Z</time></trkpt><trkpt lat="47.1969217363132" lon="-0.08756832229732273"><ele>25.0</ele><time>2026-04-19T15:54:49Z</time></trkpt><trkpt lat="47.19706022155515" lon="-0.08755684775896658"><ele>25.0</ele><time>2026-04-19T15:54:50Z</time></trkpt><trkpt lat="47.197197438005524" lon="-0.08754040011502272"><ele>25.0</ele><time>2026-04-19T15:54:51Z</time></trkpt><trkpt lat="47.19733822609906" lon="-0.08751758513159874"><ele>24.5</ele><time>2026-04-19T15:54:52Z</time></trkpt><trkpt lat="47.197474554953516" lon="-0.08749867941052347"><ele>24.0</ele><time>2026-04-19T15:54:53Z</time></trkpt><trkpt lat="47.197616204892356" lon="-0.08748167644539423"><ele>23.5</ele><time>2026-04-19T15:54:54Z</time></trkpt><trkpt lat="47.19775869001146" lon="-0.087465363103765"><ele>23.0</ele><time>2026-04-19T15:54:55Z</time></trkpt><trkpt lat="47.197904880629835" lon="-0.0874459502447706"><ele>23.5</ele><time>2026-04-19T15:54:56Z</time></trkpt><trkpt lat="47.19804215211123" lon="-0.08742369967312136"><ele>24.0</ele><time>2026-04-19T15:54:56.999Z</time></trkpt><trkpt lat="47.198161822019394" lon="-0.08741203227614529"><ele>24.5</ele><time>2026-04-19T15:54:57.999Z</time></trkpt><trkpt lat="47.198271527154965" lon="-0.0873936950276114"><ele>25.0</ele><time>2026-04-19T15:54:58.999Z</time></trkpt><trkpt lat="47.19838964243396" lon="-0.08737371893495756"><ele>25.25</ele><time>2026-04-19T15:54:59.999Z</time></trkpt><trkpt lat="47.19851200312619" lon="-0.08735250159904241"><ele>25.5</ele><time>2026-04-19T15:55:00.999Z</time></trkpt><trkpt lat="47.19864483211656" lon="-0.08733241488631063"><ele>25.75</ele><time>2026-04-19T15:55:01.999Z</time></trkpt><trkpt lat="47.19879925615719" lon="-0.08730258518968095"><ele>26.0</ele><time>2026-04-19T15:55:02.999Z</time></trkpt><trkpt lat="47.19895341627295" lon="-0.08727944433664762"><ele>25.8</ele><time>2026-04-19T15:55:03.999Z</time></trkpt><trkpt lat="47.19909753594561" lon="-0.0872692311191328"><ele>25.6</ele><time>2026-04-19T15:55:04.999Z</time></trkpt><trkpt lat="47.19917154947054" lon="-0.08724210127542321"><ele>25.4</ele><time>2026-04-19T15:55:05.999Z</time></trkpt><trkpt lat="47.19925025111294" lon="-0.0872156434577759"><ele>25.2</ele><time>2026-04-19T15:55:06.999Z</time></trkpt><trkpt lat="47.19931805172731" lon="-0.08718756050701694"><ele>25.0</ele><time>2026-04-19T15:55:07.999Z</time></trkpt><trkpt lat="47.19956287441937" lon="-0.08719047443751646"><ele>25.0</ele><time>2026-04-19T15:55:08.999Z</time></trkpt><trkpt lat="47.19966913220627" lon="-0.08717483798044677"><ele>25.0</ele><time>2026-04-19T15:55:09.999Z</time></trkpt><trkpt lat="47.19978694748846" lon="-0.08715556310122916"><ele>25.0</ele><time>2026-04-19T15:55:10.999Z</time></trkpt><trkpt lat="47.1999098547629" lon="-0.08713474747265938"><ele>25.0</ele><time>2026-04-19T15:55:11.999Z</time></trkpt><trkpt lat="47.20003587940908" lon="-0.0871162095613011"><ele>24.5</ele><time>2026-04-19T15:55:12.999Z</time></trkpt><trkpt lat="47.20016981691419" lon="-0.0870958598809798"><ele>24.0</ele><time>2026-04-19T15:55:13.999Z</time></trkpt><trkpt lat="47.20029773304364" lon="-0.08707775109580287"><ele>23.5</ele><time>2026-04-19T15:55:14.999Z</time></trkpt><trkpt lat="47.20042293411285" lon="-0.08706339566986683"><ele>23.0</ele><time>2026-04-19T15:55:15.999Z</time></trkpt><trkpt lat="47.20055848265541" lon="-0.0870465310706389"><ele>23.25</ele><time>2026-04-19T15:55:16.999Z</time></trkpt><trkpt lat="47.20069710575911" lon="-0.08702810763104797"><ele>23.5</ele><time>2026-04-19T15:55:17.999Z</time></trkpt><trkpt lat="47.20083862935693" lon="-0.08700997292682545"><ele>23.75</ele><time>2026-04-19T15:55:18.999Z</time></trkpt><trkpt lat="47.20097288172588" lon="-0.08699090937390971"><ele>24.0</ele><time>2026-04-19T15:55:19.999Z</time></trkpt><trkpt lat="47.20109857589346" lon="-0.08697699367840626"><ele>24.0</ele><time>2026-04-19T15:55:20.999Z</time></trkpt><trkpt lat="47.20124256676033" lon="-0.0869533775929771"><ele>24.0</ele><time>2026-04-19T15:55:21.999Z</time></trkpt><trkpt lat="47.20139966210779" lon="-0.08693636305491252"><ele>24.0</ele><time>2026-04-19T15:55:22.999Z</time></trkpt><trkpt lat="47.201536779753596" lon="-0.08691246794490769"><ele>24.0</ele><time>2026-04-19T15:55:23.999Z</time></trkpt><trkpt lat="47.201660812543615" lon="-0.08689106997016084"><ele>24.25</ele><time>2026-04-19T15:55:24.999Z</time></trkpt><trkpt lat="47.201772817474875" lon="-0.08687166313141051"><ele>24.5</ele><time>2026-04-19T15:55:25.999Z</time></trkpt><trkpt lat="47.20188139743532" lon="-0.08685089395034017"><ele>24.75</ele><time>2026-04-19T15:55:26.999Z</time></trkpt><trkpt lat="47.20199905236662" lon="-0.08683034798839874"><ele>25.0</ele><time>2026-04-19T15:55:27.999Z</time></trkpt><trkpt lat="47.202117866201384" lon="-0.08680973681330362"><ele>25.000000000000004</ele><time>2026-04-19T15:55:28.999Z</time></trkpt><trkpt lat="47.202223094726065" lon="-0.08679514426292452"><ele>25.0</ele><time>2026-04-19T15:55:29.999Z</time></trkpt><trkpt lat="47.20229524796095" lon="-0.08678659979731233"><ele>25.0</ele><time>2026-04-19T15:55:30.999Z</time></trkpt><trkpt lat="47.20236162990275" lon="-0.08678480605636772"><ele>25.0</ele><time>2026-04-19T15:55:31.999Z</time></trkpt><trkpt lat="47.202470390446884" lon="-0.08686371220902657"><ele>25.000000000000004</ele><time>2026-04-19T15:55:33.999Z</time></trkpt><trkpt lat="47.202499936682045" lon="-0.08695116983382524"><ele>25.0</ele><time>2026-04-19T15:55:34.999Z</time></trkpt><trkpt lat="47.20249487660782" lon="-0.08713858523853023"><ele>25.4</ele><time>2026-04-19T15:55:36.999Z</time></trkpt><trkpt lat="47.20249647867834" lon="-0.08730808348866197"><ele>25.8</ele><time>2026-04-19T15:55:38.999Z</time></trkpt><trkpt lat="47.202521560370855" lon="-0.08745877009951603"><ele>26.200000000000003</ele><time>2026-04-19T15:55:40.999Z</time></trkpt><trkpt lat="47.20254576623864" lon="-0.08762708296188572"><ele>26.6</ele><time>2026-04-19T15:55:42.999Z</time></trkpt><trkpt lat="47.20255603660967" lon="-0.08774244687948307"><ele>27.0</ele><time>2026-04-19T15:55:43.999Z</time></trkpt><trkpt lat="47.20256280826261" lon="-0.08785697957399101"><ele>27.0</ele><time>2026-04-19T15:55:44.999Z</time></trkpt><trkpt lat="47.20256275347531" lon="-0.08797280648563956"><ele>27.0</ele><time>2026-04-19T15:55:45.999Z</time></trkpt><trkpt lat="47.202565161590144" lon="-0.08807455288010535"><ele>27.0</ele><time>2026-04-19T15:55:46.999Z</time></trkpt><trkpt lat="47.20257455312349" lon="-0.08816851749050274"><ele>27.0</ele><time>2026-04-19T15:55:47.999Z</time></trkpt><trkpt lat="47.20258371246776" lon="-0.08832823165102206"><ele>27.0</ele><time>2026-04-19T15:55:49.999Z</time></trkpt><trkpt lat="47.2025977674355" lon="-0.08846394097130275"><ele>27.0</ele><time>2026-04-19T15:55:51.999Z</time></trkpt><trkpt lat="47.202618527754865" lon="-0.0883452869216336"><ele>27.0</ele><time>2026-04-19T15:55:57.999Z</time></trkpt><trkpt lat="47.20279731038154" lon="-0.08818158273610509"><ele>27.0</ele><time>2026-04-19T15:56:00.999Z</time></trkpt><trkpt lat="47.20286636258275" lon="-0.08810935280758088"><ele>27.0</ele><time>2026-04-19T15:56:02.999Z</time></trkpt><trkpt lat="47.202934821412526" lon="-0.08803373673446785"><ele>27.0</ele><time>2026-04-19T15:56:04.999Z</time></trkpt><trkpt lat="47.202998679181064" lon="-0.08794814169850204"><ele>27.0</ele><time>2026-04-19T15:56:06.999Z</time></trkpt><trkpt lat="47.20303836688475" lon="-0.0878625619708928"><ele>27.0</ele><time>2026-04-19T15:56:08.999Z</time></trkpt><trkpt lat="47.203056097848986" lon="-0.08776601272292486"><ele>27.0</ele><time>2026-04-19T15:56:10.999Z</time></trkpt><trkpt lat="47.20312293036697" lon="-0.08776227088410914"><ele>27.0</ele><time>2026-04-19T15:56:12.999Z</time></trkpt><trkpt lat="47.203078764552174" lon="-0.08788892044466072"><ele>27.0</ele><time>2026-04-19T15:56:15.999Z</time></trkpt><trkpt lat="47.20299675086225" lon="-0.08798103981221175"><ele>27.0</ele><time>2026-04-19T15:56:16.998Z</time></trkpt><trkpt lat="47.202904671367996" lon="-0.08806138903848637"><ele>27.0</ele><time>2026-04-19T15:56:17.998Z</time></trkpt><trkpt lat="47.20282768793251" lon="-0.08814871386751134"><ele>27.000000000000004</ele><time>2026-04-19T15:56:18.998Z</time></trkpt><trkpt lat="47.20275281395864" lon="-0.08824251614737627"><ele>27.000000000000004</ele><time>2026-04-19T15:56:19.998Z</time></trkpt><trkpt lat="47.20269617276741" lon="-0.08834607334873289"><ele>27.0</ele><time>2026-04-19T15:56:20.998Z</time></trkpt><trkpt lat="47.20266223989753" lon="-0.08843780222818744"><ele>27.0</ele><time>2026-04-19T15:56:21.998Z</time></trkpt><trkpt lat="47.202629886849806" lon="-0.08858146819167817"><ele>26.8</ele><time>2026-04-19T15:56:23.998Z</time></trkpt><trkpt lat="47.202680554023424" lon="-0.08877479283616424"><ele>26.6</ele><time>2026-04-19T15:56:25.998Z</time></trkpt><trkpt lat="47.20271562755043" lon="-0.08888197509478016"><ele>26.400000000000002</ele><time>2026-04-19T15:56:26.998Z</time></trkpt><trkpt lat="47.202745602152255" lon="-0.08902359116224819"><ele>26.200000000000003</ele><time>2026-04-19T15:56:27.998Z</time></trkpt><trkpt lat="47.20279411847778" lon="-0.08915585549332558"><ele>26.0</ele><time>2026-04-19T15:56:28.998Z</time></trkpt><trkpt lat="47.20282818066117" lon="-0.08928418591297488"><ele>25.8</ele><time>2026-04-19T15:56:29.998Z</time></trkpt><trkpt lat="47.20285170540303" lon="-0.08937149955694394"><ele>25.6</ele><time>2026-04-19T15:56:30.998Z</time></trkpt><trkpt lat="47.20287843907528" lon="-0.08947041638618719"><ele>25.4</ele><time>2026-04-19T15:56:31.998Z</time></trkpt><trkpt lat="47.20291612328954" lon="-0.08959698200643867"><ele>25.2</ele><time>2026-04-19T15:56:33.998Z</time></trkpt><trkpt lat="47.20303099503002" lon="-0.08950569211618906"><ele>25.0</ele><time>2026-04-19T15:56:35.998Z</time></trkpt><trkpt lat="47.203105796217045" lon="-0.08943348128089197"><ele>25.25</ele><time>2026-04-19T15:56:36.998Z</time></trkpt><trkpt lat="47.203202067130235" lon="-0.08936246662209774"><ele>25.5</ele><time>2026-04-19T15:56:37.998Z</time></trkpt><trkpt lat="47.203307973060355" lon="-0.0893067691978486"><ele>25.75</ele><time>2026-04-19T15:56:38.998Z</time></trkpt><trkpt lat="47.20341331343337" lon="-0.0892499375433205"><ele>26.0</ele><time>2026-04-19T15:56:39.998Z</time></trkpt><trkpt lat="47.2035288339148" lon="-0.08919340251110555"><ele>26.0</ele><time>2026-04-19T15:56:40.998Z</time></trkpt><trkpt lat="47.203641266730564" lon="-0.08914246719835002"><ele>26.0</ele><time>2026-04-19T15:56:42Z</time></trkpt><trkpt lat="47.20375701101877" lon="-0.08909638874528034"><ele>26.0</ele><time>2026-04-19T15:56:43Z</time></trkpt><trkpt lat="47.20388294942664" lon="-0.08904675959744109"><ele>26.0</ele><time>2026-04-19T15:56:44Z</time></trkpt><trkpt lat="47.20402825791577" lon="-0.08899964908927617"><ele>26.0</ele><time>2026-04-19T15:56:45Z</time></trkpt><trkpt lat="47.20417340111837" lon="-0.08896183078038156"><ele>26.0</ele><time>2026-04-19T15:56:46Z</time></trkpt><trkpt lat="47.2042928458005" lon="-0.08893841464133433"><ele>26.0</ele><time>2026-04-19T15:56:47Z</time></trkpt><trkpt lat="47.20439769995772" lon="-0.08891238357636665"><ele>26.0</ele><time>2026-04-19T15:56:48Z</time></trkpt><trkpt lat="47.2045010017712" lon="-0.08888068028835806"><ele>26.0</ele><time>2026-04-19T15:56:49Z</time></trkpt><trkpt lat="47.20460067167612" lon="-0.08886652967386834"><ele>26.0</ele><time>2026-04-19T15:56:50Z</time></trkpt><trkpt lat="47.20470610489781" lon="-0.08884255292137165"><ele>26.0</ele><time>2026-04-19T15:56:51Z</time></trkpt><trkpt lat="47.204807472417606" lon="-0.08881924814196647"><ele>26.0</ele><time>2026-04-19T15:56:52Z</time></trkpt><trkpt lat="47.20491245348675" lon="-0.08880534187801725"><ele>26.0</ele><time>2026-04-19T15:56:53Z</time></trkpt><trkpt lat="47.20501006976094" lon="-0.08879095086959533"><ele>25.999999999999996</ele><time>2026-04-19T15:56:54Z</time></trkpt><trkpt lat="47.20509706541429" lon="-0.08877433084960665"><ele>26.0</ele><time>2026-04-19T15:56:55Z</time></trkpt><trkpt lat="47.20517836115914" lon="-0.08875312103761507"><ele>26.0</ele><time>2026-04-19T15:56:56Z</time></trkpt><trkpt lat="47.20525573162164" lon="-0.08873686948269228"><ele>26.0</ele><time>2026-04-19T15:56:57Z</time></trkpt><trkpt lat="47.205337864606406" lon="-0.08871972815364564"><ele>25.999999999999996</ele><time>2026-04-19T15:56:58Z</time></trkpt><trkpt lat="47.20541848012283" lon="-0.08870321816131699"><ele>26.0</ele><time>2026-04-19T15:56:59Z</time></trkpt><trkpt lat="47.205516001164476" lon="-0.08866999669998468"><ele>26.0</ele><time>2026-04-19T15:57:01Z</time></trkpt><trkpt lat="47.20553589079301" lon="-0.08851799916490613"><ele>26.0</ele><time>2026-04-19T15:57:03Z</time></trkpt><trkpt lat="47.205524425130264" lon="-0.08839439920962519"><ele>26.0</ele><time>2026-04-19T15:57:04Z</time></trkpt><trkpt lat="47.205517932895354" lon="-0.08824699656385677"><ele>26.0</ele><time>2026-04-19T15:57:04.999Z</time></trkpt><trkpt lat="47.2055103722658" lon="-0.08807816373408214"><ele>26.0</ele><time>2026-04-19T15:57:05.999Z</time></trkpt><trkpt lat="47.20550655260756" lon="-0.08790805341985629"><ele>25.833333333333332</ele><time>2026-04-19T15:57:06.999Z</time></trkpt><trkpt lat="47.20550148426591" lon="-0.08776257543495906"><ele>25.666666666666664</ele><time>2026-04-19T15:57:07.999Z</time></trkpt><trkpt lat="47.20549898064201" lon="-0.08763849743475614"><ele>25.5</ele><time>2026-04-19T15:57:08.999Z</time></trkpt><trkpt lat="47.20550032693541" lon="-0.08753421918789"><ele>25.333333333333336</ele><time>2026-04-19T15:57:09.999Z</time></trkpt><trkpt lat="47.20551865384745" lon="-0.08743339883183472"><ele>25.166666666666668</ele><time>2026-04-19T15:57:10.999Z</time></trkpt><trkpt lat="47.205573105453006" lon="-0.08736728759736864"><ele>25.0</ele><time>2026-04-19T15:57:11.999Z</time></trkpt><trkpt lat="47.20565085369697" lon="-0.08732609884793316"><ele>25.2</ele><time>2026-04-19T15:57:12.999Z</time></trkpt><trkpt lat="47.20574866869956" lon="-0.08730343723087265"><ele>25.4</ele><time>2026-04-19T15:57:13.999Z</time></trkpt><trkpt lat="47.2058583189294" lon="-0.08727835061590462"><ele>25.6</ele><time>2026-04-19T15:57:14.999Z</time></trkpt><trkpt lat="47.205959683587324" lon="-0.0872434263130006"><ele>25.8</ele><time>2026-04-19T15:57:15.999Z</time></trkpt><trkpt lat="47.206040244505836" lon="-0.08719550366026103"><ele>26.0</ele><time>2026-04-19T15:57:16.999Z</time></trkpt><trkpt lat="47.206103652583884" lon="-0.08714328010754531"><ele>26.0</ele><time>2026-04-19T15:57:17.999Z</time></trkpt><trkpt lat="47.206164736427326" lon="-0.08706873522579757"><ele>26.0</ele><time>2026-04-19T15:57:18.999Z</time></trkpt><trkpt lat="47.20619673850475" lon="-0.0869628971758467"><ele>26.0</ele><time>2026-04-19T15:57:19.999Z</time></trkpt><trkpt lat="47.20621183651022" lon="-0.08681852723784214"><ele>26.0</ele><time>2026-04-19T15:57:20.999Z</time></trkpt><trkpt lat="47.20621906743317" lon="-0.08665239391771049"><ele>26.0</ele><time>2026-04-19T15:57:21.999Z</time></trkpt><trkpt lat="47.20623451275682" lon="-0.08650662304662855"><ele>26.0</ele><time>2026-04-19T15:57:22.999Z</time></trkpt><trkpt lat="47.20625765387097" lon="-0.08640069674774321"><ele>26.0</ele><time>2026-04-19T15:57:23.999Z</time></trkpt><trkpt lat="47.206359612620155" lon="-0.08627941826436682"><ele>26.0</ele><time>2026-04-19T15:57:25.999Z</time></trkpt><trkpt lat="47.20644525997184" lon="-0.08626206697231006"><ele>26.0</ele><time>2026-04-19T15:57:26.999Z</time></trkpt><trkpt lat="47.206564085315655" lon="-0.08623983076269498"><ele>26.0</ele><time>2026-04-19T15:57:27.999Z</time></trkpt><trkpt lat="47.20669925139304" lon="-0.08620467416980633"><ele>26.0</ele><time>2026-04-19T15:57:28.999Z</time></trkpt><trkpt lat="47.20683532054883" lon="-0.08615617967994567"><ele>26.0</ele><time>2026-04-19T15:57:29.999Z</time></trkpt><trkpt lat="47.20697655732896" lon="-0.08609783356198748"><ele>26.0</ele><time>2026-04-19T15:57:30.999Z</time></trkpt><trkpt lat="47.207125284397534" lon="-0.0860249040543817"><ele>26.0</ele><time>2026-04-19T15:57:31.999Z</time></trkpt><trkpt lat="47.20727079344174" lon="-0.08596466849319027"><ele>26.75</ele><time>2026-04-19T15:57:32.999Z</time></trkpt><trkpt lat="47.20740344498269" lon="-0.0859212918849834"><ele>27.5</ele><time>2026-04-19T15:57:33.999Z</time></trkpt><trkpt lat="47.20753585521219" lon="-0.08590182088705216"><ele>28.25</ele><time>2026-04-19T15:57:34.999Z</time></trkpt><trkpt lat="47.20767194352977" lon="-0.08588783752905577"><ele>29.0</ele><time>2026-04-19T15:57:35.999Z</time></trkpt><trkpt lat="47.207806789478006" lon="-0.08587480738536402"><ele>29.0</ele><time>2026-04-19T15:57:36.999Z</time></trkpt><trkpt lat="47.207929054770894" lon="-0.08584887637132572"><ele>29.0</ele><time>2026-04-19T15:57:37.999Z</time></trkpt><trkpt lat="47.20806824664051" lon="-0.08581578665496108"><ele>29.0</ele><time>2026-04-19T15:57:38.999Z</time></trkpt><trkpt lat="47.20819839055425" lon="-0.08578418508937305"><ele>29.0</ele><time>2026-04-19T15:57:39.999Z</time></trkpt><trkpt lat="47.208317816711414" lon="-0.08576831045123559"><ele>29.0</ele><time>2026-04-19T15:57:40.999Z</time></trkpt><trkpt lat="47.20842695137181" lon="-0.08576530807196121"><ele>29.0</ele><time>2026-04-19T15:57:41.999Z</time></trkpt><trkpt lat="47.20853372287261" lon="-0.08576033957163919"><ele>29.0</ele><time>2026-04-19T15:57:42.999Z</time></trkpt><trkpt lat="47.20865515393282" lon="-0.08576555584780228"><ele>29.0</ele><time>2026-04-19T15:57:43.999Z</time></trkpt><trkpt lat="47.20879104360478" lon="-0.08576022836156774"><ele>29.0</ele><time>2026-04-19T15:57:44.999Z</time></trkpt><trkpt lat="47.20891738435611" lon="-0.08576784132363684"><ele>29.0</ele><time>2026-04-19T15:57:45.999Z</time></trkpt><trkpt lat="47.20904998375891" lon="-0.08576820130643012"><ele>29.0</ele><time>2026-04-19T15:57:46.999Z</time></trkpt><trkpt lat="47.20917625379905" lon="-0.08575888824457788"><ele>29.0</ele><time>2026-04-19T15:57:47.999Z</time></trkpt><trkpt lat="47.20928771146363" lon="-0.08573953701783892"><ele>28.0</ele><time>2026-04-19T15:57:48.999Z</time></trkpt><trkpt lat="47.20940297960993" lon="-0.08572438938875786"><ele>27.0</ele><time>2026-04-19T15:57:49.999Z</time></trkpt><trkpt lat="47.20952498337138" lon="-0.08570230953281839"><ele>26.0</ele><time>2026-04-19T15:57:50.999Z</time></trkpt><trkpt lat="47.209636877385336" lon="-0.08567574686136076"><ele>25.0</ele><time>2026-04-19T15:57:51.999Z</time></trkpt><trkpt lat="47.20973756587957" lon="-0.08565961012973639"><ele>25.333333333333336</ele><time>2026-04-19T15:57:52.999Z</time></trkpt><trkpt lat="47.20982678060478" lon="-0.0856483752152567"><ele>25.666666666666668</ele><time>2026-04-19T15:57:53.999Z</time></trkpt><trkpt lat="47.20989321824907" lon="-0.08563619116029483"><ele>26.0</ele><time>2026-04-19T15:57:54.999Z</time></trkpt><trkpt lat="47.20996458026452" lon="-0.08562953400389055"><ele>26.333333333333336</ele><time>2026-04-19T15:57:56.999Z</time></trkpt><trkpt lat="47.21002680535409" lon="-0.08567208594561938"><ele>26.666666666666668</ele><time>2026-04-19T15:58:01.999Z</time></trkpt><trkpt lat="47.21012871846828" lon="-0.08568674899757281"><ele>27.0</ele><time>2026-04-19T15:58:05.999Z</time></trkpt><trkpt lat="47.210228132345414" lon="-0.08564070092536506"><ele>27.0</ele><time>2026-04-19T15:58:07.999Z</time></trkpt><trkpt lat="47.210273875338316" lon="-0.08557192948753865"><ele>27.0</ele><time>2026-04-19T15:58:08.999Z</time></trkpt><trkpt lat="47.21034108506387" lon="-0.08549064250330614"><ele>27.0</ele><time>2026-04-19T15:58:09.999Z</time></trkpt><trkpt lat="47.210417406865744" lon="-0.08543396439152866"><ele>27.0</ele><time>2026-04-19T15:58:10.999Z</time></trkpt><trkpt lat="47.210507390104986" lon="-0.08540091555944523"><ele>27.0</ele><time>2026-04-19T15:58:11.999Z</time></trkpt><trkpt lat="47.21061813843459" lon="-0.08535703588597891"><ele>27.0</ele><time>2026-04-19T15:58:12.999Z</time></trkpt><trkpt lat="47.210723309257304" lon="-0.08532012489074225"><ele>26.75</ele><time>2026-04-19T15:58:13.999Z</time></trkpt><trkpt lat="47.210830910297744" lon="-0.08529823672677536"><ele>26.5</ele><time>2026-04-19T15:58:14.999Z</time></trkpt><trkpt lat="47.21094513868139" lon="-0.08528506220721083"><ele>26.25</ele><time>2026-04-19T15:58:15.999Z</time></trkpt><trkpt lat="47.211064854557264" lon="-0.08530299734309152"><ele>26.0</ele><time>2026-04-19T15:58:16.999Z</time></trkpt><trkpt lat="47.2111941063462" lon="-0.08533867400815877"><ele>26.0</ele><time>2026-04-19T15:58:17.999Z</time></trkpt><trkpt lat="47.211322888413854" lon="-0.08535217033643797"><ele>26.0</ele><time>2026-04-19T15:58:18.999Z</time></trkpt><trkpt lat="47.21143903592602" lon="-0.08534645042409245"><ele>26.0</ele><time>2026-04-19T15:58:19.999Z</time></trkpt><trkpt lat="47.211552667164966" lon="-0.08533850860066047"><ele>26.0</ele><time>2026-04-19T15:58:20.998Z</time></trkpt><trkpt lat="47.21167168302709" lon="-0.08534115727984856"><ele>26.0</ele><time>2026-04-19T15:58:21.998Z</time></trkpt><trkpt lat="47.21179963127951" lon="-0.08534701173165514"><ele>26.0</ele><time>2026-04-19T15:58:22.998Z</time></trkpt><trkpt lat="47.2119275400589" lon="-0.08535155035217883"><ele>26.0</ele><time>2026-04-19T15:58:23.998Z</time></trkpt><trkpt lat="47.21205541138588" lon="-0.08535397030074675"><ele>26.0</ele><time>2026-04-19T15:58:24.998Z</time></trkpt><trkpt lat="47.212190717229674" lon="-0.08536295259044688"><ele>25.75</ele><time>2026-04-19T15:58:25.998Z</time></trkpt><trkpt lat="47.212326293449934" lon="-0.08537499913371892"><ele>25.5</ele><time>2026-04-19T15:58:26.998Z</time></trkpt><trkpt lat="47.21244556117218" lon="-0.0853811562425368"><ele>25.25</ele><time>2026-04-19T15:58:27.998Z</time></trkpt><trkpt lat="47.212552036016284" lon="-0.08538764006018507"><ele>25.0</ele><time>2026-04-19T15:58:28.998Z</time></trkpt><trkpt lat="47.212668908974" lon="-0.08538875547859988"><ele>25.0</ele><time>2026-04-19T15:58:29.998Z</time></trkpt><trkpt lat="47.212794396436514" lon="-0.08539855962090424"><ele>25.0</ele><time>2026-04-19T15:58:30.998Z</time></trkpt><trkpt lat="47.2129254743279" lon="-0.08540187117992505"><ele>25.0</ele><time>2026-04-19T15:58:31.998Z</time></trkpt><trkpt lat="47.213055525595244" lon="-0.08541130518139059"><ele>25.0</ele><time>2026-04-19T15:58:32.998Z</time></trkpt><trkpt lat="47.21316821004606" lon="-0.08541515749110401"><ele>25.5</ele><time>2026-04-19T15:58:33.998Z</time></trkpt><trkpt lat="47.2132853569708" lon="-0.08541923348484527"><ele>26.0</ele><time>2026-04-19T15:58:34.998Z</time></trkpt><trkpt lat="47.21340591212526" lon="-0.08542215429991697"><ele>26.5</ele><time>2026-04-19T15:58:35.998Z</time></trkpt><trkpt lat="47.213534793324506" lon="-0.08542313193903532"><ele>27.0</ele><time>2026-04-19T15:58:36.998Z</time></trkpt><trkpt lat="47.21366349167647" lon="-0.08543268811280581"><ele>27.0</ele><time>2026-04-19T15:58:37.998Z</time></trkpt><trkpt lat="47.21379396354784" lon="-0.08543948147297412"><ele>27.0</ele><time>2026-04-19T15:58:38.998Z</time></trkpt><trkpt lat="47.21393419047307" lon="-0.08544376412324577"><ele>27.0</ele><time>2026-04-19T15:58:39.998Z</time></trkpt><trkpt lat="47.214069986560155" lon="-0.0854522845873127"><ele>27.0</ele><time>2026-04-19T15:58:40.998Z</time></trkpt><trkpt lat="47.21418700566833" lon="-0.0854580321401137"><ele>27.0</ele><time>2026-04-19T15:58:41.998Z</time></trkpt><trkpt lat="47.21430846441452" lon="-0.08546361734674274"><ele>27.0</ele><time>2026-04-19T15:58:42.998Z</time></trkpt><trkpt lat="47.21445238130174" lon="-0.08547093091737157"><ele>27.0</ele><time>2026-04-19T15:58:43.998Z</time></trkpt><trkpt lat="47.21459740490231" lon="-0.08547711731183454"><ele>27.0</ele><time>2026-04-19T15:58:44.998Z</time></trkpt><trkpt lat="47.214726946203506" lon="-0.08548573228337807"><ele>27.0</ele><time>2026-04-19T15:58:45.998Z</time></trkpt><trkpt lat="47.214863396985876" lon="-0.08549316470206493"><ele>27.0</ele><time>2026-04-19T15:58:46.998Z</time></trkpt><trkpt lat="47.21498211543753" lon="-0.08550267371655436"><ele>27.0</ele><time>2026-04-19T15:58:48Z</time></trkpt><trkpt lat="47.21508814179164" lon="-0.08550791503827233"><ele>27.0</ele><time>2026-04-19T15:58:49Z</time></trkpt><trkpt lat="47.21518795836191" lon="-0.08551376781751101"><ele>27.0</ele><time>2026-04-19T15:58:50Z</time></trkpt><trkpt lat="47.215276156838456" lon="-0.0855196444193426"><ele>27.000000000000004</ele><time>2026-04-19T15:58:51Z</time></trkpt><trkpt lat="47.215340690432086" lon="-0.08552913574092429"><ele>27.000000000000004</ele><time>2026-04-19T15:58:52Z</time></trkpt><trkpt lat="47.21542183173433" lon="-0.08554375532353413"><ele>27.0</ele><time>2026-04-19T15:58:54Z</time></trkpt><trkpt lat="47.21547934767639" lon="-0.08543421032998494"><ele>27.0</ele><time>2026-04-19T15:58:57Z</time></trkpt><trkpt lat="47.21546417217668" lon="-0.08524438011624089"><ele>27.0</ele><time>2026-04-19T15:58:59Z</time></trkpt><trkpt lat="47.215466173148755" lon="-0.08514298926883825"><ele>27.0</ele><time>2026-04-19T15:59:00Z</time></trkpt><trkpt lat="47.215475464886445" lon="-0.08499096579471167"><ele>27.0</ele><time>2026-04-19T15:59:02Z</time></trkpt><trkpt lat="47.21547825300108" lon="-0.08486285556230543"><ele>27.0</ele><time>2026-04-19T15:59:04Z</time></trkpt><trkpt lat="47.21549864214152" lon="-0.08501660439600688"><ele>27.0</ele><time>2026-04-19T15:59:20.999Z</time></trkpt><trkpt lat="47.21548022610107" lon="-0.08511137254346982"><ele>27.0</ele><time>2026-04-19T15:59:21.999Z</time></trkpt><trkpt lat="47.215499540409" lon="-0.0852086628168654"><ele>27.0</ele><time>2026-04-19T15:59:22.999Z</time></trkpt><trkpt lat="47.21549262580016" lon="-0.08530613547698862"><ele>27.0</ele><time>2026-04-19T15:59:23.999Z</time></trkpt><trkpt lat="47.215486824708535" lon="-0.08541923095289458"><ele>27.0</ele><time>2026-04-19T15:59:24.999Z</time></trkpt><trkpt lat="47.21548307851932" lon="-0.08554831363744946"><ele>27.0</ele><time>2026-04-19T15:59:25.999Z</time></trkpt><trkpt lat="47.21547915264415" lon="-0.08568961827193793"><ele>27.0</ele><time>2026-04-19T15:59:26.999Z</time></trkpt><trkpt lat="47.21547194216077" lon="-0.08580164023837257"><ele>27.0</ele><time>2026-04-19T15:59:27.999Z</time></trkpt><trkpt lat="47.21546307475382" lon="-0.08595818390876801"><ele>27.0</ele><time>2026-04-19T15:59:29.999Z</time></trkpt><trkpt lat="47.21553082390715" lon="-0.08596587115687877"><ele>27.0</ele><time>2026-04-19T15:59:31.999Z</time></trkpt><trkpt lat="47.215637363080816" lon="-0.0859535421741656"><ele>27.0</ele><time>2026-04-19T15:59:33.999Z</time></trkpt><trkpt lat="47.215721128806116" lon="-0.08596606329348294"><ele>27.0</ele><time>2026-04-19T15:59:34.999Z</time></trkpt><trkpt lat="47.21581401507766" lon="-0.08597071963506138"><ele>27.0</ele><time>2026-04-19T15:59:35.999Z</time></trkpt><trkpt lat="47.215898628680364" lon="-0.08597338571468495"><ele>27.0</ele><time>2026-04-19T15:59:36.999Z</time></trkpt><trkpt lat="47.215983182383525" lon="-0.08597039429589567"><ele>27.0</ele><time>2026-04-19T15:59:37.999Z</time></trkpt><trkpt lat="47.21605114503613" lon="-0.08597150785322977"><ele>27.0</ele><time>2026-04-19T15:59:38.999Z</time></trkpt><trkpt lat="47.216126180791576" lon="-0.08597344237859882"><ele>27.0</ele><time>2026-04-19T15:59:39.999Z</time></trkpt><trkpt lat="47.216193218744074" lon="-0.08597970986192457"><ele>27.0</ele><time>2026-04-19T15:59:40.999Z</time></trkpt><trkpt lat="47.21625702543813" lon="-0.08597748019004627"><ele>27.0</ele><time>2026-04-19T15:59:41.999Z</time></trkpt><trkpt lat="47.21632273083502" lon="-0.08597599128516487"><ele>27.0</ele><time>2026-04-19T15:59:42.999Z</time></trkpt><trkpt lat="47.21639529747855" lon="-0.08596904773874733"><ele>27.0</ele><time>2026-04-19T15:59:43.999Z</time></trkpt><trkpt lat="47.21647483750666" lon="-0.08595978893295379"><ele>27.0</ele><time>2026-04-19T15:59:44.999Z</time></trkpt><trkpt lat="47.216545359684986" lon="-0.08594989318791534"><ele>27.0</ele><time>2026-04-19T15:59:45.999Z</time></trkpt><trkpt lat="47.216666416995196" lon="-0.08595979519098611"><ele>27.0</ele><time>2026-04-19T15:59:47.999Z</time></trkpt><trkpt lat="47.21673530386256" lon="-0.08598111040010681"><ele>27.0</ele><time>2026-04-19T15:59:48.999Z</time></trkpt><trkpt lat="47.21681548768547" lon="-0.08600967723434022"><ele>27.0</ele><time>2026-04-19T15:59:49.999Z</time></trkpt><trkpt lat="47.21688528884134" lon="-0.08602951871430181"><ele>27.0</ele><time>2026-04-19T15:59:50.999Z</time></trkpt><trkpt lat="47.21694927337271" lon="-0.08603673850487994"><ele>27.0</ele><time>2026-04-19T15:59:51.999Z</time></trkpt><trkpt lat="47.21701401648641" lon="-0.08604129604013684"><ele>27.0</ele><time>2026-04-19T15:59:52.999Z</time></trkpt><trkpt lat="47.21707730863905" lon="-0.08604762788636945"><ele>27.0</ele><time>2026-04-19T15:59:53.999Z</time></trkpt><trkpt lat="47.21720687905889" lon="-0.08604513518740017"><ele>27.0</ele><time>2026-04-19T15:59:55.999Z</time></trkpt><trkpt lat="47.21728301463138" lon="-0.08604981975600483"><ele>27.0</ele><time>2026-04-19T15:59:56.999Z</time></trkpt><trkpt lat="47.21735315988153" lon="-0.08604499428164478"><ele>27.0</ele><time>2026-04-19T15:59:57.999Z</time></trkpt><trkpt lat="47.217483549215956" lon="-0.08602651174622888"><ele>26.5</ele><time>2026-04-19T15:59:59.999Z</time></trkpt><trkpt lat="47.217548171287696" lon="-0.08602829235846107"><ele>26.0</ele><time>2026-04-19T16:00:00.999Z</time></trkpt><trkpt lat="47.217668695427065" lon="-0.08605394845423625"><ele>25.5</ele><time>2026-04-19T16:00:02.999Z</time></trkpt><trkpt lat="47.21773301777825" lon="-0.08607911444896378"><ele>25.0</ele><time>2026-04-19T16:00:03.999Z</time></trkpt><trkpt lat="47.217807340809955" lon="-0.08610311108054063"><ele>24.5</ele><time>2026-04-19T16:00:04.999Z</time></trkpt><trkpt lat="47.217880095938334" lon="-0.08612082698336763"><ele>24.0</ele><time>2026-04-19T16:00:05.999Z</time></trkpt><trkpt lat="47.21796291840474" lon="-0.08614379827487834"><ele>24.0</ele><time>2026-04-19T16:00:06.999Z</time></trkpt><trkpt lat="47.21802739752791" lon="-0.08615791956115479"><ele>24.0</ele><time>2026-04-19T16:00:07.999Z</time></trkpt><trkpt lat="47.21815347253558" lon="-0.08616968482221027"><ele>24.0</ele><time>2026-04-19T16:00:09.999Z</time></trkpt><trkpt lat="47.21825288777746" lon="-0.08619719684811127"><ele>24.0</ele><time>2026-04-19T16:00:11.999Z</time></trkpt><trkpt lat="47.21833430277973" lon="-0.08621476677316676"><ele>24.0</ele><time>2026-04-19T16:00:13.999Z</time></trkpt><trkpt lat="47.21836361314646" lon="-0.08631177265204333"><ele>24.0</ele><time>2026-04-19T16:00:23.999Z</time></trkpt><trkpt lat="47.21842540246711" lon="-0.08633512236082416"><ele>24.5</ele><time>2026-04-19T16:00:28.998Z</time></trkpt><trkpt lat="47.21848787268104" lon="-0.08631082257697296"><ele>25.0</ele><time>2026-04-19T16:00:33.998Z</time></trkpt><trkpt lat="47.218547746556396" lon="-0.08627698828949253"><ele>25.5</ele><time>2026-04-19T16:00:40.998Z</time></trkpt><trkpt lat="47.21862264160907" lon="-0.08622110158574105"><ele>26.0</ele><time>2026-04-19T16:00:46.998Z</time></trkpt><trkpt lat="47.21871884456121" lon="-0.08624582774395477"><ele>26.5</ele><time>2026-04-19T16:00:48.998Z</time></trkpt><trkpt lat="47.21881460076658" lon="-0.08625392719131851"><ele>27.0</ele><time>2026-04-19T16:00:50.998Z</time></trkpt><trkpt lat="47.218880597182384" lon="-0.08624812424235039"><ele>27.0</ele><time>2026-04-19T16:00:51.998Z</time></trkpt><trkpt lat="47.21895227680486" lon="-0.08624315948838834"><ele>27.000000000000004</ele><time>2026-04-19T16:00:52.998Z</time></trkpt><trkpt lat="47.219080040719575" lon="-0.08625140880174674"><ele>27.000000000000004</ele><time>2026-04-19T16:00:55Z</time></trkpt><trkpt lat="47.21918864231413" lon="-0.08629595102211336"><ele>27.0</ele><time>2026-04-19T16:00:57Z</time></trkpt><trkpt lat="47.21925748861401" lon="-0.08631258617554322"><ele>27.0</ele><time>2026-04-19T16:00:58Z</time></trkpt><trkpt lat="47.2193243593314" lon="-0.0863254757023547"><ele>27.0</ele><time>2026-04-19T16:00:59Z</time></trkpt><trkpt lat="47.21939094233777" lon="-0.0863377810248208"><ele>27.0</ele><time>2026-04-19T16:01:00Z</time></trkpt><trkpt lat="47.21951713992572" lon="-0.08636937884240362"><ele>27.0</ele><time>2026-04-19T16:01:02Z</time></trkpt><trkpt lat="47.219593824524736" lon="-0.08638949088538189"><ele>27.0</ele><time>2026-04-19T16:01:03Z</time></trkpt><trkpt lat="47.219660742821986" lon="-0.08640582626738746"><ele>27.0</ele><time>2026-04-19T16:01:04Z</time></trkpt><trkpt lat="47.219732563924524" lon="-0.0864082932329641"><ele>27.0</ele><time>2026-04-19T16:01:05Z</time></trkpt><trkpt lat="47.219797694321834" lon="-0.08640046144843458"><ele>26.833333333333332</ele><time>2026-04-19T16:01:06Z</time></trkpt><trkpt lat="47.21990261945083" lon="-0.0863739320587075"><ele>26.666666666666664</ele><time>2026-04-19T16:01:08Z</time></trkpt><trkpt lat="47.21996590997614" lon="-0.08635619742847112"><ele>26.5</ele><time>2026-04-19T16:01:17Z</time></trkpt><trkpt lat="47.22003531329782" lon="-0.08631865518067629"><ele>26.333333333333332</ele><time>2026-04-19T16:01:19Z</time></trkpt><trkpt lat="47.22011233072533" lon="-0.08630872636343034"><ele>26.166666666666664</ele><time>2026-04-19T16:01:21Z</time></trkpt><trkpt lat="47.22020152763216" lon="-0.08633403754189493"><ele>26.0</ele><time>2026-04-19T16:01:22.999Z</time></trkpt><trkpt lat="47.22031310785845" lon="-0.0863543059430516"><ele>25.999999999999996</ele><time>2026-04-19T16:01:24.999Z</time></trkpt><trkpt lat="47.22038429952452" lon="-0.08636203373997557"><ele>26.0</ele><time>2026-04-19T16:01:25.999Z</time></trkpt><trkpt lat="47.22050151243538" lon="-0.08641106451039772"><ele>26.0</ele><time>2026-04-19T16:01:27.999Z</time></trkpt><trkpt lat="47.22058844153866" lon="-0.08643277133483983"><ele>26.0</ele><time>2026-04-19T16:01:28.999Z</time></trkpt><trkpt lat="47.22065855513699" lon="-0.08643917398152204"><ele>25.999999999999996</ele><time>2026-04-19T16:01:29.999Z</time></trkpt><trkpt lat="47.22073765970613" lon="-0.08645321616726216"><ele>26.0</ele><time>2026-04-19T16:01:31.999Z</time></trkpt><trkpt lat="47.220786141844535" lon="-0.08652338511445123"><ele>26.200000000000003</ele><time>2026-04-19T16:01:45.999Z</time></trkpt><trkpt lat="47.220792005157996" lon="-0.08662930372943764"><ele>26.400000000000002</ele><time>2026-04-19T16:01:46.999Z</time></trkpt><trkpt lat="47.22075434390031" lon="-0.08680632774232704"><ele>26.6</ele><time>2026-04-19T16:01:47.999Z</time></trkpt><trkpt lat="47.22072864371547" lon="-0.08695855225167706"><ele>26.8</ele><time>2026-04-19T16:01:48.999Z</time></trkpt><trkpt lat="47.22070744304994" lon="-0.08713205438570852"><ele>27.0</ele><time>2026-04-19T16:01:49.999Z</time></trkpt><trkpt lat="47.22069523213011" lon="-0.0873197507552504"><ele>27.0</ele><time>2026-04-19T16:01:50.999Z</time></trkpt><trkpt lat="47.22068964804549" lon="-0.08749427765769373"><ele>27.000000000000004</ele><time>2026-04-19T16:01:51.999Z</time></trkpt><trkpt lat="47.22067249938983" lon="-0.08764569999080267"><ele>27.000000000000004</ele><time>2026-04-19T16:01:52.999Z</time></trkpt><trkpt lat="47.220645741883935" lon="-0.08780132778573158"><ele>27.0</ele><time>2026-04-19T16:01:53.999Z</time></trkpt><trkpt lat="47.22063116327505" lon="-0.08794489812496395"><ele>27.0</ele><time>2026-04-19T16:01:54.999Z</time></trkpt><trkpt lat="47.22061855172084" lon="-0.08807079351512263"><ele>26.833333333333332</ele><time>2026-04-19T16:01:55.999Z</time></trkpt><trkpt lat="47.220598470717995" lon="-0.08818046843722677"><ele>26.666666666666664</ele><time>2026-04-19T16:01:56.999Z</time></trkpt><trkpt lat="47.22058392711051" lon="-0.08829290272996912"><ele>26.5</ele><time>2026-04-19T16:01:57.999Z</time></trkpt><trkpt lat="47.22056886251" lon="-0.08842591153809004"><ele>26.333333333333332</ele><time>2026-04-19T16:01:58.999Z</time></trkpt><trkpt lat="47.22056435952214" lon="-0.08854856733184713"><ele>26.166666666666664</ele><time>2026-04-19T16:01:59.999Z</time></trkpt><trkpt lat="47.22055410947624" lon="-0.08864324027536637"><ele>26.0</ele><time>2026-04-19T16:02:00.999Z</time></trkpt><trkpt lat="47.220561445269325" lon="-0.0887926858039336"><ele>26.0</ele><time>2026-04-19T16:02:02.999Z</time></trkpt><trkpt lat="47.22064760025523" lon="-0.08884867174250777"><ele>26.0</ele><time>2026-04-19T16:02:04.999Z</time></trkpt><trkpt lat="47.22071182879754" lon="-0.08885637356869838"><ele>26.0</ele><time>2026-04-19T16:02:05.999Z</time></trkpt><trkpt lat="47.220805782316354" lon="-0.08885584677728177"><ele>26.0</ele><time>2026-04-19T16:02:06.999Z</time></trkpt><trkpt lat="47.22092205026135" lon="-0.08885228381368424"><ele>26.0</ele><time>2026-04-19T16:02:07.999Z</time></trkpt><trkpt lat="47.221019201193705" lon="-0.08885129839439546"><ele>26.200000000000003</ele><time>2026-04-19T16:02:08.999Z</time></trkpt><trkpt lat="47.22110730350974" lon="-0.08886468730646598"><ele>26.400000000000002</ele><time>2026-04-19T16:02:09.999Z</time></trkpt><trkpt lat="47.22117894426174" lon="-0.08887055005768965"><ele>26.6</ele><time>2026-04-19T16:02:10.999Z</time></trkpt><trkpt lat="47.22128728048862" lon="-0.08887523654388346"><ele>26.8</ele><time>2026-04-19T16:02:12.999Z</time></trkpt><trkpt lat="47.221370562756526" lon="-0.08887969273432728"><ele>27.0</ele><time>2026-04-19T16:02:13.999Z</time></trkpt><trkpt lat="47.22147074716303" lon="-0.08888798647394565"><ele>26.5</ele><time>2026-04-19T16:02:14.999Z</time></trkpt><trkpt lat="47.22157992115455" lon="-0.0888968314033216"><ele>26.0</ele><time>2026-04-19T16:02:15.999Z</time></trkpt><trkpt lat="47.221649927304824" lon="-0.0888782688707125"><ele>25.5</ele><time>2026-04-19T16:02:16.999Z</time></trkpt><trkpt lat="47.22173326947053" lon="-0.08887987177137817"><ele>25.0</ele><time>2026-04-19T16:02:17.999Z</time></trkpt><trkpt lat="47.221827755217255" lon="-0.08888131018684592"><ele>24.5</ele><time>2026-04-19T16:02:18.999Z</time></trkpt><trkpt lat="47.221916909117745" lon="-0.08889463365946591"><ele>24.0</ele><time>2026-04-19T16:02:19.999Z</time></trkpt><trkpt lat="47.22201927649279" lon="-0.08891128978588705"><ele>24.0</ele><time>2026-04-19T16:02:20.999Z</time></trkpt><trkpt lat="47.22213142091769" lon="-0.08892117887426447"><ele>24.0</ele><time>2026-04-19T16:02:21.999Z</time></trkpt><trkpt lat="47.22223516555289" lon="-0.08893509369909756"><ele>24.0</ele><time>2026-04-19T16:02:22.999Z</time></trkpt><trkpt lat="47.222322439564934" lon="-0.0889554652616"><ele>24.0</ele><time>2026-04-19T16:02:23.999Z</time></trkpt><trkpt lat="47.22241873368531" lon="-0.08896871231374226"><ele>24.0</ele><time>2026-04-19T16:02:24.999Z</time></trkpt><trkpt lat="47.222509748329" lon="-0.08896646965967622"><ele>24.4</ele><time>2026-04-19T16:02:25.999Z</time></trkpt><trkpt lat="47.222608482011935" lon="-0.0889590376257094"><ele>24.799999999999997</ele><time>2026-04-19T16:02:26.999Z</time></trkpt><trkpt lat="47.22271918161006" lon="-0.08896582581131587"><ele>25.200000000000003</ele><time>2026-04-19T16:02:27.999Z</time></trkpt><trkpt lat="47.222839192595465" lon="-0.08897387431486023"><ele>25.6</ele><time>2026-04-19T16:02:28.999Z</time></trkpt><trkpt lat="47.222956942399684" lon="-0.0889845722444779"><ele>26.0</ele><time>2026-04-19T16:02:29.999Z</time></trkpt><trkpt lat="47.223054960005584" lon="-0.08898567207921895"><ele>26.166666666666664</ele><time>2026-04-19T16:02:30.999Z</time></trkpt><trkpt lat="47.223149037463195" lon="-0.0889847849133872"><ele>26.333333333333332</ele><time>2026-04-19T16:02:31.999Z</time></trkpt><trkpt lat="47.223234808344586" lon="-0.08897976493099563"><ele>26.5</ele><time>2026-04-19T16:02:32.999Z</time></trkpt><trkpt lat="47.22332179617115" lon="-0.08897749289309051"><ele>26.666666666666664</ele><time>2026-04-19T16:02:33.999Z</time></trkpt><trkpt lat="47.22341226086224" lon="-0.08898028675532074"><ele>26.833333333333332</ele><time>2026-04-19T16:02:34.999Z</time></trkpt><trkpt lat="47.223485939621284" lon="-0.08898678157347517"><ele>27.0</ele><time>2026-04-19T16:02:35.999Z</time></trkpt><trkpt lat="47.223559716550376" lon="-0.08899727799699973"><ele>27.0</ele><time>2026-04-19T16:02:36.999Z</time></trkpt><trkpt lat="47.22364239982877" lon="-0.08901113469940225"><ele>27.000000000000004</ele><time>2026-04-19T16:02:37.999Z</time></trkpt><trkpt lat="47.223736418677866" lon="-0.08901229558171803"><ele>27.000000000000004</ele><time>2026-04-19T16:02:38.999Z</time></trkpt><trkpt lat="47.223849167342344" lon="-0.0890231985263255"><ele>27.0</ele><time>2026-04-19T16:02:39.999Z</time></trkpt><trkpt lat="47.22397502325163" lon="-0.08904567327312013"><ele>27.0</ele><time>2026-04-19T16:02:40.998Z</time></trkpt><trkpt lat="47.22409281178562" lon="-0.08904634425147194"><ele>26.8</ele><time>2026-04-19T16:02:41.998Z</time></trkpt><trkpt lat="47.22419542305163" lon="-0.08905046032182112"><ele>26.6</ele><time>2026-04-19T16:02:42.998Z</time></trkpt><trkpt lat="47.22428954768031" lon="-0.08905659558411155"><ele>26.400000000000002</ele><time>2026-04-19T16:02:43.998Z</time></trkpt><trkpt lat="47.22437441096289" lon="-0.08905392806397743"><ele>26.200000000000003</ele><time>2026-04-19T16:02:44.998Z</time></trkpt><trkpt lat="47.22446452208898" lon="-0.08904145741678028"><ele>26.0</ele><time>2026-04-19T16:02:45.998Z</time></trkpt><trkpt lat="47.22455402142628" lon="-0.08905213493100726"><ele>25.999999999999996</ele><time>2026-04-19T16:02:46.998Z</time></trkpt><trkpt lat="47.224617537017444" lon="-0.0890570536091422"><ele>26.0</ele><time>2026-04-19T16:02:47.998Z</time></trkpt><trkpt lat="47.224717823962415" lon="-0.08906392843951545"><ele>26.0</ele><time>2026-04-19T16:02:49.998Z</time></trkpt><trkpt lat="47.224786892890926" lon="-0.08904718329284156"><ele>26.0</ele><time>2026-04-19T16:02:50.998Z</time></trkpt><trkpt lat="47.22487785005896" lon="-0.08902124802427899"><ele>25.999999999999996</ele><time>2026-04-19T16:02:51.998Z</time></trkpt><trkpt lat="47.224978337282195" lon="-0.08899542197206677"><ele>26.0</ele><time>2026-04-19T16:02:52.998Z</time></trkpt><trkpt lat="47.225076308662985" lon="-0.08897194063585984"><ele>26.200000000000003</ele><time>2026-04-19T16:02:53.998Z</time></trkpt><trkpt lat="47.22517522385155" lon="-0.08894983898799955"><ele>26.400000000000002</ele><time>2026-04-19T16:02:54.998Z</time></trkpt><trkpt lat="47.22527690450205" lon="-0.08891477633649594"><ele>26.6</ele><time>2026-04-19T16:02:55.998Z</time></trkpt><trkpt lat="47.225380768623666" lon="-0.08889431751455026"><ele>26.8</ele><time>2026-04-19T16:02:56.998Z</time></trkpt><trkpt lat="47.22549151452278" lon="-0.08887016707017124"><ele>27.0</ele><time>2026-04-19T16:02:57.998Z</time></trkpt><trkpt lat="47.225587318806724" lon="-0.08885460186846411"><ele>26.6</ele><time>2026-04-19T16:02:58.998Z</time></trkpt><trkpt lat="47.225684260816" lon="-0.08882995644571838"><ele>26.200000000000003</ele><time>2026-04-19T16:03:00Z</time></trkpt><trkpt lat="47.22578510742186" lon="-0.08880622960377238"><ele>25.8</ele><time>2026-04-19T16:03:01Z</time></trkpt><trkpt lat="47.22587883335968" lon="-0.08877487340660291"><ele>25.4</ele><time>2026-04-19T16:03:02Z</time></trkpt><trkpt lat="47.22597281095621" lon="-0.08875361126624416"><ele>25.0</ele><time>2026-04-19T16:03:03Z</time></trkpt><trkpt lat="47.2260791764056" lon="-0.08873091309592653"><ele>25.0</ele><time>2026-04-19T16:03:04Z</time></trkpt><trkpt lat="47.22619297464539" lon="-0.08869743935019764"><ele>25.0</ele><time>2026-04-19T16:03:05Z</time></trkpt><trkpt lat="47.22631503025508" lon="-0.08866509296705265"><ele>25.0</ele><time>2026-04-19T16:03:06Z</time></trkpt><trkpt lat="47.22643143306879" lon="-0.08864414182784418"><ele>25.0</ele><time>2026-04-19T16:03:07Z</time></trkpt><trkpt lat="47.22653461158552" lon="-0.08862937909110191"><ele>25.0</ele><time>2026-04-19T16:03:08Z</time></trkpt><trkpt lat="47.2266402978238" lon="-0.08861635593804303"><ele>25.0</ele><time>2026-04-19T16:03:09Z</time></trkpt><trkpt lat="47.2267372443094" lon="-0.0886066616153568"><ele>25.0</ele><time>2026-04-19T16:03:10Z</time></trkpt><trkpt lat="47.22683606018504" lon="-0.08858973289658054"><ele>25.0</ele><time>2026-04-19T16:03:11Z</time></trkpt><trkpt lat="47.22692624936389" lon="-0.08857765322000129"><ele>25.0</ele><time>2026-04-19T16:03:12Z</time></trkpt><trkpt lat="47.227008115280256" lon="-0.08856406009032378"><ele>25.000000000000004</ele><time>2026-04-19T16:03:13Z</time></trkpt><trkpt lat="47.22708171076216" lon="-0.08854030748869318"><ele>25.0</ele><time>2026-04-19T16:03:14Z</time></trkpt><trkpt lat="47.227168819703756" lon="-0.08850964942926862"><ele>25.0</ele><time>2026-04-19T16:03:15Z</time></trkpt><trkpt lat="47.22725078927929" lon="-0.08847932490119681"><ele>25.0</ele><time>2026-04-19T16:03:16Z</time></trkpt><trkpt lat="47.227337539711705" lon="-0.08845235492507916"><ele>25.000000000000004</ele><time>2026-04-19T16:03:17Z</time></trkpt><trkpt lat="47.22744662816475" lon="-0.0884328424188998"><ele>25.0</ele><time>2026-04-19T16:03:18Z</time></trkpt><trkpt lat="47.22755943373897" lon="-0.08841292640070263"><ele>24.8</ele><time>2026-04-19T16:03:19Z</time></trkpt><trkpt lat="47.22766922352249" lon="-0.08838883958360055"><ele>24.6</ele><time>2026-04-19T16:03:20Z</time></trkpt><trkpt lat="47.22777480335709" lon="-0.08836543525908853"><ele>24.4</ele><time>2026-04-19T16:03:21Z</time></trkpt><trkpt lat="47.22787317217783" lon="-0.0883444066430071"><ele>24.2</ele><time>2026-04-19T16:03:22Z</time></trkpt><trkpt lat="47.227970047704275" lon="-0.08832077918691869"><ele>24.0</ele><time>2026-04-19T16:03:23Z</time></trkpt><trkpt lat="47.22807187429411" lon="-0.08830022402534099"><ele>24.333333333333332</ele><time>2026-04-19T16:03:24Z</time></trkpt><trkpt lat="47.22816243538205" lon="-0.08827752607117796"><ele>24.666666666666664</ele><time>2026-04-19T16:03:25Z</time></trkpt><trkpt lat="47.22824754041695" lon="-0.08827415547818741"><ele>25.0</ele><time>2026-04-19T16:03:26Z</time></trkpt><trkpt lat="47.22831452495662" lon="-0.08827136354567336"><ele>25.333333333333332</ele><time>2026-04-19T16:03:27Z</time></trkpt><trkpt lat="47.22842008129037" lon="-0.08828001646233159"><ele>25.666666666666664</ele><time>2026-04-19T16:03:29Z</time></trkpt><trkpt lat="47.22848847075349" lon="-0.08827358240242929"><ele>26.0</ele><time>2026-04-19T16:03:30Z</time></trkpt><trkpt lat="47.228571530044555" lon="-0.08827710556700134"><ele>26.0</ele><time>2026-04-19T16:03:31Z</time></trkpt><trkpt lat="47.22867365309886" lon="-0.08828691526744346"><ele>26.0</ele><time>2026-04-19T16:03:32Z</time></trkpt><trkpt lat="47.22877281924281" lon="-0.08827959688452564"><ele>26.0</ele><time>2026-04-19T16:03:32.999Z</time></trkpt><trkpt lat="47.22884749222674" lon="-0.08828286836676405"><ele>26.0</ele><time>2026-04-19T16:03:33.999Z</time></trkpt><trkpt lat="47.228913903497215" lon="-0.08828576095818073"><ele>26.0</ele><time>2026-04-19T16:03:34.999Z</time></trkpt><trkpt lat="47.22904345628341" lon="-0.08829461709148674"><ele>26.499999999999996</ele><time>2026-04-19T16:03:36.999Z</time></trkpt><trkpt lat="47.22911914543389" lon="-0.08830288568410484"><ele>27.0</ele><time>2026-04-19T16:03:37.999Z</time></trkpt><trkpt lat="47.22923437515867" lon="-0.0883101173093664"><ele>27.5</ele><time>2026-04-19T16:03:39.999Z</time></trkpt><trkpt lat="47.229308697899654" lon="-0.08831543261733625"><ele>28.0</ele><time>2026-04-19T16:03:40.999Z</time></trkpt><trkpt lat="47.229402039884924" lon="-0.08831940240222202"><ele>28.499999999999996</ele><time>2026-04-19T16:03:41.999Z</time></trkpt><trkpt lat="47.229492427935654" lon="-0.0883215765723751"><ele>29.0</ele><time>2026-04-19T16:03:42.999Z</time></trkpt><trkpt lat="47.22960741452375" lon="-0.0883084965723388"><ele>28.999999999999996</ele><time>2026-04-19T16:03:43.999Z</time></trkpt><trkpt lat="47.2297165953194" lon="-0.08830845553660108"><ele>29.0</ele><time>2026-04-19T16:03:44.999Z</time></trkpt><trkpt lat="47.229790325696435" lon="-0.0883053081946588"><ele>29.0</ele><time>2026-04-19T16:03:45.999Z</time></trkpt><trkpt lat="47.22986836590002" lon="-0.08829420282866464"><ele>29.0</ele><time>2026-04-19T16:03:46.999Z</time></trkpt><trkpt lat="47.22995452112783" lon="-0.08828198058239566"><ele>28.999999999999996</ele><time>2026-04-19T16:03:47.999Z</time></trkpt><trkpt lat="47.23003894126022" lon="-0.08827813104194097"><ele>29.0</ele><time>2026-04-19T16:03:48.999Z</time></trkpt><trkpt lat="47.23011733884234" lon="-0.08828685729927484"><ele>29.000000000000004</ele><time>2026-04-19T16:03:49.999Z</time></trkpt><trkpt lat="47.230183885579905" lon="-0.08830065723457929"><ele>29.0</ele><time>2026-04-19T16:03:50.999Z</time></trkpt><trkpt lat="47.23026287113703" lon="-0.08830431386464582"><ele>29.000000000000004</ele><time>2026-04-19T16:03:51.999Z</time></trkpt><trkpt lat="47.23036215800122" lon="-0.08830385779644548"><ele>29.000000000000004</ele><time>2026-04-19T16:03:52.999Z</time></trkpt><trkpt lat="47.23043168710432" lon="-0.08830284448338574"><ele>29.0</ele><time>2026-04-19T16:03:53.999Z</time></trkpt><trkpt lat="47.230492822192076" lon="-0.08827973332148775"><ele>29.000000000000004</ele><time>2026-04-19T16:03:54.999Z</time></trkpt><trkpt lat="47.23055855266" lon="-0.08827887150812025"><ele>29.000000000000004</ele><time>2026-04-19T16:03:55.999Z</time></trkpt><trkpt lat="47.230634965669516" lon="-0.08829420023463759"><ele>29.0</ele><time>2026-04-19T16:03:56.999Z</time></trkpt><trkpt lat="47.23072295728129" lon="-0.08831171658879122"><ele>29.0</ele><time>2026-04-19T16:03:57.999Z</time></trkpt><trkpt lat="47.23081211963329" lon="-0.08832579538961195"><ele>29.0</ele><time>2026-04-19T16:03:58.999Z</time></trkpt><trkpt lat="47.23089429175894" lon="-0.08831754348710265"><ele>29.0</ele><time>2026-04-19T16:03:59.999Z</time></trkpt><trkpt lat="47.230995037948006" lon="-0.08831842730466259"><ele>29.0</ele><time>2026-04-19T16:04:00.999Z</time></trkpt><trkpt lat="47.2310975562611" lon="-0.08830799487845076"><ele>28.999999999999996</ele><time>2026-04-19T16:04:01.999Z</time></trkpt><trkpt lat="47.23117870185783" lon="-0.08830497147838139"><ele>29.0</ele><time>2026-04-19T16:04:02.999Z</time></trkpt><trkpt lat="47.231263731878386" lon="-0.08830314716429898"><ele>29.0</ele><time>2026-04-19T16:04:03.999Z</time></trkpt><trkpt lat="47.231328489285666" lon="-0.08829025702315821"><ele>29.0</ele><time>2026-04-19T16:04:04.999Z</time></trkpt><trkpt lat="47.23145627023677" lon="-0.08827211849081087"><ele>28.999999999999996</ele><time>2026-04-19T16:04:06.999Z</time></trkpt><trkpt lat="47.231534210936836" lon="-0.0882673264059998"><ele>29.0</ele><time>2026-04-19T16:04:07.999Z</time></trkpt><trkpt lat="47.23162397403383" lon="-0.08827942818567598"><ele>28.499999999999996</ele><time>2026-04-19T16:04:08.999Z</time></trkpt><trkpt lat="47.23169591813407" lon="-0.0882856774206339"><ele>28.0</ele><time>2026-04-19T16:04:09.999Z</time></trkpt><trkpt lat="47.23176496620705" lon="-0.08827068220556464"><ele>27.5</ele><time>2026-04-19T16:04:10.999Z</time></trkpt><trkpt lat="47.231857049579354" lon="-0.0882675180802947"><ele>27.0</ele><time>2026-04-19T16:04:11.999Z</time></trkpt><trkpt lat="47.23195392385096" lon="-0.08827589816486096"><ele>26.499999999999996</ele><time>2026-04-19T16:04:12.999Z</time></trkpt><trkpt lat="47.232023921483545" lon="-0.08828155104571452"><ele>26.0</ele><time>2026-04-19T16:04:13.999Z</time></trkpt><trkpt lat="47.23213134375049" lon="-0.08826835773203627"><ele>26.0</ele><time>2026-04-19T16:04:15.999Z</time></trkpt><trkpt lat="47.232207047980104" lon="-0.08829374828863268"><ele>26.0</ele><time>2026-04-19T16:04:17.999Z</time></trkpt><trkpt lat="47.23233597003012" lon="-0.08827087131509966"><ele>26.0</ele><time>2026-04-19T16:04:19.999Z</time></trkpt><trkpt lat="47.23240826193641" lon="-0.08826232857237218"><ele>26.0</ele><time>2026-04-19T16:04:20.999Z</time></trkpt><trkpt lat="47.232506983343605" lon="-0.08825396103645654"><ele>26.0</ele><time>2026-04-19T16:04:22.999Z</time></trkpt><trkpt lat="47.232609144984735" lon="-0.08823592522257555"><ele>26.333333333333332</ele><time>2026-04-19T16:04:24.999Z</time></trkpt><trkpt lat="47.2327326410936" lon="-0.08819486743333442"><ele>26.666666666666664</ele><time>2026-04-19T16:04:26.999Z</time></trkpt><trkpt lat="47.2328053208336" lon="-0.08818711851741962"><ele>27.0</ele><time>2026-04-19T16:04:27.999Z</time></trkpt><trkpt lat="47.23288231879401" lon="-0.08818397382272952"><ele>27.333333333333336</ele><time>2026-04-19T16:04:28.999Z</time></trkpt><trkpt lat="47.23295384673519" lon="-0.08817687799975495"><ele>27.666666666666668</ele><time>2026-04-19T16:04:29.999Z</time></trkpt><trkpt lat="47.23302954059656" lon="-0.08816498587755975"><ele>28.0</ele><time>2026-04-19T16:04:30.999Z</time></trkpt><trkpt lat="47.23310022972642" lon="-0.08815351354514572"><ele>28.333333333333336</ele><time>2026-04-19T16:04:31.999Z</time></trkpt><trkpt lat="47.233216867303796" lon="-0.08813523117799314"><ele>28.666666666666668</ele><time>2026-04-19T16:04:33.999Z</time></trkpt><trkpt lat="47.233284745924756" lon="-0.08812409397980256"><ele>29.0</ele><time>2026-04-19T16:04:34.999Z</time></trkpt><trkpt lat="47.23335375650003" lon="-0.08810865117098217"><ele>29.333333333333336</ele><time>2026-04-19T16:04:35.999Z</time></trkpt><trkpt lat="47.23341543272494" lon="-0.08808603832789562"><ele>29.666666666666668</ele><time>2026-04-19T16:04:36.999Z</time></trkpt><trkpt lat="47.233484089530535" lon="-0.08807085741506826"><ele>30.0</ele><time>2026-04-19T16:04:37.999Z</time></trkpt><trkpt lat="47.233553690399724" lon="-0.08804511098261145"><ele>30.0</ele><time>2026-04-19T16:04:38.999Z</time></trkpt><trkpt lat="47.23361837870568" lon="-0.08801884164345887"><ele>30.0</ele><time>2026-04-19T16:04:39.999Z</time></trkpt><trkpt lat="47.23367773797781" lon="-0.08798433793989452"><ele>30.0</ele><time>2026-04-19T16:04:40.999Z</time></trkpt><trkpt lat="47.233737858384785" lon="-0.08795442099685251"><ele>30.0</ele><time>2026-04-19T16:04:41.999Z</time></trkpt><trkpt lat="47.23380185628922" lon="-0.08792872283301982"><ele>30.0</ele><time>2026-04-19T16:04:42.999Z</time></trkpt><trkpt lat="47.23387824146051" lon="-0.08789240204184114"><ele>30.0</ele><time>2026-04-19T16:04:43.999Z</time></trkpt><trkpt lat="47.233960749059555" lon="-0.08785669062186212"><ele>30.0</ele><time>2026-04-19T16:04:44.999Z</time></trkpt><trkpt lat="47.23402305316568" lon="-0.08781952883268161"><ele>29.4</ele><time>2026-04-19T16:04:45.999Z</time></trkpt><trkpt lat="47.234085999055125" lon="-0.08778020975311797"><ele>28.8</ele><time>2026-04-19T16:04:46.999Z</time></trkpt><trkpt lat="47.23417241417283" lon="-0.08771862774083691"><ele>28.200000000000003</ele><time>2026-04-19T16:04:48.999Z</time></trkpt><trkpt lat="47.23428823118872" lon="-0.0876618775402026"><ele>27.6</ele><time>2026-04-19T16:04:50.998Z</time></trkpt><trkpt lat="47.23438500226919" lon="-0.08760239579795952"><ele>27.0</ele><time>2026-04-19T16:04:52.998Z</time></trkpt><trkpt lat="47.23449839147646" lon="-0.08753602894162194"><ele>27.0</ele><time>2026-04-19T16:04:54.998Z</time></trkpt><trkpt lat="47.23456308523624" lon="-0.08750523212538924"><ele>27.0</ele><time>2026-04-19T16:04:55.998Z</time></trkpt><trkpt lat="47.23468150168522" lon="-0.08745272020988762"><ele>27.0</ele><time>2026-04-19T16:04:57.998Z</time></trkpt><trkpt lat="47.23474380108511" lon="-0.087421717752254"><ele>27.0</ele><time>2026-04-19T16:04:58.998Z</time></trkpt><trkpt lat="47.23485795749992" lon="-0.08737433093758805"><ele>27.0</ele><time>2026-04-19T16:05:00.998Z</time></trkpt><trkpt lat="47.23492736114496" lon="-0.08735868944081815"><ele>27.0</ele><time>2026-04-19T16:05:01.998Z</time></trkpt><trkpt lat="47.23501157155723" lon="-0.08734429234250111"><ele>26.8</ele><time>2026-04-19T16:05:02.998Z</time></trkpt><trkpt lat="47.235104927416835" lon="-0.08733670692666784"><ele>26.6</ele><time>2026-04-19T16:05:03.998Z</time></trkpt><trkpt lat="47.23520894967652" lon="-0.08733950379164747"><ele>26.400000000000002</ele><time>2026-04-19T16:05:04.998Z</time></trkpt><trkpt lat="47.235316950174884" lon="-0.08733636189068185"><ele>26.200000000000003</ele><time>2026-04-19T16:05:06Z</time></trkpt><trkpt lat="47.235423143602695" lon="-0.08732003555131673"><ele>26.0</ele><time>2026-04-19T16:05:07Z</time></trkpt><trkpt lat="47.23552095663293" lon="-0.08731213877776725"><ele>25.999999999999996</ele><time>2026-04-19T16:05:08Z</time></trkpt><trkpt lat="47.23561597229528" lon="-0.08731517341814082"><ele>26.0</ele><time>2026-04-19T16:05:09Z</time></trkpt><trkpt lat="47.235698608869285" lon="-0.08731441416503502"><ele>26.0</ele><time>2026-04-19T16:05:10Z</time></trkpt><trkpt lat="47.23576580689087" lon="-0.08731546375867122"><ele>26.0</ele><time>2026-04-19T16:05:11Z</time></trkpt><trkpt lat="47.23586275835826" lon="-0.08732105152848124"><ele>25.999999999999996</ele><time>2026-04-19T16:05:13Z</time></trkpt><trkpt lat="47.23592912396838" lon="-0.08737629745154163"><ele>26.0</ele><time>2026-04-19T16:05:38.999Z</time></trkpt><trkpt lat="47.23595259513876" lon="-0.08747757565089989"><ele>26.4</ele><time>2026-04-19T16:05:42.999Z</time></trkpt><trkpt lat="47.2359676260382" lon="-0.08759210446221746"><ele>26.8</ele><time>2026-04-19T16:05:47.999Z</time></trkpt><trkpt lat="47.23597971051721" lon="-0.08777617018630696"><ele>27.199999999999996</ele><time>2026-04-19T16:05:49.999Z</time></trkpt><trkpt lat="47.235980268156595" lon="-0.08788590006113224"><ele>27.599999999999998</ele><time>2026-04-19T16:05:50.999Z</time></trkpt><trkpt lat="47.235976009277934" lon="-0.08800528811544948"><ele>28.0</ele><time>2026-04-19T16:05:51.999Z</time></trkpt><trkpt lat="47.23596945114345" lon="-0.08814492960329363"><ele>28.25</ele><time>2026-04-19T16:05:52.999Z</time></trkpt><trkpt lat="47.23596215227833" lon="-0.08830794593830214"><ele>28.5</ele><time>2026-04-19T16:05:53.999Z</time></trkpt><trkpt lat="47.23596979889487" lon="-0.08847179074927636"><ele>28.75</ele><time>2026-04-19T16:05:54.999Z</time></trkpt><trkpt lat="47.23596383769068" lon="-0.08865260692636358"><ele>29.0</ele><time>2026-04-19T16:05:55.999Z</time></trkpt><trkpt lat="47.235942499471506" lon="-0.0888276533472183"><ele>29.0</ele><time>2026-04-19T16:05:56.999Z</time></trkpt><trkpt lat="47.235934094185616" lon="-0.0890219409527003"><ele>29.0</ele><time>2026-04-19T16:05:57.999Z</time></trkpt><trkpt lat="47.23592673531315" lon="-0.08923633230280592"><ele>29.0</ele><time>2026-04-19T16:05:58.999Z</time></trkpt><trkpt lat="47.23592129165232" lon="-0.08940280328557786"><ele>29.0</ele><time>2026-04-19T16:05:59.999Z</time></trkpt><trkpt lat="47.235918851577956" lon="-0.08955843152296246"><ele>28.999999999999996</ele><time>2026-04-19T16:06:00.999Z</time></trkpt><trkpt lat="47.23591333593633" lon="-0.08969091733456974"><ele>29.0</ele><time>2026-04-19T16:06:01.999Z</time></trkpt><trkpt lat="47.23590939796036" lon="-0.08980850358620628"><ele>29.0</ele><time>2026-04-19T16:06:02.999Z</time></trkpt><trkpt lat="47.23590313132464" lon="-0.08992212025042241"><ele>29.0</ele><time>2026-04-19T16:06:03.999Z</time></trkpt><trkpt lat="47.235901738408366" lon="-0.09004673389912482"><ele>28.999999999999996</ele><time>2026-04-19T16:06:04.999Z</time></trkpt><trkpt lat="47.23590505833014" lon="-0.09018138798944113"><ele>29.0</ele><time>2026-04-19T16:06:05.999Z</time></trkpt><trkpt lat="47.23591220066512" lon="-0.09031010697075977"><ele>29.0</ele><time>2026-04-19T16:06:06.999Z</time></trkpt><trkpt lat="47.2359164954967" lon="-0.09043042790799757"><ele>29.0</ele><time>2026-04-19T16:06:07.999Z</time></trkpt><trkpt lat="47.235920871487245" lon="-0.09056608965388219"><ele>29.0</ele><time>2026-04-19T16:06:08.999Z</time></trkpt><trkpt lat="47.235924435315106" lon="-0.0906965294464405"><ele>29.0</ele><time>2026-04-19T16:06:09.999Z</time></trkpt><trkpt lat="47.23592228567728" lon="-0.09084617196310951"><ele>29.0</ele><time>2026-04-19T16:06:10.999Z</time></trkpt><trkpt lat="47.23591798866685" lon="-0.09099987522638091"><ele>29.5</ele><time>2026-04-19T16:06:11.999Z</time></trkpt><trkpt lat="47.23591675011284" lon="-0.0911690187625214"><ele>30.0</ele><time>2026-04-19T16:06:12.999Z</time></trkpt><trkpt lat="47.235918154122345" lon="-0.0913484011862073"><ele>30.5</ele><time>2026-04-19T16:06:13.999Z</time></trkpt><trkpt lat="47.235906248317356" lon="-0.09153615208959043"><ele>31.0</ele><time>2026-04-19T16:06:14.999Z</time></trkpt><trkpt lat="47.23590346145491" lon="-0.09172417242218972"><ele>31.4</ele><time>2026-04-19T16:06:15.999Z</time></trkpt><trkpt lat="47.235914655270555" lon="-0.09190666129143261"><ele>31.8</ele><time>2026-04-19T16:06:16.999Z</time></trkpt><trkpt lat="47.23589780250107" lon="-0.09204902196642323"><ele>32.199999999999996</ele><time>2026-04-19T16:06:17.999Z</time></trkpt><trkpt lat="47.23589818649117" lon="-0.09218367073391634"><ele>32.6</ele><time>2026-04-19T16:06:18.999Z</time></trkpt><trkpt lat="47.23590262273896" lon="-0.09231360106404703"><ele>33.0</ele><time>2026-04-19T16:06:19.999Z</time></trkpt><trkpt lat="47.23590130866357" lon="-0.09243740764364002"><ele>33.8</ele><time>2026-04-19T16:06:20.999Z</time></trkpt><trkpt lat="47.235899758599075" lon="-0.09258066903592513"><ele>34.599999999999994</ele><time>2026-04-19T16:06:21.999Z</time></trkpt><trkpt lat="47.235914246945434" lon="-0.09271370592971102"><ele>35.400000000000006</ele><time>2026-04-19T16:06:22.999Z</time></trkpt><trkpt lat="47.23591488950001" lon="-0.09281560091923664"><ele>36.2</ele><time>2026-04-19T16:06:23.999Z</time></trkpt><trkpt lat="47.23591583097121" lon="-0.0929648973217394"><ele>37.0</ele><time>2026-04-19T16:06:25.999Z</time></trkpt><trkpt lat="47.23599882733637" lon="-0.0930768350718328"><ele>37.0</ele><time>2026-04-19T16:06:29.999Z</time></trkpt><trkpt lat="47.23613218183975" lon="-0.09306054961922411"><ele>37.0</ele><time>2026-04-19T16:06:31.999Z</time></trkpt><trkpt lat="47.236211789696114" lon="-0.09302133947251819"><ele>37.0</ele><time>2026-04-19T16:06:32.999Z</time></trkpt><trkpt lat="47.23630396436409" lon="-0.09297148795521848"><ele>37.0</ele><time>2026-04-19T16:06:33.999Z</time></trkpt><trkpt lat="47.23640062639192" lon="-0.09292378497247349"><ele>37.0</ele><time>2026-04-19T16:06:34.999Z</time></trkpt><trkpt lat="47.23649794333682" lon="-0.09288177499387117"><ele>37.2</ele><time>2026-04-19T16:06:35.999Z</time></trkpt><trkpt lat="47.236573415290366" lon="-0.09283851650550416"><ele>37.400000000000006</ele><time>2026-04-19T16:06:36.999Z</time></trkpt><trkpt lat="47.23664470124134" lon="-0.09279155063344047"><ele>37.599999999999994</ele><time>2026-04-19T16:06:37.999Z</time></trkpt><trkpt lat="47.23671961872017" lon="-0.09271925607592149"><ele>37.8</ele><time>2026-04-19T16:06:38.999Z</time></trkpt><trkpt lat="47.23680299293182" lon="-0.09264221933339228"><ele>38.0</ele><time>2026-04-19T16:06:39.999Z</time></trkpt><trkpt lat="47.23689566447804" lon="-0.0925657464988255"><ele>38.0</ele><time>2026-04-19T16:06:40.999Z</time></trkpt><trkpt lat="47.236989671890946" lon="-0.09249560386931463"><ele>38.0</ele><time>2026-04-19T16:06:41.999Z</time></trkpt><trkpt lat="47.23709471284446" lon="-0.09241682758465668"><ele>38.0</ele><time>2026-04-19T16:06:42.999Z</time></trkpt><trkpt lat="47.23720631422992" lon="-0.09232847779269927"><ele>38.0</ele><time>2026-04-19T16:06:43.999Z</time></trkpt><trkpt lat="47.23731400171072" lon="-0.09223953790935129"><ele>38.25</ele><time>2026-04-19T16:06:44.999Z</time></trkpt><trkpt lat="47.23742941392497" lon="-0.0921502718758374"><ele>38.5</ele><time>2026-04-19T16:06:45.999Z</time></trkpt><trkpt lat="47.23755104497543" lon="-0.09205767842771652"><ele>38.75</ele><time>2026-04-19T16:06:46.999Z</time></trkpt><trkpt lat="47.23766848582642" lon="-0.09198237186586376"><ele>39.0</ele><time>2026-04-19T16:06:47.999Z</time></trkpt><trkpt lat="47.237785517202816" lon="-0.0919181056595078"><ele>39.0</ele><time>2026-04-19T16:06:48.999Z</time></trkpt><trkpt lat="47.23790150843768" lon="-0.09186790196010791"><ele>39.0</ele><time>2026-04-19T16:06:49.999Z</time></trkpt><trkpt lat="47.23801662044132" lon="-0.09182753256387369"><ele>39.0</ele><time>2026-04-19T16:06:50.999Z</time></trkpt><trkpt lat="47.2381299203921" lon="-0.09179379131846699"><ele>39.0</ele><time>2026-04-19T16:06:51.999Z</time></trkpt><trkpt lat="47.23824712029436" lon="-0.0917706396608233"><ele>39.25</ele><time>2026-04-19T16:06:52.999Z</time></trkpt><trkpt lat="47.23836689026292" lon="-0.09175425787925272"><ele>39.5</ele><time>2026-04-19T16:06:53.999Z</time></trkpt><trkpt lat="47.23848746607303" lon="-0.091738311902228"><ele>39.75</ele><time>2026-04-19T16:06:54.998Z</time></trkpt><trkpt lat="47.23860291837368" lon="-0.09171333714925801"><ele>40.0</ele><time>2026-04-19T16:06:55.998Z</time></trkpt><trkpt lat="47.238722111507" lon="-0.09169425160429315"><ele>40.0</ele><time>2026-04-19T16:06:56.998Z</time></trkpt><trkpt lat="47.23884500913443" lon="-0.09167077903487407"><ele>40.0</ele><time>2026-04-19T16:06:57.998Z</time></trkpt><trkpt lat="47.23896984620618" lon="-0.09165243081802887"><ele>40.0</ele><time>2026-04-19T16:06:58.998Z</time></trkpt><trkpt lat="47.23909490409364" lon="-0.09163283307561008"><ele>40.0</ele><time>2026-04-19T16:06:59.998Z</time></trkpt><trkpt lat="47.23922109378412" lon="-0.09160696512576814"><ele>39.0</ele><time>2026-04-19T16:07:00.998Z</time></trkpt><trkpt lat="47.23935132366689" lon="-0.09158282986293421"><ele>38.0</ele><time>2026-04-19T16:07:01.998Z</time></trkpt><trkpt lat="47.23947948737814" lon="-0.09156079291101142"><ele>37.0</ele><time>2026-04-19T16:07:02.998Z</time></trkpt><trkpt lat="47.23961121005764" lon="-0.09153698821132045"><ele>36.0</ele><time>2026-04-19T16:07:03.998Z</time></trkpt><trkpt lat="47.23974007596616" lon="-0.09151537696102825"><ele>36.25</ele><time>2026-04-19T16:07:04.998Z</time></trkpt><trkpt lat="47.23987024693243" lon="-0.09149042336015667"><ele>36.5</ele><time>2026-04-19T16:07:05.998Z</time></trkpt><trkpt lat="47.240001518569315" lon="-0.09146704941472202"><ele>36.75</ele><time>2026-04-19T16:07:06.998Z</time></trkpt><trkpt lat="47.24013523600554" lon="-0.09144129447803741"><ele>37.0</ele><time>2026-04-19T16:07:07.998Z</time></trkpt><trkpt lat="47.24026838706939" lon="-0.09141887764798745"><ele>37.0</ele><time>2026-04-19T16:07:08.998Z</time></trkpt><trkpt lat="47.240402828671485" lon="-0.09139562058661407"><ele>37.0</ele><time>2026-04-19T16:07:09.998Z</time></trkpt><trkpt lat="47.240530935542736" lon="-0.09137193414239253"><ele>37.0</ele><time>2026-04-19T16:07:10.998Z</time></trkpt><trkpt lat="47.24064993723665" lon="-0.09134874024033832"><ele>37.0</ele><time>2026-04-19T16:07:12Z</time></trkpt><trkpt lat="47.24076818063709" lon="-0.09132367266299386"><ele>37.25</ele><time>2026-04-19T16:07:13Z</time></trkpt><trkpt lat="47.24088506844159" lon="-0.09128537332117385"><ele>37.5</ele><time>2026-04-19T16:07:14Z</time></trkpt><trkpt lat="47.24100297690563" lon="-0.0912211841687548"><ele>37.75</ele><time>2026-04-19T16:07:15Z</time></trkpt><trkpt lat="47.24111284950103" lon="-0.09113813474060108"><ele>38.0</ele><time>2026-04-19T16:07:16Z</time></trkpt><trkpt lat="47.24122464782673" lon="-0.09103848741056275"><ele>38.0</ele><time>2026-04-19T16:07:17Z</time></trkpt><trkpt lat="47.2413299610987" lon="-0.09092947260625445"><ele>38.0</ele><time>2026-04-19T16:07:18Z</time></trkpt><trkpt lat="47.241437341055715" lon="-0.09081019475387918"><ele>38.0</ele><time>2026-04-19T16:07:19Z</time></trkpt><trkpt lat="47.241545970230355" lon="-0.0906925167457996"><ele>38.0</ele><time>2026-04-19T16:07:20Z</time></trkpt><trkpt lat="47.24165931618971" lon="-0.09057857096479174"><ele>38.25</ele><time>2026-04-19T16:07:21Z</time></trkpt><trkpt lat="47.24177482961385" lon="-0.09045966176975669"><ele>38.5</ele><time>2026-04-19T16:07:22Z</time></trkpt><trkpt lat="47.24188799059877" lon="-0.09033641276285036"><ele>38.75</ele><time>2026-04-19T16:07:23Z</time></trkpt><trkpt lat="47.24200114155848" lon="-0.09020649791614059"><ele>39.0</ele><time>2026-04-19T16:07:24Z</time></trkpt><trkpt lat="47.24210698997356" lon="-0.09009504560703259"><ele>39.0</ele><time>2026-04-19T16:07:25Z</time></trkpt><trkpt lat="47.242202200554615" lon="-0.09000023472825136"><ele>39.0</ele><time>2026-04-19T16:07:26Z</time></trkpt><trkpt lat="47.24230362793482" lon="-0.0899131698444358"><ele>39.0</ele><time>2026-04-19T16:07:27Z</time></trkpt><trkpt lat="47.24240818689184" lon="-0.0898526205797187"><ele>39.0</ele><time>2026-04-19T16:07:28Z</time></trkpt><trkpt lat="47.24251405667643" lon="-0.08982453693796073"><ele>38.6</ele><time>2026-04-19T16:07:29Z</time></trkpt><trkpt lat="47.24261171431764" lon="-0.08981673947238208"><ele>38.2</ele><time>2026-04-19T16:07:30Z</time></trkpt><trkpt lat="47.24269725251271" lon="-0.08980984401805624"><ele>37.800000000000004</ele><time>2026-04-19T16:07:31Z</time></trkpt><trkpt lat="47.24280532666835" lon="-0.08978318231016129"><ele>37.4</ele><time>2026-04-19T16:07:33Z</time></trkpt><trkpt lat="47.24280158357592" lon="-0.08963143978148426"><ele>37.0</ele><time>2026-04-19T16:07:36Z</time></trkpt><trkpt lat="47.24277441193532" lon="-0.08947552205949966"><ele>37.0</ele><time>2026-04-19T16:07:38Z</time></trkpt><trkpt lat="47.24275715974882" lon="-0.0893442338823103"><ele>37.0</ele><time>2026-04-19T16:07:40Z</time></trkpt><trkpt lat="47.24283015899917" lon="-0.0892909318834181"><ele>37.0</ele><time>2026-04-19T16:07:41Z</time></trkpt><trkpt lat="47.24288621529271" lon="-0.0892041618606098"><ele>37.0</ele><time>2026-04-19T16:07:42Z</time></trkpt><trkpt lat="47.2429483862047" lon="-0.08913233321376605"><ele>37.0</ele><time>2026-04-19T16:07:43Z</time></trkpt><trkpt lat="47.24300630055816" lon="-0.08905691640338997"><ele>37.0</ele><time>2026-04-19T16:07:44Z</time></trkpt><trkpt lat="47.24305969092507" lon="-0.08898898877027747"><ele>35.4</ele><time>2026-04-19T16:07:45Z</time></trkpt><trkpt lat="47.24305776056096" lon="-0.08885144768489676"><ele>33.800000000000004</ele><time>2026-04-19T16:07:48Z</time></trkpt><trkpt lat="47.24303388952016" lon="-0.08873160059278559"><ele>32.2</ele><time>2026-04-19T16:07:50Z</time></trkpt><trkpt lat="47.24301997744738" lon="-0.08862242865298593"><ele>30.6</ele><time>2026-04-19T16:07:55.999Z</time></trkpt><trkpt lat="47.242885982465985" lon="-0.08862390595799989"><ele>29.0</ele><time>2026-04-19T16:07:59.999Z</time></trkpt><trkpt lat="47.24280291855639" lon="-0.08862027978880421"><ele>28.999999999999996</ele><time>2026-04-19T16:08:01.999Z</time></trkpt><trkpt lat="47.24271708926989" lon="-0.0886089379261144"><ele>29.0</ele><time>2026-04-19T16:08:04.999Z</time></trkpt><trkpt lat="47.242793738403805" lon="-0.08861924271221824"><ele>29.0</ele><time>2026-04-19T16:08:11.999Z</time></trkpt><trkpt lat="47.24289840613288" lon="-0.08862893296359452"><ele>29.0</ele><time>2026-04-19T16:08:13.999Z</time></trkpt><trkpt lat="47.24298344684665" lon="-0.08863537676308657"><ele>28.999999999999996</ele><time>2026-04-19T16:08:15.999Z</time></trkpt><trkpt lat="47.24304847980619" lon="-0.08866477094481508"><ele>29.0</ele><time>2026-04-19T16:08:18.999Z</time></trkpt><trkpt lat="47.243090964116796" lon="-0.0889716505518779"><ele>28.999999999999996</ele><time>2026-04-19T16:08:21.999Z</time></trkpt><trkpt lat="47.243023613111276" lon="-0.08906512852327149"><ele>29.0</ele><time>2026-04-19T16:08:23.999Z</time></trkpt><trkpt lat="47.24296169150253" lon="-0.08912911786668551"><ele>29.0</ele><time>2026-04-19T16:08:24.999Z</time></trkpt><trkpt lat="47.242894971283064" lon="-0.08923235669707254"><ele>29.0</ele><time>2026-04-19T16:08:25.999Z</time></trkpt><trkpt lat="47.242811053701345" lon="-0.08932782610839184"><ele>28.999999999999996</ele><time>2026-04-19T16:08:26.999Z</time></trkpt><trkpt lat="47.24274687805904" lon="-0.08938442959493646"><ele>29.0</ele><time>2026-04-19T16:08:27.999Z</time></trkpt><trkpt lat="47.242758752276295" lon="-0.08949286263772929"><ele>30.333333333333332</ele><time>2026-04-19T16:08:29.999Z</time></trkpt><trkpt lat="47.24279356648173" lon="-0.08957027537576884"><ele>31.666666666666664</ele><time>2026-04-19T16:08:30.999Z</time></trkpt><trkpt lat="47.242834688388605" lon="-0.0896945958005765"><ele>33.0</ele><time>2026-04-19T16:08:32.999Z</time></trkpt><trkpt lat="47.24289858152989" lon="-0.08974169078111183"><ele>34.333333333333336</ele><time>2026-04-19T16:08:34.999Z</time></trkpt><trkpt lat="47.24297545514745" lon="-0.08975282288736187"><ele>35.66666666666667</ele><time>2026-04-19T16:08:36.999Z</time></trkpt><trkpt lat="47.243108204501304" lon="-0.08973437084756603"><ele>37.0</ele><time>2026-04-19T16:08:38.999Z</time></trkpt><trkpt lat="47.24318617393582" lon="-0.0897082410693456"><ele>37.2</ele><time>2026-04-19T16:08:39.999Z</time></trkpt><trkpt lat="47.24327965812212" lon="-0.08968204955860241"><ele>37.400000000000006</ele><time>2026-04-19T16:08:40.999Z</time></trkpt><trkpt lat="47.24338418232834" lon="-0.0896439445169577"><ele>37.599999999999994</ele><time>2026-04-19T16:08:41.999Z</time></trkpt><trkpt lat="47.24349296982246" lon="-0.08962211456150165"><ele>37.8</ele><time>2026-04-19T16:08:42.999Z</time></trkpt><trkpt lat="47.24360884083511" lon="-0.08959738778499135"><ele>38.0</ele><time>2026-04-19T16:08:43.999Z</time></trkpt><trkpt lat="47.24372630366192" lon="-0.08956978734178252"><ele>38.0</ele><time>2026-04-19T16:08:44.999Z</time></trkpt><trkpt lat="47.243842619916585" lon="-0.08954185536670227"><ele>38.0</ele><time>2026-04-19T16:08:45.999Z</time></trkpt><trkpt lat="47.24394866736096" lon="-0.08951230338278622"><ele>38.0</ele><time>2026-04-19T16:08:46.999Z</time></trkpt><trkpt lat="47.244042886682784" lon="-0.08948969253898187"><ele>38.0</ele><time>2026-04-19T16:08:47.999Z</time></trkpt><trkpt lat="47.244152673956094" lon="-0.08945064650881425"><ele>38.0</ele><time>2026-04-19T16:08:48.999Z</time></trkpt><trkpt lat="47.244264541249976" lon="-0.08940663777372511"><ele>38.199999999999996</ele><time>2026-04-19T16:08:49.999Z</time></trkpt><trkpt lat="47.24437532745653" lon="-0.08936228435466824"><ele>38.4</ele><time>2026-04-19T16:08:50.999Z</time></trkpt><trkpt lat="47.2444740794932" lon="-0.08932376639615677"><ele>38.599999999999994</ele><time>2026-04-19T16:08:51.999Z</time></trkpt><trkpt lat="47.24455868063205" lon="-0.08928911743459335"><ele>38.8</ele><time>2026-04-19T16:08:52.999Z</time></trkpt><trkpt lat="47.24463598210596" lon="-0.08926341640092289"><ele>39.0</ele><time>2026-04-19T16:08:53.999Z</time></trkpt><trkpt lat="47.24470785445283" lon="-0.08923752315301238"><ele>39.0</ele><time>2026-04-19T16:08:54.999Z</time></trkpt><trkpt lat="47.244771183789695" lon="-0.08921120958815837"><ele>39.0</ele><time>2026-04-19T16:08:55.999Z</time></trkpt><trkpt lat="47.24482963248077" lon="-0.08917116875793583"><ele>39.0</ele><time>2026-04-19T16:08:56.999Z</time></trkpt><trkpt lat="47.244911194643606" lon="-0.08913283119184037"><ele>39.0</ele><time>2026-04-19T16:08:58.999Z</time></trkpt><trkpt lat="47.24499526796852" lon="-0.08909289724529813"><ele>39.0</ele><time>2026-04-19T16:09:01.999Z</time></trkpt><trkpt lat="47.245069553304084" lon="-0.08909332940547068"><ele>39.0</ele><time>2026-04-19T16:09:05.999Z</time></trkpt><trkpt lat="47.24497430889402" lon="-0.08915229747110097"><ele>39.0</ele><time>2026-04-19T16:09:11.998Z</time></trkpt><trkpt lat="47.24485899828417" lon="-0.08922783257398004"><ele>39.0</ele><time>2026-04-19T16:09:13.998Z</time></trkpt><trkpt lat="47.24478010893923" lon="-0.08925956450755264"><ele>39.0</ele><time>2026-04-19T16:09:14.998Z</time></trkpt><trkpt lat="47.24470145219942" lon="-0.08928825752271118"><ele>39.0</ele><time>2026-04-19T16:09:15.998Z</time></trkpt><trkpt lat="47.24464042536339" lon="-0.08931106904486592"><ele>39.0</ele><time>2026-04-19T16:09:16.998Z</time></trkpt><trkpt lat="47.24454477636792" lon="-0.08935637841938016"><ele>38.0</ele><time>2026-04-19T16:09:19Z</time></trkpt><trkpt lat="47.24453321670676" lon="-0.08908574063110292"><ele>37.0</ele><time>2026-04-19T16:09:22Z</time></trkpt><trkpt lat="47.2445381602543" lon="-0.08892984868740883"><ele>36.0</ele><time>2026-04-19T16:09:24Z</time></trkpt><trkpt lat="47.244538449505185" lon="-0.08882787721702294"><ele>35.0</ele><time>2026-04-19T16:09:25Z</time></trkpt><trkpt lat="47.24453798348418" lon="-0.08872600691684966"><ele>34.0</ele><time>2026-04-19T16:09:26Z</time></trkpt><trkpt lat="47.244490519233956" lon="-0.08856944919303726"><ele>33.99999999999999</ele><time>2026-04-19T16:09:28Z</time></trkpt><trkpt lat="47.244472925208065" lon="-0.08847742053966576"><ele>34.0</ele><time>2026-04-19T16:09:29Z</time></trkpt><trkpt lat="47.24444175206911" lon="-0.08839457063218935"><ele>34.0</ele><time>2026-04-19T16:09:30Z</time></trkpt><trkpt lat="47.24439456280626" lon="-0.0883172472545038"><ele>34.0</ele><time>2026-04-19T16:09:31Z</time></trkpt><trkpt lat="47.24434924563151" lon="-0.08822986198064774"><ele>34.0</ele><time>2026-04-19T16:09:32Z</time></trkpt><trkpt lat="47.244315418280486" lon="-0.08812471246386892"><ele>33.99999999999999</ele><time>2026-04-19T16:09:33Z</time></trkpt><trkpt lat="47.24429019875026" lon="-0.08800551573083337"><ele>34.0</ele><time>2026-04-19T16:09:34Z</time></trkpt><trkpt lat="47.244229528152886" lon="-0.08787778002084579"><ele>33.0</ele><time>2026-04-19T16:09:36Z</time></trkpt><trkpt lat="47.24419401508041" lon="-0.0877972478539497"><ele>32.0</ele><time>2026-04-19T16:09:38.999Z</time></trkpt><trkpt lat="47.24415379788666" lon="-0.08765410955893571"><ele>31.0</ele><time>2026-04-19T16:09:57.999Z</time></trkpt><trkpt lat="47.24410211955867" lon="-0.08754715225926364"><ele>30.0</ele><time>2026-04-19T16:09:59.999Z</time></trkpt><trkpt lat="47.24407376469672" lon="-0.08743224076527618"><ele>29.0</ele><time>2026-04-19T16:10:04.999Z</time></trkpt><trkpt lat="47.24407344077978" lon="-0.08727430495818163"><ele>28.666666666666664</ele><time>2026-04-19T16:10:06.999Z</time></trkpt><trkpt lat="47.24409154558432" lon="-0.08716767467239345"><ele>28.333333333333332</ele><time>2026-04-19T16:10:07.999Z</time></trkpt><trkpt lat="47.244117993404046" lon="-0.08706465768329748"><ele>28.0</ele><time>2026-04-19T16:10:08.999Z</time></trkpt><trkpt lat="47.24415173296665" lon="-0.08696461008857072"><ele>27.666666666666664</ele><time>2026-04-19T16:10:09.999Z</time></trkpt><trkpt lat="47.2441924197692" lon="-0.08685883714131656"><ele>27.333333333333332</ele><time>2026-04-19T16:10:10.999Z</time></trkpt><trkpt lat="47.244239630660545" lon="-0.08674376387188529"><ele>27.0</ele><time>2026-04-19T16:10:11.999Z</time></trkpt><trkpt lat="47.24428904084383" lon="-0.0866312559856905"><ele>27.0</ele><time>2026-04-19T16:10:12.999Z</time></trkpt><trkpt lat="47.24434249506722" lon="-0.08652107885640635"><ele>27.000000000000004</ele><time>2026-04-19T16:10:13.999Z</time></trkpt><trkpt lat="47.244386303610284" lon="-0.08644186803340821"><ele>27.000000000000004</ele><time>2026-04-19T16:10:14.999Z</time></trkpt><trkpt lat="47.24442998504299" lon="-0.08636409503032759"><ele>27.0</ele><time>2026-04-19T16:10:15.998Z</time></trkpt><trkpt lat="47.24450116252583" lon="-0.0862418720630887"><ele>27.0</ele><time>2026-04-19T16:10:17.998Z</time></trkpt><trkpt lat="47.24457449652726" lon="-0.08610197413784665"><ele>27.0</ele><time>2026-04-19T16:10:19.998Z</time></trkpt><trkpt lat="47.24462366486906" lon="-0.0859745879033017"><ele>27.000000000000004</ele><time>2026-04-19T16:10:21.998Z</time></trkpt><trkpt lat="47.24460278868011" lon="-0.08578696378564732"><ele>27.000000000000004</ele><time>2026-04-19T16:10:23.998Z</time></trkpt><trkpt lat="47.244586707686864" lon="-0.08567486028660702"><ele>27.0</ele><time>2026-04-19T16:10:24.998Z</time></trkpt><trkpt lat="47.244572481325726" lon="-0.08555083084673046"><ele>27.0</ele><time>2026-04-19T16:10:25.998Z</time></trkpt><trkpt lat="47.24458122342597" lon="-0.0853858807032418"><ele>26.5</ele><time>2026-04-19T16:10:27.998Z</time></trkpt><trkpt lat="47.24457957693423" lon="-0.08524492192592531"><ele>26.0</ele><time>2026-04-19T16:10:29.998Z</time></trkpt><trkpt lat="47.244580825444885" lon="-0.0851365197724127"><ele>25.5</ele><time>2026-04-19T16:10:31.998Z</time></trkpt><trkpt lat="47.244720866502476" lon="-0.08504374615910883"><ele>25.0</ele><time>2026-04-19T16:10:34.998Z</time></trkpt><trkpt lat="47.2448556039657" lon="-0.08507192246712815"><ele>25.0</ele><time>2026-04-19T16:10:36.998Z</time></trkpt><trkpt lat="47.24494670767223" lon="-0.0850627611626517"><ele>25.0</ele><time>2026-04-19T16:10:37.998Z</time></trkpt><trkpt lat="47.24503919980698" lon="-0.08505354948574788"><ele>25.0</ele><time>2026-04-19T16:10:38.998Z</time></trkpt><trkpt lat="47.24514655845791" lon="-0.08504127307898247"><ele>25.0</ele><time>2026-04-19T16:10:39.998Z</time></trkpt><trkpt lat="47.24524819033703" lon="-0.08502599276303845"><ele>25.0</ele><time>2026-04-19T16:10:40.998Z</time></trkpt><trkpt lat="47.24535204375699" lon="-0.08500695298583952"><ele>25.0</ele><time>2026-04-19T16:10:41.998Z</time></trkpt><trkpt lat="47.24544280242459" lon="-0.0849847841508601"><ele>25.0</ele><time>2026-04-19T16:10:42.998Z</time></trkpt><trkpt lat="47.24552906182829" lon="-0.08495810774167373"><ele>25.0</ele><time>2026-04-19T16:10:43.998Z</time></trkpt><trkpt lat="47.245633900788384" lon="-0.08493168145985054"><ele>25.0</ele><time>2026-04-19T16:10:44.998Z</time></trkpt><trkpt lat="47.2457391028831" lon="-0.08485108435790671"><ele>25.0</ele><time>2026-04-19T16:10:45.998Z</time></trkpt><trkpt lat="47.245851319456854" lon="-0.08478786075249259"><ele>25.2</ele><time>2026-04-19T16:10:46.998Z</time></trkpt><trkpt lat="47.24596032803004" lon="-0.08470961042855105"><ele>25.4</ele><time>2026-04-19T16:10:47.998Z</time></trkpt><trkpt lat="47.24606922157706" lon="-0.08464321685719753"><ele>25.6</ele><time>2026-04-19T16:10:48.998Z</time></trkpt><trkpt lat="47.24617299728582" lon="-0.08461211477320968"><ele>25.8</ele><time>2026-04-19T16:10:49.998Z</time></trkpt><trkpt lat="47.246263451226056" lon="-0.08456149634447863"><ele>26.0</ele><time>2026-04-19T16:10:50.998Z</time></trkpt><trkpt lat="47.24634818091937" lon="-0.08452498966966861"><ele>26.0</ele><time>2026-04-19T16:10:51.998Z</time></trkpt><trkpt lat="47.24643384322233" lon="-0.08450720012413848"><ele>26.0</ele><time>2026-04-19T16:10:52.998Z</time></trkpt><trkpt lat="47.246534414701486" lon="-0.08449346170516418"><ele>26.0</ele><time>2026-04-19T16:10:53.998Z</time></trkpt><trkpt lat="47.2466388985715" lon="-0.08448340937143982"><ele>26.0</ele><time>2026-04-19T16:10:54.998Z</time></trkpt><trkpt lat="47.246744467137326" lon="-0.08449103945225638"><ele>26.0</ele><time>2026-04-19T16:10:55.998Z</time></trkpt><trkpt lat="47.24684760212291" lon="-0.08447189713202732"><ele>26.166666666666664</ele><time>2026-04-19T16:10:56.998Z</time></trkpt><trkpt lat="47.246936553393" lon="-0.08444918942079183"><ele>26.333333333333332</ele><time>2026-04-19T16:10:57.998Z</time></trkpt><trkpt lat="47.247022893480946" lon="-0.08441836481525641"><ele>26.5</ele><time>2026-04-19T16:10:58.998Z</time></trkpt><trkpt lat="47.24711145830283" lon="-0.0844064580376291"><ele>26.666666666666664</ele><time>2026-04-19T16:10:59.998Z</time></trkpt><trkpt lat="47.24720185951704" lon="-0.08440712659958123"><ele>26.833333333333332</ele><time>2026-04-19T16:11:00.998Z</time></trkpt><trkpt lat="47.24727838856835" lon="-0.08440581480611639"><ele>27.0</ele><time>2026-04-19T16:11:01.998Z</time></trkpt><trkpt lat="47.247361935386266" lon="-0.08440476389097566"><ele>27.400000000000002</ele><time>2026-04-19T16:11:02.998Z</time></trkpt><trkpt lat="47.2474528254412" lon="-0.08438450149759905"><ele>27.800000000000004</ele><time>2026-04-19T16:11:03.998Z</time></trkpt><trkpt lat="47.24755722365955" lon="-0.08436958596775432"><ele>28.2</ele><time>2026-04-19T16:11:04.998Z</time></trkpt><trkpt lat="47.24765861689634" lon="-0.08437793793538884"><ele>28.6</ele><time>2026-04-19T16:11:05.998Z</time></trkpt><trkpt lat="47.24776243746278" lon="-0.08438242589390463"><ele>29.0</ele><time>2026-04-19T16:11:06.998Z</time></trkpt><trkpt lat="47.24786959595333" lon="-0.08437861112521919"><ele>29.0</ele><time>2026-04-19T16:11:07.998Z</time></trkpt><trkpt lat="47.2479719406036" lon="-0.0843605972774543"><ele>29.0</ele><time>2026-04-19T16:11:08.998Z</time></trkpt><trkpt lat="47.248069659909916" lon="-0.08433978001835131"><ele>29.0</ele><time>2026-04-19T16:11:09.998Z</time></trkpt><trkpt lat="47.24816785942795" lon="-0.08431236015131853"><ele>29.0</ele><time>2026-04-19T16:11:10.998Z</time></trkpt><trkpt lat="47.24826704586176" lon="-0.08427337982453446"><ele>29.0</ele><time>2026-04-19T16:11:11.998Z</time></trkpt><trkpt lat="47.24836517985708" lon="-0.08419700061402371"><ele>28.75</ele><time>2026-04-19T16:11:12.998Z</time></trkpt><trkpt lat="47.24848308309916" lon="-0.08411203788979114"><ele>28.5</ele><time>2026-04-19T16:11:13.998Z</time></trkpt><trkpt lat="47.24860517494135" lon="-0.08401431049122302"><ele>28.25</ele><time>2026-04-19T16:11:14.998Z</time></trkpt><trkpt lat="47.2487044270216" lon="-0.08393030365266846"><ele>28.0</ele><time>2026-04-19T16:11:15.998Z</time></trkpt><trkpt lat="47.24880473590253" lon="-0.08385840951147062"><ele>27.799999999999997</ele><time>2026-04-19T16:11:16.998Z</time></trkpt><trkpt lat="47.248900489819704" lon="-0.08378412814399354"><ele>27.599999999999998</ele><time>2026-04-19T16:11:17.998Z</time></trkpt><trkpt lat="47.24899572065477" lon="-0.08371629020187567"><ele>27.400000000000002</ele><time>2026-04-19T16:11:18.998Z</time></trkpt><trkpt lat="47.24908754758045" lon="-0.08364446208676912"><ele>27.200000000000003</ele><time>2026-04-19T16:11:19.998Z</time></trkpt><trkpt lat="47.249181160358404" lon="-0.08356414227991196"><ele>27.0</ele><time>2026-04-19T16:11:20.998Z</time></trkpt><trkpt lat="47.24928256276979" lon="-0.08347185455468861"><ele>27.0</ele><time>2026-04-19T16:11:21.998Z</time></trkpt><trkpt lat="47.24939600642456" lon="-0.08339135693364577"><ele>27.000000000000004</ele><time>2026-04-19T16:11:22.998Z</time></trkpt><trkpt lat="47.249508470712165" lon="-0.0833305011294831"><ele>27.000000000000004</ele><time>2026-04-19T16:11:23.999Z</time></trkpt><trkpt lat="47.249603133488726" lon="-0.08328293900622305"><ele>27.0</ele><time>2026-04-19T16:11:24.999Z</time></trkpt><trkpt lat="47.249688713281465" lon="-0.08323693542676766"><ele>27.0</ele><time>2026-04-19T16:11:25.999Z</time></trkpt><trkpt lat="47.2497753325343" lon="-0.08320257062236928"><ele>26.8</ele><time>2026-04-19T16:11:26.999Z</time></trkpt><trkpt lat="47.24984888719357" lon="-0.08317928923997762"><ele>26.6</ele><time>2026-04-19T16:11:27.999Z</time></trkpt><trkpt lat="47.24993530252211" lon="-0.08316086711870944"><ele>26.400000000000002</ele><time>2026-04-19T16:11:28.999Z</time></trkpt><trkpt lat="47.2500291417776" lon="-0.08312672528966313"><ele>26.200000000000003</ele><time>2026-04-19T16:11:29.999Z</time></trkpt><trkpt lat="47.250122501279776" lon="-0.08309936200051747"><ele>26.0</ele><time>2026-04-19T16:11:30.999Z</time></trkpt><trkpt lat="47.25021843032939" lon="-0.08307926948210087"><ele>26.0</ele><time>2026-04-19T16:11:31.999Z</time></trkpt><trkpt lat="47.25031833880433" lon="-0.08305595613701419"><ele>26.0</ele><time>2026-04-19T16:11:32.999Z</time></trkpt><trkpt lat="47.25042687228842" lon="-0.08304343385655866"><ele>26.0</ele><time>2026-04-19T16:11:34Z</time></trkpt><trkpt lat="47.25054241498729" lon="-0.08304066610769019"><ele>26.0</ele><time>2026-04-19T16:11:34.999Z</time></trkpt><trkpt lat="47.25066137163265" lon="-0.08304788162075566"><ele>26.0</ele><time>2026-04-19T16:11:36Z</time></trkpt><trkpt lat="47.25078222963096" lon="-0.08305798162971159"><ele>26.0</ele><time>2026-04-19T16:11:37Z</time></trkpt><trkpt lat="47.250906704861656" lon="-0.08307535641903081"><ele>26.0</ele><time>2026-04-19T16:11:38Z</time></trkpt><trkpt lat="47.25103394854743" lon="-0.08310847482121621"><ele>26.0</ele><time>2026-04-19T16:11:39Z</time></trkpt><trkpt lat="47.251152373278764" lon="-0.08315463983504759"><ele>26.0</ele><time>2026-04-19T16:11:40Z</time></trkpt><trkpt lat="47.25125574945989" lon="-0.0832037486229957"><ele>26.0</ele><time>2026-04-19T16:11:41Z</time></trkpt><trkpt lat="47.25135673431016" lon="-0.08325733295422984"><ele>26.0</ele><time>2026-04-19T16:11:42Z</time></trkpt><trkpt lat="47.25146067751328" lon="-0.08330200914068552"><ele>26.0</ele><time>2026-04-19T16:11:43Z</time></trkpt><trkpt lat="47.251571547634704" lon="-0.08334360272912524"><ele>26.0</ele><time>2026-04-19T16:11:44Z</time></trkpt><trkpt lat="47.25168113044981" lon="-0.08338917682826513"><ele>26.0</ele><time>2026-04-19T16:11:45Z</time></trkpt><trkpt lat="47.25178867750791" lon="-0.08346275766309637"><ele>26.4</ele><time>2026-04-19T16:11:46Z</time></trkpt><trkpt lat="47.2518972036824" lon="-0.08355040711334687"><ele>26.8</ele><time>2026-04-19T16:11:47Z</time></trkpt><trkpt lat="47.25200295218933" lon="-0.08363616189755504"><ele>27.199999999999996</ele><time>2026-04-19T16:11:48Z</time></trkpt><trkpt lat="47.25209728264151" lon="-0.08370481937799756"><ele>27.599999999999998</ele><time>2026-04-19T16:11:49Z</time></trkpt><trkpt lat="47.25218405907162" lon="-0.08376966921345752"><ele>28.0</ele><time>2026-04-19T16:11:50Z</time></trkpt><trkpt lat="47.25226523848214" lon="-0.08383680120606374"><ele>28.2</ele><time>2026-04-19T16:11:51Z</time></trkpt><trkpt lat="47.252356447422684" lon="-0.08392761161299575"><ele>28.4</ele><time>2026-04-19T16:11:52Z</time></trkpt><trkpt lat="47.252446812716606" lon="-0.0840320004860149"><ele>28.599999999999998</ele><time>2026-04-19T16:11:53Z</time></trkpt><trkpt lat="47.25252655438109" lon="-0.0841536589311965"><ele>28.799999999999997</ele><time>2026-04-19T16:11:54Z</time></trkpt><trkpt lat="47.25259673697836" lon="-0.0842670889042024"><ele>29.0</ele><time>2026-04-19T16:11:55Z</time></trkpt><trkpt lat="47.25265876270503" lon="-0.08436832550335811"><ele>28.999999999999996</ele><time>2026-04-19T16:11:56Z</time></trkpt><trkpt lat="47.2527185898171" lon="-0.08445445825843381"><ele>29.0</ele><time>2026-04-19T16:11:57Z</time></trkpt><trkpt lat="47.2527729039985" lon="-0.08452380720221724"><ele>29.0</ele><time>2026-04-19T16:11:58Z</time></trkpt><trkpt lat="47.25282075723607" lon="-0.08459793758818249"><ele>29.0</ele><time>2026-04-19T16:11:59Z</time></trkpt><trkpt lat="47.25287505705403" lon="-0.08466480001071046"><ele>28.999999999999996</ele><time>2026-04-19T16:12:00Z</time></trkpt><trkpt lat="47.25292258896305" lon="-0.08473253182654135"><ele>29.0</ele><time>2026-04-19T16:12:01Z</time></trkpt><trkpt lat="47.25298854651663" lon="-0.08484461200796589"><ele>29.0</ele><time>2026-04-19T16:12:03Z</time></trkpt><trkpt lat="47.25309008853008" lon="-0.08485087839626301"><ele>29.0</ele><time>2026-04-19T16:12:05Z</time></trkpt><trkpt lat="47.25318761674089" lon="-0.08488045160114127"><ele>29.0</ele><time>2026-04-19T16:12:07Z</time></trkpt><trkpt lat="47.25325197726104" lon="-0.08494305480220878"><ele>29.0</ele><time>2026-04-19T16:12:08Z</time></trkpt><trkpt lat="47.253326347255054" lon="-0.08503924615922416"><ele>29.0</ele><time>2026-04-19T16:12:09Z</time></trkpt><trkpt lat="47.253384063719096" lon="-0.08512196424544168"><ele>29.25</ele><time>2026-04-19T16:12:10Z</time></trkpt><trkpt lat="47.253503678077465" lon="-0.0850925640090331"><ele>29.5</ele><time>2026-04-19T16:12:11Z</time></trkpt><trkpt lat="47.25358249089712" lon="-0.08523480209976236"><ele>29.75</ele><time>2026-04-19T16:12:12.999Z</time></trkpt><trkpt lat="47.25363208030873" lon="-0.08533334760000465"><ele>30.0</ele><time>2026-04-19T16:12:14.999Z</time></trkpt><trkpt lat="47.25372444527513" lon="-0.08550618835945546"><ele>29.0</ele><time>2026-04-19T16:12:15.999Z</time></trkpt><trkpt lat="47.25351781008874" lon="-0.0858178192845629"><ele>28.0</ele><time>2026-04-19T16:12:17.999Z</time></trkpt><trkpt lat="47.25338975946909" lon="-0.08582884760637982"><ele>27.0</ele><time>2026-04-19T16:12:18.999Z</time></trkpt><trkpt lat="47.25327797234969" lon="-0.08593634365474133"><ele>27.0</ele><time>2026-04-19T16:12:19.999Z</time></trkpt><trkpt lat="47.25316860233521" lon="-0.08609446909244843"><ele>27.0</ele><time>2026-04-19T16:12:20.999Z</time></trkpt><trkpt lat="47.25302808447224" lon="-0.08626210780425261"><ele>27.0</ele><time>2026-04-19T16:12:21.999Z</time></trkpt><trkpt lat="47.25286819190805" lon="-0.08643615895815131"><ele>28.0</ele><time>2026-04-19T16:12:22.999Z</time></trkpt><trkpt lat="47.25271294432856" lon="-0.08660548087768989"><ele>29.0</ele><time>2026-04-19T16:12:23.999Z</time></trkpt><trkpt lat="47.25258499190981" lon="-0.08675658732557508"><ele>30.0</ele><time>2026-04-19T16:12:24.999Z</time></trkpt><trkpt lat="47.25247835214123" lon="-0.0868859841091162"><ele>30.0</ele><time>2026-04-19T16:12:25.999Z</time></trkpt><trkpt lat="47.252384827555716" lon="-0.08699746976588471"><ele>30.0</ele><time>2026-04-19T16:12:26.999Z</time></trkpt><trkpt lat="47.25230771753463" lon="-0.08708637058215052"><ele>30.0</ele><time>2026-04-19T16:12:27.999Z</time></trkpt><trkpt lat="47.25224994567766" lon="-0.0871613778776957"><ele>30.0</ele><time>2026-04-19T16:12:28.999Z</time></trkpt><trkpt lat="47.25217371899185" lon="-0.08728872689926165"><ele>30.0</ele><time>2026-04-19T16:12:30.999Z</time></trkpt><trkpt lat="47.25215123256528" lon="-0.08738911660321975"><ele>30.0</ele><time>2026-04-19T16:12:31.999Z</time></trkpt><trkpt lat="47.25213395846312" lon="-0.08749852600758046"><ele>30.0</ele><time>2026-04-19T16:12:32.999Z</time></trkpt><trkpt lat="47.252229364177374" lon="-0.08764697567664907"><ele>30.0</ele><time>2026-04-19T16:12:33.999Z</time></trkpt><trkpt lat="47.25226940095423" lon="-0.0877622219908961"><ele>30.0</ele><time>2026-04-19T16:12:34.999Z</time></trkpt><trkpt lat="47.252334859707" lon="-0.0878753161196262"><ele>30.0</ele><time>2026-04-19T16:12:35.999Z</time></trkpt><trkpt lat="47.25240500024062" lon="-0.08798081611156591"><ele>29.8</ele><time>2026-04-19T16:12:36.999Z</time></trkpt><trkpt lat="47.25246848372376" lon="-0.08810128566601479"><ele>29.6</ele><time>2026-04-19T16:12:37.999Z</time></trkpt><trkpt lat="47.252518946169005" lon="-0.0882163198026044"><ele>29.4</ele><time>2026-04-19T16:12:38.999Z</time></trkpt><trkpt lat="47.25259340247178" lon="-0.08832607938911691"><ele>29.2</ele><time>2026-04-19T16:12:39.999Z</time></trkpt><trkpt lat="47.25264083680961" lon="-0.08843815151854573"><ele>29.0</ele><time>2026-04-19T16:12:40.999Z</time></trkpt><trkpt lat="47.252692409814856" lon="-0.08850182499232549"><ele>28.999999999999996</ele><time>2026-04-19T16:12:41.999Z</time></trkpt><trkpt lat="47.25277310943569" lon="-0.08861097991935193"><ele>29.0</ele><time>2026-04-19T16:12:43.999Z</time></trkpt><trkpt lat="47.25285869869488" lon="-0.08871185530628758"><ele>29.0</ele><time>2026-04-19T16:12:45.999Z</time></trkpt><trkpt lat="47.25292141421758" lon="-0.08875418350046288"><ele>29.0</ele><time>2026-04-19T16:12:46.999Z</time></trkpt><trkpt lat="47.25295916431905" lon="-0.08883132775102401"><ele>28.999999999999996</ele><time>2026-04-19T16:12:47.999Z</time></trkpt><trkpt lat="47.253010524981775" lon="-0.0889083015111529"><ele>29.0</ele><time>2026-04-19T16:12:48.999Z</time></trkpt><trkpt lat="47.2530730085672" lon="-0.08901865180747023"><ele>29.2</ele><time>2026-04-19T16:12:49.999Z</time></trkpt><trkpt lat="47.253142476774165" lon="-0.08913295845511784"><ele>29.4</ele><time>2026-04-19T16:12:50.999Z</time></trkpt><trkpt lat="47.25318984786184" lon="-0.08921871598068601"><ele>29.6</ele><time>2026-04-19T16:12:51.999Z</time></trkpt><trkpt lat="47.25322890002163" lon="-0.08929165165816133"><ele>29.8</ele><time>2026-04-19T16:12:52.999Z</time></trkpt><trkpt lat="47.25329642154222" lon="-0.08936881429089304"><ele>30.0</ele><time>2026-04-19T16:12:54.999Z</time></trkpt><trkpt lat="47.253669082529456" lon="-0.08898797603698036"><ele>30.0</ele><time>2026-04-19T16:12:55.999Z</time></trkpt><trkpt lat="47.253741407804554" lon="-0.08903366049157256"><ele>30.0</ele><time>2026-04-19T16:12:56.999Z</time></trkpt><trkpt lat="47.25381886588538" lon="-0.08913731939483101"><ele>30.0</ele><time>2026-04-19T16:12:57.999Z</time></trkpt><trkpt lat="47.25391292493867" lon="-0.08925271290995355"><ele>30.0</ele><time>2026-04-19T16:12:58.999Z</time></trkpt><trkpt lat="47.25400663462235" lon="-0.08937870738529091"><ele>30.0</ele><time>2026-04-19T16:12:59.999Z</time></trkpt><trkpt lat="47.25408286218851" lon="-0.08950709166158123"><ele>29.833333333333332</ele><time>2026-04-19T16:13:00.999Z</time></trkpt><trkpt lat="47.25415054218361" lon="-0.08959708220418422"><ele>29.666666666666664</ele><time>2026-04-19T16:13:01.999Z</time></trkpt><trkpt lat="47.25420289028755" lon="-0.0896706322424051"><ele>29.5</ele><time>2026-04-19T16:13:02.999Z</time></trkpt><trkpt lat="47.254261923468356" lon="-0.08972738705876349"><ele>29.333333333333332</ele><time>2026-04-19T16:13:03.999Z</time></trkpt><trkpt lat="47.25433695647092" lon="-0.08980704581814473"><ele>29.166666666666664</ele><time>2026-04-19T16:13:04.999Z</time></trkpt><trkpt lat="47.254423026811644" lon="-0.08992223118605153"><ele>29.0</ele><time>2026-04-19T16:13:05.999Z</time></trkpt><trkpt lat="47.25452869100376" lon="-0.09003303294623054"><ele>29.0</ele><time>2026-04-19T16:13:06.999Z</time></trkpt><trkpt lat="47.254633815256064" lon="-0.0901346329214174"><ele>29.0</ele><time>2026-04-19T16:13:07.999Z</time></trkpt><trkpt lat="47.25471836700765" lon="-0.09022374576342067"><ele>29.0</ele><time>2026-04-19T16:13:08.999Z</time></trkpt><trkpt lat="47.254787967298306" lon="-0.090318768114923"><ele>29.0</ele><time>2026-04-19T16:13:09.999Z</time></trkpt><trkpt lat="47.254876995735145" lon="-0.09038515857827818"><ele>29.0</ele><time>2026-04-19T16:13:10.999Z</time></trkpt><trkpt lat="47.25498216329155" lon="-0.09042759903791824"><ele>28.0</ele><time>2026-04-19T16:13:11.999Z</time></trkpt><trkpt lat="47.25509357446982" lon="-0.09046814238506602"><ele>27.0</ele><time>2026-04-19T16:13:12.999Z</time></trkpt><trkpt lat="47.255205398321955" lon="-0.09051873539281749"><ele>26.0</ele><time>2026-04-19T16:13:13.999Z</time></trkpt><trkpt lat="47.2553136758161" lon="-0.09060553808259615"><ele>25.0</ele><time>2026-04-19T16:13:14.999Z</time></trkpt><trkpt lat="47.25543428459449" lon="-0.09069481970589839"><ele>26.5</ele><time>2026-04-19T16:13:15.999Z</time></trkpt><trkpt lat="47.25555448515683" lon="-0.09078812376733"><ele>28.0</ele><time>2026-04-19T16:13:16.999Z</time></trkpt><trkpt lat="47.255680824667145" lon="-0.09087617000829777"><ele>29.5</ele><time>2026-04-19T16:13:17.999Z</time></trkpt><trkpt lat="47.25580783849893" lon="-0.09098115576764455"><ele>31.0</ele><time>2026-04-19T16:13:18.999Z</time></trkpt><trkpt lat="47.25592623223144" lon="-0.09104538171233839"><ele>31.25</ele><time>2026-04-19T16:13:19.999Z</time></trkpt><trkpt lat="47.256051252619685" lon="-0.09111165206095913"><ele>31.5</ele><time>2026-04-19T16:13:20.999Z</time></trkpt><trkpt lat="47.25617874785231" lon="-0.09117291216253168"><ele>31.75</ele><time>2026-04-19T16:13:21.999Z</time></trkpt><trkpt lat="47.25630327689182" lon="-0.09125624835633281"><ele>32.0</ele><time>2026-04-19T16:13:22.999Z</time></trkpt><trkpt lat="47.25641883741282" lon="-0.0913473610445792"><ele>31.0</ele><time>2026-04-19T16:13:23.999Z</time></trkpt><trkpt lat="47.256528151863535" lon="-0.09143180681479261"><ele>30.000000000000004</ele><time>2026-04-19T16:13:24.999Z</time></trkpt><trkpt lat="47.256627891238494" lon="-0.09150660903290225"><ele>29.000000000000004</ele><time>2026-04-19T16:13:25.999Z</time></trkpt><trkpt lat="47.256722205681754" lon="-0.09157301704007734"><ele>28.0</ele><time>2026-04-19T16:13:26.999Z</time></trkpt><trkpt lat="47.25681677150977" lon="-0.09165391802607428"><ele>27.0</ele><time>2026-04-19T16:13:27.999Z</time></trkpt><trkpt lat="47.25690457544184" lon="-0.09173613568807135"><ele>27.0</ele><time>2026-04-19T16:13:28.999Z</time></trkpt><trkpt lat="47.256986149280046" lon="-0.09176892151187323"><ele>27.000000000000004</ele><time>2026-04-19T16:13:30Z</time></trkpt><trkpt lat="47.25704944205834" lon="-0.09178619470803005"><ele>27.000000000000004</ele><time>2026-04-19T16:13:31Z</time></trkpt><trkpt lat="47.257145456589456" lon="-0.09182358696930346"><ele>27.0</ele><time>2026-04-19T16:13:32Z</time></trkpt><trkpt lat="47.25725794232898" lon="-0.09188239194534378"><ele>27.0</ele><time>2026-04-19T16:13:33Z</time></trkpt><trkpt lat="47.25736168506465" lon="-0.09191816654018885"><ele>26.25</ele><time>2026-04-19T16:13:34Z</time></trkpt><trkpt lat="47.25746290889634" lon="-0.09193313404605852"><ele>25.5</ele><time>2026-04-19T16:13:35Z</time></trkpt><trkpt lat="47.25759566655551" lon="-0.0919279688680989"><ele>24.75</ele><time>2026-04-19T16:13:36Z</time></trkpt><trkpt lat="47.257728617387194" lon="-0.0919358914912324"><ele>24.0</ele><time>2026-04-19T16:13:37Z</time></trkpt><trkpt lat="47.25784706413792" lon="-0.0919805691546487"><ele>24.0</ele><time>2026-04-19T16:13:38Z</time></trkpt><trkpt lat="47.257962428618484" lon="-0.09202369277484584"><ele>24.0</ele><time>2026-04-19T16:13:39Z</time></trkpt><trkpt lat="47.25807190206349" lon="-0.09204799946908888"><ele>24.0</ele><time>2026-04-19T16:13:40Z</time></trkpt><trkpt lat="47.25816504853159" lon="-0.0920529920126813"><ele>24.0</ele><time>2026-04-19T16:13:41Z</time></trkpt><trkpt lat="47.258250479747915" lon="-0.09206994281067962"><ele>24.0</ele><time>2026-04-19T16:13:42Z</time></trkpt><trkpt lat="47.25832286579679" lon="-0.09213704660346315"><ele>24.75</ele><time>2026-04-19T16:13:43Z</time></trkpt><trkpt lat="47.25840599197735" lon="-0.09224422254814564"><ele>25.5</ele><time>2026-04-19T16:13:44Z</time></trkpt><trkpt lat="47.25850056341485" lon="-0.09238189607717043"><ele>26.25</ele><time>2026-04-19T16:13:45Z</time></trkpt><trkpt lat="47.25859833038843" lon="-0.09248576610457446"><ele>27.0</ele><time>2026-04-19T16:13:46Z</time></trkpt><trkpt lat="47.258670624218105" lon="-0.09255893887545776"><ele>27.0</ele><time>2026-04-19T16:13:47Z</time></trkpt><trkpt lat="47.258724406498835" lon="-0.0926354612928448"><ele>27.0</ele><time>2026-04-19T16:13:48Z</time></trkpt><trkpt lat="47.258766979405856" lon="-0.0927068704563004"><ele>27.0</ele><time>2026-04-19T16:13:49Z</time></trkpt><trkpt lat="47.258852079314785" lon="-0.09274321218007019"><ele>27.0</ele><time>2026-04-19T16:13:51Z</time></trkpt><trkpt lat="47.25891546351889" lon="-0.09277936732218064"><ele>27.0</ele><time>2026-04-19T16:13:53Z</time></trkpt><trkpt lat="47.25898544671088" lon="-0.09282640903098055"><ele>27.0</ele><time>2026-04-19T16:13:55Z</time></trkpt><trkpt lat="47.25906076363225" lon="-0.09285035380117258"><ele>26.8</ele><time>2026-04-19T16:13:57Z</time></trkpt><trkpt lat="47.25914641270848" lon="-0.09289373550981544"><ele>26.6</ele><time>2026-04-19T16:13:59Z</time></trkpt><trkpt lat="47.259237565320056" lon="-0.09297228173455968"><ele>26.400000000000002</ele><time>2026-04-19T16:14:01Z</time></trkpt><trkpt lat="47.2593043672744" lon="-0.0930215684929957"><ele>26.200000000000003</ele><time>2026-04-19T16:14:02Z</time></trkpt><trkpt lat="47.25939186458246" lon="-0.09307251675433643"><ele>26.0</ele><time>2026-04-19T16:14:03Z</time></trkpt><trkpt lat="47.25948543849879" lon="-0.09311186363133118"><ele>26.0</ele><time>2026-04-19T16:14:04Z</time></trkpt><trkpt lat="47.25957590631953" lon="-0.0931549855460825"><ele>26.0</ele><time>2026-04-19T16:14:05Z</time></trkpt><trkpt lat="47.25966509409926" lon="-0.09319272586587822"><ele>26.0</ele><time>2026-04-19T16:14:06Z</time></trkpt><trkpt lat="47.25975966472039" lon="-0.09321689776246712"><ele>26.0</ele><time>2026-04-19T16:14:07Z</time></trkpt><trkpt lat="47.259856478627384" lon="-0.09322731247463441"><ele>26.0</ele><time>2026-04-19T16:14:08Z</time></trkpt><trkpt lat="47.259961618204265" lon="-0.09324203466913458"><ele>25.8</ele><time>2026-04-19T16:14:09Z</time></trkpt><trkpt lat="47.26007456761682" lon="-0.09326153766401361"><ele>25.6</ele><time>2026-04-19T16:14:10Z</time></trkpt><trkpt lat="47.260178006754984" lon="-0.09326496683270642"><ele>25.4</ele><time>2026-04-19T16:14:11Z</time></trkpt><trkpt lat="47.2602655666856" lon="-0.09327508188284224"><ele>25.2</ele><time>2026-04-19T16:14:12Z</time></trkpt><trkpt lat="47.26034916400534" lon="-0.09328338954874933"><ele>25.0</ele><time>2026-04-19T16:14:13Z</time></trkpt><trkpt lat="47.26041970370903" lon="-0.09329694865152334"><ele>25.000000000000004</ele><time>2026-04-19T16:14:14Z</time></trkpt><trkpt lat="47.26049701693987" lon="-0.09331485849893326"><ele>25.0</ele><time>2026-04-19T16:14:15Z</time></trkpt><trkpt lat="47.26057538392445" lon="-0.09332795476364925"><ele>25.0</ele><time>2026-04-19T16:14:16Z</time></trkpt><trkpt lat="47.26067179389998" lon="-0.0933275035821673"><ele>25.0</ele><time>2026-04-19T16:14:17Z</time></trkpt><trkpt lat="47.260755391513484" lon="-0.0933161207355108"><ele>25.000000000000004</ele><time>2026-04-19T16:14:18Z</time></trkpt><trkpt lat="47.26085900549271" lon="-0.09329845068930141"><ele>25.0</ele><time>2026-04-19T16:14:18.999Z</time></trkpt><trkpt lat="47.26096769058824" lon="-0.09327324576315557"><ele>25.25</ele><time>2026-04-19T16:14:19.999Z</time></trkpt><trkpt lat="47.26108295625912" lon="-0.09326099474698667"><ele>25.5</ele><time>2026-04-19T16:14:20.999Z</time></trkpt><trkpt lat="47.2612178188306" lon="-0.09325435068321676"><ele>25.75</ele><time>2026-04-19T16:14:21.999Z</time></trkpt><trkpt lat="47.26135032927478" lon="-0.09324490094483792"><ele>26.0</ele><time>2026-04-19T16:14:22.999Z</time></trkpt><trkpt lat="47.26147619821753" lon="-0.09325101884960903"><ele>26.0</ele><time>2026-04-19T16:14:23.999Z</time></trkpt><trkpt lat="47.261589755645176" lon="-0.09328340556186997"><ele>26.0</ele><time>2026-04-19T16:14:24.999Z</time></trkpt><trkpt lat="47.26170903552858" lon="-0.09334338643093247"><ele>26.0</ele><time>2026-04-19T16:14:25.999Z</time></trkpt><trkpt lat="47.2618138554983" lon="-0.09341296774159624"><ele>26.0</ele><time>2026-04-19T16:14:26.999Z</time></trkpt><trkpt lat="47.261901562239736" lon="-0.09349505394973318"><ele>26.0</ele><time>2026-04-19T16:14:27.999Z</time></trkpt><trkpt lat="47.26197381022494" lon="-0.09358996875372527"><ele>26.0</ele><time>2026-04-19T16:14:28.999Z</time></trkpt><trkpt lat="47.262038723475115" lon="-0.09369650877292177"><ele>26.0</ele><time>2026-04-19T16:14:29.999Z</time></trkpt><trkpt lat="47.26211205188355" lon="-0.0938236438794104"><ele>26.0</ele><time>2026-04-19T16:14:30.999Z</time></trkpt><trkpt lat="47.26219082728542" lon="-0.09395771812264193"><ele>26.0</ele><time>2026-04-19T16:14:31.999Z</time></trkpt><trkpt lat="47.26227121025956" lon="-0.09411316486672631"><ele>26.25</ele><time>2026-04-19T16:14:32.999Z</time></trkpt><trkpt lat="47.26235122990885" lon="-0.09429063433918546"><ele>26.5</ele><time>2026-04-19T16:14:33.999Z</time></trkpt><trkpt lat="47.26242835714386" lon="-0.09445195614745881"><ele>26.75</ele><time>2026-04-19T16:14:34.999Z</time></trkpt><trkpt lat="47.262492134248824" lon="-0.09459537015711598"><ele>27.0</ele><time>2026-04-19T16:14:35.999Z</time></trkpt><trkpt lat="47.262542413408596" lon="-0.09471118029979024"><ele>27.0</ele><time>2026-04-19T16:14:36.999Z</time></trkpt><trkpt lat="47.26257711564977" lon="-0.09481578491025383"><ele>27.0</ele><time>2026-04-19T16:14:37.999Z</time></trkpt><trkpt lat="47.262603725600805" lon="-0.09491348956205949"><ele>27.0</ele><time>2026-04-19T16:14:38.999Z</time></trkpt><trkpt lat="47.26262224525065" lon="-0.09500584167900133"><ele>27.0</ele><time>2026-04-19T16:14:39.999Z</time></trkpt><trkpt lat="47.26262279452769" lon="-0.09511619512579074"><ele>27.0</ele><time>2026-04-19T16:14:40.999Z</time></trkpt><trkpt lat="47.26263186871068" lon="-0.09523288759699587"><ele>27.0</ele><time>2026-04-19T16:14:41.999Z</time></trkpt><trkpt lat="47.262657905136564" lon="-0.09537400704268417"><ele>27.0</ele><time>2026-04-19T16:14:42.999Z</time></trkpt><trkpt lat="47.262704912774566" lon="-0.09550245812961033"><ele>27.000000000000004</ele><time>2026-04-19T16:14:43.999Z</time></trkpt><trkpt lat="47.26274551050716" lon="-0.09565751528614319"><ele>27.000000000000004</ele><time>2026-04-19T16:14:44.999Z</time></trkpt><trkpt lat="47.262778082563024" lon="-0.09578788662732794"><ele>27.0</ele><time>2026-04-19T16:14:45.999Z</time></trkpt><trkpt lat="47.262824881781526" lon="-0.09590567314132711"><ele>27.0</ele><time>2026-04-19T16:14:46.999Z</time></trkpt><trkpt lat="47.26288163631823" lon="-0.09600046260491232"><ele>27.200000000000003</ele><time>2026-04-19T16:14:47.999Z</time></trkpt><trkpt lat="47.262947302751556" lon="-0.09611858778469219"><ele>27.400000000000002</ele><time>2026-04-19T16:14:48.999Z</time></trkpt><trkpt lat="47.26301431156609" lon="-0.09624015235472638"><ele>27.599999999999998</ele><time>2026-04-19T16:14:49.999Z</time></trkpt><trkpt lat="47.26309945408757" lon="-0.09636256236245445"><ele>27.799999999999997</ele><time>2026-04-19T16:14:50.999Z</time></trkpt><trkpt lat="47.2631893458297" lon="-0.09646434928185608"><ele>28.0</ele><time>2026-04-19T16:14:51.999Z</time></trkpt><trkpt lat="47.263289648001184" lon="-0.09654129834066462"><ele>26.75</ele><time>2026-04-19T16:14:52.999Z</time></trkpt><trkpt lat="47.26338837500737" lon="-0.09659388010414063"><ele>25.5</ele><time>2026-04-19T16:14:53.999Z</time></trkpt><trkpt lat="47.263491816260945" lon="-0.09663887331656644"><ele>24.25</ele><time>2026-04-19T16:14:54.999Z</time></trkpt><trkpt lat="47.26360319332637" lon="-0.09668576095452783"><ele>23.0</ele><time>2026-04-19T16:14:55.999Z</time></trkpt><trkpt lat="47.26373099342853" lon="-0.09671991426274085"><ele>23.0</ele><time>2026-04-19T16:14:56.999Z</time></trkpt><trkpt lat="47.26385129248671" lon="-0.09675776627447448"><ele>23.0</ele><time>2026-04-19T16:14:57.999Z</time></trkpt><trkpt lat="47.26394617408682" lon="-0.09679278554300959"><ele>23.0</ele><time>2026-04-19T16:14:58.999Z</time></trkpt><trkpt lat="47.264039247890274" lon="-0.09684060560735233"><ele>23.0</ele><time>2026-04-19T16:14:59.999Z</time></trkpt><trkpt lat="47.26412204535012" lon="-0.0968879100110436"><ele>23.0</ele><time>2026-04-19T16:15:00.999Z</time></trkpt><trkpt lat="47.2641914276638" lon="-0.09691442458140201"><ele>23.799999999999997</ele><time>2026-04-19T16:15:01.999Z</time></trkpt><trkpt lat="47.26431946858544" lon="-0.09690501221898735"><ele>24.6</ele><time>2026-04-19T16:15:03.999Z</time></trkpt><trkpt lat="47.264422107640456" lon="-0.09687830978031611"><ele>25.400000000000002</ele><time>2026-04-19T16:15:05.999Z</time></trkpt><trkpt lat="47.26449857699996" lon="-0.09689099776471094"><ele>26.200000000000003</ele><time>2026-04-19T16:15:07.999Z</time></trkpt><trkpt lat="47.26459650725798" lon="-0.09700947965756451"><ele>27.0</ele><time>2026-04-19T16:15:09.999Z</time></trkpt><trkpt lat="47.26465308478635" lon="-0.09707913555544706"><ele>27.0</ele><time>2026-04-19T16:15:10.999Z</time></trkpt><trkpt lat="47.26469155880272" lon="-0.09716588933256377"><ele>27.000000000000004</ele><time>2026-04-19T16:15:11.999Z</time></trkpt><trkpt lat="47.26472396951759" lon="-0.0972789574338585"><ele>27.000000000000004</ele><time>2026-04-19T16:15:12.999Z</time></trkpt><trkpt lat="47.26462783085046" lon="-0.09747894690976573"><ele>27.0</ele><time>2026-04-19T16:15:13.999Z</time></trkpt><trkpt lat="47.26465880016041" lon="-0.0976124196081062"><ele>27.0</ele><time>2026-04-19T16:15:14.999Z</time></trkpt><trkpt lat="47.26468252247607" lon="-0.09771465944219075"><ele>27.5</ele><time>2026-04-19T16:15:15.999Z</time></trkpt><trkpt lat="47.26489205189218" lon="-0.09769979690194908"><ele>28.0</ele><time>2026-04-19T16:15:16.999Z</time></trkpt><trkpt lat="47.26496889090379" lon="-0.09785807743494156"><ele>28.5</ele><time>2026-04-19T16:15:18.999Z</time></trkpt><trkpt lat="47.26500213626112" lon="-0.09797325110120526"><ele>29.0</ele><time>2026-04-19T16:15:19.999Z</time></trkpt><trkpt lat="47.264977348724194" lon="-0.09808684148520916"><ele>28.999999999999996</ele><time>2026-04-19T16:15:20.999Z</time></trkpt><trkpt lat="47.26501214395095" lon="-0.09820110501120304"><ele>29.0</ele><time>2026-04-19T16:15:21.999Z</time></trkpt><trkpt lat="47.26504334624557" lon="-0.09831247440354943"><ele>29.0</ele><time>2026-04-19T16:15:22.999Z</time></trkpt><trkpt lat="47.26507068134879" lon="-0.09842319418194738"><ele>29.0</ele><time>2026-04-19T16:15:23.999Z</time></trkpt><trkpt lat="47.26509960239519" lon="-0.09854583754889878"><ele>28.999999999999996</ele><time>2026-04-19T16:15:24.999Z</time></trkpt><trkpt lat="47.2651298430991" lon="-0.09867407857218105"><ele>29.0</ele><time>2026-04-19T16:15:25.999Z</time></trkpt><trkpt lat="47.26515624922946" lon="-0.09878605840452695"><ele>29.0</ele><time>2026-04-19T16:15:26.999Z</time></trkpt><trkpt lat="47.26518349823417" lon="-0.09890161259634316"><ele>29.0</ele><time>2026-04-19T16:15:27.999Z</time></trkpt><trkpt lat="47.26536402660592" lon="-0.09892481460822077"><ele>29.0</ele><time>2026-04-19T16:15:28.999Z</time></trkpt><trkpt lat="47.26541082227709" lon="-0.09901375565748569"><ele>29.0</ele><time>2026-04-19T16:15:29.999Z</time></trkpt><trkpt lat="47.2654532493721" lon="-0.09912307873657271"><ele>29.0</ele><time>2026-04-19T16:15:30.999Z</time></trkpt><trkpt lat="47.26548585789002" lon="-0.09922872740008702"><ele>29.166666666666664</ele><time>2026-04-19T16:15:31.999Z</time></trkpt><trkpt lat="47.26551618653516" lon="-0.09934685878286804"><ele>29.333333333333332</ele><time>2026-04-19T16:15:32.999Z</time></trkpt><trkpt lat="47.265542762249886" lon="-0.09945238748447142"><ele>29.5</ele><time>2026-04-19T16:15:33.999Z</time></trkpt><trkpt lat="47.26558800658855" lon="-0.09954346118133847"><ele>29.666666666666664</ele><time>2026-04-19T16:15:34.999Z</time></trkpt><trkpt lat="47.26564701659048" lon="-0.09964706874543451"><ele>29.833333333333332</ele><time>2026-04-19T16:15:36Z</time></trkpt><trkpt lat="47.265694160158915" lon="-0.09977237959771922"><ele>30.0</ele><time>2026-04-19T16:15:37Z</time></trkpt><trkpt lat="47.26573880993313" lon="-0.09989651867265345"><ele>29.8</ele><time>2026-04-19T16:15:38Z</time></trkpt><trkpt lat="47.26577396637433" lon="-0.10000367263338351"><ele>29.6</ele><time>2026-04-19T16:15:39Z</time></trkpt><trkpt lat="47.265826084183395" lon="-0.1001254881192836"><ele>29.4</ele><time>2026-04-19T16:15:40Z</time></trkpt><trkpt lat="47.26585673437883" lon="-0.1002423908996951"><ele>29.2</ele><time>2026-04-19T16:15:41Z</time></trkpt><trkpt lat="47.26580114243777" lon="-0.10036839253141235"><ele>29.0</ele><time>2026-04-19T16:15:42Z</time></trkpt><trkpt lat="47.26582771976467" lon="-0.10050121885585474"><ele>29.0</ele><time>2026-04-19T16:15:44Z</time></trkpt><trkpt lat="47.265846920256394" lon="-0.10059458663179"><ele>29.0</ele><time>2026-04-19T16:15:47Z</time></trkpt><trkpt lat="47.26578641871338" lon="-0.10064598306840294"><ele>29.0</ele><time>2026-04-19T16:15:54Z</time></trkpt><trkpt lat="47.26573216765165" lon="-0.10072129141725727"><ele>29.0</ele><time>2026-04-19T16:15:56Z</time></trkpt><trkpt lat="47.26568412620044" lon="-0.10083487641322662"><ele>29.0</ele><time>2026-04-19T16:15:58Z</time></trkpt><trkpt lat="47.26583333583247" lon="-0.101081583167848"><ele>29.333333333333332</ele><time>2026-04-19T16:15:59Z</time></trkpt><trkpt lat="47.26586539962486" lon="-0.10122582848341802"><ele>29.666666666666664</ele><time>2026-04-19T16:16:01Z</time></trkpt><trkpt lat="47.26583131450368" lon="-0.10133779862137338"><ele>30.0</ele><time>2026-04-19T16:16:03Z</time></trkpt><trkpt lat="47.26578487935165" lon="-0.1014683376475714"><ele>30.333333333333336</ele><time>2026-04-19T16:16:11Z</time></trkpt><trkpt lat="47.26575287752993" lon="-0.1015509358707275"><ele>30.666666666666668</ele><time>2026-04-19T16:16:12Z</time></trkpt><trkpt lat="47.26574146479504" lon="-0.10168533721017906"><ele>31.0</ele><time>2026-04-19T16:16:14Z</time></trkpt><trkpt lat="47.26583931978003" lon="-0.10181465601878026"><ele>31.4</ele><time>2026-04-19T16:16:16Z</time></trkpt><trkpt lat="47.265898966053555" lon="-0.10188322095052113"><ele>31.8</ele><time>2026-04-19T16:16:17Z</time></trkpt><trkpt lat="47.265957263823054" lon="-0.10196661665431951"><ele>32.199999999999996</ele><time>2026-04-19T16:16:18Z</time></trkpt><trkpt lat="47.266027241140804" lon="-0.10207274328312275"><ele>32.6</ele><time>2026-04-19T16:16:19Z</time></trkpt><trkpt lat="47.26609238542803" lon="-0.10217513906417439"><ele>33.0</ele><time>2026-04-19T16:16:20Z</time></trkpt><trkpt lat="47.266162809003205" lon="-0.10228770294353005"><ele>33.0</ele><time>2026-04-19T16:16:21Z</time></trkpt><trkpt lat="47.26623924862654" lon="-0.10241212497445963"><ele>33.0</ele><time>2026-04-19T16:16:22Z</time></trkpt><trkpt lat="47.26631217365438" lon="-0.10253577949220043"><ele>33.0</ele><time>2026-04-19T16:16:23Z</time></trkpt><trkpt lat="47.26638099302606" lon="-0.10266896830672756"><ele>33.0</ele><time>2026-04-19T16:16:24Z</time></trkpt><trkpt lat="47.26642784174687" lon="-0.10282079784323186"><ele>34.0</ele><time>2026-04-19T16:16:25Z</time></trkpt><trkpt lat="47.2664536310883" lon="-0.10298112641865222"><ele>35.0</ele><time>2026-04-19T16:16:25.999Z</time></trkpt><trkpt lat="47.26645842981468" lon="-0.10315049191507038"><ele>36.0</ele><time>2026-04-19T16:16:26.999Z</time></trkpt><trkpt lat="47.26644086481871" lon="-0.10332217409305058"><ele>37.0</ele><time>2026-04-19T16:16:27.999Z</time></trkpt><trkpt lat="47.26640914605457" lon="-0.10349459074731934"><ele>38.0</ele><time>2026-04-19T16:16:28.999Z</time></trkpt><trkpt lat="47.26637292816849" lon="-0.10367071708660622"><ele>39.0</ele><time>2026-04-19T16:16:29.999Z</time></trkpt><trkpt lat="47.26634157125092" lon="-0.10384919097893125"><ele>40.0</ele><time>2026-04-19T16:16:30.999Z</time></trkpt><trkpt lat="47.2663103215301" lon="-0.1040067591500794"><ele>41.0</ele><time>2026-04-19T16:16:31.999Z</time></trkpt><trkpt lat="47.26627474436878" lon="-0.10417256019792442"><ele>41.25</ele><time>2026-04-19T16:16:32.999Z</time></trkpt><trkpt lat="47.2662414668616" lon="-0.10434960196014559"><ele>41.5</ele><time>2026-04-19T16:16:33.999Z</time></trkpt><trkpt lat="47.266218370293124" lon="-0.10454402777578693"><ele>41.75</ele><time>2026-04-19T16:16:34.999Z</time></trkpt><trkpt lat="47.26623534016575" lon="-0.10474376748354487"><ele>42.0</ele><time>2026-04-19T16:16:35.999Z</time></trkpt><trkpt lat="47.26625405701216" lon="-0.10494573183083694"><ele>42.25</ele><time>2026-04-19T16:16:36.999Z</time></trkpt><trkpt lat="47.26625194540918" lon="-0.10514978898808686"><ele>42.5</ele><time>2026-04-19T16:16:37.999Z</time></trkpt><trkpt lat="47.26627478446839" lon="-0.10533677625847863"><ele>42.75</ele><time>2026-04-19T16:16:38.999Z</time></trkpt><trkpt lat="47.26628474216477" lon="-0.10550380879008399"><ele>43.0</ele><time>2026-04-19T16:16:39.999Z</time></trkpt><trkpt lat="47.26628024673971" lon="-0.10563884601720643"><ele>43.0</ele><time>2026-04-19T16:16:40.999Z</time></trkpt><trkpt lat="47.26627952041383" lon="-0.10573900223671973"><ele>43.0</ele><time>2026-04-19T16:16:41.999Z</time></trkpt><trkpt lat="47.26633631335129" lon="-0.1058874714451533"><ele>43.0</ele><time>2026-04-19T16:16:43.999Z</time></trkpt><trkpt lat="47.2664158334706" lon="-0.10589161466479191"><ele>43.0</ele><time>2026-04-19T16:16:44.999Z</time></trkpt><trkpt lat="47.26650228213458" lon="-0.10593156923842142"><ele>43.0</ele><time>2026-04-19T16:16:45.999Z</time></trkpt><trkpt lat="47.26659767115681" lon="-0.10597642942215504"><ele>44.2</ele><time>2026-04-19T16:16:46.999Z</time></trkpt><trkpt lat="47.26669251570858" lon="-0.1060436641718949"><ele>45.4</ele><time>2026-04-19T16:16:47.999Z</time></trkpt><trkpt lat="47.26679091860725" lon="-0.10608374708240768"><ele>46.6</ele><time>2026-04-19T16:16:48.999Z</time></trkpt><trkpt lat="47.266891302057125" lon="-0.10613383864431272"><ele>47.800000000000004</ele><time>2026-04-19T16:16:49.999Z</time></trkpt><trkpt lat="47.26699013530852" lon="-0.10618801830016156"><ele>49.0</ele><time>2026-04-19T16:16:50.999Z</time></trkpt><trkpt lat="47.26709923968816" lon="-0.10623209382274357"><ele>49.0</ele><time>2026-04-19T16:16:51.999Z</time></trkpt><trkpt lat="47.26720695094007" lon="-0.10629503636772898"><ele>49.0</ele><time>2026-04-19T16:16:52.999Z</time></trkpt><trkpt lat="47.267320390968244" lon="-0.10635697562180076"><ele>49.0</ele><time>2026-04-19T16:16:53.999Z</time></trkpt><trkpt lat="47.267436158389735" lon="-0.10642442870995505"><ele>49.0</ele><time>2026-04-19T16:16:54.999Z</time></trkpt><trkpt lat="47.26755399799242" lon="-0.10650853348391272"><ele>50.6</ele><time>2026-04-19T16:16:55.999Z</time></trkpt><trkpt lat="47.26765220150132" lon="-0.10660426778406397"><ele>52.2</ele><time>2026-04-19T16:16:56.999Z</time></trkpt><trkpt lat="47.26774778431692" lon="-0.10667518469442565"><ele>53.800000000000004</ele><time>2026-04-19T16:16:57.999Z</time></trkpt><trkpt lat="47.26783448011843" lon="-0.10674188912774457"><ele>55.400000000000006</ele><time>2026-04-19T16:16:58.999Z</time></trkpt><trkpt lat="47.26791459126522" lon="-0.1067953516772623"><ele>57.0</ele><time>2026-04-19T16:16:59.999Z</time></trkpt><trkpt lat="47.267968714606056" lon="-0.10687070306692938"><ele>57.0</ele><time>2026-04-19T16:17:00.999Z</time></trkpt><trkpt lat="47.26797143827785" lon="-0.10701281281972548"><ele>57.0</ele><time>2026-04-19T16:17:01.999Z</time></trkpt><trkpt lat="47.26796025242462" lon="-0.10717224629804178"><ele>57.0</ele><time>2026-04-19T16:17:02.999Z</time></trkpt><trkpt lat="47.26792756940561" lon="-0.10734949610594975"><ele>57.0</ele><time>2026-04-19T16:17:03.999Z</time></trkpt><trkpt lat="47.267912006252786" lon="-0.10752453859084089"><ele>57.75</ele><time>2026-04-19T16:17:04.999Z</time></trkpt><trkpt lat="47.26788945605174" lon="-0.10770353867955336"><ele>58.5</ele><time>2026-04-19T16:17:05.999Z</time></trkpt><trkpt lat="47.26785821184443" lon="-0.10786524447892569"><ele>59.25</ele><time>2026-04-19T16:17:06.999Z</time></trkpt><trkpt lat="47.267822994483176" lon="-0.10805756661489843"><ele>60.0</ele><time>2026-04-19T16:17:07.999Z</time></trkpt><trkpt lat="47.26778434347988" lon="-0.10825394238107612"><ele>60.33333333333333</ele><time>2026-04-19T16:17:08.999Z</time></trkpt><trkpt lat="47.26775718418486" lon="-0.10846447804777071"><ele>60.666666666666664</ele><time>2026-04-19T16:17:09.999Z</time></trkpt><trkpt lat="47.267670819938715" lon="-0.10866732087885607"><ele>61.0</ele><time>2026-04-19T16:17:10.999Z</time></trkpt><trkpt lat="47.267609444107094" lon="-0.10886963060943716"><ele>61.0</ele><time>2026-04-19T16:17:11.999Z</time></trkpt><trkpt lat="47.267552537932" lon="-0.10903793484018273"><ele>60.99999999999999</ele><time>2026-04-19T16:17:12.999Z</time></trkpt><trkpt lat="47.26751033355416" lon="-0.10918728773612574"><ele>60.99999999999999</ele><time>2026-04-19T16:17:13.999Z</time></trkpt><trkpt lat="47.26748059998269" lon="-0.10931370621052584"><ele>61.0</ele><time>2026-04-19T16:17:14.999Z</time></trkpt><trkpt lat="47.2674533358419" lon="-0.10943442208634395"><ele>61.0</ele><time>2026-04-19T16:17:15.999Z</time></trkpt><trkpt lat="47.26745277303292" lon="-0.10962211119253656"><ele>62.199999999999996</ele><time>2026-04-19T16:17:17.999Z</time></trkpt><trkpt lat="47.26750827043714" lon="-0.10969825362699737"><ele>63.39999999999999</ele><time>2026-04-19T16:17:18.999Z</time></trkpt><trkpt lat="47.26758422054011" lon="-0.1097779195099748"><ele>64.6</ele><time>2026-04-19T16:17:19.999Z</time></trkpt><trkpt lat="47.26768971878099" lon="-0.10988052484506024"><ele>65.8</ele><time>2026-04-19T16:17:20.999Z</time></trkpt><trkpt lat="47.26780425344008" lon="-0.1099814381057651"><ele>67.0</ele><time>2026-04-19T16:17:21.999Z</time></trkpt><trkpt lat="47.26792684170052" lon="-0.11008554186760985"><ele>66.33333333333333</ele><time>2026-04-19T16:17:22.999Z</time></trkpt><trkpt lat="47.268054118197995" lon="-0.11023399590867035"><ele>65.66666666666667</ele><time>2026-04-19T16:17:23.999Z</time></trkpt><trkpt lat="47.268175145672586" lon="-0.11038505973452607"><ele>65.0</ele><time>2026-04-19T16:17:24.999Z</time></trkpt><trkpt lat="47.26829390661549" lon="-0.11057186674754978"><ele>65.5</ele><time>2026-04-19T16:17:25.999Z</time></trkpt><trkpt lat="47.268401631505554" lon="-0.11074715128090114"><ele>66.0</ele><time>2026-04-19T16:17:26.999Z</time></trkpt><trkpt lat="47.26850747663579" lon="-0.11089352227467267"><ele>66.5</ele><time>2026-04-19T16:17:27.999Z</time></trkpt><trkpt lat="47.268596125159874" lon="-0.11103977158074162"><ele>67.0</ele><time>2026-04-19T16:17:28.999Z</time></trkpt><trkpt lat="47.26868911428386" lon="-0.11119267294439655"><ele>67.0</ele><time>2026-04-19T16:17:29.999Z</time></trkpt><trkpt lat="47.268768947627876" lon="-0.11132372063366507"><ele>67.0</ele><time>2026-04-19T16:17:30.999Z</time></trkpt><trkpt lat="47.26884438920084" lon="-0.11145181397545621"><ele>67.0</ele><time>2026-04-19T16:17:31.999Z</time></trkpt><trkpt lat="47.26891772070094" lon="-0.11156860439842975"><ele>67.0</ele><time>2026-04-19T16:17:32.999Z</time></trkpt><trkpt lat="47.26898993882033" lon="-0.11168362173386505"><ele>67.0</ele><time>2026-04-19T16:17:33.999Z</time></trkpt><trkpt lat="47.26905676714361" lon="-0.11179390861166696"><ele>66.6</ele><time>2026-04-19T16:17:34.999Z</time></trkpt><trkpt lat="47.269115444137505" lon="-0.1118911641770079"><ele>66.2</ele><time>2026-04-19T16:17:35.999Z</time></trkpt><trkpt lat="47.269168038405155" lon="-0.11197343434881368"><ele>65.8</ele><time>2026-04-19T16:17:36.999Z</time></trkpt><trkpt lat="47.26922544603568" lon="-0.11210281397729982"><ele>65.4</ele><time>2026-04-19T16:17:38.999Z</time></trkpt><trkpt lat="47.26928714244988" lon="-0.11214179130002178"><ele>65.0</ele><time>2026-04-19T16:17:42Z</time></trkpt><trkpt lat="47.26935771294789" lon="-0.11229734249039167"><ele>65.0</ele><time>2026-04-19T16:17:45Z</time></trkpt><trkpt lat="47.26940845747554" lon="-0.11239991398455296"><ele>65.0</ele><time>2026-04-19T16:17:46Z</time></trkpt><trkpt lat="47.26954597408068" lon="-0.11244283619763536"><ele>65.0</ele><time>2026-04-19T16:17:47Z</time></trkpt><trkpt lat="47.26961365527535" lon="-0.11260138040387295"><ele>65.0</ele><time>2026-04-19T16:17:48Z</time></trkpt><trkpt lat="47.26967377509371" lon="-0.1127359474852748"><ele>64.8</ele><time>2026-04-19T16:17:49Z</time></trkpt><trkpt lat="47.269742825349496" lon="-0.11287615830428732"><ele>64.6</ele><time>2026-04-19T16:17:50Z</time></trkpt><trkpt lat="47.2697946737949" lon="-0.11299833371994462"><ele>64.4</ele><time>2026-04-19T16:17:51Z</time></trkpt><trkpt lat="47.269860625652186" lon="-0.1131171809892591"><ele>64.2</ele><time>2026-04-19T16:17:52Z</time></trkpt><trkpt lat="47.26992458856442" lon="-0.11319318076496496"><ele>64.0</ele><time>2026-04-19T16:17:53Z</time></trkpt><trkpt lat="47.269990336901344" lon="-0.11323199080466304"><ele>63.49999999999999</ele><time>2026-04-19T16:17:54Z</time></trkpt><trkpt lat="47.270063671386566" lon="-0.11326680916107287"><ele>63.0</ele><time>2026-04-19T16:17:55Z</time></trkpt><trkpt lat="47.2701282860998" lon="-0.11330884244756492"><ele>62.5</ele><time>2026-04-19T16:17:56Z</time></trkpt><trkpt lat="47.27017044981438" lon="-0.1134047928427962"><ele>62.0</ele><time>2026-04-19T16:17:57Z</time></trkpt><trkpt lat="47.27019181869832" lon="-0.11353654041135924"><ele>61.49999999999999</ele><time>2026-04-19T16:17:58Z</time></trkpt><trkpt lat="47.27022267496033" lon="-0.11366854644084026"><ele>61.0</ele><time>2026-04-19T16:17:59Z</time></trkpt><trkpt lat="47.27023865371887" lon="-0.11377717014007754"><ele>61.0</ele><time>2026-04-19T16:18:00Z</time></trkpt><trkpt lat="47.270228144752664" lon="-0.11387497159592018"><ele>60.99999999999999</ele><time>2026-04-19T16:18:01Z</time></trkpt><trkpt lat="47.27019669759663" lon="-0.11400299964198884"><ele>60.99999999999999</ele><time>2026-04-19T16:18:02Z</time></trkpt><trkpt lat="47.27014703972951" lon="-0.11415941946865565"><ele>61.0</ele><time>2026-04-19T16:18:03Z</time></trkpt><trkpt lat="47.27010091718876" lon="-0.11429315500475008"><ele>61.0</ele><time>2026-04-19T16:18:04Z</time></trkpt><trkpt lat="47.27002746097868" lon="-0.11440293415625882"><ele>60.599999999999994</ele><time>2026-04-19T16:18:05Z</time></trkpt><trkpt lat="47.26993885614489" lon="-0.11449972553070516"><ele>60.199999999999996</ele><time>2026-04-19T16:18:06Z</time></trkpt><trkpt lat="47.26986673938814" lon="-0.1145950871790971"><ele>59.800000000000004</ele><time>2026-04-19T16:18:07Z</time></trkpt><trkpt lat="47.26982176905869" lon="-0.11471347484253731"><ele>59.400000000000006</ele><time>2026-04-19T16:18:08Z</time></trkpt><trkpt lat="47.26978330933197" lon="-0.11484494138791823"><ele>59.0</ele><time>2026-04-19T16:18:09Z</time></trkpt><trkpt lat="47.26974985698834" lon="-0.11501392187330756"><ele>57.75</ele><time>2026-04-19T16:18:10Z</time></trkpt><trkpt lat="47.26973108956054" lon="-0.11520882815624439"><ele>56.5</ele><time>2026-04-19T16:18:11Z</time></trkpt><trkpt lat="47.26971695560209" lon="-0.11538604777938882"><ele>55.25</ele><time>2026-04-19T16:18:12Z</time></trkpt><trkpt lat="47.26971203552447" lon="-0.11554920590764273"><ele>54.0</ele><time>2026-04-19T16:18:13Z</time></trkpt><trkpt lat="47.26972083367791" lon="-0.11569531026465253"><ele>53.833333333333336</ele><time>2026-04-19T16:18:14Z</time></trkpt><trkpt lat="47.26974011028354" lon="-0.11581714851542765"><ele>53.66666666666667</ele><time>2026-04-19T16:18:15Z</time></trkpt><trkpt lat="47.26976420809634" lon="-0.11592500493344376"><ele>53.5</ele><time>2026-04-19T16:18:16Z</time></trkpt><trkpt lat="47.26977880799936" lon="-0.11602380984762854"><ele>53.333333333333336</ele><time>2026-04-19T16:18:17Z</time></trkpt><trkpt lat="47.26978643048476" lon="-0.11613378301732288"><ele>53.16666666666667</ele><time>2026-04-19T16:18:18Z</time></trkpt><trkpt lat="47.26979014667589" lon="-0.11624672194635456"><ele>53.0</ele><time>2026-04-19T16:18:19Z</time></trkpt><trkpt lat="47.269800961772354" lon="-0.1163700236649841"><ele>53.0</ele><time>2026-04-19T16:18:20Z</time></trkpt><trkpt lat="47.26974491171112" lon="-0.11653335390967637"><ele>53.0</ele><time>2026-04-19T16:18:22Z</time></trkpt><trkpt lat="47.26966737866236" lon="-0.11659145643923499"><ele>53.0</ele><time>2026-04-19T16:18:23Z</time></trkpt><trkpt lat="47.269563750968565" lon="-0.11665164774840164"><ele>53.0</ele><time>2026-04-19T16:18:24Z</time></trkpt><trkpt lat="47.26944549305745" lon="-0.11672222325612158"><ele>52.4</ele><time>2026-04-19T16:18:25Z</time></trkpt><trkpt lat="47.269329658845734" lon="-0.11680093490780982"><ele>51.8</ele><time>2026-04-19T16:18:26Z</time></trkpt><trkpt lat="47.26923205365003" lon="-0.11687712427904239"><ele>51.2</ele><time>2026-04-19T16:18:27Z</time></trkpt><trkpt lat="47.26914520353164" lon="-0.11693633251773683"><ele>50.6</ele><time>2026-04-19T16:18:28Z</time></trkpt><trkpt lat="47.269078748150754" lon="-0.11698058659673698"><ele>50.0</ele><time>2026-04-19T16:18:29Z</time></trkpt><trkpt lat="47.26898823109473" lon="-0.1170229901952902"><ele>50.0</ele><time>2026-04-19T16:18:31Z</time></trkpt><trkpt lat="47.2689055681081" lon="-0.11711452930793849"><ele>50.0</ele><time>2026-04-19T16:18:35Z</time></trkpt><trkpt lat="47.268934590652265" lon="-0.1172807068270539"><ele>50.0</ele><time>2026-04-19T16:18:36.999Z</time></trkpt><trkpt lat="47.269070789231904" lon="-0.11730938554843456"><ele>50.0</ele><time>2026-04-19T16:18:37.999Z</time></trkpt><trkpt lat="47.26911844185944" lon="-0.1174150444613763"><ele>50.0</ele><time>2026-04-19T16:18:38.999Z</time></trkpt><trkpt lat="47.269177894079526" lon="-0.11754061494712892"><ele>49.4</ele><time>2026-04-19T16:18:39.999Z</time></trkpt><trkpt lat="47.269242231851706" lon="-0.11766780776966591"><ele>48.8</ele><time>2026-04-19T16:18:40.999Z</time></trkpt><trkpt lat="47.269312760717874" lon="-0.11779248623293591"><ele>48.2</ele><time>2026-04-19T16:18:41.999Z</time></trkpt><trkpt lat="47.269382217568875" lon="-0.11788278092054237"><ele>47.6</ele><time>2026-04-19T16:18:42.999Z</time></trkpt><trkpt lat="47.269444234530646" lon="-0.11793802253013093"><ele>47.0</ele><time>2026-04-19T16:18:43.999Z</time></trkpt><trkpt lat="47.269509846079266" lon="-0.11798096022445498"><ele>46.5</ele><time>2026-04-19T16:18:45.999Z</time></trkpt><trkpt lat="47.26942843627599" lon="-0.11825842082743997"><ele>46.0</ele><time>2026-04-19T16:18:47.999Z</time></trkpt><trkpt lat="47.269365845669" lon="-0.11830040923490702"><ele>45.5</ele><time>2026-04-19T16:18:48.999Z</time></trkpt><trkpt lat="47.26927967359638" lon="-0.11834055378068184"><ele>45.0</ele><time>2026-04-19T16:18:49.999Z</time></trkpt><trkpt lat="47.26917105581756" lon="-0.11839105082595401"><ele>45.0</ele><time>2026-04-19T16:18:50.999Z</time></trkpt><trkpt lat="47.26905955334424" lon="-0.11845260841263588"><ele>45.0</ele><time>2026-04-19T16:18:51.999Z</time></trkpt><trkpt lat="47.268936349990675" lon="-0.11851830282334941"><ele>45.0</ele><time>2026-04-19T16:18:52.999Z</time></trkpt><trkpt lat="47.268804125891904" lon="-0.11858586660459561"><ele>45.0</ele><time>2026-04-19T16:18:53.999Z</time></trkpt><trkpt lat="47.26866695523357" lon="-0.11866165555229312"><ele>45.5</ele><time>2026-04-19T16:18:54.999Z</time></trkpt><trkpt lat="47.26854090139318" lon="-0.11873307706313442"><ele>46.0</ele><time>2026-04-19T16:18:55.999Z</time></trkpt><trkpt lat="47.26842934916828" lon="-0.11880214494594174"><ele>46.5</ele><time>2026-04-19T16:18:56.999Z</time></trkpt><trkpt lat="47.26831321778535" lon="-0.11886993975725375"><ele>47.0</ele><time>2026-04-19T16:18:57.999Z</time></trkpt><trkpt lat="47.268202285421694" lon="-0.11893836185731088"><ele>47.5</ele><time>2026-04-19T16:18:58.999Z</time></trkpt><trkpt lat="47.268072993729085" lon="-0.11897792784027723"><ele>48.0</ele><time>2026-04-19T16:18:59.999Z</time></trkpt><trkpt lat="47.26794748547688" lon="-0.11901862362630965"><ele>48.5</ele><time>2026-04-19T16:19:00.999Z</time></trkpt><trkpt lat="47.26782923603234" lon="-0.11906583866677341"><ele>49.0</ele><time>2026-04-19T16:19:01.999Z</time></trkpt><trkpt lat="47.26770879679827" lon="-0.11911583845111018"><ele>48.0</ele><time>2026-04-19T16:19:02.999Z</time></trkpt><trkpt lat="47.267591651887905" lon="-0.11915296032576811"><ele>47.0</ele><time>2026-04-19T16:19:03.999Z</time></trkpt><trkpt lat="47.26746723624276" lon="-0.11918601143146812"><ele>46.0</ele><time>2026-04-19T16:19:04.999Z</time></trkpt><trkpt lat="47.267345447881816" lon="-0.1192344062049496"><ele>45.0</ele><time>2026-04-19T16:19:05.999Z</time></trkpt><trkpt lat="47.267214941352854" lon="-0.11928154491835333"><ele>45.0</ele><time>2026-04-19T16:19:06.999Z</time></trkpt><trkpt lat="47.267088329654776" lon="-0.11932235349071225"><ele>45.0</ele><time>2026-04-19T16:19:07.999Z</time></trkpt><trkpt lat="47.26695984679374" lon="-0.11937512223366163"><ele>45.0</ele><time>2026-04-19T16:19:08.999Z</time></trkpt><trkpt lat="47.266830430132785" lon="-0.11942339057519878"><ele>45.0</ele><time>2026-04-19T16:19:09.999Z</time></trkpt><trkpt lat="47.26671148898685" lon="-0.11944873520910745"><ele>45.0</ele><time>2026-04-19T16:19:10.999Z</time></trkpt><trkpt lat="47.26659169657833" lon="-0.11947511782222"><ele>45.0</ele><time>2026-04-19T16:19:11.999Z</time></trkpt><trkpt lat="47.26646598849318" lon="-0.11950176017649286"><ele>45.0</ele><time>2026-04-19T16:19:12.999Z</time></trkpt><trkpt lat="47.266331877312325" lon="-0.11953277812743877"><ele>45.0</ele><time>2026-04-19T16:19:13.999Z</time></trkpt><trkpt lat="47.26619485175246" lon="-0.119576926560516"><ele>45.75</ele><time>2026-04-19T16:19:14.999Z</time></trkpt><trkpt lat="47.26606318746848" lon="-0.1196314737821381"><ele>46.5</ele><time>2026-04-19T16:19:15.999Z</time></trkpt><trkpt lat="47.265935644611254" lon="-0.1196787546513938"><ele>47.25</ele><time>2026-04-19T16:19:16.999Z</time></trkpt><trkpt lat="47.26580242926192" lon="-0.11972677249232207"><ele>48.0</ele><time>2026-04-19T16:19:17.999Z</time></trkpt><trkpt lat="47.26566958937633" lon="-0.11976943323297166"><ele>47.75</ele><time>2026-04-19T16:19:18.999Z</time></trkpt><trkpt lat="47.265550095793664" lon="-0.11981663049503237"><ele>47.5</ele><time>2026-04-19T16:19:19.999Z</time></trkpt><trkpt lat="47.26542401027891" lon="-0.11987090505672228"><ele>47.25</ele><time>2026-04-19T16:19:20.999Z</time></trkpt><trkpt lat="47.26529088689399" lon="-0.11992566373782006"><ele>47.0</ele><time>2026-04-19T16:19:21.999Z</time></trkpt><trkpt lat="47.265176094741875" lon="-0.11997181222352758"><ele>47.0</ele><time>2026-04-19T16:19:22.999Z</time></trkpt><trkpt lat="47.26508046972436" lon="-0.12001017072152809"><ele>47.0</ele><time>2026-04-19T16:19:23.999Z</time></trkpt><trkpt lat="47.26500719848626" lon="-0.12004253488861522"><ele>47.0</ele><time>2026-04-19T16:19:24.999Z</time></trkpt><trkpt lat="47.264895825959265" lon="-0.12005762276397308"><ele>47.0</ele><time>2026-04-19T16:19:26.999Z</time></trkpt><trkpt lat="47.264824334416204" lon="-0.11995489284426378"><ele>47.0</ele><time>2026-04-19T16:19:28.999Z</time></trkpt><trkpt lat="47.264803012123856" lon="-0.1197568041328488"><ele>47.0</ele><time>2026-04-19T16:19:30.999Z</time></trkpt><trkpt lat="47.26479483888583" lon="-0.11959406178200871"><ele>47.0</ele><time>2026-04-19T16:19:31.999Z</time></trkpt><trkpt lat="47.264791844862806" lon="-0.11941017197480344"><ele>47.0</ele><time>2026-04-19T16:19:32.999Z</time></trkpt><trkpt lat="47.26465696326058" lon="-0.11923316351962379"><ele>47.0</ele><time>2026-04-19T16:19:33.999Z</time></trkpt><trkpt lat="47.264659565181994" lon="-0.11903406186114993"><ele>48.0</ele><time>2026-04-19T16:19:34.999Z</time></trkpt><trkpt lat="47.26466526578203" lon="-0.11887071779621232"><ele>49.0</ele><time>2026-04-19T16:19:35.999Z</time></trkpt><trkpt lat="47.264685131103164" lon="-0.1186869086725723"><ele>50.0</ele><time>2026-04-19T16:19:36.999Z</time></trkpt><trkpt lat="47.26472043986184" lon="-0.11851090298823427"><ele>51.0</ele><time>2026-04-19T16:19:37.999Z</time></trkpt><trkpt lat="47.26476235987437" lon="-0.11835925005561553"><ele>51.199999999999996</ele><time>2026-04-19T16:19:38.999Z</time></trkpt><trkpt lat="47.2648059577686" lon="-0.11822785759854725"><ele>51.4</ele><time>2026-04-19T16:19:39.999Z</time></trkpt><trkpt lat="47.26484218543624" lon="-0.11812566445557315"><ele>51.6</ele><time>2026-04-19T16:19:40.999Z</time></trkpt><trkpt lat="47.26487349719653" lon="-0.11804030506233608"><ele>51.8</ele><time>2026-04-19T16:19:41.999Z</time></trkpt><trkpt lat="47.26490899196916" lon="-0.11794652901372314"><ele>52.0</ele><time>2026-04-19T16:19:43.999Z</time></trkpt><trkpt lat="47.26482999591291" lon="-0.11810504491244776"><ele>51.75</ele><time>2026-04-19T16:19:48Z</time></trkpt><trkpt lat="47.26480401710385" lon="-0.11823642763845398"><ele>51.5</ele><time>2026-04-19T16:19:49Z</time></trkpt><trkpt lat="47.26475465232481" lon="-0.11837686631455883"><ele>51.25</ele><time>2026-04-19T16:19:50Z</time></trkpt><trkpt lat="47.264704003180476" lon="-0.11854406713040401"><ele>51.0</ele><time>2026-04-19T16:19:51Z</time></trkpt><trkpt lat="47.26466270011192" lon="-0.11871852149968815"><ele>51.0</ele><time>2026-04-19T16:19:52Z</time></trkpt><trkpt lat="47.26458825644753" lon="-0.11898061750979293"><ele>51.0</ele><time>2026-04-19T16:19:53Z</time></trkpt><trkpt lat="47.26463040548979" lon="-0.11917404749443068"><ele>51.0</ele><time>2026-04-19T16:19:54Z</time></trkpt><trkpt lat="47.26468299899161" lon="-0.11936175096950967"><ele>51.25</ele><time>2026-04-19T16:19:55Z</time></trkpt><trkpt lat="47.26468550062163" lon="-0.11956053420560483"><ele>51.5</ele><time>2026-04-19T16:19:56Z</time></trkpt><trkpt lat="47.264662376971245" lon="-0.11973957400571077"><ele>51.75</ele><time>2026-04-19T16:19:57Z</time></trkpt><trkpt lat="47.26469555410367" lon="-0.11993734660673538"><ele>52.0</ele><time>2026-04-19T16:19:58Z</time></trkpt><trkpt lat="47.26471172523191" lon="-0.12013680263471718"><ele>51.25</ele><time>2026-04-19T16:19:59Z</time></trkpt><trkpt lat="47.26472387253363" lon="-0.12032933230077084"><ele>50.5</ele><time>2026-04-19T16:20:00Z</time></trkpt><trkpt lat="47.26473270197872" lon="-0.12051452747559288"><ele>49.75</ele><time>2026-04-19T16:20:01Z</time></trkpt><trkpt lat="47.264739981007786" lon="-0.12069487097939754"><ele>49.0</ele><time>2026-04-19T16:20:02Z</time></trkpt><trkpt lat="47.26476488210702" lon="-0.12087902993665532"><ele>49.0</ele><time>2026-04-19T16:20:03Z</time></trkpt><trkpt lat="47.26479701029187" lon="-0.12105688732869645"><ele>49.0</ele><time>2026-04-19T16:20:04Z</time></trkpt><trkpt lat="47.264837243649076" lon="-0.12124485582926069"><ele>49.0</ele><time>2026-04-19T16:20:05Z</time></trkpt><trkpt lat="47.26476255484269" lon="-0.12149743904019139"><ele>49.0</ele><time>2026-04-19T16:20:06Z</time></trkpt><trkpt lat="47.26476247479608" lon="-0.1217359751268391"><ele>49.0</ele><time>2026-04-19T16:20:07Z</time></trkpt><trkpt lat="47.26476170461584" lon="-0.12197475667288313"><ele>49.0</ele><time>2026-04-19T16:20:08Z</time></trkpt><trkpt lat="47.26476154460058" lon="-0.12221966530075164"><ele>49.0</ele><time>2026-04-19T16:20:09Z</time></trkpt><trkpt lat="47.2647562758102" lon="-0.12244465451670955"><ele>49.5</ele><time>2026-04-19T16:20:10Z</time></trkpt><trkpt lat="47.26474281312069" lon="-0.12266238752948197"><ele>50.0</ele><time>2026-04-19T16:20:11Z</time></trkpt><trkpt lat="47.264712122371535" lon="-0.12286502640523411"><ele>50.5</ele><time>2026-04-19T16:20:12Z</time></trkpt><trkpt lat="47.264674893429614" lon="-0.12306692314001982"><ele>51.0</ele><time>2026-04-19T16:20:13Z</time></trkpt><trkpt lat="47.26463494546152" lon="-0.12325839587093473"><ele>51.75</ele><time>2026-04-19T16:20:14Z</time></trkpt><trkpt lat="47.26457343335608" lon="-0.12343762238828743"><ele>52.5</ele><time>2026-04-19T16:20:15Z</time></trkpt><trkpt lat="47.26451720633561" lon="-0.12359264507183335"><ele>53.25</ele><time>2026-04-19T16:20:16Z</time></trkpt><trkpt lat="47.26446204833188" lon="-0.1237454146057682"><ele>54.0</ele><time>2026-04-19T16:20:17Z</time></trkpt><trkpt lat="47.26439381044555" lon="-0.12389862258649406"><ele>54.0</ele><time>2026-04-19T16:20:18Z</time></trkpt><trkpt lat="47.26432206885395" lon="-0.12404202221180062"><ele>54.0</ele><time>2026-04-19T16:20:19Z</time></trkpt><trkpt lat="47.26426953707254" lon="-0.12422010532550265"><ele>54.0</ele><time>2026-04-19T16:20:20Z</time></trkpt><trkpt lat="47.26420192319114" lon="-0.12437963918974285"><ele>54.0</ele><time>2026-04-19T16:20:21Z</time></trkpt><trkpt lat="47.264132425573166" lon="-0.12454662906978733"><ele>54.75</ele><time>2026-04-19T16:20:22Z</time></trkpt><trkpt lat="47.26406299421156" lon="-0.12471577093451908"><ele>55.5</ele><time>2026-04-19T16:20:23Z</time></trkpt><trkpt lat="47.26400677991355" lon="-0.12486347153610651"><ele>56.25</ele><time>2026-04-19T16:20:24Z</time></trkpt><trkpt lat="47.26395546303806" lon="-0.12501446950273096"><ele>57.0</ele><time>2026-04-19T16:20:25Z</time></trkpt><trkpt lat="47.26390188712299" lon="-0.12517344358806584"><ele>57.0</ele><time>2026-04-19T16:20:26Z</time></trkpt><trkpt lat="47.26385445329477" lon="-0.1253413347811339"><ele>57.0</ele><time>2026-04-19T16:20:27Z</time></trkpt><trkpt lat="47.263806612449685" lon="-0.12551869077296543"><ele>57.0</ele><time>2026-04-19T16:20:28Z</time></trkpt><trkpt lat="47.2637650089237" lon="-0.12569989794854533"><ele>57.0</ele><time>2026-04-19T16:20:29Z</time></trkpt><trkpt lat="47.2637344831672" lon="-0.12587249275806273"><ele>57.75</ele><time>2026-04-19T16:20:30Z</time></trkpt><trkpt lat="47.263710814936545" lon="-0.12603359223523689"><ele>58.5</ele><time>2026-04-19T16:20:31Z</time></trkpt><trkpt lat="47.263686413102214" lon="-0.1262139707135874"><ele>59.25</ele><time>2026-04-19T16:20:32Z</time></trkpt><trkpt lat="47.26364985299758" lon="-0.12641081448695804"><ele>60.0</ele><time>2026-04-19T16:20:33Z</time></trkpt><trkpt lat="47.263630231919606" lon="-0.1266261700763027"><ele>60.66666666666667</ele><time>2026-04-19T16:20:34Z</time></trkpt><trkpt lat="47.263606642443236" lon="-0.1268585568482902"><ele>61.333333333333336</ele><time>2026-04-19T16:20:35Z</time></trkpt><trkpt lat="47.26358994865104" lon="-0.12707378898407193"><ele>62.0</ele><time>2026-04-19T16:20:36Z</time></trkpt><trkpt lat="47.26357600445745" lon="-0.12729940561035916"><ele>62.400000000000006</ele><time>2026-04-19T16:20:37Z</time></trkpt><trkpt lat="47.26356462274049" lon="-0.12748182986625523"><ele>62.800000000000004</ele><time>2026-04-19T16:20:38Z</time></trkpt><trkpt lat="47.26357495652517" lon="-0.12765224554422866"><ele>63.2</ele><time>2026-04-19T16:20:39Z</time></trkpt><trkpt lat="47.26355687174747" lon="-0.12780735957452846"><ele>63.6</ele><time>2026-04-19T16:20:40Z</time></trkpt><trkpt lat="47.26355451042787" lon="-0.12795009784499398"><ele>64.0</ele><time>2026-04-19T16:20:41Z</time></trkpt><trkpt lat="47.26356399390905" lon="-0.12807587507318344"><ele>64.0</ele><time>2026-04-19T16:20:42Z</time></trkpt><trkpt lat="47.26356243333136" lon="-0.12819269980895545"><ele>64.0</ele><time>2026-04-19T16:20:43Z</time></trkpt><trkpt lat="47.26356083240373" lon="-0.12831463491890724"><ele>64.0</ele><time>2026-04-19T16:20:44Z</time></trkpt><trkpt lat="47.263559042743886" lon="-0.12845094438792282"><ele>64.0</ele><time>2026-04-19T16:20:45Z</time></trkpt><trkpt lat="47.26355708968669" lon="-0.12859969913881325"><ele>64.0</ele><time>2026-04-19T16:20:45.999Z</time></trkpt><trkpt lat="47.26355492749967" lon="-0.12876438213454675"><ele>64.8</ele><time>2026-04-19T16:20:46.999Z</time></trkpt><trkpt lat="47.26355311613848" lon="-0.12892766683227008"><ele>65.60000000000001</ele><time>2026-04-19T16:20:47.999Z</time></trkpt><trkpt lat="47.2635536806777" lon="-0.12907494891325133"><ele>66.4</ele><time>2026-04-19T16:20:48.999Z</time></trkpt><trkpt lat="47.263555766567265" lon="-0.12922850146397838"><ele>67.2</ele><time>2026-04-19T16:20:49.999Z</time></trkpt><trkpt lat="47.26356033436772" lon="-0.12936042998486155"><ele>68.0</ele><time>2026-04-19T16:20:50.999Z</time></trkpt><trkpt lat="47.26357029803449" lon="-0.1294801896412523"><ele>68.33333333333334</ele><time>2026-04-19T16:20:51.999Z</time></trkpt><trkpt lat="47.2635841829892" lon="-0.12959999984679763"><ele>68.66666666666667</ele><time>2026-04-19T16:20:52.999Z</time></trkpt><trkpt lat="47.26360197778082" lon="-0.12973415907686892"><ele>69.0</ele><time>2026-04-19T16:20:53.999Z</time></trkpt><trkpt lat="47.26361902302701" lon="-0.129846117789711"><ele>69.33333333333333</ele><time>2026-04-19T16:20:54.999Z</time></trkpt><trkpt lat="47.26363526023345" lon="-0.12993795571778094"><ele>69.66666666666666</ele><time>2026-04-19T16:20:55.999Z</time></trkpt><trkpt lat="47.263658392041144" lon="-0.13006113699095626"><ele>70.0</ele><time>2026-04-19T16:20:57.999Z</time></trkpt><trkpt lat="47.263447716402005" lon="-0.1300731155103453"><ele>70.0</ele><time>2026-04-19T16:21:00.999Z</time></trkpt><trkpt lat="47.26337754249528" lon="-0.13001132653226638"><ele>70.0</ele><time>2026-04-19T16:21:01.999Z</time></trkpt><trkpt lat="47.263303292883634" lon="-0.1299464276120415"><ele>70.0</ele><time>2026-04-19T16:21:02.999Z</time></trkpt><trkpt lat="47.26321075566884" lon="-0.12988205850313037"><ele>70.0</ele><time>2026-04-19T16:21:03.999Z</time></trkpt><trkpt lat="47.263093594910934" lon="-0.12981720606037156"><ele>70.0</ele><time>2026-04-19T16:21:04.999Z</time></trkpt><trkpt lat="47.26296916166156" lon="-0.12975014248600164"><ele>71.0</ele><time>2026-04-19T16:21:05.999Z</time></trkpt><trkpt lat="47.26283558428469" lon="-0.12969002177936076"><ele>72.0</ele><time>2026-04-19T16:21:06.999Z</time></trkpt><trkpt lat="47.26270283640222" lon="-0.12963990744846565"><ele>73.0</ele><time>2026-04-19T16:21:07.999Z</time></trkpt><trkpt lat="47.26257122435343" lon="-0.12951679667660995"><ele>74.0</ele><time>2026-04-19T16:21:08.999Z</time></trkpt><trkpt lat="47.262445318023126" lon="-0.12941020641415674"><ele>74.0</ele><time>2026-04-19T16:21:09.999Z</time></trkpt><trkpt lat="47.262317385044426" lon="-0.12931542483413674"><ele>74.0</ele><time>2026-04-19T16:21:10.999Z</time></trkpt><trkpt lat="47.26217720516772" lon="-0.12922411050118135"><ele>74.0</ele><time>2026-04-19T16:21:11.999Z</time></trkpt><trkpt lat="47.262051399995585" lon="-0.12913262990489155"><ele>74.0</ele><time>2026-04-19T16:21:12.999Z</time></trkpt><trkpt lat="47.261929825346385" lon="-0.12905591079122214"><ele>73.8</ele><time>2026-04-19T16:21:13.999Z</time></trkpt><trkpt lat="47.261816093597176" lon="-0.1289684044972474"><ele>73.60000000000001</ele><time>2026-04-19T16:21:14.999Z</time></trkpt><trkpt lat="47.261714382486346" lon="-0.1288905652658437"><ele>73.4</ele><time>2026-04-19T16:21:15.999Z</time></trkpt><trkpt lat="47.261614383111386" lon="-0.1288263583453566"><ele>73.2</ele><time>2026-04-19T16:21:16.999Z</time></trkpt><trkpt lat="47.26153239004251" lon="-0.1287710159205753"><ele>73.0</ele><time>2026-04-19T16:21:17.999Z</time></trkpt><trkpt lat="47.26147449773932" lon="-0.12870690772972046"><ele>72.0</ele><time>2026-04-19T16:21:18.999Z</time></trkpt><trkpt lat="47.261421609436745" lon="-0.1286491204607246"><ele>71.0</ele><time>2026-04-19T16:21:19.999Z</time></trkpt><trkpt lat="47.26134747648043" lon="-0.1286342469182177"><ele>70.0</ele><time>2026-04-19T16:21:21.999Z</time></trkpt><trkpt lat="47.261252398707704" lon="-0.12853262116752776"><ele>69.0</ele><time>2026-04-19T16:21:25.999Z</time></trkpt><trkpt lat="47.26116462881802" lon="-0.1285011032749058"><ele>68.0</ele><time>2026-04-19T16:21:26.999Z</time></trkpt><trkpt lat="47.26109111686902" lon="-0.12844021167757413"><ele>67.0</ele><time>2026-04-19T16:21:27.999Z</time></trkpt><trkpt lat="47.26103846590832" lon="-0.1283809345572783"><ele>67.0</ele><time>2026-04-19T16:21:28.999Z</time></trkpt><trkpt lat="47.26100930353065" lon="-0.12822718950161704"><ele>67.0</ele><time>2026-04-19T16:21:30.999Z</time></trkpt><trkpt lat="47.26096376766382" lon="-0.12813247749299936"><ele>67.0</ele><time>2026-04-19T16:21:31.999Z</time></trkpt><trkpt lat="47.26088645902497" lon="-0.12805640948061248"><ele>67.0</ele><time>2026-04-19T16:21:32.999Z</time></trkpt><trkpt lat="47.26078910159565" lon="-0.12799884178841842"><ele>67.0</ele><time>2026-04-19T16:21:33.999Z</time></trkpt><trkpt lat="47.26069429235387" lon="-0.12794432723939922"><ele>66.0</ele><time>2026-04-19T16:21:34.999Z</time></trkpt><trkpt lat="47.26059725797097" lon="-0.1278885886665952"><ele>65.0</ele><time>2026-04-19T16:21:35.999Z</time></trkpt><trkpt lat="47.26050246437422" lon="-0.12784109136614435"><ele>64.0</ele><time>2026-04-19T16:21:36.999Z</time></trkpt><trkpt lat="47.260390621820136" lon="-0.12776242997683168"><ele>63.0</ele><time>2026-04-19T16:21:37.999Z</time></trkpt><trkpt lat="47.26030393461636" lon="-0.12769856280836786"><ele>62.0</ele><time>2026-04-19T16:21:38.999Z</time></trkpt><trkpt lat="47.260237680339536" lon="-0.12765247878581462"><ele>62.00000000000001</ele><time>2026-04-19T16:21:39.999Z</time></trkpt><trkpt lat="47.26016884386639" lon="-0.1276180134834491"><ele>62.0</ele><time>2026-04-19T16:21:40.999Z</time></trkpt><trkpt lat="47.26008982755052" lon="-0.12761004194262648"><ele>62.0</ele><time>2026-04-19T16:21:41.999Z</time></trkpt><trkpt lat="47.26000230610861" lon="-0.12759028273336526"><ele>62.0</ele><time>2026-04-19T16:21:42.999Z</time></trkpt><trkpt lat="47.25993376264219" lon="-0.12754388986609003"><ele>62.00000000000001</ele><time>2026-04-19T16:21:43.999Z</time></trkpt><trkpt lat="47.25986382097106" lon="-0.12750538654241078"><ele>62.0</ele><time>2026-04-19T16:21:44.999Z</time></trkpt><trkpt lat="47.259801839602844" lon="-0.12746994878076015"><ele>61.333333333333336</ele><time>2026-04-19T16:21:45.999Z</time></trkpt><trkpt lat="47.25974976765828" lon="-0.12739885341740936"><ele>60.66666666666667</ele><time>2026-04-19T16:21:46.999Z</time></trkpt><trkpt lat="47.25969881326106" lon="-0.12727929654276843"><ele>60.0</ele><time>2026-04-19T16:21:47.999Z</time></trkpt><trkpt lat="47.25960653111389" lon="-0.12719319870228565"><ele>59.33333333333333</ele><time>2026-04-19T16:21:49.999Z</time></trkpt><trkpt lat="47.25957699703071" lon="-0.12710617662659368"><ele>58.666666666666664</ele><time>2026-04-19T16:21:50.999Z</time></trkpt><trkpt lat="47.25956665493102" lon="-0.12699784839071362"><ele>58.0</ele><time>2026-04-19T16:21:51.999Z</time></trkpt><trkpt lat="47.259475824325854" lon="-0.12685428262796206"><ele>57.99999999999999</ele><time>2026-04-19T16:21:54Z</time></trkpt><trkpt lat="47.25941184615388" lon="-0.12673613706087503"><ele>58.0</ele><time>2026-04-19T16:21:55Z</time></trkpt><trkpt lat="47.25938404226513" lon="-0.12661972130297144"><ele>58.0</ele><time>2026-04-19T16:21:56Z</time></trkpt><trkpt lat="47.25937157842593" lon="-0.12650874474163037"><ele>58.0</ele><time>2026-04-19T16:21:57Z</time></trkpt><trkpt lat="47.25937547908158" lon="-0.1264144274460774"><ele>57.99999999999999</ele><time>2026-04-19T16:21:58Z</time></trkpt><trkpt lat="47.259408670040116" lon="-0.12628635934121735"><ele>58.0</ele><time>2026-04-19T16:21:59Z</time></trkpt><trkpt lat="47.25943034602572" lon="-0.12616554130634428"><ele>58.599999999999994</ele><time>2026-04-19T16:22:00Z</time></trkpt><trkpt lat="47.259401986885244" lon="-0.12603874356954892"><ele>59.199999999999996</ele><time>2026-04-19T16:22:02Z</time></trkpt><trkpt lat="47.25926833513513" lon="-0.125977318507122"><ele>59.8</ele><time>2026-04-19T16:22:04Z</time></trkpt><trkpt lat="47.25920090610624" lon="-0.12592763226130124"><ele>60.4</ele><time>2026-04-19T16:22:05Z</time></trkpt><trkpt lat="47.25911538508713" lon="-0.12592074850258128"><ele>61.0</ele><time>2026-04-19T16:22:07Z</time></trkpt><trkpt lat="47.259085989608465" lon="-0.1260240913216648"><ele>61.0</ele><time>2026-04-19T16:22:08Z</time></trkpt><trkpt lat="47.25904034349255" lon="-0.12616922212430193"><ele>61.0</ele><time>2026-04-19T16:22:09Z</time></trkpt><trkpt lat="47.25898014815091" lon="-0.12629658311253603"><ele>61.0</ele><time>2026-04-19T16:22:10Z</time></trkpt><trkpt lat="47.258854452936106" lon="-0.12639333787735252"><ele>61.0</ele><time>2026-04-19T16:22:11Z</time></trkpt><trkpt lat="47.25878068421002" lon="-0.12653978558126533"><ele>62.25</ele><time>2026-04-19T16:22:12Z</time></trkpt><trkpt lat="47.25870105139894" lon="-0.12668621800873683"><ele>63.5</ele><time>2026-04-19T16:22:13Z</time></trkpt><trkpt lat="47.258606448975904" lon="-0.1268433898263522"><ele>64.75</ele><time>2026-04-19T16:22:14Z</time></trkpt><trkpt lat="47.25851214255713" lon="-0.1269928937561816"><ele>66.0</ele><time>2026-04-19T16:22:15Z</time></trkpt><trkpt lat="47.25841688838873" lon="-0.1271260354488894"><ele>66.0</ele><time>2026-04-19T16:22:16Z</time></trkpt><trkpt lat="47.25832769164806" lon="-0.12724353520900533"><ele>66.0</ele><time>2026-04-19T16:22:17Z</time></trkpt><trkpt lat="47.25824307164882" lon="-0.1273511037111034"><ele>66.0</ele><time>2026-04-19T16:22:18Z</time></trkpt><trkpt lat="47.258161169088844" lon="-0.12745070017788585"><ele>66.0</ele><time>2026-04-19T16:22:19Z</time></trkpt><trkpt lat="47.25808271815251" lon="-0.12754977652634994"><ele>66.0</ele><time>2026-04-19T16:22:20Z</time></trkpt><trkpt lat="47.257995662386364" lon="-0.12765372762338667"><ele>66.5</ele><time>2026-04-19T16:22:21Z</time></trkpt><trkpt lat="47.25791260700153" lon="-0.12776939230352308"><ele>67.0</ele><time>2026-04-19T16:22:22Z</time></trkpt><trkpt lat="47.257808656162595" lon="-0.1278682210853167"><ele>67.5</ele><time>2026-04-19T16:22:23Z</time></trkpt><trkpt lat="47.25771063939116" lon="-0.12798313236785633"><ele>68.0</ele><time>2026-04-19T16:22:24Z</time></trkpt><trkpt lat="47.25762033267998" lon="-0.12808988542340435"><ele>68.0</ele><time>2026-04-19T16:22:25Z</time></trkpt><trkpt lat="47.25753510699228" lon="-0.12819088241128013"><ele>68.0</ele><time>2026-04-19T16:22:26Z</time></trkpt><trkpt lat="47.257471814838176" lon="-0.12828676604947006"><ele>68.0</ele><time>2026-04-19T16:22:27Z</time></trkpt><trkpt lat="47.25738744216168" lon="-0.12836587298371036"><ele>68.0</ele><time>2026-04-19T16:22:29Z</time></trkpt><trkpt lat="47.25730281167039" lon="-0.12846616448812748"><ele>68.0</ele><time>2026-04-19T16:22:32Z</time></trkpt><trkpt lat="47.257247104423016" lon="-0.12853258666059042"><ele>67.8</ele><time>2026-04-19T16:22:33Z</time></trkpt><trkpt lat="47.25718187824553" lon="-0.12861098131899948"><ele>67.6</ele><time>2026-04-19T16:22:34Z</time></trkpt><trkpt lat="47.257116388999215" lon="-0.12868969212932535"><ele>67.4</ele><time>2026-04-19T16:22:35Z</time></trkpt><trkpt lat="47.25704143152824" lon="-0.12877978276973642"><ele>67.2</ele><time>2026-04-19T16:22:36Z</time></trkpt><trkpt lat="47.25695925890373" lon="-0.12887854515028022"><ele>67.0</ele><time>2026-04-19T16:22:37Z</time></trkpt><trkpt lat="47.25688145749758" lon="-0.12897361924966108"><ele>67.0</ele><time>2026-04-19T16:22:38Z</time></trkpt><trkpt lat="47.25683137686349" lon="-0.1290377069834862"><ele>67.0</ele><time>2026-04-19T16:22:39Z</time></trkpt><trkpt lat="47.256781348950476" lon="-0.12910504160739292"><ele>67.0</ele><time>2026-04-19T16:22:40Z</time></trkpt><trkpt lat="47.25666738615954" lon="-0.12928011587096583"><ele>67.0</ele><time>2026-04-19T16:22:42Z</time></trkpt><trkpt lat="47.256587788492624" lon="-0.12942018339745742"><ele>67.0</ele><time>2026-04-19T16:22:43Z</time></trkpt><trkpt lat="47.2565249011605" lon="-0.1295456483176874"><ele>67.0</ele><time>2026-04-19T16:22:44Z</time></trkpt><trkpt lat="47.2564566830821" lon="-0.12958153021646332"><ele>67.0</ele><time>2026-04-19T16:22:49Z</time></trkpt><trkpt lat="47.25637430799524" lon="-0.1297466001560943"><ele>67.0</ele><time>2026-04-19T16:22:51Z</time></trkpt><trkpt lat="47.25634383088053" lon="-0.12988671415806133"><ele>67.0</ele><time>2026-04-19T16:22:52Z</time></trkpt><trkpt lat="47.25630853991598" lon="-0.12999436136654685"><ele>67.0</ele><time>2026-04-19T16:22:53Z</time></trkpt><trkpt lat="47.25628155845629" lon="-0.13010070408640614"><ele>67.5</ele><time>2026-04-19T16:22:55Z</time></trkpt><trkpt lat="47.25616297776413" lon="-0.1300298918833622"><ele>68.0</ele><time>2026-04-19T16:22:58Z</time></trkpt><trkpt lat="47.256116292607786" lon="-0.13010033400048818"><ele>68.5</ele><time>2026-04-19T16:23:00.999Z</time></trkpt><trkpt lat="47.25604113088469" lon="-0.1300882548308209"><ele>69.0</ele><time>2026-04-19T16:23:01.999Z</time></trkpt><trkpt lat="47.2562304372851" lon="-0.13031508963676822"><ele>69.0</ele><time>2026-04-19T16:23:03.999Z</time></trkpt><trkpt lat="47.25620122772787" lon="-0.13048459145462885"><ele>69.0</ele><time>2026-04-19T16:23:05.999Z</time></trkpt><trkpt lat="47.25618020309583" lon="-0.13063343534594585"><ele>69.0</ele><time>2026-04-19T16:23:07.999Z</time></trkpt><trkpt lat="47.25616039121481" lon="-0.13080136826107844"><ele>69.0</ele><time>2026-04-19T16:23:09.999Z</time></trkpt><trkpt lat="47.25614104791986" lon="-0.13097400897135944"><ele>68.60000000000001</ele><time>2026-04-19T16:23:11.999Z</time></trkpt><trkpt lat="47.25612657961401" lon="-0.13110313986722008"><ele>68.2</ele><time>2026-04-19T16:23:13.999Z</time></trkpt><trkpt lat="47.256111145416895" lon="-0.13124089162844035"><ele>67.80000000000001</ele><time>2026-04-19T16:23:15.999Z</time></trkpt><trkpt lat="47.256090299640086" lon="-0.13142598645537545"><ele>67.4</ele><time>2026-04-19T16:23:17.999Z</time></trkpt><trkpt lat="47.25607884138449" lon="-0.13152421290848368"><ele>67.0</ele><time>2026-04-19T16:23:18.999Z</time></trkpt><trkpt lat="47.25606149871115" lon="-0.13167288384421905"><ele>66.2</ele><time>2026-04-19T16:23:20.999Z</time></trkpt><trkpt lat="47.256047231321936" lon="-0.13179519174676557"><ele>65.4</ele><time>2026-04-19T16:23:22.999Z</time></trkpt><trkpt lat="47.256033812200876" lon="-0.13191132088688337"><ele>64.6</ele><time>2026-04-19T16:23:24.999Z</time></trkpt><trkpt lat="47.25601729836392" lon="-0.13205508973437427"><ele>63.8</ele><time>2026-04-19T16:23:26.999Z</time></trkpt><trkpt lat="47.25599981776487" lon="-0.13220727499064444"><ele>63.0</ele><time>2026-04-19T16:23:29.999Z</time></trkpt><trkpt lat="47.25598299459788" lon="-0.13235373683306254"><ele>63.333333333333336</ele><time>2026-04-19T16:23:31.999Z</time></trkpt><trkpt lat="47.255969376702936" lon="-0.13247229373581804"><ele>63.66666666666667</ele><time>2026-04-19T16:23:33.999Z</time></trkpt><trkpt lat="47.255958214539" lon="-0.13256626026529436"><ele>64.0</ele><time>2026-04-19T16:23:34.999Z</time></trkpt><trkpt lat="47.25594375466766" lon="-0.13268654233068713"><ele>64.33333333333334</ele><time>2026-04-19T16:23:36.999Z</time></trkpt><trkpt lat="47.25592842587501" lon="-0.13281405222706932"><ele>64.66666666666667</ele><time>2026-04-19T16:23:38.999Z</time></trkpt><trkpt lat="47.25591057528458" lon="-0.13296253936770458"><ele>65.0</ele><time>2026-04-19T16:23:40.999Z</time></trkpt><trkpt lat="47.255711768914104" lon="-0.13300326996350603"><ele>65.0</ele><time>2026-04-19T16:23:42.999Z</time></trkpt><trkpt lat="47.25570735557977" lon="-0.13311801706593335"><ele>65.0</ele><time>2026-04-19T16:23:45.999Z</time></trkpt><trkpt lat="47.255692365489175" lon="-0.13324673498457437"><ele>65.0</ele><time>2026-04-19T16:23:47.999Z</time></trkpt><trkpt lat="47.25565983079717" lon="-0.13344153726425456"><ele>65.0</ele><time>2026-04-19T16:23:49.999Z</time></trkpt><trkpt lat="47.25564541068347" lon="-0.1335555684423538"><ele>65.0</ele><time>2026-04-19T16:23:51.999Z</time></trkpt><trkpt lat="47.25563879920042" lon="-0.1336957920110408"><ele>67.0</ele><time>2026-04-19T16:23:54.999Z</time></trkpt><trkpt lat="47.25560369511078" lon="-0.13383081414874565"><ele>69.0</ele><time>2026-04-19T16:23:57.999Z</time></trkpt><trkpt lat="47.25559174699312" lon="-0.1339825972223656"><ele>71.0</ele><time>2026-04-19T16:24:00Z</time></trkpt><trkpt lat="47.255575367992954" lon="-0.13414975856418335"><ele>73.0</ele><time>2026-04-19T16:24:02Z</time></trkpt><trkpt lat="47.25556119213524" lon="-0.13425486919567287"><ele>75.0</ele><time>2026-04-19T16:24:04Z</time></trkpt><trkpt lat="47.255546494344806" lon="-0.13441697950839046"><ele>75.0</ele><time>2026-04-19T16:24:06Z</time></trkpt><trkpt lat="47.255522890767296" lon="-0.13458571738980424"><ele>75.0</ele><time>2026-04-19T16:24:08Z</time></trkpt><trkpt lat="47.25550210984639" lon="-0.1347245415194947"><ele>75.0</ele><time>2026-04-19T16:24:10Z</time></trkpt><trkpt lat="47.255503471612606" lon="-0.13484114480665965"><ele>75.0</ele><time>2026-04-19T16:24:12Z</time></trkpt><trkpt lat="47.25550979062173" lon="-0.13495001076866558"><ele>75.0</ele><time>2026-04-19T16:24:14Z</time></trkpt><trkpt lat="47.25548918896541" lon="-0.13508021767857228"><ele>74.83333333333333</ele><time>2026-04-19T16:24:16Z</time></trkpt><trkpt lat="47.25547197762055" lon="-0.1351798289911518"><ele>74.66666666666667</ele><time>2026-04-19T16:24:17Z</time></trkpt><trkpt lat="47.255472845705164" lon="-0.13531570153965278"><ele>74.5</ele><time>2026-04-19T16:24:19Z</time></trkpt><trkpt lat="47.25545135995825" lon="-0.13541833410974866"><ele>74.33333333333334</ele><time>2026-04-19T16:24:21Z</time></trkpt><trkpt lat="47.255426089261846" lon="-0.1355617365941519"><ele>74.16666666666667</ele><time>2026-04-19T16:24:23Z</time></trkpt><trkpt lat="47.25540925317203" lon="-0.13568096889610273"><ele>74.0</ele><time>2026-04-19T16:24:25Z</time></trkpt><trkpt lat="47.25539076952024" lon="-0.13579994717761446"><ele>74.0</ele><time>2026-04-19T16:24:27Z</time></trkpt><trkpt lat="47.25537532210817" lon="-0.13591597493399274"><ele>74.0</ele><time>2026-04-19T16:24:29Z</time></trkpt><trkpt lat="47.25531781771435" lon="-0.1358637255635468"><ele>74.0</ele><time>2026-04-19T16:24:37Z</time></trkpt><trkpt lat="47.25535048338953" lon="-0.13578305357903303"><ele>74.0</ele><time>2026-04-19T16:24:38Z</time></trkpt><trkpt lat="47.25538860119944" lon="-0.13568399270256523"><ele>74.0</ele><time>2026-04-19T16:24:39Z</time></trkpt><trkpt lat="47.25543225702748" lon="-0.13549800388921704"><ele>74.0</ele><time>2026-04-19T16:24:41Z</time></trkpt><trkpt lat="47.255453143791684" lon="-0.13539339585884344"><ele>74.0</ele><time>2026-04-19T16:24:42Z</time></trkpt><trkpt lat="47.25547327165338" lon="-0.13528372548610806"><ele>74.0</ele><time>2026-04-19T16:24:43Z</time></trkpt><trkpt lat="47.25548848127793" lon="-0.13517294225193832"><ele>74.0</ele><time>2026-04-19T16:24:44Z</time></trkpt><trkpt lat="47.25549276148157" lon="-0.13506238890581404"><ele>74.0</ele><time>2026-04-19T16:24:45Z</time></trkpt><trkpt lat="47.255486274421685" lon="-0.13488486924601592"><ele>74.0</ele><time>2026-04-19T16:24:47Z</time></trkpt><trkpt lat="47.2554879143408" lon="-0.1347831344001282"><ele>74.0</ele><time>2026-04-19T16:24:48Z</time></trkpt><trkpt lat="47.25549464073409" lon="-0.13468353159032553"><ele>74.2</ele><time>2026-04-19T16:24:49Z</time></trkpt><trkpt lat="47.255509490208524" lon="-0.13452224331952872"><ele>74.4</ele><time>2026-04-19T16:24:51Z</time></trkpt><trkpt lat="47.25553774606986" lon="-0.1343705496057804"><ele>74.6</ele><time>2026-04-19T16:24:53Z</time></trkpt><trkpt lat="47.25556216294179" lon="-0.134229488030411"><ele>74.8</ele><time>2026-04-19T16:24:55Z</time></trkpt><trkpt lat="47.255587648986655" lon="-0.13412819197736503"><ele>75.0</ele><time>2026-04-19T16:24:57Z</time></trkpt><trkpt lat="47.25560500653707" lon="-0.133972265028765"><ele>75.16666666666667</ele><time>2026-04-19T16:24:59Z</time></trkpt><trkpt lat="47.25561177280188" lon="-0.13385653104286274"><ele>75.33333333333333</ele><time>2026-04-19T16:25:01Z</time></trkpt><trkpt lat="47.25563275333837" lon="-0.13373498576740744"><ele>75.5</ele><time>2026-04-19T16:25:16.999Z</time></trkpt><trkpt lat="47.25563534787316" lon="-0.13362148876430116"><ele>75.66666666666666</ele><time>2026-04-19T16:25:18.999Z</time></trkpt><trkpt lat="47.25564994180684" lon="-0.133529073185876"><ele>75.83333333333333</ele><time>2026-04-19T16:25:21.999Z</time></trkpt><trkpt lat="47.255673660695024" lon="-0.1334312192014835"><ele>76.0</ele><time>2026-04-19T16:25:23.999Z</time></trkpt><trkpt lat="47.255685762852714" lon="-0.13332139616069533"><ele>76.39999999999999</ele><time>2026-04-19T16:25:25.999Z</time></trkpt><trkpt lat="47.25570674672363" lon="-0.13319815306194563"><ele>76.8</ele><time>2026-04-19T16:25:28.999Z</time></trkpt><trkpt lat="47.2557135235477" lon="-0.133099885096816"><ele>77.19999999999999</ele><time>2026-04-19T16:25:31.999Z</time></trkpt><trkpt lat="47.255619293833035" lon="-0.13309857272217723"><ele>77.6</ele><time>2026-04-19T16:25:39.999Z</time></trkpt><trkpt lat="47.2555078743738" lon="-0.13308707825941674"><ele>78.0</ele><time>2026-04-19T16:25:41.999Z</time></trkpt><trkpt lat="47.25541053025035" lon="-0.1330548443384078"><ele>78.0</ele><time>2026-04-19T16:25:43.999Z</time></trkpt><trkpt lat="47.25531607639516" lon="-0.1329618510796048"><ele>78.0</ele><time>2026-04-19T16:25:45.999Z</time></trkpt><trkpt lat="47.255242164358584" lon="-0.13287949837322272"><ele>78.0</ele><time>2026-04-19T16:25:48.999Z</time></trkpt><trkpt lat="47.255175997787234" lon="-0.13290830965143585"><ele>78.0</ele><time>2026-04-19T16:25:50.999Z</time></trkpt><trkpt lat="47.255092795770764" lon="-0.1328986081306473"><ele>78.0</ele><time>2026-04-19T16:25:52.999Z</time></trkpt><trkpt lat="47.2550294097092" lon="-0.13294890380080943"><ele>78.0</ele><time>2026-04-19T16:25:54.999Z</time></trkpt><trkpt lat="47.25499312949374" lon="-0.1328575387195408"><ele>78.0</ele><time>2026-04-19T16:25:57.999Z</time></trkpt><trkpt lat="47.25494534539705" lon="-0.1327510569183131"><ele>78.0</ele><time>2026-04-19T16:25:59.999Z</time></trkpt><trkpt lat="47.254921472083495" lon="-0.13265213287717356"><ele>78.0</ele><time>2026-04-19T16:26:01.999Z</time></trkpt><trkpt lat="47.25489788666257" lon="-0.13255027302291367"><ele>78.0</ele><time>2026-04-19T16:26:05Z</time></trkpt><trkpt lat="47.25488659234057" lon="-0.13245491728412276"><ele>78.0</ele><time>2026-04-19T16:26:08Z</time></trkpt><trkpt lat="47.2547865914385" lon="-0.1324477034719455"><ele>78.0</ele><time>2026-04-19T16:26:10Z</time></trkpt><trkpt lat="47.25471141637439" lon="-0.13250237721715075"><ele>78.16666666666667</ele><time>2026-04-19T16:26:12Z</time></trkpt><trkpt lat="47.25467746266691" lon="-0.1326277202172825"><ele>78.33333333333333</ele><time>2026-04-19T16:26:14Z</time></trkpt><trkpt lat="47.254664686971246" lon="-0.1327467977567979"><ele>78.5</ele><time>2026-04-19T16:26:15Z</time></trkpt><trkpt lat="47.25465023240961" lon="-0.13286560666274572"><ele>78.66666666666666</ele><time>2026-04-19T16:26:16Z</time></trkpt><trkpt lat="47.25463268022409" lon="-0.1330042903433919"><ele>78.83333333333333</ele><time>2026-04-19T16:26:18Z</time></trkpt><trkpt lat="47.2546149307826" lon="-0.13312742774416605"><ele>79.0</ele><time>2026-04-19T16:26:20Z</time></trkpt><trkpt lat="47.25460337972686" lon="-0.1332374010173309"><ele>79.0</ele><time>2026-04-19T16:26:21Z</time></trkpt><trkpt lat="47.25459437613326" lon="-0.1333882663232577"><ele>79.0</ele><time>2026-04-19T16:26:22Z</time></trkpt><trkpt lat="47.25457929995074" lon="-0.13354248823909282"><ele>79.0</ele><time>2026-04-19T16:26:23Z</time></trkpt><trkpt lat="47.25457238086218" lon="-0.1337268975327205"><ele>79.0</ele><time>2026-04-19T16:26:24Z</time></trkpt><trkpt lat="47.25456734917864" lon="-0.13387737861412305"><ele>79.0</ele><time>2026-04-19T16:26:25Z</time></trkpt><trkpt lat="47.2545472224273" lon="-0.13396973309465063"><ele>79.0</ele><time>2026-04-19T16:26:26Z</time></trkpt><trkpt lat="47.25453984267337" lon="-0.13413803456281603"><ele>79.0</ele><time>2026-04-19T16:26:28Z</time></trkpt><trkpt lat="47.254537118073756" lon="-0.13426416081032053"><ele>79.0</ele><time>2026-04-19T16:26:29Z</time></trkpt><trkpt lat="47.25452158138214" lon="-0.13437075195072706"><ele>79.0</ele><time>2026-04-19T16:26:30Z</time></trkpt><trkpt lat="47.254495698000156" lon="-0.13449684316975719"><ele>79.0</ele><time>2026-04-19T16:26:31Z</time></trkpt><trkpt lat="47.25447871944597" lon="-0.1346258950432395"><ele>79.0</ele><time>2026-04-19T16:26:32Z</time></trkpt><trkpt lat="47.25445380180354" lon="-0.13475349584976373"><ele>79.0</ele><time>2026-04-19T16:26:33Z</time></trkpt><trkpt lat="47.25442319771477" lon="-0.1348944245288213"><ele>79.0</ele><time>2026-04-19T16:26:34Z</time></trkpt><trkpt lat="47.25438495947218" lon="-0.13501691506045682"><ele>79.0</ele><time>2026-04-19T16:26:35Z</time></trkpt><trkpt lat="47.25434022650968" lon="-0.13510495102674705"><ele>79.0</ele><time>2026-04-19T16:26:37Z</time></trkpt><trkpt lat="47.25423949853117" lon="-0.1350235785715675"><ele>79.00000000000001</ele><time>2026-04-19T16:26:39Z</time></trkpt><trkpt lat="47.25417485770222" lon="-0.13496441247994476"><ele>79.0</ele><time>2026-04-19T16:26:40Z</time></trkpt><trkpt lat="47.25411774072532" lon="-0.13491154155577842"><ele>79.0</ele><time>2026-04-19T16:26:41Z</time></trkpt><trkpt lat="47.25404968113799" lon="-0.13483473363085766"><ele>79.0</ele><time>2026-04-19T16:26:42Z</time></trkpt><trkpt lat="47.25399762014035" lon="-0.13475311412737595"><ele>79.0</ele><time>2026-04-19T16:26:43Z</time></trkpt><trkpt lat="47.253959620010995" lon="-0.13467686987497804"><ele>79.00000000000001</ele><time>2026-04-19T16:26:44Z</time></trkpt><trkpt lat="47.25392239499811" lon="-0.13460070995880796"><ele>79.0</ele><time>2026-04-19T16:26:45Z</time></trkpt><trkpt lat="47.25383354124957" lon="-0.1344715618910403"><ele>79.0</ele><time>2026-04-19T16:26:47Z</time></trkpt><trkpt lat="47.253763871235456" lon="-0.1344056997279455"><ele>79.0</ele><time>2026-04-19T16:26:48Z</time></trkpt><trkpt lat="47.25370127765799" lon="-0.13433929102848813"><ele>79.0</ele><time>2026-04-19T16:26:49Z</time></trkpt><trkpt lat="47.25361950831406" lon="-0.13424110041263565"><ele>79.0</ele><time>2026-04-19T16:26:50Z</time></trkpt><trkpt lat="47.253502558096734" lon="-0.13416738806993678"><ele>79.0</ele><time>2026-04-19T16:26:51Z</time></trkpt><trkpt lat="47.25339285738268" lon="-0.1340888545331751"><ele>79.0</ele><time>2026-04-19T16:26:52Z</time></trkpt><trkpt lat="47.25327626206238" lon="-0.13402791933336775"><ele>79.0</ele><time>2026-04-19T16:26:54Z</time></trkpt><trkpt lat="47.25318896973825" lon="-0.13404055315235322"><ele>79.0</ele><time>2026-04-19T16:26:55Z</time></trkpt><trkpt lat="47.253100044848246" lon="-0.13407537554248056"><ele>79.0</ele><time>2026-04-19T16:26:56Z</time></trkpt><trkpt lat="47.2530049670125" lon="-0.13409059222010786"><ele>79.0</ele><time>2026-04-19T16:26:57Z</time></trkpt><trkpt lat="47.252926485206835" lon="-0.13408033129397037"><ele>78.4</ele><time>2026-04-19T16:26:58Z</time></trkpt><trkpt lat="47.252843082661144" lon="-0.1340582344605135"><ele>77.80000000000001</ele><time>2026-04-19T16:26:59Z</time></trkpt><trkpt lat="47.25277453844432" lon="-0.134024666663817"><ele>77.19999999999999</ele><time>2026-04-19T16:27:00Z</time></trkpt><trkpt lat="47.25268034238817" lon="-0.13392681431126707"><ele>76.6</ele><time>2026-04-19T16:27:02Z</time></trkpt><trkpt lat="47.25260880198831" lon="-0.1338045883165654"><ele>76.0</ele><time>2026-04-19T16:27:03Z</time></trkpt><trkpt lat="47.25254355909243" lon="-0.13370900944148692"><ele>76.0</ele><time>2026-04-19T16:27:04Z</time></trkpt><trkpt lat="47.2525040668319" lon="-0.13363085709183734"><ele>76.0</ele><time>2026-04-19T16:27:05Z</time></trkpt><trkpt lat="47.25245502021064" lon="-0.1335226377324527"><ele>76.0</ele><time>2026-04-19T16:27:06Z</time></trkpt><trkpt lat="47.25242053650416" lon="-0.13339869103715152"><ele>76.0</ele><time>2026-04-19T16:27:07Z</time></trkpt><trkpt lat="47.2523989148846" lon="-0.1332641161965175"><ele>76.0</ele><time>2026-04-19T16:27:08Z</time></trkpt><trkpt lat="47.25236067216297" lon="-0.13318044388001843"><ele>76.0</ele><time>2026-04-19T16:27:09Z</time></trkpt><trkpt lat="47.25230677841804" lon="-0.13309524554507743"><ele>75.83333333333333</ele><time>2026-04-19T16:27:10Z</time></trkpt><trkpt lat="47.25226540724788" lon="-0.13299382886405722"><ele>75.66666666666666</ele><time>2026-04-19T16:27:11Z</time></trkpt><trkpt lat="47.25223336890565" lon="-0.13287803887353372"><ele>75.5</ele><time>2026-04-19T16:27:12Z</time></trkpt><trkpt lat="47.25217974852085" lon="-0.13274954729042435"><ele>75.33333333333333</ele><time>2026-04-19T16:27:13Z</time></trkpt><trkpt lat="47.25212894930541" lon="-0.13265982025356035"><ele>75.16666666666667</ele><time>2026-04-19T16:27:14Z</time></trkpt><trkpt lat="47.25206981676008" lon="-0.13258317338065467"><ele>75.0</ele><time>2026-04-19T16:27:15Z</time></trkpt><trkpt lat="47.252015719427625" lon="-0.13253152999212217"><ele>75.0</ele><time>2026-04-19T16:27:16Z</time></trkpt><trkpt lat="47.25191608490264" lon="-0.13249123269239096"><ele>75.0</ele><time>2026-04-19T16:27:18Z</time></trkpt><trkpt lat="47.25183393462462" lon="-0.1324510540017121"><ele>75.0</ele><time>2026-04-19T16:27:18.999Z</time></trkpt><trkpt lat="47.25172020583444" lon="-0.1324251809297695"><ele>75.0</ele><time>2026-04-19T16:27:19.999Z</time></trkpt><trkpt lat="47.25159260236498" lon="-0.1323812989115574"><ele>75.0</ele><time>2026-04-19T16:27:20.999Z</time></trkpt><trkpt lat="47.25149299410612" lon="-0.1323506757396605"><ele>74.83333333333333</ele><time>2026-04-19T16:27:21.999Z</time></trkpt><trkpt lat="47.25141624272521" lon="-0.13232479785473336"><ele>74.66666666666667</ele><time>2026-04-19T16:27:22.999Z</time></trkpt><trkpt lat="47.251332557710164" lon="-0.13227737212772894"><ele>74.5</ele><time>2026-04-19T16:27:23.999Z</time></trkpt><trkpt lat="47.25126368588747" lon="-0.1322336788647068"><ele>74.33333333333334</ele><time>2026-04-19T16:27:24.999Z</time></trkpt><trkpt lat="47.25119354574469" lon="-0.1321785769634384"><ele>74.16666666666667</ele><time>2026-04-19T16:27:25.999Z</time></trkpt><trkpt lat="47.25109761598004" lon="-0.13210957149033012"><ele>74.0</ele><time>2026-04-19T16:27:27.999Z</time></trkpt><trkpt lat="47.25103852620236" lon="-0.13204700369665118"><ele>74.0</ele><time>2026-04-19T16:27:28.999Z</time></trkpt><trkpt lat="47.25097613566001" lon="-0.13196396721577336"><ele>74.0</ele><time>2026-04-19T16:27:29.999Z</time></trkpt><trkpt lat="47.25091182967992" lon="-0.13189191296910652"><ele>74.0</ele><time>2026-04-19T16:27:30.999Z</time></trkpt><trkpt lat="47.250854938305054" lon="-0.1318428738582056"><ele>74.0</ele><time>2026-04-19T16:27:31.999Z</time></trkpt><trkpt lat="47.2507998077616" lon="-0.13179028322553568"><ele>74.0</ele><time>2026-04-19T16:27:32.999Z</time></trkpt><trkpt lat="47.25072842225677" lon="-0.13169979110770516"><ele>74.0</ele><time>2026-04-19T16:27:33.999Z</time></trkpt><trkpt lat="47.25066303659807" lon="-0.1316023111089399"><ele>73.83333333333334</ele><time>2026-04-19T16:27:34.999Z</time></trkpt><trkpt lat="47.25063006289767" lon="-0.13151396600276846"><ele>73.66666666666667</ele><time>2026-04-19T16:27:35.999Z</time></trkpt><trkpt lat="47.250600589105865" lon="-0.13142483776012323"><ele>73.5</ele><time>2026-04-19T16:27:36.999Z</time></trkpt><trkpt lat="47.2505394921783" lon="-0.13131807174095636"><ele>73.33333333333333</ele><time>2026-04-19T16:27:37.999Z</time></trkpt><trkpt lat="47.25045720702189" lon="-0.13121325877859838"><ele>73.16666666666666</ele><time>2026-04-19T16:27:38.999Z</time></trkpt><trkpt lat="47.25037340368863" lon="-0.13111139466336258"><ele>73.0</ele><time>2026-04-19T16:27:39.999Z</time></trkpt><trkpt lat="47.25029082068184" lon="-0.13100209642771615"><ele>73.0</ele><time>2026-04-19T16:27:40.999Z</time></trkpt><trkpt lat="47.25021814683207" lon="-0.13092544213990331"><ele>73.0</ele><time>2026-04-19T16:27:41.999Z</time></trkpt><trkpt lat="47.250150485352314" lon="-0.1308418474433445"><ele>73.0</ele><time>2026-04-19T16:27:42.999Z</time></trkpt><trkpt lat="47.2501022665062" lon="-0.1307653824920142"><ele>73.0</ele><time>2026-04-19T16:27:43.999Z</time></trkpt><trkpt lat="47.250052779875375" lon="-0.13062627301632976"><ele>73.0</ele><time>2026-04-19T16:27:45.999Z</time></trkpt><trkpt lat="47.25005458669648" lon="-0.13051562851020151"><ele>73.0</ele><time>2026-04-19T16:27:46.999Z</time></trkpt><trkpt lat="47.250032990875745" lon="-0.1303785347929327"><ele>73.16666666666666</ele><time>2026-04-19T16:27:47.999Z</time></trkpt><trkpt lat="47.25001012510831" lon="-0.13025084768706222"><ele>73.33333333333333</ele><time>2026-04-19T16:27:48.999Z</time></trkpt><trkpt lat="47.249989902067725" lon="-0.13015463974057545"><ele>73.5</ele><time>2026-04-19T16:27:49.999Z</time></trkpt><trkpt lat="47.24997805174145" lon="-0.13004649894494355"><ele>73.66666666666667</ele><time>2026-04-19T16:27:50.999Z</time></trkpt><trkpt lat="47.2499754911052" lon="-0.1299202012840619"><ele>73.83333333333334</ele><time>2026-04-19T16:27:51.999Z</time></trkpt><trkpt lat="47.249982598027174" lon="-0.12979123124071915"><ele>74.0</ele><time>2026-04-19T16:27:52.999Z</time></trkpt><trkpt lat="47.24998439693442" lon="-0.1296595595786365"><ele>74.60000000000001</ele><time>2026-04-19T16:27:53.999Z</time></trkpt><trkpt lat="47.24997830882452" lon="-0.12950364609641887"><ele>75.2</ele><time>2026-04-19T16:27:54.999Z</time></trkpt><trkpt lat="47.24995572979062" lon="-0.1293717274455265"><ele>75.80000000000001</ele><time>2026-04-19T16:27:55.999Z</time></trkpt><trkpt lat="47.24991842499122" lon="-0.1292304682073375"><ele>76.4</ele><time>2026-04-19T16:27:56.999Z</time></trkpt><trkpt lat="47.24986958305104" lon="-0.129086503769451"><ele>77.0</ele><time>2026-04-19T16:27:57.999Z</time></trkpt><trkpt lat="47.249803733871445" lon="-0.12894726597722025"><ele>76.2</ele><time>2026-04-19T16:27:58.999Z</time></trkpt><trkpt lat="47.24975113160838" lon="-0.1288009948490002"><ele>75.4</ele><time>2026-04-19T16:27:59.999Z</time></trkpt><trkpt lat="47.249705452114775" lon="-0.12866895670722725"><ele>74.6</ele><time>2026-04-19T16:28:00.999Z</time></trkpt><trkpt lat="47.24967350707634" lon="-0.12856012942641226"><ele>73.8</ele><time>2026-04-19T16:28:01.999Z</time></trkpt><trkpt lat="47.24962582967768" lon="-0.12842279964246625"><ele>73.0</ele><time>2026-04-19T16:28:02.999Z</time></trkpt><trkpt lat="47.24956827759959" lon="-0.12828851333698338"><ele>73.5</ele><time>2026-04-19T16:28:03.999Z</time></trkpt><trkpt lat="47.249505762228836" lon="-0.12813559568322533"><ele>74.0</ele><time>2026-04-19T16:28:04.999Z</time></trkpt><trkpt lat="47.24944338414756" lon="-0.12798314575943648"><ele>74.5</ele><time>2026-04-19T16:28:05.999Z</time></trkpt><trkpt lat="47.249387581249074" lon="-0.12784191331848443"><ele>75.0</ele><time>2026-04-19T16:28:06.999Z</time></trkpt><trkpt lat="47.24933910352435" lon="-0.1277163022204037"><ele>75.0</ele><time>2026-04-19T16:28:07.999Z</time></trkpt><trkpt lat="47.249292749882166" lon="-0.12760583803837297"><ele>75.0</ele><time>2026-04-19T16:28:08.999Z</time></trkpt><trkpt lat="47.249261584268766" lon="-0.12750108515560346"><ele>75.0</ele><time>2026-04-19T16:28:09.999Z</time></trkpt><trkpt lat="47.24922305401047" lon="-0.12733655560106139"><ele>75.0</ele><time>2026-04-19T16:28:11Z</time></trkpt><trkpt lat="47.249179913413265" lon="-0.12718327959592987"><ele>75.0</ele><time>2026-04-19T16:28:12Z</time></trkpt><trkpt lat="47.24915192200416" lon="-0.1270371494867849"><ele>75.16666666666667</ele><time>2026-04-19T16:28:13Z</time></trkpt><trkpt lat="47.249132826641365" lon="-0.126937687141333"><ele>75.33333333333333</ele><time>2026-04-19T16:28:14Z</time></trkpt><trkpt lat="47.24912870649663" lon="-0.12684404676055017"><ele>75.5</ele><time>2026-04-19T16:28:15Z</time></trkpt><trkpt lat="47.24914743081432" lon="-0.12673663271643856"><ele>75.66666666666666</ele><time>2026-04-19T16:28:16Z</time></trkpt><trkpt lat="47.249174126133084" lon="-0.12657424863593594"><ele>75.83333333333333</ele><time>2026-04-19T16:28:17Z</time></trkpt><trkpt lat="47.249196510780955" lon="-0.12643104470981115"><ele>76.0</ele><time>2026-04-19T16:28:18Z</time></trkpt><trkpt lat="47.24923307231626" lon="-0.12631357325487166"><ele>76.0</ele><time>2026-04-19T16:28:19Z</time></trkpt><trkpt lat="47.2493008268036" lon="-0.12619626063497777"><ele>76.0</ele><time>2026-04-19T16:28:20Z</time></trkpt><trkpt lat="47.249366791207926" lon="-0.12605485682228143"><ele>76.0</ele><time>2026-04-19T16:28:21Z</time></trkpt><trkpt lat="47.24943601022022" lon="-0.12593280619760755"><ele>76.0</ele><time>2026-04-19T16:28:22Z</time></trkpt><trkpt lat="47.24949669936474" lon="-0.12583508269188132"><ele>76.0</ele><time>2026-04-19T16:28:23Z</time></trkpt><trkpt lat="47.2495757358085" lon="-0.1257654036164412"><ele>76.0</ele><time>2026-04-19T16:28:24Z</time></trkpt><trkpt lat="47.24967900164601" lon="-0.1257076656957659"><ele>76.0</ele><time>2026-04-19T16:28:25Z</time></trkpt><trkpt lat="47.24980133608866" lon="-0.12565333815989183"><ele>76.0</ele><time>2026-04-19T16:28:26Z</time></trkpt><trkpt lat="47.24992648913967" lon="-0.1255962504837383"><ele>76.0</ele><time>2026-04-19T16:28:27Z</time></trkpt><trkpt lat="47.2500569415448" lon="-0.1255369474460537"><ele>76.0</ele><time>2026-04-19T16:28:28Z</time></trkpt><trkpt lat="47.25018369251236" lon="-0.1254645674727381"><ele>76.0</ele><time>2026-04-19T16:28:29Z</time></trkpt><trkpt lat="47.25029721645087" lon="-0.1254098354021421"><ele>76.0</ele><time>2026-04-19T16:28:30Z</time></trkpt><trkpt lat="47.25041989148797" lon="-0.12536923560524976"><ele>76.0</ele><time>2026-04-19T16:28:31Z</time></trkpt><trkpt lat="47.25053512770812" lon="-0.1253399111605741"><ele>76.0</ele><time>2026-04-19T16:28:32Z</time></trkpt><trkpt lat="47.25065417365545" lon="-0.12531051780132832"><ele>76.0</ele><time>2026-04-19T16:28:33Z</time></trkpt><trkpt lat="47.25075697638445" lon="-0.1252756347819826"><ele>76.0</ele><time>2026-04-19T16:28:34Z</time></trkpt><trkpt lat="47.250862119927724" lon="-0.12524650645555913"><ele>76.0</ele><time>2026-04-19T16:28:35Z</time></trkpt><trkpt lat="47.25095391983692" lon="-0.12522043550145315"><ele>76.0</ele><time>2026-04-19T16:28:36Z</time></trkpt><trkpt lat="47.25104321638191" lon="-0.12521054442940557"><ele>76.0</ele><time>2026-04-19T16:28:37Z</time></trkpt><trkpt lat="47.25112321189525" lon="-0.12519633621948528"><ele>76.0</ele><time>2026-04-19T16:28:38Z</time></trkpt><trkpt lat="47.251192470615386" lon="-0.1251630574013697"><ele>76.0</ele><time>2026-04-19T16:28:39Z</time></trkpt><trkpt lat="47.25127367481085" lon="-0.12510648265024246"><ele>76.0</ele><time>2026-04-19T16:28:40Z</time></trkpt><trkpt lat="47.25136994919954" lon="-0.12505507354685108"><ele>76.0</ele><time>2026-04-19T16:28:41Z</time></trkpt><trkpt lat="47.25145852217518" lon="-0.125004045540003"><ele>76.0</ele><time>2026-04-19T16:28:42Z</time></trkpt><trkpt lat="47.2515645891547" lon="-0.12491973565908793"><ele>76.0</ele><time>2026-04-19T16:28:43Z</time></trkpt><trkpt lat="47.25167376328162" lon="-0.12487414620117725"><ele>76.0</ele><time>2026-04-19T16:28:44Z</time></trkpt><trkpt lat="47.25175781044524" lon="-0.12482955163760692"><ele>76.0</ele><time>2026-04-19T16:28:45Z</time></trkpt><trkpt lat="47.251838162767726" lon="-0.1247678280302849"><ele>76.0</ele><time>2026-04-19T16:28:46Z</time></trkpt><trkpt lat="47.251908366907806" lon="-0.1247248642909495"><ele>76.0</ele><time>2026-04-19T16:28:47Z</time></trkpt><trkpt lat="47.25205605119309" lon="-0.12487033837177157"><ele>75.8</ele><time>2026-04-19T16:28:49Z</time></trkpt><trkpt lat="47.25212336847113" lon="-0.12496366977925429"><ele>75.6</ele><time>2026-04-19T16:28:50Z</time></trkpt><trkpt lat="47.2521945920329" lon="-0.12507912063922363"><ele>75.4</ele><time>2026-04-19T16:28:51Z</time></trkpt><trkpt lat="47.25227151048128" lon="-0.12521366281893415"><ele>75.2</ele><time>2026-04-19T16:28:52Z</time></trkpt><trkpt lat="47.25235648079935" lon="-0.12534912193484116"><ele>75.0</ele><time>2026-04-19T16:28:53Z</time></trkpt><trkpt lat="47.2524459392664" lon="-0.12545618753544854"><ele>75.0</ele><time>2026-04-19T16:28:54Z</time></trkpt><trkpt lat="47.25251969034496" lon="-0.12556980614020294"><ele>75.0</ele><time>2026-04-19T16:28:55Z</time></trkpt><trkpt lat="47.252586837773414" lon="-0.12567325139761998"><ele>75.0</ele><time>2026-04-19T16:28:56Z</time></trkpt><trkpt lat="47.25265354091465" lon="-0.1257684737770792"><ele>75.0</ele><time>2026-04-19T16:28:57Z</time></trkpt><trkpt lat="47.25271186288899" lon="-0.12584057202034868"><ele>75.0</ele><time>2026-04-19T16:28:58Z</time></trkpt><trkpt lat="47.25276962473713" lon="-0.12589129067296684"><ele>75.0</ele><time>2026-04-19T16:28:59Z</time></trkpt><trkpt lat="47.252892691570594" lon="-0.12592392374703368"><ele>75.16666666666667</ele><time>2026-04-19T16:29:01Z</time></trkpt><trkpt lat="47.25300018490317" lon="-0.12588726060748603"><ele>75.33333333333333</ele><time>2026-04-19T16:29:03Z</time></trkpt><trkpt lat="47.253064140975425" lon="-0.1258100654404617"><ele>75.5</ele><time>2026-04-19T16:29:05Z</time></trkpt><trkpt lat="47.2531175898188" lon="-0.12575570190939855"><ele>75.66666666666666</ele><time>2026-04-19T16:29:07Z</time></trkpt><trkpt lat="47.25316644430492" lon="-0.1256791294232334"><ele>75.83333333333333</ele><time>2026-04-19T16:29:08Z</time></trkpt><trkpt lat="47.253253709711394" lon="-0.1255913095230343"><ele>76.0</ele><time>2026-04-19T16:29:09Z</time></trkpt><trkpt lat="47.253342830995635" lon="-0.1254615895926752"><ele>75.25</ele><time>2026-04-19T16:29:10Z</time></trkpt><trkpt lat="47.25343830289892" lon="-0.1253188444716348"><ele>74.5</ele><time>2026-04-19T16:29:11Z</time></trkpt><trkpt lat="47.25353166429064" lon="-0.12516024730253403"><ele>73.75</ele><time>2026-04-19T16:29:12Z</time></trkpt><trkpt lat="47.253645125463436" lon="-0.12500861949936415"><ele>73.0</ele><time>2026-04-19T16:29:13Z</time></trkpt><trkpt lat="47.2537595909514" lon="-0.12485205295188949"><ele>73.0</ele><time>2026-04-19T16:29:14Z</time></trkpt><trkpt lat="47.25387469773727" lon="-0.12472099316235737"><ele>73.0</ele><time>2026-04-19T16:29:15Z</time></trkpt><trkpt lat="47.25399516546806" lon="-0.12459426667306868"><ele>73.0</ele><time>2026-04-19T16:29:16Z</time></trkpt><trkpt lat="47.254103008105865" lon="-0.1245103009261576"><ele>73.0</ele><time>2026-04-19T16:29:17Z</time></trkpt><trkpt lat="47.25420251383887" lon="-0.12442906222988559"><ele>72.83333333333333</ele><time>2026-04-19T16:29:18Z</time></trkpt><trkpt lat="47.25429532902128" lon="-0.12437216859511942"><ele>72.66666666666666</ele><time>2026-04-19T16:29:19Z</time></trkpt><trkpt lat="47.25435825336221" lon="-0.12430815276532495"><ele>72.5</ele><time>2026-04-19T16:29:20Z</time></trkpt><trkpt lat="47.25442435308802" lon="-0.12426139633720522"><ele>72.33333333333333</ele><time>2026-04-19T16:29:21Z</time></trkpt><trkpt lat="47.25450112100596" lon="-0.12423287161587804"><ele>72.16666666666667</ele><time>2026-04-19T16:29:22Z</time></trkpt><trkpt lat="47.25455981966396" lon="-0.12416984293780803"><ele>72.0</ele><time>2026-04-19T16:29:23Z</time></trkpt><trkpt lat="47.254654601411225" lon="-0.12413429154681735"><ele>72.0</ele><time>2026-04-19T16:29:24.999Z</time></trkpt><trkpt lat="47.25473217588334" lon="-0.12405340477869077"><ele>74.0</ele><time>2026-04-19T16:29:27.999Z</time></trkpt><trkpt lat="47.254770839806035" lon="-0.12392619612510605"><ele>74.0</ele><time>2026-04-19T16:29:29.999Z</time></trkpt><trkpt lat="47.254951404111054" lon="-0.1240464427204577"><ele>73.0</ele><time>2026-04-19T16:30:06.999Z</time></trkpt></trkseg></trk></gpx>